<?xml version="1.0" encoding="UTF-8" standalone="no" ?>
<gpx xmlns="http://www.topografix.com/GPX/1/1" xmlns:xsi="http://www.w3.org/2001/XMLSchema-instance" xsi:schemaLocation="http://www.topografix.com/GPX/1/1 http://www.topografix.com/GPX/1/1/gpx.xsd" version="1.1" creator="VisuGPX - https://www.visugpx.com">
  <metadata>
    <name>sortie longue 1ére partie 6000D</name>
    <desc><![CDATA[macot les esserts longefoy montalbert aime 2000 plagne centre plagne 1800 la roche macot
]]></desc>
  </metadata>
  <trk>
    <name><![CDATA[1er partie 6000]]></name>
    <trkseg>
      <trkpt lat="45.55406" lon="6.67747">
        <ele>911.20001220703</ele>
        <time>2012-07-01T05:06:00Z</time>
      </trkpt>
      <trkpt lat="45.55406" lon="6.67741">
        <ele>911.20001220703</ele>
        <time>2012-07-01T05:06:02Z</time>
      </trkpt>
      <trkpt lat="45.55406" lon="6.67729">
        <ele>911.20001220703</ele>
        <time>2012-07-01T05:06:05Z</time>
      </trkpt>
      <trkpt lat="45.55409" lon="6.67721">
        <ele>911.20001220703</ele>
        <time>2012-07-01T05:06:07Z</time>
      </trkpt>
      <trkpt lat="45.55412" lon="6.67714">
        <ele>911.20001220703</ele>
        <time>2012-07-01T05:06:09Z</time>
      </trkpt>
      <trkpt lat="45.55413" lon="6.67711">
        <ele>911.20001220703</ele>
        <time>2012-07-01T05:06:10Z</time>
      </trkpt>
      <trkpt lat="45.55414" lon="6.67709">
        <ele>911.20001220703</ele>
        <time>2012-07-01T05:06:13Z</time>
      </trkpt>
      <trkpt lat="45.5542" lon="6.67699">
        <ele>911.20001220703</ele>
        <time>2012-07-01T05:06:21Z</time>
      </trkpt>
      <trkpt lat="45.55427" lon="6.67686">
        <ele>911.20001220703</ele>
        <time>2012-07-01T05:06:25Z</time>
      </trkpt>
      <trkpt lat="45.55434" lon="6.6766">
        <ele>911.20001220703</ele>
        <time>2012-07-01T05:06:31Z</time>
      </trkpt>
      <trkpt lat="45.55435" lon="6.67644">
        <ele>911.20001220703</ele>
        <time>2012-07-01T05:06:35Z</time>
      </trkpt>
      <trkpt lat="45.55434" lon="6.67614">
        <ele>911.20001220703</ele>
        <time>2012-07-01T05:06:43Z</time>
      </trkpt>
      <trkpt lat="45.55429" lon="6.67586">
        <ele>911.20001220703</ele>
        <time>2012-07-01T05:06:51Z</time>
      </trkpt>
      <trkpt lat="45.55425" lon="6.67566">
        <ele>909</ele>
        <time>2012-07-01T05:06:57Z</time>
      </trkpt>
      <trkpt lat="45.55422" lon="6.67545">
        <ele>908</ele>
        <time>2012-07-01T05:07:03Z</time>
      </trkpt>
      <trkpt lat="45.55415" lon="6.67491">
        <ele>905.79998779297</ele>
        <time>2012-07-01T05:07:18Z</time>
      </trkpt>
      <trkpt lat="45.55412" lon="6.67485">
        <ele>905.79998779297</ele>
        <time>2012-07-01T05:07:20Z</time>
      </trkpt>
      <trkpt lat="45.55404" lon="6.67461">
        <ele>904.79998779297</ele>
        <time>2012-07-01T05:07:28Z</time>
      </trkpt>
      <trkpt lat="45.55402" lon="6.67448">
        <ele>903.59997558594</ele>
        <time>2012-07-01T05:07:32Z</time>
      </trkpt>
      <trkpt lat="45.55401" lon="6.67415">
        <ele>903.59997558594</ele>
        <time>2012-07-01T05:07:40Z</time>
      </trkpt>
      <trkpt lat="45.55402" lon="6.67413">
        <ele>902.40002441406</ele>
        <time>2012-07-01T05:07:41Z</time>
      </trkpt>
      <trkpt lat="45.55403" lon="6.67407">
        <ele>902.40002441406</ele>
        <time>2012-07-01T05:07:44Z</time>
      </trkpt>
      <trkpt lat="45.55402" lon="6.67396">
        <ele>901.40002441406</ele>
        <time>2012-07-01T05:07:48Z</time>
      </trkpt>
      <trkpt lat="45.55403" lon="6.67374">
        <ele>901.40002441406</ele>
        <time>2012-07-01T05:07:54Z</time>
      </trkpt>
      <trkpt lat="45.55399" lon="6.67333">
        <ele>899.20001220703</ele>
        <time>2012-07-01T05:08:05Z</time>
      </trkpt>
      <trkpt lat="45.55397" lon="6.67324">
        <ele>899.20001220703</ele>
        <time>2012-07-01T05:08:08Z</time>
      </trkpt>
      <trkpt lat="45.55381" lon="6.67285">
        <ele>898.20001220703</ele>
        <time>2012-07-01T05:08:20Z</time>
      </trkpt>
      <trkpt lat="45.55379" lon="6.67278">
        <ele>897.20001220703</ele>
        <time>2012-07-01T05:08:22Z</time>
      </trkpt>
      <trkpt lat="45.55365" lon="6.67248">
        <ele>897.20001220703</ele>
        <time>2012-07-01T05:08:31Z</time>
      </trkpt>
      <trkpt lat="45.55364" lon="6.67245">
        <ele>896.20001220703</ele>
        <time>2012-07-01T05:08:32Z</time>
      </trkpt>
      <trkpt lat="45.55348" lon="6.67218">
        <ele>895.20001220703</ele>
        <time>2012-07-01T05:08:42Z</time>
      </trkpt>
      <trkpt lat="45.55346" lon="6.67214">
        <ele>895.20001220703</ele>
        <time>2012-07-01T05:08:43Z</time>
      </trkpt>
      <trkpt lat="45.55309" lon="6.67141">
        <ele>892.79998779297</ele>
        <time>2012-07-01T05:09:08Z</time>
      </trkpt>
      <trkpt lat="45.55307" lon="6.67138">
        <ele>892.79998779297</ele>
        <time>2012-07-01T05:09:09Z</time>
      </trkpt>
      <trkpt lat="45.55294" lon="6.67116">
        <ele>891.79998779297</ele>
        <time>2012-07-01T05:09:17Z</time>
      </trkpt>
      <trkpt lat="45.55285" lon="6.67101">
        <ele>890.59997558594</ele>
        <time>2012-07-01T05:09:22Z</time>
      </trkpt>
      <trkpt lat="45.55266" lon="6.67068">
        <ele>888.40002441406</ele>
        <time>2012-07-01T05:09:34Z</time>
      </trkpt>
      <trkpt lat="45.55264" lon="6.67065">
        <ele>888.40002441406</ele>
        <time>2012-07-01T05:09:35Z</time>
      </trkpt>
      <trkpt lat="45.55253" lon="6.67046">
        <ele>887.40002441406</ele>
        <time>2012-07-01T05:09:42Z</time>
      </trkpt>
      <trkpt lat="45.5524" lon="6.67027">
        <ele>886.20001220703</ele>
        <time>2012-07-01T05:09:49Z</time>
      </trkpt>
      <trkpt lat="45.55224" lon="6.67009">
        <ele>885</ele>
        <time>2012-07-01T05:09:57Z</time>
      </trkpt>
      <trkpt lat="45.552" lon="6.66983">
        <ele>882.59997558594</ele>
        <time>2012-07-01T05:10:08Z</time>
      </trkpt>
      <trkpt lat="45.55196" lon="6.66978">
        <ele>882.59997558594</ele>
        <time>2012-07-01T05:10:10Z</time>
      </trkpt>
      <trkpt lat="45.55175" lon="6.66953">
        <ele>881.40002441406</ele>
        <time>2012-07-01T05:10:21Z</time>
      </trkpt>
      <trkpt lat="45.55169" lon="6.66945">
        <ele>880.40002441406</ele>
        <time>2012-07-01T05:10:24Z</time>
      </trkpt>
      <trkpt lat="45.55156" lon="6.6692">
        <ele>879.20001220703</ele>
        <time>2012-07-01T05:10:33Z</time>
      </trkpt>
      <trkpt lat="45.55155" lon="6.66917">
        <ele>879.20001220703</ele>
        <time>2012-07-01T05:10:34Z</time>
      </trkpt>
      <trkpt lat="45.55145" lon="6.66896">
        <ele>878</ele>
        <time>2012-07-01T05:10:41Z</time>
      </trkpt>
      <trkpt lat="45.55137" lon="6.66881">
        <ele>877</ele>
        <time>2012-07-01T05:10:46Z</time>
      </trkpt>
      <trkpt lat="45.55114" lon="6.66831">
        <ele>873.79998779297</ele>
        <time>2012-07-01T05:11:03Z</time>
      </trkpt>
      <trkpt lat="45.55109" lon="6.66822">
        <ele>873.79998779297</ele>
        <time>2012-07-01T05:11:06Z</time>
      </trkpt>
      <trkpt lat="45.55099" lon="6.66802">
        <ele>871.59997558594</ele>
        <time>2012-07-01T05:11:13Z</time>
      </trkpt>
      <trkpt lat="45.55095" lon="6.66796">
        <ele>871.59997558594</ele>
        <time>2012-07-01T05:11:15Z</time>
      </trkpt>
      <trkpt lat="45.55086" lon="6.66776">
        <ele>870.40002441406</ele>
        <time>2012-07-01T05:11:22Z</time>
      </trkpt>
      <trkpt lat="45.55081" lon="6.66764">
        <ele>869.40002441406</ele>
        <time>2012-07-01T05:11:26Z</time>
      </trkpt>
      <trkpt lat="45.55076" lon="6.66755">
        <ele>868.40002441406</ele>
        <time>2012-07-01T05:11:29Z</time>
      </trkpt>
      <trkpt lat="45.55069" lon="6.66741">
        <ele>867.20001220703</ele>
        <time>2012-07-01T05:11:34Z</time>
      </trkpt>
      <trkpt lat="45.55053" lon="6.66709">
        <ele>865.20001220703</ele>
        <time>2012-07-01T05:11:45Z</time>
      </trkpt>
      <trkpt lat="45.55041" lon="6.66676">
        <ele>864</ele>
        <time>2012-07-01T05:11:55Z</time>
      </trkpt>
      <trkpt lat="45.5504" lon="6.66674">
        <ele>863</ele>
        <time>2012-07-01T05:11:56Z</time>
      </trkpt>
      <trkpt lat="45.55036" lon="6.66654">
        <ele>862</ele>
        <time>2012-07-01T05:12:02Z</time>
      </trkpt>
      <trkpt lat="45.55035" lon="6.66644">
        <ele>861</ele>
        <time>2012-07-01T05:12:05Z</time>
      </trkpt>
      <trkpt lat="45.55035" lon="6.66631">
        <ele>859.79998779297</ele>
        <time>2012-07-01T05:12:09Z</time>
      </trkpt>
      <trkpt lat="45.55035" lon="6.66628">
        <ele>858.59997558594</ele>
        <time>2012-07-01T05:12:10Z</time>
      </trkpt>
      <trkpt lat="45.55036" lon="6.66613">
        <ele>856</ele>
        <time>2012-07-01T05:12:17Z</time>
      </trkpt>
      <trkpt lat="45.55036" lon="6.66612">
        <ele>856</ele>
        <time>2012-07-01T05:12:21Z</time>
      </trkpt>
      <trkpt lat="45.55036" lon="6.66613">
        <ele>856</ele>
        <time>2012-07-01T05:12:34Z</time>
      </trkpt>
      <trkpt lat="45.55036" lon="6.66613">
        <ele>856</ele>
        <time>2012-07-01T05:12:46Z</time>
      </trkpt>
      <trkpt lat="45.55034" lon="6.66612">
        <ele>856</ele>
        <time>2012-07-01T05:12:57Z</time>
      </trkpt>
      <trkpt lat="45.55034" lon="6.66612">
        <ele>856</ele>
        <time>2012-07-01T05:12:58Z</time>
      </trkpt>
      <trkpt lat="45.55034" lon="6.66608">
        <ele>856</ele>
        <time>2012-07-01T05:13:04Z</time>
      </trkpt>
      <trkpt lat="45.55033" lon="6.66601">
        <ele>856</ele>
        <time>2012-07-01T05:13:07Z</time>
      </trkpt>
      <trkpt lat="45.55029" lon="6.66581">
        <ele>856</ele>
        <time>2012-07-01T05:13:13Z</time>
      </trkpt>
      <trkpt lat="45.55025" lon="6.66568">
        <ele>856</ele>
        <time>2012-07-01T05:13:18Z</time>
      </trkpt>
      <trkpt lat="45.55019" lon="6.66545">
        <ele>856</ele>
        <time>2012-07-01T05:13:25Z</time>
      </trkpt>
      <trkpt lat="45.55008" lon="6.66513">
        <ele>854.79998779297</ele>
        <time>2012-07-01T05:13:35Z</time>
      </trkpt>
      <trkpt lat="45.55004" lon="6.66503">
        <ele>853.59997558594</ele>
        <time>2012-07-01T05:13:38Z</time>
      </trkpt>
      <trkpt lat="45.55" lon="6.66474">
        <ele>852.59997558594</ele>
        <time>2012-07-01T05:13:46Z</time>
      </trkpt>
      <trkpt lat="45.55" lon="6.66471">
        <ele>852.59997558594</ele>
        <time>2012-07-01T05:13:47Z</time>
      </trkpt>
      <trkpt lat="45.54999" lon="6.66425">
        <ele>851.40002441406</ele>
        <time>2012-07-01T05:13:59Z</time>
      </trkpt>
      <trkpt lat="45.55" lon="6.66421">
        <ele>850.20001220703</ele>
        <time>2012-07-01T05:14:00Z</time>
      </trkpt>
      <trkpt lat="45.55004" lon="6.66402">
        <ele>849</ele>
        <time>2012-07-01T05:14:05Z</time>
      </trkpt>
      <trkpt lat="45.5501" lon="6.66385">
        <ele>848</ele>
        <time>2012-07-01T05:14:10Z</time>
      </trkpt>
      <trkpt lat="45.55039" lon="6.66336">
        <ele>844.59997558594</ele>
        <time>2012-07-01T05:14:27Z</time>
      </trkpt>
      <trkpt lat="45.55044" lon="6.66326">
        <ele>844.59997558594</ele>
        <time>2012-07-01T05:14:30Z</time>
      </trkpt>
      <trkpt lat="45.55056" lon="6.66306">
        <ele>843.40002441406</ele>
        <time>2012-07-01T05:14:37Z</time>
      </trkpt>
      <trkpt lat="45.55061" lon="6.66296">
        <ele>842.40002441406</ele>
        <time>2012-07-01T05:14:40Z</time>
      </trkpt>
      <trkpt lat="45.55069" lon="6.66286">
        <ele>841</ele>
        <time>2012-07-01T05:14:44Z</time>
      </trkpt>
      <trkpt lat="45.55079" lon="6.66273">
        <ele>841</ele>
        <time>2012-07-01T05:14:49Z</time>
      </trkpt>
      <trkpt lat="45.55093" lon="6.66257">
        <ele>838.79998779297</ele>
        <time>2012-07-01T05:14:56Z</time>
      </trkpt>
      <trkpt lat="45.55104" lon="6.66246">
        <ele>837.79998779297</ele>
        <time>2012-07-01T05:15:01Z</time>
      </trkpt>
      <trkpt lat="45.55116" lon="6.66231">
        <ele>836.59997558594</ele>
        <time>2012-07-01T05:15:07Z</time>
      </trkpt>
      <trkpt lat="45.5513" lon="6.66213">
        <ele>835.40002441406</ele>
        <time>2012-07-01T05:15:14Z</time>
      </trkpt>
      <trkpt lat="45.55138" lon="6.66203">
        <ele>834.40002441406</ele>
        <time>2012-07-01T05:15:18Z</time>
      </trkpt>
      <trkpt lat="45.55146" lon="6.66186">
        <ele>834.40002441406</ele>
        <time>2012-07-01T05:15:23Z</time>
      </trkpt>
      <trkpt lat="45.55147" lon="6.66182">
        <ele>833.40002441406</ele>
        <time>2012-07-01T05:15:24Z</time>
      </trkpt>
      <trkpt lat="45.5515" lon="6.66169">
        <ele>833.40002441406</ele>
        <time>2012-07-01T05:15:28Z</time>
      </trkpt>
      <trkpt lat="45.55152" lon="6.66158">
        <ele>832.20001220703</ele>
        <time>2012-07-01T05:15:31Z</time>
      </trkpt>
      <trkpt lat="45.55154" lon="6.66145">
        <ele>831.20001220703</ele>
        <time>2012-07-01T05:15:35Z</time>
      </trkpt>
      <trkpt lat="45.55157" lon="6.66131">
        <ele>831.20001220703</ele>
        <time>2012-07-01T05:15:39Z</time>
      </trkpt>
      <trkpt lat="45.55176" lon="6.66067">
        <ele>826.79998779297</ele>
        <time>2012-07-01T05:15:56Z</time>
      </trkpt>
      <trkpt lat="45.5518" lon="6.66057">
        <ele>826.79998779297</ele>
        <time>2012-07-01T05:15:59Z</time>
      </trkpt>
      <trkpt lat="45.55189" lon="6.66039">
        <ele>825.79998779297</ele>
        <time>2012-07-01T05:16:05Z</time>
      </trkpt>
      <trkpt lat="45.55192" lon="6.66033">
        <ele>824.59997558594</ele>
        <time>2012-07-01T05:16:07Z</time>
      </trkpt>
      <trkpt lat="45.55204" lon="6.66013">
        <ele>823.59997558594</ele>
        <time>2012-07-01T05:16:14Z</time>
      </trkpt>
      <trkpt lat="45.55208" lon="6.6601">
        <ele>822.59997558594</ele>
        <time>2012-07-01T05:16:16Z</time>
      </trkpt>
      <trkpt lat="45.55227" lon="6.65988">
        <ele>820.40002441406</ele>
        <time>2012-07-01T05:16:26Z</time>
      </trkpt>
      <trkpt lat="45.55233" lon="6.65978">
        <ele>820.40002441406</ele>
        <time>2012-07-01T05:16:30Z</time>
      </trkpt>
      <trkpt lat="45.55236" lon="6.65972">
        <ele>819.40002441406</ele>
        <time>2012-07-01T05:16:32Z</time>
      </trkpt>
      <trkpt lat="45.55251" lon="6.65935">
        <ele>817.20001220703</ele>
        <time>2012-07-01T05:16:44Z</time>
      </trkpt>
      <trkpt lat="45.55252" lon="6.65931">
        <ele>817.20001220703</ele>
        <time>2012-07-01T05:16:45Z</time>
      </trkpt>
      <trkpt lat="45.5525" lon="6.65919">
        <ele>816.20001220703</ele>
        <time>2012-07-01T05:16:49Z</time>
      </trkpt>
      <trkpt lat="45.5525" lon="6.65901">
        <ele>815</ele>
        <time>2012-07-01T05:16:55Z</time>
      </trkpt>
      <trkpt lat="45.5526" lon="6.65879">
        <ele>813.79998779297</ele>
        <time>2012-07-01T05:17:03Z</time>
      </trkpt>
      <trkpt lat="45.55265" lon="6.65876">
        <ele>813.79998779297</ele>
        <time>2012-07-01T05:17:05Z</time>
      </trkpt>
      <trkpt lat="45.55279" lon="6.65876">
        <ele>812.59997558594</ele>
        <time>2012-07-01T05:17:11Z</time>
      </trkpt>
      <trkpt lat="45.55288" lon="6.65872">
        <ele>811.59997558594</ele>
        <time>2012-07-01T05:17:15Z</time>
      </trkpt>
      <trkpt lat="45.55304" lon="6.65855">
        <ele>808.40002441406</ele>
        <time>2012-07-01T05:17:25Z</time>
      </trkpt>
      <trkpt lat="45.55311" lon="6.6585">
        <ele>807.40002441406</ele>
        <time>2012-07-01T05:17:29Z</time>
      </trkpt>
      <trkpt lat="45.55318" lon="6.65843">
        <ele>806.20001220703</ele>
        <time>2012-07-01T05:17:34Z</time>
      </trkpt>
      <trkpt lat="45.5532" lon="6.65841">
        <ele>805.20001220703</ele>
        <time>2012-07-01T05:17:36Z</time>
      </trkpt>
      <trkpt lat="45.55332" lon="6.65831">
        <ele>804.20001220703</ele>
        <time>2012-07-01T05:17:41Z</time>
      </trkpt>
      <trkpt lat="45.55336" lon="6.65828">
        <ele>804.20001220703</ele>
        <time>2012-07-01T05:17:43Z</time>
      </trkpt>
      <trkpt lat="45.55349" lon="6.65814">
        <ele>802</ele>
        <time>2012-07-01T05:17:49Z</time>
      </trkpt>
      <trkpt lat="45.55357" lon="6.65805">
        <ele>800.79998779297</ele>
        <time>2012-07-01T05:17:53Z</time>
      </trkpt>
      <trkpt lat="45.55367" lon="6.65791">
        <ele>799.79998779297</ele>
        <time>2012-07-01T05:17:59Z</time>
      </trkpt>
      <trkpt lat="45.55382" lon="6.65772">
        <ele>797.59997558594</ele>
        <time>2012-07-01T05:18:07Z</time>
      </trkpt>
      <trkpt lat="45.55391" lon="6.65761">
        <ele>797.59997558594</ele>
        <time>2012-07-01T05:18:12Z</time>
      </trkpt>
      <trkpt lat="45.554" lon="6.65751">
        <ele>795.40002441406</ele>
        <time>2012-07-01T05:18:17Z</time>
      </trkpt>
      <trkpt lat="45.55401" lon="6.65748">
        <ele>795.40002441406</ele>
        <time>2012-07-01T05:18:18Z</time>
      </trkpt>
      <trkpt lat="45.55408" lon="6.65742">
        <ele>794.40002441406</ele>
        <time>2012-07-01T05:18:22Z</time>
      </trkpt>
      <trkpt lat="45.55408" lon="6.6574">
        <ele>794.40002441406</ele>
        <time>2012-07-01T05:18:23Z</time>
      </trkpt>
      <trkpt lat="45.55394" lon="6.65714">
        <ele>794.40002441406</ele>
        <time>2012-07-01T05:18:33Z</time>
      </trkpt>
      <trkpt lat="45.55381" lon="6.65698">
        <ele>794.40002441406</ele>
        <time>2012-07-01T05:18:40Z</time>
      </trkpt>
      <trkpt lat="45.55347" lon="6.65641">
        <ele>793</ele>
        <time>2012-07-01T05:19:00Z</time>
      </trkpt>
      <trkpt lat="45.55332" lon="6.6562">
        <ele>793</ele>
        <time>2012-07-01T05:19:08Z</time>
      </trkpt>
      <trkpt lat="45.55306" lon="6.65591">
        <ele>793</ele>
        <time>2012-07-01T05:19:21Z</time>
      </trkpt>
      <trkpt lat="45.55304" lon="6.65589">
        <ele>792</ele>
        <time>2012-07-01T05:19:22Z</time>
      </trkpt>
      <trkpt lat="45.55281" lon="6.65555">
        <ele>792</ele>
        <time>2012-07-01T05:19:35Z</time>
      </trkpt>
      <trkpt lat="45.55273" lon="6.65536">
        <ele>792</ele>
        <time>2012-07-01T05:19:41Z</time>
      </trkpt>
      <trkpt lat="45.55269" lon="6.65515">
        <ele>791</ele>
        <time>2012-07-01T05:19:47Z</time>
      </trkpt>
      <trkpt lat="45.55263" lon="6.65491">
        <ele>791</ele>
        <time>2012-07-01T05:19:54Z</time>
      </trkpt>
      <trkpt lat="45.55249" lon="6.65446">
        <ele>791</ele>
        <time>2012-07-01T05:20:08Z</time>
      </trkpt>
      <trkpt lat="45.55224" lon="6.6541">
        <ele>791</ele>
        <time>2012-07-01T05:20:22Z</time>
      </trkpt>
      <trkpt lat="45.55211" lon="6.65393">
        <ele>791</ele>
        <time>2012-07-01T05:20:28Z</time>
      </trkpt>
      <trkpt lat="45.55197" lon="6.65369">
        <ele>791</ele>
        <time>2012-07-01T05:20:36Z</time>
      </trkpt>
      <trkpt lat="45.55189" lon="6.65353">
        <ele>790</ele>
        <time>2012-07-01T05:20:41Z</time>
      </trkpt>
      <trkpt lat="45.55178" lon="6.65323">
        <ele>790</ele>
        <time>2012-07-01T05:20:50Z</time>
      </trkpt>
      <trkpt lat="45.55174" lon="6.65313">
        <ele>788.79998779297</ele>
        <time>2012-07-01T05:20:53Z</time>
      </trkpt>
      <trkpt lat="45.55162" lon="6.65286">
        <ele>787.79998779297</ele>
        <time>2012-07-01T05:21:01Z</time>
      </trkpt>
      <trkpt lat="45.55158" lon="6.65276">
        <ele>787.79998779297</ele>
        <time>2012-07-01T05:21:04Z</time>
      </trkpt>
      <trkpt lat="45.55147" lon="6.65176">
        <ele>787.79998779297</ele>
        <time>2012-07-01T05:21:33Z</time>
      </trkpt>
      <trkpt lat="45.55142" lon="6.6516">
        <ele>787.79998779297</ele>
        <time>2012-07-01T05:21:38Z</time>
      </trkpt>
      <trkpt lat="45.55129" lon="6.65145">
        <ele>786.79998779297</ele>
        <time>2012-07-01T05:21:44Z</time>
      </trkpt>
      <trkpt lat="45.55112" lon="6.65128">
        <ele>786.79998779297</ele>
        <time>2012-07-01T05:21:52Z</time>
      </trkpt>
      <trkpt lat="45.55098" lon="6.65095">
        <ele>786.79998779297</ele>
        <time>2012-07-01T05:22:03Z</time>
      </trkpt>
      <trkpt lat="45.55094" lon="6.65076">
        <ele>786.79998779297</ele>
        <time>2012-07-01T05:22:09Z</time>
      </trkpt>
      <trkpt lat="45.5509" lon="6.65034">
        <ele>786.79998779297</ele>
        <time>2012-07-01T05:22:20Z</time>
      </trkpt>
      <trkpt lat="45.55088" lon="6.65021">
        <ele>786.79998779297</ele>
        <time>2012-07-01T05:22:24Z</time>
      </trkpt>
      <trkpt lat="45.55075" lon="6.64983">
        <ele>786.79998779297</ele>
        <time>2012-07-01T05:22:35Z</time>
      </trkpt>
      <trkpt lat="45.5504" lon="6.64939">
        <ele>785.59997558594</ele>
        <time>2012-07-01T05:22:53Z</time>
      </trkpt>
      <trkpt lat="45.55033" lon="6.64916">
        <ele>785.59997558594</ele>
        <time>2012-07-01T05:22:59Z</time>
      </trkpt>
      <trkpt lat="45.55019" lon="6.6487">
        <ele>785.59997558594</ele>
        <time>2012-07-01T05:23:11Z</time>
      </trkpt>
      <trkpt lat="45.55013" lon="6.6485">
        <ele>785.59997558594</ele>
        <time>2012-07-01T05:23:17Z</time>
      </trkpt>
      <trkpt lat="45.55007" lon="6.64827">
        <ele>784.59997558594</ele>
        <time>2012-07-01T05:23:23Z</time>
      </trkpt>
      <trkpt lat="45.55002" lon="6.64805">
        <ele>784.59997558594</ele>
        <time>2012-07-01T05:23:29Z</time>
      </trkpt>
      <trkpt lat="45.54993" lon="6.64761">
        <ele>784.59997558594</ele>
        <time>2012-07-01T05:23:41Z</time>
      </trkpt>
      <trkpt lat="45.5499" lon="6.64744">
        <ele>784.59997558594</ele>
        <time>2012-07-01T05:23:46Z</time>
      </trkpt>
      <trkpt lat="45.54982" lon="6.64675">
        <ele>784.59997558594</ele>
        <time>2012-07-01T05:24:06Z</time>
      </trkpt>
      <trkpt lat="45.54981" lon="6.64658">
        <ele>784.59997558594</ele>
        <time>2012-07-01T05:24:11Z</time>
      </trkpt>
      <trkpt lat="45.5498" lon="6.6465">
        <ele>783.59997558594</ele>
        <time>2012-07-01T05:24:14Z</time>
      </trkpt>
      <trkpt lat="45.5498" lon="6.64636">
        <ele>783.59997558594</ele>
        <time>2012-07-01T05:24:17Z</time>
      </trkpt>
      <trkpt lat="45.5498" lon="6.64583">
        <ele>783.59997558594</ele>
        <time>2012-07-01T05:24:30Z</time>
      </trkpt>
      <trkpt lat="45.54978" lon="6.64561">
        <ele>783.59997558594</ele>
        <time>2012-07-01T05:24:36Z</time>
      </trkpt>
      <trkpt lat="45.54977" lon="6.64537">
        <ele>782.40002441406</ele>
        <time>2012-07-01T05:24:43Z</time>
      </trkpt>
      <trkpt lat="45.54976" lon="6.64523">
        <ele>782.40002441406</ele>
        <time>2012-07-01T05:24:47Z</time>
      </trkpt>
      <trkpt lat="45.54972" lon="6.64476">
        <ele>782.40002441406</ele>
        <time>2012-07-01T05:25:00Z</time>
      </trkpt>
      <trkpt lat="45.54972" lon="6.64458">
        <ele>782.40002441406</ele>
        <time>2012-07-01T05:25:05Z</time>
      </trkpt>
      <trkpt lat="45.54976" lon="6.64442">
        <ele>782.40002441406</ele>
        <time>2012-07-01T05:25:10Z</time>
      </trkpt>
      <trkpt lat="45.5498" lon="6.64425">
        <ele>782.40002441406</ele>
        <time>2012-07-01T05:25:18Z</time>
      </trkpt>
      <trkpt lat="45.54981" lon="6.64424">
        <ele>782.40002441406</ele>
        <time>2012-07-01T05:25:21Z</time>
      </trkpt>
      <trkpt lat="45.54983" lon="6.64422">
        <ele>781.20001220703</ele>
        <time>2012-07-01T05:25:31Z</time>
      </trkpt>
      <trkpt lat="45.54983" lon="6.64421">
        <ele>781.20001220703</ele>
        <time>2012-07-01T05:25:35Z</time>
      </trkpt>
      <trkpt lat="45.54982" lon="6.64423">
        <ele>781.20001220703</ele>
        <time>2012-07-01T05:25:39Z</time>
      </trkpt>
      <trkpt lat="45.54981" lon="6.64424">
        <ele>781.20001220703</ele>
        <time>2012-07-01T05:25:43Z</time>
      </trkpt>
      <trkpt lat="45.54967" lon="6.64406">
        <ele>781.20001220703</ele>
        <time>2012-07-01T05:26:01Z</time>
      </trkpt>
      <trkpt lat="45.54967" lon="6.64399">
        <ele>781.20001220703</ele>
        <time>2012-07-01T05:26:03Z</time>
      </trkpt>
      <trkpt lat="45.54965" lon="6.64368">
        <ele>781.20001220703</ele>
        <time>2012-07-01T05:26:11Z</time>
      </trkpt>
      <trkpt lat="45.54964" lon="6.64352">
        <ele>781.20001220703</ele>
        <time>2012-07-01T05:26:16Z</time>
      </trkpt>
      <trkpt lat="45.54961" lon="6.64326">
        <ele>780.20001220703</ele>
        <time>2012-07-01T05:26:23Z</time>
      </trkpt>
      <trkpt lat="45.54961" lon="6.64319">
        <ele>780.20001220703</ele>
        <time>2012-07-01T05:26:25Z</time>
      </trkpt>
      <trkpt lat="45.54959" lon="6.64285">
        <ele>780.20001220703</ele>
        <time>2012-07-01T05:26:34Z</time>
      </trkpt>
      <trkpt lat="45.5496" lon="6.64277">
        <ele>780.20001220703</ele>
        <time>2012-07-01T05:26:36Z</time>
      </trkpt>
      <trkpt lat="45.54963" lon="6.6425">
        <ele>780.20001220703</ele>
        <time>2012-07-01T05:26:43Z</time>
      </trkpt>
      <trkpt lat="45.54964" lon="6.64188">
        <ele>780.20001220703</ele>
        <time>2012-07-01T05:27:00Z</time>
      </trkpt>
      <trkpt lat="45.54961" lon="6.64172">
        <ele>779</ele>
        <time>2012-07-01T05:27:04Z</time>
      </trkpt>
      <trkpt lat="45.54955" lon="6.64142">
        <ele>779</ele>
        <time>2012-07-01T05:27:12Z</time>
      </trkpt>
      <trkpt lat="45.54951" lon="6.64121">
        <ele>779</ele>
        <time>2012-07-01T05:27:18Z</time>
      </trkpt>
      <trkpt lat="45.54951" lon="6.64103">
        <ele>779</ele>
        <time>2012-07-01T05:27:23Z</time>
      </trkpt>
      <trkpt lat="45.54954" lon="6.64097">
        <ele>779</ele>
        <time>2012-07-01T05:27:25Z</time>
      </trkpt>
      <trkpt lat="45.54958" lon="6.64084">
        <ele>778</ele>
        <time>2012-07-01T05:27:29Z</time>
      </trkpt>
      <trkpt lat="45.54963" lon="6.64071">
        <ele>778</ele>
        <time>2012-07-01T05:27:33Z</time>
      </trkpt>
      <trkpt lat="45.54988" lon="6.64015">
        <ele>778</ele>
        <time>2012-07-01T05:27:54Z</time>
      </trkpt>
      <trkpt lat="45.54988" lon="6.64011">
        <ele>778</ele>
        <time>2012-07-01T05:28:02Z</time>
      </trkpt>
      <trkpt lat="45.54988" lon="6.64012">
        <ele>778</ele>
        <time>2012-07-01T05:28:09Z</time>
      </trkpt>
      <trkpt lat="45.54987" lon="6.64009">
        <ele>778</ele>
        <time>2012-07-01T05:28:12Z</time>
      </trkpt>
      <trkpt lat="45.54989" lon="6.63987">
        <ele>778</ele>
        <time>2012-07-01T05:28:20Z</time>
      </trkpt>
      <trkpt lat="45.54988" lon="6.63984">
        <ele>778</ele>
        <time>2012-07-01T05:28:21Z</time>
      </trkpt>
      <trkpt lat="45.54987" lon="6.63965">
        <ele>778</ele>
        <time>2012-07-01T05:28:27Z</time>
      </trkpt>
      <trkpt lat="45.54986" lon="6.63948">
        <ele>778</ele>
        <time>2012-07-01T05:28:31Z</time>
      </trkpt>
      <trkpt lat="45.54983" lon="6.63929">
        <ele>776.79998779297</ele>
        <time>2012-07-01T05:28:36Z</time>
      </trkpt>
      <trkpt lat="45.54978" lon="6.63868">
        <ele>776.79998779297</ele>
        <time>2012-07-01T05:28:51Z</time>
      </trkpt>
      <trkpt lat="45.54975" lon="6.6385">
        <ele>776.79998779297</ele>
        <time>2012-07-01T05:28:56Z</time>
      </trkpt>
      <trkpt lat="45.54969" lon="6.63812">
        <ele>776.79998779297</ele>
        <time>2012-07-01T05:29:05Z</time>
      </trkpt>
      <trkpt lat="45.54968" lon="6.63808">
        <ele>775.79998779297</ele>
        <time>2012-07-01T05:29:06Z</time>
      </trkpt>
      <trkpt lat="45.54962" lon="6.63792">
        <ele>775.79998779297</ele>
        <time>2012-07-01T05:29:11Z</time>
      </trkpt>
      <trkpt lat="45.5495" lon="6.63769">
        <ele>775.79998779297</ele>
        <time>2012-07-01T05:29:19Z</time>
      </trkpt>
      <trkpt lat="45.54937" lon="6.63736">
        <ele>775.79998779297</ele>
        <time>2012-07-01T05:29:29Z</time>
      </trkpt>
      <trkpt lat="45.54928" lon="6.63717">
        <ele>775.79998779297</ele>
        <time>2012-07-01T05:29:35Z</time>
      </trkpt>
      <trkpt lat="45.54898" lon="6.6367">
        <ele>774.79998779297</ele>
        <time>2012-07-01T05:29:51Z</time>
      </trkpt>
      <trkpt lat="45.54889" lon="6.63657">
        <ele>774.79998779297</ele>
        <time>2012-07-01T05:29:56Z</time>
      </trkpt>
      <trkpt lat="45.54872" lon="6.63623">
        <ele>774.79998779297</ele>
        <time>2012-07-01T05:30:07Z</time>
      </trkpt>
      <trkpt lat="45.54863" lon="6.63608">
        <ele>774.79998779297</ele>
        <time>2012-07-01T05:30:12Z</time>
      </trkpt>
      <trkpt lat="45.54853" lon="6.63582">
        <ele>774.79998779297</ele>
        <time>2012-07-01T05:30:20Z</time>
      </trkpt>
      <trkpt lat="45.54851" lon="6.63576">
        <ele>774.79998779297</ele>
        <time>2012-07-01T05:30:22Z</time>
      </trkpt>
      <trkpt lat="45.5484" lon="6.63536">
        <ele>774.79998779297</ele>
        <time>2012-07-01T05:30:32Z</time>
      </trkpt>
      <trkpt lat="45.54843" lon="6.6352">
        <ele>774.79998779297</ele>
        <time>2012-07-01T05:30:37Z</time>
      </trkpt>
      <trkpt lat="45.54852" lon="6.63484">
        <ele>774.79998779297</ele>
        <time>2012-07-01T05:30:47Z</time>
      </trkpt>
      <trkpt lat="45.54853" lon="6.63467">
        <ele>773.59997558594</ele>
        <time>2012-07-01T05:30:57Z</time>
      </trkpt>
      <trkpt lat="45.54853" lon="6.63466">
        <ele>773.59997558594</ele>
        <time>2012-07-01T05:30:58Z</time>
      </trkpt>
      <trkpt lat="45.54851" lon="6.63463">
        <ele>773.59997558594</ele>
        <time>2012-07-01T05:31:05Z</time>
      </trkpt>
      <trkpt lat="45.54851" lon="6.63462">
        <ele>773.59997558594</ele>
        <time>2012-07-01T05:31:07Z</time>
      </trkpt>
      <trkpt lat="45.54848" lon="6.63461">
        <ele>773.59997558594</ele>
        <time>2012-07-01T05:31:15Z</time>
      </trkpt>
      <trkpt lat="45.54847" lon="6.6346">
        <ele>773.59997558594</ele>
        <time>2012-07-01T05:31:18Z</time>
      </trkpt>
      <trkpt lat="45.5485" lon="6.63464">
        <ele>773.59997558594</ele>
        <time>2012-07-01T05:31:23Z</time>
      </trkpt>
      <trkpt lat="45.54851" lon="6.63471">
        <ele>773.59997558594</ele>
        <time>2012-07-01T05:31:28Z</time>
      </trkpt>
      <trkpt lat="45.54831" lon="6.63443">
        <ele>773.59997558594</ele>
        <time>2012-07-01T05:31:52Z</time>
      </trkpt>
      <trkpt lat="45.54825" lon="6.63435">
        <ele>773.59997558594</ele>
        <time>2012-07-01T05:31:55Z</time>
      </trkpt>
      <trkpt lat="45.54808" lon="6.63411">
        <ele>773.59997558594</ele>
        <time>2012-07-01T05:32:04Z</time>
      </trkpt>
      <trkpt lat="45.54794" lon="6.63395">
        <ele>773.59997558594</ele>
        <time>2012-07-01T05:32:11Z</time>
      </trkpt>
      <trkpt lat="45.54781" lon="6.6338">
        <ele>773.59997558594</ele>
        <time>2012-07-01T05:32:17Z</time>
      </trkpt>
      <trkpt lat="45.54772" lon="6.63367">
        <ele>773.59997558594</ele>
        <time>2012-07-01T05:32:22Z</time>
      </trkpt>
      <trkpt lat="45.54758" lon="6.63351">
        <ele>772.59997558594</ele>
        <time>2012-07-01T05:32:29Z</time>
      </trkpt>
      <trkpt lat="45.54745" lon="6.63333">
        <ele>772.59997558594</ele>
        <time>2012-07-01T05:32:36Z</time>
      </trkpt>
      <trkpt lat="45.54737" lon="6.63323">
        <ele>772.59997558594</ele>
        <time>2012-07-01T05:32:41Z</time>
      </trkpt>
      <trkpt lat="45.54733" lon="6.63322">
        <ele>772.59997558594</ele>
        <time>2012-07-01T05:32:54Z</time>
      </trkpt>
      <trkpt lat="45.54733" lon="6.63322">
        <ele>772.59997558594</ele>
        <time>2012-07-01T05:32:57Z</time>
      </trkpt>
      <trkpt lat="45.5473" lon="6.63319">
        <ele>772.59997558594</ele>
        <time>2012-07-01T05:33:05Z</time>
      </trkpt>
      <trkpt lat="45.5472" lon="6.63312">
        <ele>772.59997558594</ele>
        <time>2012-07-01T05:33:11Z</time>
      </trkpt>
      <trkpt lat="45.54712" lon="6.63305">
        <ele>772.59997558594</ele>
        <time>2012-07-01T05:33:16Z</time>
      </trkpt>
      <trkpt lat="45.54709" lon="6.63303">
        <ele>772.59997558594</ele>
        <time>2012-07-01T05:33:18Z</time>
      </trkpt>
      <trkpt lat="45.54704" lon="6.63299">
        <ele>775.59997558594</ele>
        <time>2012-07-01T05:33:21Z</time>
      </trkpt>
      <trkpt lat="45.54702" lon="6.63299">
        <ele>775.59997558594</ele>
        <time>2012-07-01T05:33:22Z</time>
      </trkpt>
      <trkpt lat="45.54689" lon="6.63288">
        <ele>778</ele>
        <time>2012-07-01T05:33:30Z</time>
      </trkpt>
      <trkpt lat="45.54684" lon="6.63282">
        <ele>779</ele>
        <time>2012-07-01T05:33:33Z</time>
      </trkpt>
      <trkpt lat="45.54679" lon="6.63279">
        <ele>779</ele>
        <time>2012-07-01T05:33:38Z</time>
      </trkpt>
      <trkpt lat="45.54679" lon="6.63278">
        <ele>780</ele>
        <time>2012-07-01T05:33:39Z</time>
      </trkpt>
      <trkpt lat="45.54677" lon="6.63275">
        <ele>780</ele>
        <time>2012-07-01T05:33:48Z</time>
      </trkpt>
      <trkpt lat="45.54673" lon="6.6327">
        <ele>780</ele>
        <time>2012-07-01T05:33:54Z</time>
      </trkpt>
      <trkpt lat="45.54671" lon="6.63269">
        <ele>780</ele>
        <time>2012-07-01T05:34:03Z</time>
      </trkpt>
      <trkpt lat="45.54668" lon="6.63265">
        <ele>780</ele>
        <time>2012-07-01T05:34:07Z</time>
      </trkpt>
      <trkpt lat="45.54666" lon="6.63263">
        <ele>781</ele>
        <time>2012-07-01T05:34:09Z</time>
      </trkpt>
      <trkpt lat="45.5466" lon="6.63252">
        <ele>782</ele>
        <time>2012-07-01T05:34:23Z</time>
      </trkpt>
      <trkpt lat="45.5466" lon="6.63252">
        <ele>782</ele>
        <time>2012-07-01T05:34:27Z</time>
      </trkpt>
      <trkpt lat="45.54656" lon="6.63245">
        <ele>783.20001220703</ele>
        <time>2012-07-01T05:34:37Z</time>
      </trkpt>
      <trkpt lat="45.54656" lon="6.63244">
        <ele>783.20001220703</ele>
        <time>2012-07-01T05:34:38Z</time>
      </trkpt>
      <trkpt lat="45.54655" lon="6.63243">
        <ele>783.20001220703</ele>
        <time>2012-07-01T05:34:47Z</time>
      </trkpt>
      <trkpt lat="45.54653" lon="6.63239">
        <ele>784.20001220703</ele>
        <time>2012-07-01T05:34:53Z</time>
      </trkpt>
      <trkpt lat="45.54649" lon="6.63234">
        <ele>785.20001220703</ele>
        <time>2012-07-01T05:35:00Z</time>
      </trkpt>
      <trkpt lat="45.54647" lon="6.6323">
        <ele>785.20001220703</ele>
        <time>2012-07-01T05:35:07Z</time>
      </trkpt>
      <trkpt lat="45.54638" lon="6.63219">
        <ele>787.20001220703</ele>
        <time>2012-07-01T05:35:37Z</time>
      </trkpt>
      <trkpt lat="45.54636" lon="6.63215">
        <ele>787.20001220703</ele>
        <time>2012-07-01T05:35:43Z</time>
      </trkpt>
      <trkpt lat="45.54636" lon="6.63213">
        <ele>787.20001220703</ele>
        <time>2012-07-01T05:35:56Z</time>
      </trkpt>
      <trkpt lat="45.54634" lon="6.63206">
        <ele>787.20001220703</ele>
        <time>2012-07-01T05:36:04Z</time>
      </trkpt>
      <trkpt lat="45.54629" lon="6.63192">
        <ele>787.20001220703</ele>
        <time>2012-07-01T05:36:16Z</time>
      </trkpt>
      <trkpt lat="45.5463" lon="6.63187">
        <ele>787.20001220703</ele>
        <time>2012-07-01T05:36:19Z</time>
      </trkpt>
      <trkpt lat="45.54628" lon="6.63179">
        <ele>787.20001220703</ele>
        <time>2012-07-01T05:36:25Z</time>
      </trkpt>
      <trkpt lat="45.54628" lon="6.63177">
        <ele>787.20001220703</ele>
        <time>2012-07-01T05:36:27Z</time>
      </trkpt>
      <trkpt lat="45.54627" lon="6.6317">
        <ele>788.40002441406</ele>
        <time>2012-07-01T05:36:32Z</time>
      </trkpt>
      <trkpt lat="45.54631" lon="6.6316">
        <ele>789.40002441406</ele>
        <time>2012-07-01T05:36:39Z</time>
      </trkpt>
      <trkpt lat="45.54633" lon="6.63158">
        <ele>789.40002441406</ele>
        <time>2012-07-01T05:36:40Z</time>
      </trkpt>
      <trkpt lat="45.54635" lon="6.63152">
        <ele>789.40002441406</ele>
        <time>2012-07-01T05:36:45Z</time>
      </trkpt>
      <trkpt lat="45.54634" lon="6.63151">
        <ele>789.40002441406</ele>
        <time>2012-07-01T05:36:46Z</time>
      </trkpt>
      <trkpt lat="45.54632" lon="6.63149">
        <ele>789.40002441406</ele>
        <time>2012-07-01T05:37:01Z</time>
      </trkpt>
      <trkpt lat="45.54631" lon="6.6315">
        <ele>789.40002441406</ele>
        <time>2012-07-01T05:37:07Z</time>
      </trkpt>
      <trkpt lat="45.5462" lon="6.63148">
        <ele>789.40002441406</ele>
        <time>2012-07-01T05:37:14Z</time>
      </trkpt>
      <trkpt lat="45.54618" lon="6.63146">
        <ele>789.40002441406</ele>
        <time>2012-07-01T05:37:16Z</time>
      </trkpt>
      <trkpt lat="45.5461" lon="6.63116">
        <ele>790.40002441406</ele>
        <time>2012-07-01T05:37:29Z</time>
      </trkpt>
      <trkpt lat="45.54608" lon="6.63113">
        <ele>790.40002441406</ele>
        <time>2012-07-01T05:37:30Z</time>
      </trkpt>
      <trkpt lat="45.54607" lon="6.63108">
        <ele>791.40002441406</ele>
        <time>2012-07-01T05:37:32Z</time>
      </trkpt>
      <trkpt lat="45.54608" lon="6.63104">
        <ele>791.40002441406</ele>
        <time>2012-07-01T05:37:33Z</time>
      </trkpt>
      <trkpt lat="45.54605" lon="6.63092">
        <ele>792.59997558594</ele>
        <time>2012-07-01T05:37:37Z</time>
      </trkpt>
      <trkpt lat="45.546" lon="6.63078">
        <ele>792.59997558594</ele>
        <time>2012-07-01T05:37:41Z</time>
      </trkpt>
      <trkpt lat="45.54595" lon="6.63055">
        <ele>794.79998779297</ele>
        <time>2012-07-01T05:37:48Z</time>
      </trkpt>
      <trkpt lat="45.54591" lon="6.63045">
        <ele>795.79998779297</ele>
        <time>2012-07-01T05:37:51Z</time>
      </trkpt>
      <trkpt lat="45.54584" lon="6.63029">
        <ele>795.79998779297</ele>
        <time>2012-07-01T05:37:56Z</time>
      </trkpt>
      <trkpt lat="45.54579" lon="6.63012">
        <ele>796.79998779297</ele>
        <time>2012-07-01T05:38:02Z</time>
      </trkpt>
      <trkpt lat="45.54579" lon="6.63011">
        <ele>798</ele>
        <time>2012-07-01T05:38:03Z</time>
      </trkpt>
      <trkpt lat="45.54578" lon="6.63005">
        <ele>798</ele>
        <time>2012-07-01T05:38:11Z</time>
      </trkpt>
      <trkpt lat="45.54577" lon="6.63006">
        <ele>798</ele>
        <time>2012-07-01T05:38:12Z</time>
      </trkpt>
      <trkpt lat="45.54576" lon="6.62999">
        <ele>798</ele>
        <time>2012-07-01T05:38:17Z</time>
      </trkpt>
      <trkpt lat="45.54574" lon="6.62995">
        <ele>798</ele>
        <time>2012-07-01T05:38:20Z</time>
      </trkpt>
      <trkpt lat="45.54574" lon="6.6299">
        <ele>798</ele>
        <time>2012-07-01T05:38:22Z</time>
      </trkpt>
      <trkpt lat="45.54574" lon="6.62988">
        <ele>799</ele>
        <time>2012-07-01T05:38:23Z</time>
      </trkpt>
      <trkpt lat="45.54566" lon="6.62955">
        <ele>801</ele>
        <time>2012-07-01T05:38:35Z</time>
      </trkpt>
      <trkpt lat="45.54565" lon="6.62951">
        <ele>801</ele>
        <time>2012-07-01T05:38:36Z</time>
      </trkpt>
      <trkpt lat="45.54563" lon="6.62941">
        <ele>802</ele>
        <time>2012-07-01T05:38:39Z</time>
      </trkpt>
      <trkpt lat="45.54562" lon="6.62938">
        <ele>802</ele>
        <time>2012-07-01T05:38:40Z</time>
      </trkpt>
      <trkpt lat="45.5456" lon="6.62925">
        <ele>802</ele>
        <time>2012-07-01T05:38:44Z</time>
      </trkpt>
      <trkpt lat="45.54559" lon="6.62923">
        <ele>803.20001220703</ele>
        <time>2012-07-01T05:38:45Z</time>
      </trkpt>
      <trkpt lat="45.54555" lon="6.62907">
        <ele>804.20001220703</ele>
        <time>2012-07-01T05:38:50Z</time>
      </trkpt>
      <trkpt lat="45.54554" lon="6.62897">
        <ele>804.20001220703</ele>
        <time>2012-07-01T05:38:53Z</time>
      </trkpt>
      <trkpt lat="45.54553" lon="6.6289">
        <ele>805.40002441406</ele>
        <time>2012-07-01T05:38:55Z</time>
      </trkpt>
      <trkpt lat="45.54548" lon="6.62876">
        <ele>805.40002441406</ele>
        <time>2012-07-01T05:39:00Z</time>
      </trkpt>
      <trkpt lat="45.54546" lon="6.62872">
        <ele>806.59997558594</ele>
        <time>2012-07-01T05:39:01Z</time>
      </trkpt>
      <trkpt lat="45.54535" lon="6.62848">
        <ele>807.59997558594</ele>
        <time>2012-07-01T05:39:09Z</time>
      </trkpt>
      <trkpt lat="45.54534" lon="6.62845">
        <ele>807.59997558594</ele>
        <time>2012-07-01T05:39:10Z</time>
      </trkpt>
      <trkpt lat="45.54532" lon="6.62832">
        <ele>808.79998779297</ele>
        <time>2012-07-01T05:39:14Z</time>
      </trkpt>
      <trkpt lat="45.5453" lon="6.62825">
        <ele>809.79998779297</ele>
        <time>2012-07-01T05:39:16Z</time>
      </trkpt>
      <trkpt lat="45.54526" lon="6.62814">
        <ele>810.79998779297</ele>
        <time>2012-07-01T05:39:20Z</time>
      </trkpt>
      <trkpt lat="45.54522" lon="6.62803">
        <ele>810.79998779297</ele>
        <time>2012-07-01T05:39:24Z</time>
      </trkpt>
      <trkpt lat="45.54512" lon="6.62783">
        <ele>813.20001220703</ele>
        <time>2012-07-01T05:39:31Z</time>
      </trkpt>
      <trkpt lat="45.54509" lon="6.62771">
        <ele>813.20001220703</ele>
        <time>2012-07-01T05:39:35Z</time>
      </trkpt>
      <trkpt lat="45.54511" lon="6.62763">
        <ele>814.20001220703</ele>
        <time>2012-07-01T05:39:39Z</time>
      </trkpt>
      <trkpt lat="45.5451" lon="6.62755">
        <ele>815.40002441406</ele>
        <time>2012-07-01T05:39:42Z</time>
      </trkpt>
      <trkpt lat="45.54509" lon="6.62749">
        <ele>815.40002441406</ele>
        <time>2012-07-01T05:39:44Z</time>
      </trkpt>
      <trkpt lat="45.54507" lon="6.62745">
        <ele>815.40002441406</ele>
        <time>2012-07-01T05:39:45Z</time>
      </trkpt>
      <trkpt lat="45.54504" lon="6.62725">
        <ele>816.59997558594</ele>
        <time>2012-07-01T05:39:51Z</time>
      </trkpt>
      <trkpt lat="45.54503" lon="6.62723">
        <ele>817.79998779297</ele>
        <time>2012-07-01T05:39:52Z</time>
      </trkpt>
      <trkpt lat="45.545" lon="6.62708">
        <ele>817.79998779297</ele>
        <time>2012-07-01T05:39:57Z</time>
      </trkpt>
      <trkpt lat="45.54499" lon="6.62704">
        <ele>818.79998779297</ele>
        <time>2012-07-01T05:40:06Z</time>
      </trkpt>
      <trkpt lat="45.54498" lon="6.62703">
        <ele>818.79998779297</ele>
        <time>2012-07-01T05:40:09Z</time>
      </trkpt>
      <trkpt lat="45.54498" lon="6.62699">
        <ele>818.79998779297</ele>
        <time>2012-07-01T05:40:14Z</time>
      </trkpt>
      <trkpt lat="45.54499" lon="6.62698">
        <ele>818.79998779297</ele>
        <time>2012-07-01T05:40:17Z</time>
      </trkpt>
      <trkpt lat="45.54499" lon="6.62697">
        <ele>818.79998779297</ele>
        <time>2012-07-01T05:40:21Z</time>
      </trkpt>
      <trkpt lat="45.54499" lon="6.62695">
        <ele>818.79998779297</ele>
        <time>2012-07-01T05:40:25Z</time>
      </trkpt>
      <trkpt lat="45.54499" lon="6.62695">
        <ele>818.79998779297</ele>
        <time>2012-07-01T05:40:35Z</time>
      </trkpt>
      <trkpt lat="45.54497" lon="6.62691">
        <ele>818.79998779297</ele>
        <time>2012-07-01T05:40:38Z</time>
      </trkpt>
      <trkpt lat="45.54496" lon="6.62667">
        <ele>821</ele>
        <time>2012-07-01T05:40:49Z</time>
      </trkpt>
      <trkpt lat="45.5449" lon="6.6266">
        <ele>821</ele>
        <time>2012-07-01T05:40:52Z</time>
      </trkpt>
      <trkpt lat="45.54484" lon="6.6265">
        <ele>822</ele>
        <time>2012-07-01T05:40:57Z</time>
      </trkpt>
      <trkpt lat="45.54481" lon="6.62643">
        <ele>823.20001220703</ele>
        <time>2012-07-01T05:41:00Z</time>
      </trkpt>
      <trkpt lat="45.54475" lon="6.62636">
        <ele>824.20001220703</ele>
        <time>2012-07-01T05:41:04Z</time>
      </trkpt>
      <trkpt lat="45.54473" lon="6.62631">
        <ele>824.20001220703</ele>
        <time>2012-07-01T05:41:06Z</time>
      </trkpt>
      <trkpt lat="45.54473" lon="6.62632">
        <ele>824.20001220703</ele>
        <time>2012-07-01T05:41:10Z</time>
      </trkpt>
      <trkpt lat="45.54472" lon="6.62633">
        <ele>824.20001220703</ele>
        <time>2012-07-01T05:41:15Z</time>
      </trkpt>
      <trkpt lat="45.54468" lon="6.62631">
        <ele>824.20001220703</ele>
        <time>2012-07-01T05:41:20Z</time>
      </trkpt>
      <trkpt lat="45.54466" lon="6.62631">
        <ele>824.20001220703</ele>
        <time>2012-07-01T05:41:30Z</time>
      </trkpt>
      <trkpt lat="45.54467" lon="6.62631">
        <ele>824.20001220703</ele>
        <time>2012-07-01T05:41:32Z</time>
      </trkpt>
      <trkpt lat="45.54467" lon="6.6263">
        <ele>824.20001220703</ele>
        <time>2012-07-01T05:41:40Z</time>
      </trkpt>
      <trkpt lat="45.54464" lon="6.62627">
        <ele>824.20001220703</ele>
        <time>2012-07-01T05:41:50Z</time>
      </trkpt>
      <trkpt lat="45.54464" lon="6.62625">
        <ele>825.20001220703</ele>
        <time>2012-07-01T05:41:58Z</time>
      </trkpt>
      <trkpt lat="45.54464" lon="6.62625">
        <ele>825.20001220703</ele>
        <time>2012-07-01T05:42:02Z</time>
      </trkpt>
      <trkpt lat="45.54463" lon="6.62625">
        <ele>825.20001220703</ele>
        <time>2012-07-01T05:42:15Z</time>
      </trkpt>
      <trkpt lat="45.54463" lon="6.62625">
        <ele>825.20001220703</ele>
        <time>2012-07-01T05:42:18Z</time>
      </trkpt>
      <trkpt lat="45.54459" lon="6.62603">
        <ele>826.20001220703</ele>
        <time>2012-07-01T05:42:38Z</time>
      </trkpt>
      <trkpt lat="45.54457" lon="6.62594">
        <ele>826.20001220703</ele>
        <time>2012-07-01T05:42:41Z</time>
      </trkpt>
      <trkpt lat="45.54456" lon="6.62587">
        <ele>827.40002441406</ele>
        <time>2012-07-01T05:42:44Z</time>
      </trkpt>
      <trkpt lat="45.54454" lon="6.62585">
        <ele>827.40002441406</ele>
        <time>2012-07-01T05:42:45Z</time>
      </trkpt>
      <trkpt lat="45.54449" lon="6.62574">
        <ele>828.40002441406</ele>
        <time>2012-07-01T05:42:49Z</time>
      </trkpt>
      <trkpt lat="45.54448" lon="6.62571">
        <ele>828.40002441406</ele>
        <time>2012-07-01T05:42:50Z</time>
      </trkpt>
      <trkpt lat="45.54447" lon="6.62562">
        <ele>829.59997558594</ele>
        <time>2012-07-01T05:42:53Z</time>
      </trkpt>
      <trkpt lat="45.54445" lon="6.62556">
        <ele>829.59997558594</ele>
        <time>2012-07-01T05:42:55Z</time>
      </trkpt>
      <trkpt lat="45.54441" lon="6.62547">
        <ele>830.59997558594</ele>
        <time>2012-07-01T05:42:59Z</time>
      </trkpt>
      <trkpt lat="45.54438" lon="6.62539">
        <ele>830.59997558594</ele>
        <time>2012-07-01T05:43:14Z</time>
      </trkpt>
      <trkpt lat="45.54437" lon="6.62536">
        <ele>831.79998779297</ele>
        <time>2012-07-01T05:43:15Z</time>
      </trkpt>
      <trkpt lat="45.54433" lon="6.62522">
        <ele>832.79998779297</ele>
        <time>2012-07-01T05:43:20Z</time>
      </trkpt>
      <trkpt lat="45.54432" lon="6.62513">
        <ele>832.79998779297</ele>
        <time>2012-07-01T05:43:23Z</time>
      </trkpt>
      <trkpt lat="45.54429" lon="6.62501">
        <ele>835</ele>
        <time>2012-07-01T05:43:27Z</time>
      </trkpt>
      <trkpt lat="45.54426" lon="6.62496">
        <ele>835</ele>
        <time>2012-07-01T05:43:29Z</time>
      </trkpt>
      <trkpt lat="45.54421" lon="6.62488">
        <ele>836.20001220703</ele>
        <time>2012-07-01T05:43:33Z</time>
      </trkpt>
      <trkpt lat="45.54417" lon="6.62483">
        <ele>837.20001220703</ele>
        <time>2012-07-01T05:43:36Z</time>
      </trkpt>
      <trkpt lat="45.54404" lon="6.62463">
        <ele>839.40002441406</ele>
        <time>2012-07-01T05:43:45Z</time>
      </trkpt>
      <trkpt lat="45.54403" lon="6.62459">
        <ele>840.59997558594</ele>
        <time>2012-07-01T05:43:47Z</time>
      </trkpt>
      <trkpt lat="45.54403" lon="6.62459">
        <ele>840.59997558594</ele>
        <time>2012-07-01T05:43:55Z</time>
      </trkpt>
      <trkpt lat="45.54402" lon="6.6246">
        <ele>840.59997558594</ele>
        <time>2012-07-01T05:43:58Z</time>
      </trkpt>
      <trkpt lat="45.54398" lon="6.62452">
        <ele>840.59997558594</ele>
        <time>2012-07-01T05:44:06Z</time>
      </trkpt>
      <trkpt lat="45.54397" lon="6.6245">
        <ele>840.59997558594</ele>
        <time>2012-07-01T05:44:07Z</time>
      </trkpt>
      <trkpt lat="45.54396" lon="6.62446">
        <ele>841.79998779297</ele>
        <time>2012-07-01T05:44:11Z</time>
      </trkpt>
      <trkpt lat="45.54393" lon="6.62438">
        <ele>841.79998779297</ele>
        <time>2012-07-01T05:44:14Z</time>
      </trkpt>
      <trkpt lat="45.54388" lon="6.62427">
        <ele>842.79998779297</ele>
        <time>2012-07-01T05:44:18Z</time>
      </trkpt>
      <trkpt lat="45.54387" lon="6.62408">
        <ele>843.79998779297</ele>
        <time>2012-07-01T05:44:24Z</time>
      </trkpt>
      <trkpt lat="45.54386" lon="6.62405">
        <ele>844.79998779297</ele>
        <time>2012-07-01T05:44:25Z</time>
      </trkpt>
      <trkpt lat="45.54386" lon="6.62396">
        <ele>844.79998779297</ele>
        <time>2012-07-01T05:44:28Z</time>
      </trkpt>
      <trkpt lat="45.54386" lon="6.62393">
        <ele>845.79998779297</ele>
        <time>2012-07-01T05:44:29Z</time>
      </trkpt>
      <trkpt lat="45.54379" lon="6.62377">
        <ele>847.20001220703</ele>
        <time>2012-07-01T05:44:35Z</time>
      </trkpt>
      <trkpt lat="45.54376" lon="6.62369">
        <ele>847.20001220703</ele>
        <time>2012-07-01T05:44:38Z</time>
      </trkpt>
      <trkpt lat="45.54372" lon="6.62357">
        <ele>848.20001220703</ele>
        <time>2012-07-01T05:44:42Z</time>
      </trkpt>
      <trkpt lat="45.54371" lon="6.62354">
        <ele>849.20001220703</ele>
        <time>2012-07-01T05:44:43Z</time>
      </trkpt>
      <trkpt lat="45.54362" lon="6.62319">
        <ele>851.40002441406</ele>
        <time>2012-07-01T05:44:56Z</time>
      </trkpt>
      <trkpt lat="45.5436" lon="6.62315">
        <ele>851.40002441406</ele>
        <time>2012-07-01T05:44:58Z</time>
      </trkpt>
      <trkpt lat="45.54358" lon="6.62306">
        <ele>852.59997558594</ele>
        <time>2012-07-01T05:45:01Z</time>
      </trkpt>
      <trkpt lat="45.54356" lon="6.62304">
        <ele>852.59997558594</ele>
        <time>2012-07-01T05:45:02Z</time>
      </trkpt>
      <trkpt lat="45.54351" lon="6.62287">
        <ele>853.59997558594</ele>
        <time>2012-07-01T05:45:08Z</time>
      </trkpt>
      <trkpt lat="45.54349" lon="6.62278">
        <ele>854.59997558594</ele>
        <time>2012-07-01T05:45:11Z</time>
      </trkpt>
      <trkpt lat="45.54347" lon="6.62268">
        <ele>854.59997558594</ele>
        <time>2012-07-01T05:45:14Z</time>
      </trkpt>
      <trkpt lat="45.54346" lon="6.62263">
        <ele>855.59997558594</ele>
        <time>2012-07-01T05:45:16Z</time>
      </trkpt>
      <trkpt lat="45.54346" lon="6.62264">
        <ele>855.59997558594</ele>
        <time>2012-07-01T05:45:24Z</time>
      </trkpt>
      <trkpt lat="45.54337" lon="6.62245">
        <ele>856.79998779297</ele>
        <time>2012-07-01T05:45:32Z</time>
      </trkpt>
      <trkpt lat="45.54335" lon="6.62241">
        <ele>856.79998779297</ele>
        <time>2012-07-01T05:45:34Z</time>
      </trkpt>
      <trkpt lat="45.54332" lon="6.62233">
        <ele>857.79998779297</ele>
        <time>2012-07-01T05:45:37Z</time>
      </trkpt>
      <trkpt lat="45.54332" lon="6.6223">
        <ele>857.79998779297</ele>
        <time>2012-07-01T05:45:38Z</time>
      </trkpt>
      <trkpt lat="45.54328" lon="6.62219">
        <ele>858.79998779297</ele>
        <time>2012-07-01T05:45:42Z</time>
      </trkpt>
      <trkpt lat="45.54326" lon="6.62216">
        <ele>858.79998779297</ele>
        <time>2012-07-01T05:45:43Z</time>
      </trkpt>
      <trkpt lat="45.54321" lon="6.62206">
        <ele>859.79998779297</ele>
        <time>2012-07-01T05:45:47Z</time>
      </trkpt>
      <trkpt lat="45.54321" lon="6.62206">
        <ele>859.79998779297</ele>
        <time>2012-07-01T05:45:51Z</time>
      </trkpt>
      <trkpt lat="45.54309" lon="6.62191">
        <ele>860.79998779297</ele>
        <time>2012-07-01T05:46:08Z</time>
      </trkpt>
      <trkpt lat="45.54308" lon="6.62189">
        <ele>862</ele>
        <time>2012-07-01T05:46:09Z</time>
      </trkpt>
      <trkpt lat="45.54304" lon="6.62179">
        <ele>863.20001220703</ele>
        <time>2012-07-01T05:46:13Z</time>
      </trkpt>
      <trkpt lat="45.543" lon="6.62174">
        <ele>863.20001220703</ele>
        <time>2012-07-01T05:46:17Z</time>
      </trkpt>
      <trkpt lat="45.54296" lon="6.62164">
        <ele>863.20001220703</ele>
        <time>2012-07-01T05:46:21Z</time>
      </trkpt>
      <trkpt lat="45.54296" lon="6.62161">
        <ele>863.20001220703</ele>
        <time>2012-07-01T05:46:22Z</time>
      </trkpt>
      <trkpt lat="45.54295" lon="6.62153">
        <ele>864.20001220703</ele>
        <time>2012-07-01T05:46:25Z</time>
      </trkpt>
      <trkpt lat="45.54292" lon="6.62144">
        <ele>865.20001220703</ele>
        <time>2012-07-01T05:46:29Z</time>
      </trkpt>
      <trkpt lat="45.5429" lon="6.62139">
        <ele>865.20001220703</ele>
        <time>2012-07-01T05:46:31Z</time>
      </trkpt>
      <trkpt lat="45.5428" lon="6.62117">
        <ele>867.40002441406</ele>
        <time>2012-07-01T05:46:40Z</time>
      </trkpt>
      <trkpt lat="45.54278" lon="6.62112">
        <ele>867.40002441406</ele>
        <time>2012-07-01T05:46:42Z</time>
      </trkpt>
      <trkpt lat="45.54274" lon="6.62099">
        <ele>868.59997558594</ele>
        <time>2012-07-01T05:46:47Z</time>
      </trkpt>
      <trkpt lat="45.54271" lon="6.62089">
        <ele>869.79998779297</ele>
        <time>2012-07-01T05:46:51Z</time>
      </trkpt>
      <trkpt lat="45.54267" lon="6.62083">
        <ele>870.79998779297</ele>
        <time>2012-07-01T05:46:55Z</time>
      </trkpt>
      <trkpt lat="45.54266" lon="6.62078">
        <ele>870.79998779297</ele>
        <time>2012-07-01T05:46:57Z</time>
      </trkpt>
      <trkpt lat="45.54259" lon="6.62065">
        <ele>871.79998779297</ele>
        <time>2012-07-01T05:47:05Z</time>
      </trkpt>
      <trkpt lat="45.54254" lon="6.62058">
        <ele>871.79998779297</ele>
        <time>2012-07-01T05:47:10Z</time>
      </trkpt>
      <trkpt lat="45.54246" lon="6.62044">
        <ele>873</ele>
        <time>2012-07-01T05:47:27Z</time>
      </trkpt>
      <trkpt lat="45.54244" lon="6.62039">
        <ele>873</ele>
        <time>2012-07-01T05:47:31Z</time>
      </trkpt>
      <trkpt lat="45.54242" lon="6.62036">
        <ele>874.20001220703</ele>
        <time>2012-07-01T05:47:33Z</time>
      </trkpt>
      <trkpt lat="45.54239" lon="6.62029">
        <ele>874.20001220703</ele>
        <time>2012-07-01T05:47:37Z</time>
      </trkpt>
      <trkpt lat="45.54234" lon="6.62018">
        <ele>875.20001220703</ele>
        <time>2012-07-01T05:47:43Z</time>
      </trkpt>
      <trkpt lat="45.54233" lon="6.62016">
        <ele>875.20001220703</ele>
        <time>2012-07-01T05:47:44Z</time>
      </trkpt>
      <trkpt lat="45.54229" lon="6.62009">
        <ele>876.20001220703</ele>
        <time>2012-07-01T05:47:48Z</time>
      </trkpt>
      <trkpt lat="45.54226" lon="6.62">
        <ele>876.20001220703</ele>
        <time>2012-07-01T05:47:53Z</time>
      </trkpt>
      <trkpt lat="45.54221" lon="6.61991">
        <ele>877.59997558594</ele>
        <time>2012-07-01T05:47:58Z</time>
      </trkpt>
      <trkpt lat="45.54216" lon="6.61981">
        <ele>878.59997558594</ele>
        <time>2012-07-01T05:48:05Z</time>
      </trkpt>
      <trkpt lat="45.54214" lon="6.61975">
        <ele>878.59997558594</ele>
        <time>2012-07-01T05:48:09Z</time>
      </trkpt>
      <trkpt lat="45.54213" lon="6.61972">
        <ele>879.59997558594</ele>
        <time>2012-07-01T05:48:11Z</time>
      </trkpt>
      <trkpt lat="45.5421" lon="6.6197">
        <ele>879.59997558594</ele>
        <time>2012-07-01T05:48:14Z</time>
      </trkpt>
      <trkpt lat="45.54208" lon="6.61967">
        <ele>880.79998779297</ele>
        <time>2012-07-01T05:48:17Z</time>
      </trkpt>
      <trkpt lat="45.54207" lon="6.61965">
        <ele>880.79998779297</ele>
        <time>2012-07-01T05:48:18Z</time>
      </trkpt>
      <trkpt lat="45.54203" lon="6.61958">
        <ele>881.79998779297</ele>
        <time>2012-07-01T05:48:23Z</time>
      </trkpt>
      <trkpt lat="45.54201" lon="6.61953">
        <ele>881.79998779297</ele>
        <time>2012-07-01T05:48:26Z</time>
      </trkpt>
      <trkpt lat="45.54193" lon="6.61937">
        <ele>884</ele>
        <time>2012-07-01T05:48:37Z</time>
      </trkpt>
      <trkpt lat="45.54191" lon="6.61934">
        <ele>885</ele>
        <time>2012-07-01T05:48:39Z</time>
      </trkpt>
      <trkpt lat="45.5419" lon="6.61932">
        <ele>885</ele>
        <time>2012-07-01T05:48:47Z</time>
      </trkpt>
      <trkpt lat="45.5419" lon="6.61932">
        <ele>885</ele>
        <time>2012-07-01T05:48:50Z</time>
      </trkpt>
      <trkpt lat="45.54189" lon="6.61932">
        <ele>885</ele>
        <time>2012-07-01T05:48:57Z</time>
      </trkpt>
      <trkpt lat="45.54189" lon="6.61931">
        <ele>885</ele>
        <time>2012-07-01T05:49:01Z</time>
      </trkpt>
      <trkpt lat="45.54188" lon="6.61931">
        <ele>885</ele>
        <time>2012-07-01T05:49:11Z</time>
      </trkpt>
      <trkpt lat="45.54188" lon="6.61927">
        <ele>885</ele>
        <time>2012-07-01T05:49:15Z</time>
      </trkpt>
      <trkpt lat="45.54188" lon="6.61927">
        <ele>885</ele>
        <time>2012-07-01T05:49:21Z</time>
      </trkpt>
      <trkpt lat="45.5418" lon="6.61913">
        <ele>886.20001220703</ele>
        <time>2012-07-01T05:49:32Z</time>
      </trkpt>
      <trkpt lat="45.54179" lon="6.61911">
        <ele>886.20001220703</ele>
        <time>2012-07-01T05:49:34Z</time>
      </trkpt>
      <trkpt lat="45.54176" lon="6.61903">
        <ele>887.20001220703</ele>
        <time>2012-07-01T05:49:40Z</time>
      </trkpt>
      <trkpt lat="45.54174" lon="6.61899">
        <ele>887.20001220703</ele>
        <time>2012-07-01T05:49:46Z</time>
      </trkpt>
      <trkpt lat="45.54171" lon="6.61894">
        <ele>888.40002441406</ele>
        <time>2012-07-01T05:49:56Z</time>
      </trkpt>
      <trkpt lat="45.54169" lon="6.61889">
        <ele>889.40002441406</ele>
        <time>2012-07-01T05:49:59Z</time>
      </trkpt>
      <trkpt lat="45.54165" lon="6.61883">
        <ele>889.40002441406</ele>
        <time>2012-07-01T05:50:04Z</time>
      </trkpt>
      <trkpt lat="45.54164" lon="6.6188">
        <ele>890.40002441406</ele>
        <time>2012-07-01T05:50:06Z</time>
      </trkpt>
      <trkpt lat="45.54152" lon="6.61856">
        <ele>892.59997558594</ele>
        <time>2012-07-01T05:50:22Z</time>
      </trkpt>
      <trkpt lat="45.54151" lon="6.61854">
        <ele>893.59997558594</ele>
        <time>2012-07-01T05:50:23Z</time>
      </trkpt>
      <trkpt lat="45.5415" lon="6.61849">
        <ele>893.59997558594</ele>
        <time>2012-07-01T05:50:26Z</time>
      </trkpt>
      <trkpt lat="45.54148" lon="6.61844">
        <ele>894.59997558594</ele>
        <time>2012-07-01T05:50:29Z</time>
      </trkpt>
      <trkpt lat="45.54146" lon="6.61837">
        <ele>895.59997558594</ele>
        <time>2012-07-01T05:50:33Z</time>
      </trkpt>
      <trkpt lat="45.54145" lon="6.61833">
        <ele>895.59997558594</ele>
        <time>2012-07-01T05:50:35Z</time>
      </trkpt>
      <trkpt lat="45.54142" lon="6.61827">
        <ele>896.59997558594</ele>
        <time>2012-07-01T05:50:39Z</time>
      </trkpt>
      <trkpt lat="45.54138" lon="6.61825">
        <ele>897.59997558594</ele>
        <time>2012-07-01T05:50:43Z</time>
      </trkpt>
      <trkpt lat="45.54135" lon="6.61832">
        <ele>898.59997558594</ele>
        <time>2012-07-01T05:50:49Z</time>
      </trkpt>
      <trkpt lat="45.54136" lon="6.61847">
        <ele>899.59997558594</ele>
        <time>2012-07-01T05:50:57Z</time>
      </trkpt>
      <trkpt lat="45.54137" lon="6.61852">
        <ele>899.59997558594</ele>
        <time>2012-07-01T05:51:00Z</time>
      </trkpt>
      <trkpt lat="45.54138" lon="6.6186">
        <ele>899.59997558594</ele>
        <time>2012-07-01T05:51:04Z</time>
      </trkpt>
      <trkpt lat="45.54138" lon="6.61862">
        <ele>900.79998779297</ele>
        <time>2012-07-01T05:51:05Z</time>
      </trkpt>
      <trkpt lat="45.5414" lon="6.61873">
        <ele>900.79998779297</ele>
        <time>2012-07-01T05:51:11Z</time>
      </trkpt>
      <trkpt lat="45.54141" lon="6.61875">
        <ele>902</ele>
        <time>2012-07-01T05:51:13Z</time>
      </trkpt>
      <trkpt lat="45.54143" lon="6.61886">
        <ele>903</ele>
        <time>2012-07-01T05:51:19Z</time>
      </trkpt>
      <trkpt lat="45.54144" lon="6.6189">
        <ele>903</ele>
        <time>2012-07-01T05:51:22Z</time>
      </trkpt>
      <trkpt lat="45.54154" lon="6.61913">
        <ele>905.20001220703</ele>
        <time>2012-07-01T05:51:36Z</time>
      </trkpt>
      <trkpt lat="45.54154" lon="6.6192">
        <ele>906.20001220703</ele>
        <time>2012-07-01T05:51:40Z</time>
      </trkpt>
      <trkpt lat="45.54149" lon="6.6192">
        <ele>907.40002441406</ele>
        <time>2012-07-01T05:51:46Z</time>
      </trkpt>
      <trkpt lat="45.54147" lon="6.61917">
        <ele>907.40002441406</ele>
        <time>2012-07-01T05:51:48Z</time>
      </trkpt>
      <trkpt lat="45.54146" lon="6.61911">
        <ele>908.40002441406</ele>
        <time>2012-07-01T05:51:51Z</time>
      </trkpt>
      <trkpt lat="45.54144" lon="6.61903">
        <ele>908.40002441406</ele>
        <time>2012-07-01T05:51:54Z</time>
      </trkpt>
      <trkpt lat="45.54139" lon="6.6189">
        <ele>909.59997558594</ele>
        <time>2012-07-01T05:51:59Z</time>
      </trkpt>
      <trkpt lat="45.54136" lon="6.61884">
        <ele>909.59997558594</ele>
        <time>2012-07-01T05:52:02Z</time>
      </trkpt>
      <trkpt lat="45.54133" lon="6.6188">
        <ele>910.79998779297</ele>
        <time>2012-07-01T05:52:04Z</time>
      </trkpt>
      <trkpt lat="45.54123" lon="6.61861">
        <ele>912.79998779297</ele>
        <time>2012-07-01T05:52:13Z</time>
      </trkpt>
      <trkpt lat="45.54118" lon="6.61853">
        <ele>912.79998779297</ele>
        <time>2012-07-01T05:52:17Z</time>
      </trkpt>
      <trkpt lat="45.54114" lon="6.61836">
        <ele>915</ele>
        <time>2012-07-01T05:52:23Z</time>
      </trkpt>
      <trkpt lat="45.54108" lon="6.61827">
        <ele>915</ele>
        <time>2012-07-01T05:52:27Z</time>
      </trkpt>
      <trkpt lat="45.54103" lon="6.61818">
        <ele>916.20001220703</ele>
        <time>2012-07-01T05:52:31Z</time>
      </trkpt>
      <trkpt lat="45.541" lon="6.61815">
        <ele>917.20001220703</ele>
        <time>2012-07-01T05:52:33Z</time>
      </trkpt>
      <trkpt lat="45.54093" lon="6.61804">
        <ele>918.40002441406</ele>
        <time>2012-07-01T05:52:38Z</time>
      </trkpt>
      <trkpt lat="45.54087" lon="6.61797">
        <ele>918.40002441406</ele>
        <time>2012-07-01T05:52:42Z</time>
      </trkpt>
      <trkpt lat="45.54078" lon="6.61761">
        <ele>921.59997558594</ele>
        <time>2012-07-01T05:52:54Z</time>
      </trkpt>
      <trkpt lat="45.54074" lon="6.61754">
        <ele>921.59997558594</ele>
        <time>2012-07-01T05:52:59Z</time>
      </trkpt>
      <trkpt lat="45.54074" lon="6.61754">
        <ele>921.59997558594</ele>
        <time>2012-07-01T05:53:10Z</time>
      </trkpt>
      <trkpt lat="45.54074" lon="6.61754">
        <ele>921.59997558594</ele>
        <time>2012-07-01T05:53:14Z</time>
      </trkpt>
      <trkpt lat="45.54067" lon="6.61749">
        <ele>921.59997558594</ele>
        <time>2012-07-01T05:53:21Z</time>
      </trkpt>
      <trkpt lat="45.54067" lon="6.61748">
        <ele>921.59997558594</ele>
        <time>2012-07-01T05:53:22Z</time>
      </trkpt>
      <trkpt lat="45.54066" lon="6.61745">
        <ele>921.59997558594</ele>
        <time>2012-07-01T05:53:27Z</time>
      </trkpt>
      <trkpt lat="45.54065" lon="6.61743">
        <ele>921.59997558594</ele>
        <time>2012-07-01T05:53:29Z</time>
      </trkpt>
      <trkpt lat="45.54063" lon="6.61737">
        <ele>921.59997558594</ele>
        <time>2012-07-01T05:53:33Z</time>
      </trkpt>
      <trkpt lat="45.54059" lon="6.61716">
        <ele>923.79998779297</ele>
        <time>2012-07-01T05:53:40Z</time>
      </trkpt>
      <trkpt lat="45.54058" lon="6.61714">
        <ele>923.79998779297</ele>
        <time>2012-07-01T05:53:41Z</time>
      </trkpt>
      <trkpt lat="45.5405" lon="6.61688">
        <ele>925.79998779297</ele>
        <time>2012-07-01T05:53:50Z</time>
      </trkpt>
      <trkpt lat="45.5405" lon="6.61685">
        <ele>925.79998779297</ele>
        <time>2012-07-01T05:53:51Z</time>
      </trkpt>
      <trkpt lat="45.54047" lon="6.61678">
        <ele>925.79998779297</ele>
        <time>2012-07-01T05:53:57Z</time>
      </trkpt>
      <trkpt lat="45.54045" lon="6.61672">
        <ele>925.79998779297</ele>
        <time>2012-07-01T05:54:01Z</time>
      </trkpt>
      <trkpt lat="45.54041" lon="6.61661">
        <ele>927</ele>
        <time>2012-07-01T05:54:07Z</time>
      </trkpt>
      <trkpt lat="45.54039" lon="6.61652">
        <ele>927</ele>
        <time>2012-07-01T05:54:13Z</time>
      </trkpt>
      <trkpt lat="45.54031" lon="6.61624">
        <ele>929</ele>
        <time>2012-07-01T05:54:33Z</time>
      </trkpt>
      <trkpt lat="45.5403" lon="6.61621">
        <ele>929</ele>
        <time>2012-07-01T05:54:35Z</time>
      </trkpt>
      <trkpt lat="45.54028" lon="6.61618">
        <ele>930</ele>
        <time>2012-07-01T05:54:38Z</time>
      </trkpt>
      <trkpt lat="45.54028" lon="6.61618">
        <ele>930</ele>
        <time>2012-07-01T05:54:41Z</time>
      </trkpt>
      <trkpt lat="45.54021" lon="6.61606">
        <ele>931.20001220703</ele>
        <time>2012-07-01T05:54:48Z</time>
      </trkpt>
      <trkpt lat="45.54015" lon="6.61601">
        <ele>931.20001220703</ele>
        <time>2012-07-01T05:54:51Z</time>
      </trkpt>
      <trkpt lat="45.54005" lon="6.61596">
        <ele>932.20001220703</ele>
        <time>2012-07-01T05:54:56Z</time>
      </trkpt>
      <trkpt lat="45.53997" lon="6.6159">
        <ele>933.20001220703</ele>
        <time>2012-07-01T05:55:00Z</time>
      </trkpt>
      <trkpt lat="45.53989" lon="6.61584">
        <ele>933.20001220703</ele>
        <time>2012-07-01T05:55:04Z</time>
      </trkpt>
      <trkpt lat="45.53974" lon="6.61571">
        <ele>934.40002441406</ele>
        <time>2012-07-01T05:55:12Z</time>
      </trkpt>
      <trkpt lat="45.5397" lon="6.61567">
        <ele>935.40002441406</ele>
        <time>2012-07-01T05:55:14Z</time>
      </trkpt>
      <trkpt lat="45.53951" lon="6.61549">
        <ele>936.59997558594</ele>
        <time>2012-07-01T05:55:24Z</time>
      </trkpt>
      <trkpt lat="45.53947" lon="6.61546">
        <ele>937.59997558594</ele>
        <time>2012-07-01T05:55:26Z</time>
      </trkpt>
      <trkpt lat="45.53937" lon="6.61537">
        <ele>938.59997558594</ele>
        <time>2012-07-01T05:55:31Z</time>
      </trkpt>
      <trkpt lat="45.53932" lon="6.61531">
        <ele>938.59997558594</ele>
        <time>2012-07-01T05:55:34Z</time>
      </trkpt>
      <trkpt lat="45.53918" lon="6.61518">
        <ele>939.79998779297</ele>
        <time>2012-07-01T05:55:41Z</time>
      </trkpt>
      <trkpt lat="45.53911" lon="6.61513">
        <ele>941</ele>
        <time>2012-07-01T05:55:44Z</time>
      </trkpt>
      <trkpt lat="45.53871" lon="6.61497">
        <ele>943.20001220703</ele>
        <time>2012-07-01T05:56:01Z</time>
      </trkpt>
      <trkpt lat="45.53868" lon="6.61494">
        <ele>943.20001220703</ele>
        <time>2012-07-01T05:56:03Z</time>
      </trkpt>
      <trkpt lat="45.53855" lon="6.61484">
        <ele>944.20001220703</ele>
        <time>2012-07-01T05:56:13Z</time>
      </trkpt>
      <trkpt lat="45.53854" lon="6.61483">
        <ele>944.20001220703</ele>
        <time>2012-07-01T05:56:14Z</time>
      </trkpt>
      <trkpt lat="45.53849" lon="6.61477">
        <ele>945.20001220703</ele>
        <time>2012-07-01T05:56:19Z</time>
      </trkpt>
      <trkpt lat="45.53847" lon="6.61475">
        <ele>946.20001220703</ele>
        <time>2012-07-01T05:56:21Z</time>
      </trkpt>
      <trkpt lat="45.53844" lon="6.61471">
        <ele>946.20001220703</ele>
        <time>2012-07-01T05:56:24Z</time>
      </trkpt>
      <trkpt lat="45.53841" lon="6.61467">
        <ele>947.20001220703</ele>
        <time>2012-07-01T05:56:27Z</time>
      </trkpt>
      <trkpt lat="45.5384" lon="6.61463">
        <ele>947.20001220703</ele>
        <time>2012-07-01T05:56:29Z</time>
      </trkpt>
      <trkpt lat="45.53831" lon="6.61454">
        <ele>948.20001220703</ele>
        <time>2012-07-01T05:56:37Z</time>
      </trkpt>
      <trkpt lat="45.53829" lon="6.61451">
        <ele>949.20001220703</ele>
        <time>2012-07-01T05:56:39Z</time>
      </trkpt>
      <trkpt lat="45.53824" lon="6.61445">
        <ele>950.20001220703</ele>
        <time>2012-07-01T05:56:44Z</time>
      </trkpt>
      <trkpt lat="45.53822" lon="6.61442">
        <ele>950.20001220703</ele>
        <time>2012-07-01T05:56:46Z</time>
      </trkpt>
      <trkpt lat="45.53814" lon="6.61438">
        <ele>951.20001220703</ele>
        <time>2012-07-01T05:56:57Z</time>
      </trkpt>
      <trkpt lat="45.53814" lon="6.6144">
        <ele>952.20001220703</ele>
        <time>2012-07-01T05:56:58Z</time>
      </trkpt>
      <trkpt lat="45.53813" lon="6.61443">
        <ele>953.20001220703</ele>
        <time>2012-07-01T05:57:01Z</time>
      </trkpt>
      <trkpt lat="45.53812" lon="6.61448">
        <ele>954.40002441406</ele>
        <time>2012-07-01T05:57:05Z</time>
      </trkpt>
      <trkpt lat="45.5381" lon="6.61456">
        <ele>955.79998779297</ele>
        <time>2012-07-01T05:57:12Z</time>
      </trkpt>
      <trkpt lat="45.5381" lon="6.61459">
        <ele>956.79998779297</ele>
        <time>2012-07-01T05:57:14Z</time>
      </trkpt>
      <trkpt lat="45.5381" lon="6.61464">
        <ele>956.79998779297</ele>
        <time>2012-07-01T05:57:18Z</time>
      </trkpt>
      <trkpt lat="45.5381" lon="6.61465">
        <ele>958</ele>
        <time>2012-07-01T05:57:19Z</time>
      </trkpt>
      <trkpt lat="45.53811" lon="6.61468">
        <ele>958</ele>
        <time>2012-07-01T05:57:21Z</time>
      </trkpt>
      <trkpt lat="45.53811" lon="6.6147">
        <ele>959</ele>
        <time>2012-07-01T05:57:23Z</time>
      </trkpt>
      <trkpt lat="45.53812" lon="6.61473">
        <ele>959</ele>
        <time>2012-07-01T05:57:25Z</time>
      </trkpt>
      <trkpt lat="45.53812" lon="6.61475">
        <ele>960.20001220703</ele>
        <time>2012-07-01T05:57:27Z</time>
      </trkpt>
      <trkpt lat="45.53812" lon="6.61478">
        <ele>960.20001220703</ele>
        <time>2012-07-01T05:57:29Z</time>
      </trkpt>
      <trkpt lat="45.53815" lon="6.61485">
        <ele>962.59997558594</ele>
        <time>2012-07-01T05:57:38Z</time>
      </trkpt>
      <trkpt lat="45.53815" lon="6.61487">
        <ele>962.59997558594</ele>
        <time>2012-07-01T05:57:41Z</time>
      </trkpt>
      <trkpt lat="45.53815" lon="6.61497">
        <ele>964.79998779297</ele>
        <time>2012-07-01T05:57:50Z</time>
      </trkpt>
      <trkpt lat="45.53813" lon="6.61503">
        <ele>966</ele>
        <time>2012-07-01T05:57:55Z</time>
      </trkpt>
      <trkpt lat="45.53813" lon="6.61506">
        <ele>967.20001220703</ele>
        <time>2012-07-01T05:57:59Z</time>
      </trkpt>
      <trkpt lat="45.53814" lon="6.61507">
        <ele>967.20001220703</ele>
        <time>2012-07-01T05:58:00Z</time>
      </trkpt>
      <trkpt lat="45.53818" lon="6.61514">
        <ele>968.40002441406</ele>
        <time>2012-07-01T05:58:06Z</time>
      </trkpt>
      <trkpt lat="45.53821" lon="6.61519">
        <ele>969.40002441406</ele>
        <time>2012-07-01T05:58:09Z</time>
      </trkpt>
      <trkpt lat="45.53823" lon="6.61527">
        <ele>970.59997558594</ele>
        <time>2012-07-01T05:58:18Z</time>
      </trkpt>
      <trkpt lat="45.53823" lon="6.61529">
        <ele>971.59997558594</ele>
        <time>2012-07-01T05:58:20Z</time>
      </trkpt>
      <trkpt lat="45.53826" lon="6.61535">
        <ele>971.59997558594</ele>
        <time>2012-07-01T05:58:25Z</time>
      </trkpt>
      <trkpt lat="45.53825" lon="6.61536">
        <ele>972.79998779297</ele>
        <time>2012-07-01T05:58:26Z</time>
      </trkpt>
      <trkpt lat="45.53829" lon="6.61541">
        <ele>972.79998779297</ele>
        <time>2012-07-01T05:58:30Z</time>
      </trkpt>
      <trkpt lat="45.53829" lon="6.61543">
        <ele>973.79998779297</ele>
        <time>2012-07-01T05:58:31Z</time>
      </trkpt>
      <trkpt lat="45.53832" lon="6.6155">
        <ele>973.79998779297</ele>
        <time>2012-07-01T05:58:36Z</time>
      </trkpt>
      <trkpt lat="45.53833" lon="6.61552">
        <ele>974.79998779297</ele>
        <time>2012-07-01T05:58:37Z</time>
      </trkpt>
      <trkpt lat="45.53835" lon="6.61557">
        <ele>975.79998779297</ele>
        <time>2012-07-01T05:58:41Z</time>
      </trkpt>
      <trkpt lat="45.53839" lon="6.61564">
        <ele>975.79998779297</ele>
        <time>2012-07-01T05:58:46Z</time>
      </trkpt>
      <trkpt lat="45.5384" lon="6.61565">
        <ele>976.79998779297</ele>
        <time>2012-07-01T05:58:47Z</time>
      </trkpt>
      <trkpt lat="45.53842" lon="6.61572">
        <ele>976.79998779297</ele>
        <time>2012-07-01T05:58:55Z</time>
      </trkpt>
      <trkpt lat="45.53842" lon="6.61575">
        <ele>976.79998779297</ele>
        <time>2012-07-01T05:58:58Z</time>
      </trkpt>
      <trkpt lat="45.53842" lon="6.61574">
        <ele>976.79998779297</ele>
        <time>2012-07-01T05:59:05Z</time>
      </trkpt>
      <trkpt lat="45.53843" lon="6.61578">
        <ele>976.79998779297</ele>
        <time>2012-07-01T05:59:09Z</time>
      </trkpt>
      <trkpt lat="45.53847" lon="6.61579">
        <ele>976.79998779297</ele>
        <time>2012-07-01T05:59:18Z</time>
      </trkpt>
      <trkpt lat="45.53845" lon="6.61585">
        <ele>977.79998779297</ele>
        <time>2012-07-01T05:59:21Z</time>
      </trkpt>
      <trkpt lat="45.53851" lon="6.61597">
        <ele>980</ele>
        <time>2012-07-01T05:59:33Z</time>
      </trkpt>
      <trkpt lat="45.53852" lon="6.61599">
        <ele>980</ele>
        <time>2012-07-01T05:59:35Z</time>
      </trkpt>
      <trkpt lat="45.53857" lon="6.61606">
        <ele>982</ele>
        <time>2012-07-01T05:59:41Z</time>
      </trkpt>
      <trkpt lat="45.53858" lon="6.61608">
        <ele>982</ele>
        <time>2012-07-01T05:59:42Z</time>
      </trkpt>
      <trkpt lat="45.53862" lon="6.61613">
        <ele>982</ele>
        <time>2012-07-01T05:59:47Z</time>
      </trkpt>
      <trkpt lat="45.53863" lon="6.61615">
        <ele>983</ele>
        <time>2012-07-01T05:59:48Z</time>
      </trkpt>
      <trkpt lat="45.53867" lon="6.61621">
        <ele>984.20001220703</ele>
        <time>2012-07-01T05:59:53Z</time>
      </trkpt>
      <trkpt lat="45.53867" lon="6.61621">
        <ele>984.20001220703</ele>
        <time>2012-07-01T05:59:54Z</time>
      </trkpt>
      <trkpt lat="45.53869" lon="6.61626">
        <ele>985.20001220703</ele>
        <time>2012-07-01T05:59:57Z</time>
      </trkpt>
      <trkpt lat="45.53873" lon="6.61636">
        <ele>987.40002441406</ele>
        <time>2012-07-01T06:00:05Z</time>
      </trkpt>
      <trkpt lat="45.53874" lon="6.61639">
        <ele>987.40002441406</ele>
        <time>2012-07-01T06:00:07Z</time>
      </trkpt>
      <trkpt lat="45.53874" lon="6.61641">
        <ele>988.59997558594</ele>
        <time>2012-07-01T06:00:09Z</time>
      </trkpt>
      <trkpt lat="45.53875" lon="6.61644">
        <ele>988.59997558594</ele>
        <time>2012-07-01T06:00:12Z</time>
      </trkpt>
      <trkpt lat="45.53876" lon="6.61646">
        <ele>989.59997558594</ele>
        <time>2012-07-01T06:00:15Z</time>
      </trkpt>
      <trkpt lat="45.53876" lon="6.61647">
        <ele>989.59997558594</ele>
        <time>2012-07-01T06:00:16Z</time>
      </trkpt>
      <trkpt lat="45.53877" lon="6.61654">
        <ele>990.79998779297</ele>
        <time>2012-07-01T06:00:20Z</time>
      </trkpt>
      <trkpt lat="45.53877" lon="6.61657">
        <ele>990.79998779297</ele>
        <time>2012-07-01T06:00:22Z</time>
      </trkpt>
      <trkpt lat="45.53877" lon="6.61665">
        <ele>994</ele>
        <time>2012-07-01T06:00:30Z</time>
      </trkpt>
      <trkpt lat="45.53875" lon="6.61664">
        <ele>995</ele>
        <time>2012-07-01T06:00:33Z</time>
      </trkpt>
      <trkpt lat="45.53872" lon="6.6166">
        <ele>996</ele>
        <time>2012-07-01T06:00:39Z</time>
      </trkpt>
      <trkpt lat="45.53872" lon="6.6166">
        <ele>997.20001220703</ele>
        <time>2012-07-01T06:00:41Z</time>
      </trkpt>
      <trkpt lat="45.5387" lon="6.61659">
        <ele>998.20001220703</ele>
        <time>2012-07-01T06:00:44Z</time>
      </trkpt>
      <trkpt lat="45.53868" lon="6.61658">
        <ele>998.20001220703</ele>
        <time>2012-07-01T06:00:47Z</time>
      </trkpt>
      <trkpt lat="45.53866" lon="6.61655">
        <ele>1000.4000244141</ele>
        <time>2012-07-01T06:00:52Z</time>
      </trkpt>
      <trkpt lat="45.53864" lon="6.61652">
        <ele>1001.4000244141</ele>
        <time>2012-07-01T06:00:56Z</time>
      </trkpt>
      <trkpt lat="45.53862" lon="6.6165">
        <ele>1002.4000244141</ele>
        <time>2012-07-01T06:01:00Z</time>
      </trkpt>
      <trkpt lat="45.53857" lon="6.61647">
        <ele>1003.5999755859</ele>
        <time>2012-07-01T06:01:06Z</time>
      </trkpt>
      <trkpt lat="45.53856" lon="6.61646">
        <ele>1004.5999755859</ele>
        <time>2012-07-01T06:01:07Z</time>
      </trkpt>
      <trkpt lat="45.53856" lon="6.61643">
        <ele>1004.5999755859</ele>
        <time>2012-07-01T06:01:10Z</time>
      </trkpt>
      <trkpt lat="45.53856" lon="6.61643">
        <ele>1005.5999755859</ele>
        <time>2012-07-01T06:01:11Z</time>
      </trkpt>
      <trkpt lat="45.53853" lon="6.61641">
        <ele>1006.799987793</ele>
        <time>2012-07-01T06:01:14Z</time>
      </trkpt>
      <trkpt lat="45.53852" lon="6.61639">
        <ele>1006.799987793</ele>
        <time>2012-07-01T06:01:16Z</time>
      </trkpt>
      <trkpt lat="45.53848" lon="6.61637">
        <ele>1007.799987793</ele>
        <time>2012-07-01T06:01:21Z</time>
      </trkpt>
      <trkpt lat="45.53847" lon="6.61637">
        <ele>1009</ele>
        <time>2012-07-01T06:01:22Z</time>
      </trkpt>
      <trkpt lat="45.53836" lon="6.61628">
        <ele>1012.200012207</ele>
        <time>2012-07-01T06:01:35Z</time>
      </trkpt>
      <trkpt lat="45.53833" lon="6.61626">
        <ele>1013.4000244141</ele>
        <time>2012-07-01T06:01:39Z</time>
      </trkpt>
      <trkpt lat="45.53831" lon="6.61625">
        <ele>1014.4000244141</ele>
        <time>2012-07-01T06:01:41Z</time>
      </trkpt>
      <trkpt lat="45.53828" lon="6.61624">
        <ele>1014.4000244141</ele>
        <time>2012-07-01T06:01:44Z</time>
      </trkpt>
      <trkpt lat="45.53826" lon="6.61622">
        <ele>1015.4000244141</ele>
        <time>2012-07-01T06:01:47Z</time>
      </trkpt>
      <trkpt lat="45.53824" lon="6.6162">
        <ele>1015.4000244141</ele>
        <time>2012-07-01T06:01:49Z</time>
      </trkpt>
      <trkpt lat="45.5382" lon="6.61615">
        <ele>1016.5999755859</ele>
        <time>2012-07-01T06:01:53Z</time>
      </trkpt>
      <trkpt lat="45.53819" lon="6.61614">
        <ele>1017.799987793</ele>
        <time>2012-07-01T06:01:54Z</time>
      </trkpt>
      <trkpt lat="45.53817" lon="6.6161">
        <ele>1017.799987793</ele>
        <time>2012-07-01T06:01:57Z</time>
      </trkpt>
      <trkpt lat="45.53814" lon="6.61603">
        <ele>1018.799987793</ele>
        <time>2012-07-01T06:02:02Z</time>
      </trkpt>
      <trkpt lat="45.53814" lon="6.61602">
        <ele>1019.799987793</ele>
        <time>2012-07-01T06:02:03Z</time>
      </trkpt>
      <trkpt lat="45.53812" lon="6.61597">
        <ele>1021</ele>
        <time>2012-07-01T06:02:07Z</time>
      </trkpt>
      <trkpt lat="45.53811" lon="6.61596">
        <ele>1021</ele>
        <time>2012-07-01T06:02:08Z</time>
      </trkpt>
      <trkpt lat="45.53808" lon="6.61594">
        <ele>1022</ele>
        <time>2012-07-01T06:02:11Z</time>
      </trkpt>
      <trkpt lat="45.53806" lon="6.61594">
        <ele>1022</ele>
        <time>2012-07-01T06:02:13Z</time>
      </trkpt>
      <trkpt lat="45.53802" lon="6.61591">
        <ele>1023</ele>
        <time>2012-07-01T06:02:18Z</time>
      </trkpt>
      <trkpt lat="45.53801" lon="6.61591">
        <ele>1024</ele>
        <time>2012-07-01T06:02:19Z</time>
      </trkpt>
      <trkpt lat="45.53794" lon="6.61589">
        <ele>1026.1999511719</ele>
        <time>2012-07-01T06:02:28Z</time>
      </trkpt>
      <trkpt lat="45.53792" lon="6.6159">
        <ele>1027.4000244141</ele>
        <time>2012-07-01T06:02:30Z</time>
      </trkpt>
      <trkpt lat="45.53787" lon="6.61591">
        <ele>1028.4000244141</ele>
        <time>2012-07-01T06:02:35Z</time>
      </trkpt>
      <trkpt lat="45.53783" lon="6.61593">
        <ele>1028.4000244141</ele>
        <time>2012-07-01T06:02:38Z</time>
      </trkpt>
      <trkpt lat="45.53778" lon="6.61594">
        <ele>1030.8000488281</ele>
        <time>2012-07-01T06:02:43Z</time>
      </trkpt>
      <trkpt lat="45.53773" lon="6.61592">
        <ele>1030.8000488281</ele>
        <time>2012-07-01T06:02:47Z</time>
      </trkpt>
      <trkpt lat="45.5377" lon="6.61591">
        <ele>1032</ele>
        <time>2012-07-01T06:02:51Z</time>
      </trkpt>
      <trkpt lat="45.53769" lon="6.6159">
        <ele>1033.1999511719</ele>
        <time>2012-07-01T06:02:52Z</time>
      </trkpt>
      <trkpt lat="45.53763" lon="6.61594">
        <ele>1035.4000244141</ele>
        <time>2012-07-01T06:02:59Z</time>
      </trkpt>
      <trkpt lat="45.53759" lon="6.61596">
        <ele>1036.4000244141</ele>
        <time>2012-07-01T06:03:04Z</time>
      </trkpt>
      <trkpt lat="45.53757" lon="6.61597">
        <ele>1036.4000244141</ele>
        <time>2012-07-01T06:03:07Z</time>
      </trkpt>
      <trkpt lat="45.53753" lon="6.61595">
        <ele>1037.4000244141</ele>
        <time>2012-07-01T06:03:11Z</time>
      </trkpt>
      <trkpt lat="45.53752" lon="6.61595">
        <ele>1038.5999755859</ele>
        <time>2012-07-01T06:03:14Z</time>
      </trkpt>
      <trkpt lat="45.53746" lon="6.61594">
        <ele>1039.5999755859</ele>
        <time>2012-07-01T06:03:18Z</time>
      </trkpt>
      <trkpt lat="45.53745" lon="6.61594">
        <ele>1039.5999755859</ele>
        <time>2012-07-01T06:03:19Z</time>
      </trkpt>
      <trkpt lat="45.53742" lon="6.61591">
        <ele>1040.5999755859</ele>
        <time>2012-07-01T06:03:24Z</time>
      </trkpt>
      <trkpt lat="45.5374" lon="6.61591">
        <ele>1041.8000488281</ele>
        <time>2012-07-01T06:03:27Z</time>
      </trkpt>
      <trkpt lat="45.53732" lon="6.61588">
        <ele>1042.8000488281</ele>
        <time>2012-07-01T06:03:36Z</time>
      </trkpt>
      <trkpt lat="45.5373" lon="6.61586">
        <ele>1043.8000488281</ele>
        <time>2012-07-01T06:03:38Z</time>
      </trkpt>
      <trkpt lat="45.53727" lon="6.61584">
        <ele>1045</ele>
        <time>2012-07-01T06:03:41Z</time>
      </trkpt>
      <trkpt lat="45.53726" lon="6.61583">
        <ele>1045</ele>
        <time>2012-07-01T06:03:44Z</time>
      </trkpt>
      <trkpt lat="45.53719" lon="6.6158">
        <ele>1046</ele>
        <time>2012-07-01T06:03:51Z</time>
      </trkpt>
      <trkpt lat="45.53718" lon="6.61579">
        <ele>1047.1999511719</ele>
        <time>2012-07-01T06:03:52Z</time>
      </trkpt>
      <trkpt lat="45.53716" lon="6.6158">
        <ele>1047.1999511719</ele>
        <time>2012-07-01T06:03:55Z</time>
      </trkpt>
      <trkpt lat="45.53716" lon="6.6158">
        <ele>1048.1999511719</ele>
        <time>2012-07-01T06:03:56Z</time>
      </trkpt>
      <trkpt lat="45.5371" lon="6.61579">
        <ele>1049.1999511719</ele>
        <time>2012-07-01T06:04:01Z</time>
      </trkpt>
      <trkpt lat="45.53704" lon="6.61579">
        <ele>1050.1999511719</ele>
        <time>2012-07-01T06:04:07Z</time>
      </trkpt>
      <trkpt lat="45.53702" lon="6.6158">
        <ele>1050.1999511719</ele>
        <time>2012-07-01T06:04:08Z</time>
      </trkpt>
      <trkpt lat="45.53696" lon="6.61578">
        <ele>1051.4000244141</ele>
        <time>2012-07-01T06:04:13Z</time>
      </trkpt>
      <trkpt lat="45.53694" lon="6.61576">
        <ele>1052.4000244141</ele>
        <time>2012-07-01T06:04:15Z</time>
      </trkpt>
      <trkpt lat="45.53691" lon="6.61576">
        <ele>1053.4000244141</ele>
        <time>2012-07-01T06:04:19Z</time>
      </trkpt>
      <trkpt lat="45.53686" lon="6.61578">
        <ele>1054.5999755859</ele>
        <time>2012-07-01T06:04:24Z</time>
      </trkpt>
      <trkpt lat="45.53678" lon="6.6158">
        <ele>1055.8000488281</ele>
        <time>2012-07-01T06:04:32Z</time>
      </trkpt>
      <trkpt lat="45.53678" lon="6.6158">
        <ele>1055.8000488281</ele>
        <time>2012-07-01T06:04:40Z</time>
      </trkpt>
      <trkpt lat="45.53665" lon="6.61587">
        <ele>1057.8000488281</ele>
        <time>2012-07-01T06:04:55Z</time>
      </trkpt>
      <trkpt lat="45.53665" lon="6.61587">
        <ele>1059</ele>
        <time>2012-07-01T06:04:56Z</time>
      </trkpt>
      <trkpt lat="45.53659" lon="6.61586">
        <ele>1060</ele>
        <time>2012-07-01T06:05:06Z</time>
      </trkpt>
      <trkpt lat="45.53657" lon="6.61586">
        <ele>1060</ele>
        <time>2012-07-01T06:05:08Z</time>
      </trkpt>
      <trkpt lat="45.53655" lon="6.61586">
        <ele>1061</ele>
        <time>2012-07-01T06:05:10Z</time>
      </trkpt>
      <trkpt lat="45.53654" lon="6.61583">
        <ele>1062.1999511719</ele>
        <time>2012-07-01T06:05:13Z</time>
      </trkpt>
      <trkpt lat="45.53649" lon="6.6158">
        <ele>1062.1999511719</ele>
        <time>2012-07-01T06:05:18Z</time>
      </trkpt>
      <trkpt lat="45.53648" lon="6.6158">
        <ele>1062.1999511719</ele>
        <time>2012-07-01T06:05:19Z</time>
      </trkpt>
      <trkpt lat="45.53645" lon="6.61577">
        <ele>1063.1999511719</ele>
        <time>2012-07-01T06:05:23Z</time>
      </trkpt>
      <trkpt lat="45.5364" lon="6.61573">
        <ele>1065.4000244141</ele>
        <time>2012-07-01T06:05:29Z</time>
      </trkpt>
      <trkpt lat="45.53637" lon="6.61571">
        <ele>1065.4000244141</ele>
        <time>2012-07-01T06:05:32Z</time>
      </trkpt>
      <trkpt lat="45.53633" lon="6.61569">
        <ele>1066.5999755859</ele>
        <time>2012-07-01T06:05:36Z</time>
      </trkpt>
      <trkpt lat="45.53629" lon="6.61568">
        <ele>1067.5999755859</ele>
        <time>2012-07-01T06:05:40Z</time>
      </trkpt>
      <trkpt lat="45.53623" lon="6.61567">
        <ele>1068.5999755859</ele>
        <time>2012-07-01T06:05:45Z</time>
      </trkpt>
      <trkpt lat="45.53622" lon="6.61569">
        <ele>1069.8000488281</ele>
        <time>2012-07-01T06:05:49Z</time>
      </trkpt>
      <trkpt lat="45.53623" lon="6.61573">
        <ele>1070.8000488281</ele>
        <time>2012-07-01T06:05:54Z</time>
      </trkpt>
      <trkpt lat="45.53624" lon="6.61578">
        <ele>1071.8000488281</ele>
        <time>2012-07-01T06:06:00Z</time>
      </trkpt>
      <trkpt lat="45.53631" lon="6.61596">
        <ele>1075</ele>
        <time>2012-07-01T06:06:17Z</time>
      </trkpt>
      <trkpt lat="45.53633" lon="6.61597">
        <ele>1076</ele>
        <time>2012-07-01T06:06:19Z</time>
      </trkpt>
      <trkpt lat="45.53635" lon="6.616">
        <ele>1077</ele>
        <time>2012-07-01T06:06:24Z</time>
      </trkpt>
      <trkpt lat="45.53635" lon="6.61601">
        <ele>1077</ele>
        <time>2012-07-01T06:06:25Z</time>
      </trkpt>
      <trkpt lat="45.53638" lon="6.61608">
        <ele>1078</ele>
        <time>2012-07-01T06:06:31Z</time>
      </trkpt>
      <trkpt lat="45.53638" lon="6.61609">
        <ele>1078</ele>
        <time>2012-07-01T06:06:33Z</time>
      </trkpt>
      <trkpt lat="45.5364" lon="6.61613">
        <ele>1079.1999511719</ele>
        <time>2012-07-01T06:06:36Z</time>
      </trkpt>
      <trkpt lat="45.53642" lon="6.61615">
        <ele>1079.1999511719</ele>
        <time>2012-07-01T06:06:38Z</time>
      </trkpt>
      <trkpt lat="45.53646" lon="6.61621">
        <ele>1080.1999511719</ele>
        <time>2012-07-01T06:06:43Z</time>
      </trkpt>
      <trkpt lat="45.5365" lon="6.61626">
        <ele>1081.4000244141</ele>
        <time>2012-07-01T06:06:48Z</time>
      </trkpt>
      <trkpt lat="45.53652" lon="6.6163">
        <ele>1082.4000244141</ele>
        <time>2012-07-01T06:06:51Z</time>
      </trkpt>
      <trkpt lat="45.53655" lon="6.61633">
        <ele>1082.4000244141</ele>
        <time>2012-07-01T06:06:55Z</time>
      </trkpt>
      <trkpt lat="45.53657" lon="6.61633">
        <ele>1083.5999755859</ele>
        <time>2012-07-01T06:06:56Z</time>
      </trkpt>
      <trkpt lat="45.53662" lon="6.61635">
        <ele>1083.5999755859</ele>
        <time>2012-07-01T06:07:00Z</time>
      </trkpt>
      <trkpt lat="45.53664" lon="6.61636">
        <ele>1084.5999755859</ele>
        <time>2012-07-01T06:07:01Z</time>
      </trkpt>
      <trkpt lat="45.5367" lon="6.61642">
        <ele>1085.8000488281</ele>
        <time>2012-07-01T06:07:07Z</time>
      </trkpt>
      <trkpt lat="45.53675" lon="6.61646">
        <ele>1086.8000488281</ele>
        <time>2012-07-01T06:07:11Z</time>
      </trkpt>
      <trkpt lat="45.53689" lon="6.61654">
        <ele>1088</ele>
        <time>2012-07-01T06:07:39Z</time>
      </trkpt>
      <trkpt lat="45.53693" lon="6.61659">
        <ele>1089.1999511719</ele>
        <time>2012-07-01T06:07:45Z</time>
      </trkpt>
      <trkpt lat="45.53695" lon="6.61662">
        <ele>1090.1999511719</ele>
        <time>2012-07-01T06:07:48Z</time>
      </trkpt>
      <trkpt lat="45.53696" lon="6.61664">
        <ele>1090.1999511719</ele>
        <time>2012-07-01T06:07:50Z</time>
      </trkpt>
      <trkpt lat="45.53699" lon="6.61668">
        <ele>1091.1999511719</ele>
        <time>2012-07-01T06:07:54Z</time>
      </trkpt>
      <trkpt lat="45.53701" lon="6.61672">
        <ele>1091.1999511719</ele>
        <time>2012-07-01T06:07:58Z</time>
      </trkpt>
      <trkpt lat="45.53701" lon="6.61674">
        <ele>1092.4000244141</ele>
        <time>2012-07-01T06:08:00Z</time>
      </trkpt>
      <trkpt lat="45.53703" lon="6.61674">
        <ele>1092.4000244141</ele>
        <time>2012-07-01T06:08:01Z</time>
      </trkpt>
      <trkpt lat="45.53702" lon="6.61677">
        <ele>1093.4000244141</ele>
        <time>2012-07-01T06:08:03Z</time>
      </trkpt>
      <trkpt lat="45.537" lon="6.61679">
        <ele>1094.4000244141</ele>
        <time>2012-07-01T06:08:07Z</time>
      </trkpt>
      <trkpt lat="45.53698" lon="6.61682">
        <ele>1094.4000244141</ele>
        <time>2012-07-01T06:08:10Z</time>
      </trkpt>
      <trkpt lat="45.53696" lon="6.61684">
        <ele>1095.4000244141</ele>
        <time>2012-07-01T06:08:13Z</time>
      </trkpt>
      <trkpt lat="45.53695" lon="6.61687">
        <ele>1095.4000244141</ele>
        <time>2012-07-01T06:08:15Z</time>
      </trkpt>
      <trkpt lat="45.53694" lon="6.6169">
        <ele>1096.4000244141</ele>
        <time>2012-07-01T06:08:18Z</time>
      </trkpt>
      <trkpt lat="45.53692" lon="6.61692">
        <ele>1097.5999755859</ele>
        <time>2012-07-01T06:08:21Z</time>
      </trkpt>
      <trkpt lat="45.53692" lon="6.61699">
        <ele>1098.5999755859</ele>
        <time>2012-07-01T06:08:27Z</time>
      </trkpt>
      <trkpt lat="45.53692" lon="6.617">
        <ele>1098.5999755859</ele>
        <time>2012-07-01T06:08:28Z</time>
      </trkpt>
      <trkpt lat="45.53698" lon="6.61708">
        <ele>1101.8000488281</ele>
        <time>2012-07-01T06:08:39Z</time>
      </trkpt>
      <trkpt lat="45.53699" lon="6.61713">
        <ele>1101.8000488281</ele>
        <time>2012-07-01T06:08:43Z</time>
      </trkpt>
      <trkpt lat="45.537" lon="6.61719">
        <ele>1103</ele>
        <time>2012-07-01T06:08:47Z</time>
      </trkpt>
      <trkpt lat="45.53701" lon="6.6172">
        <ele>1104</ele>
        <time>2012-07-01T06:08:48Z</time>
      </trkpt>
      <trkpt lat="45.53701" lon="6.61724">
        <ele>1104</ele>
        <time>2012-07-01T06:08:51Z</time>
      </trkpt>
      <trkpt lat="45.53704" lon="6.61727">
        <ele>1105</ele>
        <time>2012-07-01T06:08:54Z</time>
      </trkpt>
      <trkpt lat="45.53708" lon="6.61735">
        <ele>1106</ele>
        <time>2012-07-01T06:09:00Z</time>
      </trkpt>
      <trkpt lat="45.5371" lon="6.61737">
        <ele>1106</ele>
        <time>2012-07-01T06:09:02Z</time>
      </trkpt>
      <trkpt lat="45.53713" lon="6.61739">
        <ele>1107.1999511719</ele>
        <time>2012-07-01T06:09:06Z</time>
      </trkpt>
      <trkpt lat="45.53716" lon="6.61748">
        <ele>1108.4000244141</ele>
        <time>2012-07-01T06:09:13Z</time>
      </trkpt>
      <trkpt lat="45.53717" lon="6.61749">
        <ele>1108.4000244141</ele>
        <time>2012-07-01T06:09:14Z</time>
      </trkpt>
      <trkpt lat="45.53718" lon="6.61754">
        <ele>1109.4000244141</ele>
        <time>2012-07-01T06:09:18Z</time>
      </trkpt>
      <trkpt lat="45.53719" lon="6.61756">
        <ele>1110.4000244141</ele>
        <time>2012-07-01T06:09:20Z</time>
      </trkpt>
      <trkpt lat="45.53719" lon="6.61759">
        <ele>1111.5999755859</ele>
        <time>2012-07-01T06:09:23Z</time>
      </trkpt>
      <trkpt lat="45.53719" lon="6.61763">
        <ele>1111.5999755859</ele>
        <time>2012-07-01T06:09:27Z</time>
      </trkpt>
      <trkpt lat="45.53718" lon="6.61764">
        <ele>1112.8000488281</ele>
        <time>2012-07-01T06:09:29Z</time>
      </trkpt>
      <trkpt lat="45.53718" lon="6.61766">
        <ele>1112.8000488281</ele>
        <time>2012-07-01T06:09:30Z</time>
      </trkpt>
      <trkpt lat="45.53708" lon="6.61764">
        <ele>1116</ele>
        <time>2012-07-01T06:09:42Z</time>
      </trkpt>
      <trkpt lat="45.53705" lon="6.61767">
        <ele>1116</ele>
        <time>2012-07-01T06:09:46Z</time>
      </trkpt>
      <trkpt lat="45.53703" lon="6.61768">
        <ele>1117</ele>
        <time>2012-07-01T06:09:48Z</time>
      </trkpt>
      <trkpt lat="45.53703" lon="6.61768">
        <ele>1117</ele>
        <time>2012-07-01T06:09:49Z</time>
      </trkpt>
      <trkpt lat="45.537" lon="6.6177">
        <ele>1118</ele>
        <time>2012-07-01T06:09:53Z</time>
      </trkpt>
      <trkpt lat="45.53697" lon="6.6177">
        <ele>1118</ele>
        <time>2012-07-01T06:09:56Z</time>
      </trkpt>
      <trkpt lat="45.53697" lon="6.6177">
        <ele>1119</ele>
        <time>2012-07-01T06:09:58Z</time>
      </trkpt>
      <trkpt lat="45.53694" lon="6.61771">
        <ele>1120.1999511719</ele>
        <time>2012-07-01T06:10:01Z</time>
      </trkpt>
      <trkpt lat="45.5369" lon="6.61774">
        <ele>1121.1999511719</ele>
        <time>2012-07-01T06:10:07Z</time>
      </trkpt>
      <trkpt lat="45.53692" lon="6.61782">
        <ele>1122.4000244141</ele>
        <time>2012-07-01T06:10:17Z</time>
      </trkpt>
      <trkpt lat="45.53692" lon="6.61783">
        <ele>1123.5999755859</ele>
        <time>2012-07-01T06:10:18Z</time>
      </trkpt>
      <trkpt lat="45.53695" lon="6.61788">
        <ele>1124.5999755859</ele>
        <time>2012-07-01T06:10:23Z</time>
      </trkpt>
      <trkpt lat="45.53695" lon="6.61789">
        <ele>1124.5999755859</ele>
        <time>2012-07-01T06:10:24Z</time>
      </trkpt>
      <trkpt lat="45.53697" lon="6.61793">
        <ele>1125.5999755859</ele>
        <time>2012-07-01T06:10:28Z</time>
      </trkpt>
      <trkpt lat="45.53698" lon="6.61795">
        <ele>1125.5999755859</ele>
        <time>2012-07-01T06:10:30Z</time>
      </trkpt>
      <trkpt lat="45.537" lon="6.61799">
        <ele>1126.5999755859</ele>
        <time>2012-07-01T06:10:36Z</time>
      </trkpt>
      <trkpt lat="45.53701" lon="6.61801">
        <ele>1127.8000488281</ele>
        <time>2012-07-01T06:10:38Z</time>
      </trkpt>
      <trkpt lat="45.53709" lon="6.61813">
        <ele>1130</ele>
        <time>2012-07-01T06:10:51Z</time>
      </trkpt>
      <trkpt lat="45.5371" lon="6.61813">
        <ele>1131</ele>
        <time>2012-07-01T06:10:52Z</time>
      </trkpt>
      <trkpt lat="45.53711" lon="6.61818">
        <ele>1131</ele>
        <time>2012-07-01T06:10:56Z</time>
      </trkpt>
      <trkpt lat="45.53712" lon="6.61819">
        <ele>1132</ele>
        <time>2012-07-01T06:10:57Z</time>
      </trkpt>
      <trkpt lat="45.53713" lon="6.61823">
        <ele>1133.1999511719</ele>
        <time>2012-07-01T06:11:02Z</time>
      </trkpt>
      <trkpt lat="45.53714" lon="6.61826">
        <ele>1134.1999511719</ele>
        <time>2012-07-01T06:11:04Z</time>
      </trkpt>
      <trkpt lat="45.53717" lon="6.61832">
        <ele>1135.4000244141</ele>
        <time>2012-07-01T06:11:10Z</time>
      </trkpt>
      <trkpt lat="45.53718" lon="6.61834">
        <ele>1135.4000244141</ele>
        <time>2012-07-01T06:11:11Z</time>
      </trkpt>
      <trkpt lat="45.53719" lon="6.61837">
        <ele>1136.4000244141</ele>
        <time>2012-07-01T06:11:14Z</time>
      </trkpt>
      <trkpt lat="45.53723" lon="6.61843">
        <ele>1137.4000244141</ele>
        <time>2012-07-01T06:11:20Z</time>
      </trkpt>
      <trkpt lat="45.53723" lon="6.61844">
        <ele>1137.4000244141</ele>
        <time>2012-07-01T06:11:22Z</time>
      </trkpt>
      <trkpt lat="45.53726" lon="6.61848">
        <ele>1138.4000244141</ele>
        <time>2012-07-01T06:11:26Z</time>
      </trkpt>
      <trkpt lat="45.53728" lon="6.6185">
        <ele>1139.5999755859</ele>
        <time>2012-07-01T06:11:28Z</time>
      </trkpt>
      <trkpt lat="45.5373" lon="6.61856">
        <ele>1140.8000488281</ele>
        <time>2012-07-01T06:11:32Z</time>
      </trkpt>
      <trkpt lat="45.53731" lon="6.61857">
        <ele>1140.8000488281</ele>
        <time>2012-07-01T06:11:33Z</time>
      </trkpt>
      <trkpt lat="45.53733" lon="6.61862">
        <ele>1140.8000488281</ele>
        <time>2012-07-01T06:11:37Z</time>
      </trkpt>
      <trkpt lat="45.53733" lon="6.61864">
        <ele>1141.8000488281</ele>
        <time>2012-07-01T06:11:38Z</time>
      </trkpt>
      <trkpt lat="45.53737" lon="6.61883">
        <ele>1144</ele>
        <time>2012-07-01T06:11:51Z</time>
      </trkpt>
      <trkpt lat="45.53738" lon="6.61885">
        <ele>1145</ele>
        <time>2012-07-01T06:11:52Z</time>
      </trkpt>
      <trkpt lat="45.53739" lon="6.61893">
        <ele>1146</ele>
        <time>2012-07-01T06:11:57Z</time>
      </trkpt>
      <trkpt lat="45.53739" lon="6.61896">
        <ele>1146</ele>
        <time>2012-07-01T06:11:59Z</time>
      </trkpt>
      <trkpt lat="45.53739" lon="6.61899">
        <ele>1146</ele>
        <time>2012-07-01T06:12:01Z</time>
      </trkpt>
      <trkpt lat="45.5374" lon="6.619">
        <ele>1147</ele>
        <time>2012-07-01T06:12:02Z</time>
      </trkpt>
      <trkpt lat="45.53743" lon="6.61908">
        <ele>1148.1999511719</ele>
        <time>2012-07-01T06:12:08Z</time>
      </trkpt>
      <trkpt lat="45.53744" lon="6.61909">
        <ele>1148.1999511719</ele>
        <time>2012-07-01T06:12:10Z</time>
      </trkpt>
      <trkpt lat="45.53746" lon="6.6191">
        <ele>1149.4000244141</ele>
        <time>2012-07-01T06:12:12Z</time>
      </trkpt>
      <trkpt lat="45.53749" lon="6.61917">
        <ele>1151.4000244141</ele>
        <time>2012-07-01T06:12:19Z</time>
      </trkpt>
      <trkpt lat="45.53752" lon="6.6192">
        <ele>1151.4000244141</ele>
        <time>2012-07-01T06:12:24Z</time>
      </trkpt>
      <trkpt lat="45.53754" lon="6.61924">
        <ele>1152.8000488281</ele>
        <time>2012-07-01T06:12:28Z</time>
      </trkpt>
      <trkpt lat="45.53755" lon="6.61926">
        <ele>1154</ele>
        <time>2012-07-01T06:12:30Z</time>
      </trkpt>
      <trkpt lat="45.53759" lon="6.61929">
        <ele>1155</ele>
        <time>2012-07-01T06:12:36Z</time>
      </trkpt>
      <trkpt lat="45.53759" lon="6.6193">
        <ele>1155</ele>
        <time>2012-07-01T06:12:40Z</time>
      </trkpt>
      <trkpt lat="45.53766" lon="6.61939">
        <ele>1156</ele>
        <time>2012-07-01T06:12:50Z</time>
      </trkpt>
      <trkpt lat="45.53768" lon="6.61943">
        <ele>1156</ele>
        <time>2012-07-01T06:12:53Z</time>
      </trkpt>
      <trkpt lat="45.53772" lon="6.61953">
        <ele>1159.1999511719</ele>
        <time>2012-07-01T06:13:02Z</time>
      </trkpt>
      <trkpt lat="45.53772" lon="6.61956">
        <ele>1159.1999511719</ele>
        <time>2012-07-01T06:13:04Z</time>
      </trkpt>
      <trkpt lat="45.53773" lon="6.61961">
        <ele>1160.1999511719</ele>
        <time>2012-07-01T06:13:07Z</time>
      </trkpt>
      <trkpt lat="45.53774" lon="6.61963">
        <ele>1160.1999511719</ele>
        <time>2012-07-01T06:13:09Z</time>
      </trkpt>
      <trkpt lat="45.53776" lon="6.61971">
        <ele>1161.4000244141</ele>
        <time>2012-07-01T06:13:14Z</time>
      </trkpt>
      <trkpt lat="45.53776" lon="6.61973">
        <ele>1162.5999755859</ele>
        <time>2012-07-01T06:13:15Z</time>
      </trkpt>
      <trkpt lat="45.53775" lon="6.61979">
        <ele>1163.5999755859</ele>
        <time>2012-07-01T06:13:20Z</time>
      </trkpt>
      <trkpt lat="45.53775" lon="6.61983">
        <ele>1163.5999755859</ele>
        <time>2012-07-01T06:13:23Z</time>
      </trkpt>
      <trkpt lat="45.53775" lon="6.6199">
        <ele>1164.5999755859</ele>
        <time>2012-07-01T06:13:27Z</time>
      </trkpt>
      <trkpt lat="45.53776" lon="6.61993">
        <ele>1166.4000244141</ele>
        <time>2012-07-01T06:13:30Z</time>
      </trkpt>
      <trkpt lat="45.53777" lon="6.61996">
        <ele>1166.4000244141</ele>
        <time>2012-07-01T06:13:32Z</time>
      </trkpt>
      <trkpt lat="45.5378" lon="6.62004">
        <ele>1167.4000244141</ele>
        <time>2012-07-01T06:13:38Z</time>
      </trkpt>
      <trkpt lat="45.53781" lon="6.62008">
        <ele>1167.4000244141</ele>
        <time>2012-07-01T06:13:41Z</time>
      </trkpt>
      <trkpt lat="45.53781" lon="6.62011">
        <ele>1168.4000244141</ele>
        <time>2012-07-01T06:13:43Z</time>
      </trkpt>
      <trkpt lat="45.53781" lon="6.62011">
        <ele>1168.4000244141</ele>
        <time>2012-07-01T06:13:44Z</time>
      </trkpt>
      <trkpt lat="45.53782" lon="6.62013">
        <ele>1169.4000244141</ele>
        <time>2012-07-01T06:13:46Z</time>
      </trkpt>
      <trkpt lat="45.53784" lon="6.6202">
        <ele>1170.5999755859</ele>
        <time>2012-07-01T06:13:51Z</time>
      </trkpt>
      <trkpt lat="45.53788" lon="6.62028">
        <ele>1173</ele>
        <time>2012-07-01T06:13:59Z</time>
      </trkpt>
      <trkpt lat="45.5379" lon="6.62031">
        <ele>1173</ele>
        <time>2012-07-01T06:14:01Z</time>
      </trkpt>
      <trkpt lat="45.53791" lon="6.62033">
        <ele>1174</ele>
        <time>2012-07-01T06:14:04Z</time>
      </trkpt>
      <trkpt lat="45.53792" lon="6.62037">
        <ele>1175</ele>
        <time>2012-07-01T06:14:08Z</time>
      </trkpt>
      <trkpt lat="45.53793" lon="6.62042">
        <ele>1176.1999511719</ele>
        <time>2012-07-01T06:14:12Z</time>
      </trkpt>
      <trkpt lat="45.53794" lon="6.62044">
        <ele>1176.1999511719</ele>
        <time>2012-07-01T06:14:13Z</time>
      </trkpt>
      <trkpt lat="45.53796" lon="6.62047">
        <ele>1177.1999511719</ele>
        <time>2012-07-01T06:14:17Z</time>
      </trkpt>
      <trkpt lat="45.53799" lon="6.62051">
        <ele>1178.1999511719</ele>
        <time>2012-07-01T06:14:22Z</time>
      </trkpt>
      <trkpt lat="45.53801" lon="6.62054">
        <ele>1179.1999511719</ele>
        <time>2012-07-01T06:14:25Z</time>
      </trkpt>
      <trkpt lat="45.53806" lon="6.62061">
        <ele>1181.4000244141</ele>
        <time>2012-07-01T06:14:31Z</time>
      </trkpt>
      <trkpt lat="45.53808" lon="6.62062">
        <ele>1181.4000244141</ele>
        <time>2012-07-01T06:14:32Z</time>
      </trkpt>
      <trkpt lat="45.53812" lon="6.62069">
        <ele>1182.4000244141</ele>
        <time>2012-07-01T06:14:38Z</time>
      </trkpt>
      <trkpt lat="45.53813" lon="6.62069">
        <ele>1183.4000244141</ele>
        <time>2012-07-01T06:14:39Z</time>
      </trkpt>
      <trkpt lat="45.53817" lon="6.62073">
        <ele>1183.4000244141</ele>
        <time>2012-07-01T06:14:43Z</time>
      </trkpt>
      <trkpt lat="45.53818" lon="6.62073">
        <ele>1184.5999755859</ele>
        <time>2012-07-01T06:14:44Z</time>
      </trkpt>
      <trkpt lat="45.53821" lon="6.62076">
        <ele>1186</ele>
        <time>2012-07-01T06:14:48Z</time>
      </trkpt>
      <trkpt lat="45.53822" lon="6.62078">
        <ele>1186</ele>
        <time>2012-07-01T06:14:50Z</time>
      </trkpt>
      <trkpt lat="45.53826" lon="6.62089">
        <ele>1188.1999511719</ele>
        <time>2012-07-01T06:14:59Z</time>
      </trkpt>
      <trkpt lat="45.53827" lon="6.62093">
        <ele>1189.1999511719</ele>
        <time>2012-07-01T06:15:02Z</time>
      </trkpt>
      <trkpt lat="45.5383" lon="6.621">
        <ele>1190.4000244141</ele>
        <time>2012-07-01T06:15:06Z</time>
      </trkpt>
      <trkpt lat="45.53831" lon="6.62102">
        <ele>1190.4000244141</ele>
        <time>2012-07-01T06:15:08Z</time>
      </trkpt>
      <trkpt lat="45.53833" lon="6.62108">
        <ele>1193.1999511719</ele>
        <time>2012-07-01T06:15:13Z</time>
      </trkpt>
      <trkpt lat="45.53833" lon="6.62111">
        <ele>1193.1999511719</ele>
        <time>2012-07-01T06:15:14Z</time>
      </trkpt>
      <trkpt lat="45.53833" lon="6.62114">
        <ele>1193.1999511719</ele>
        <time>2012-07-01T06:15:17Z</time>
      </trkpt>
      <trkpt lat="45.53834" lon="6.62119">
        <ele>1194.1999511719</ele>
        <time>2012-07-01T06:15:21Z</time>
      </trkpt>
      <trkpt lat="45.53835" lon="6.62128">
        <ele>1194.1999511719</ele>
        <time>2012-07-01T06:15:29Z</time>
      </trkpt>
      <trkpt lat="45.53837" lon="6.62137">
        <ele>1195.1999511719</ele>
        <time>2012-07-01T06:15:38Z</time>
      </trkpt>
      <trkpt lat="45.53837" lon="6.62137">
        <ele>1196.4000244141</ele>
        <time>2012-07-01T06:15:39Z</time>
      </trkpt>
      <trkpt lat="45.53838" lon="6.62146">
        <ele>1197.4000244141</ele>
        <time>2012-07-01T06:15:45Z</time>
      </trkpt>
      <trkpt lat="45.53838" lon="6.62148">
        <ele>1197.4000244141</ele>
        <time>2012-07-01T06:15:47Z</time>
      </trkpt>
      <trkpt lat="45.53838" lon="6.6215">
        <ele>1198.4000244141</ele>
        <time>2012-07-01T06:15:52Z</time>
      </trkpt>
      <trkpt lat="45.53841" lon="6.62158">
        <ele>1198.4000244141</ele>
        <time>2012-07-01T06:15:57Z</time>
      </trkpt>
      <trkpt lat="45.53842" lon="6.62163">
        <ele>1199.5999755859</ele>
        <time>2012-07-01T06:16:01Z</time>
      </trkpt>
      <trkpt lat="45.53841" lon="6.62166">
        <ele>1199.5999755859</ele>
        <time>2012-07-01T06:16:03Z</time>
      </trkpt>
      <trkpt lat="45.53844" lon="6.6218">
        <ele>1202.8000488281</ele>
        <time>2012-07-01T06:16:14Z</time>
      </trkpt>
      <trkpt lat="45.53846" lon="6.62183">
        <ele>1202.8000488281</ele>
        <time>2012-07-01T06:16:17Z</time>
      </trkpt>
      <trkpt lat="45.53846" lon="6.62186">
        <ele>1203.8000488281</ele>
        <time>2012-07-01T06:16:19Z</time>
      </trkpt>
      <trkpt lat="45.53847" lon="6.6219">
        <ele>1203.8000488281</ele>
        <time>2012-07-01T06:16:21Z</time>
      </trkpt>
      <trkpt lat="45.53848" lon="6.62197">
        <ele>1205</ele>
        <time>2012-07-01T06:16:26Z</time>
      </trkpt>
      <trkpt lat="45.53848" lon="6.62198">
        <ele>1206</ele>
        <time>2012-07-01T06:16:27Z</time>
      </trkpt>
      <trkpt lat="45.53848" lon="6.62204">
        <ele>1207.1999511719</ele>
        <time>2012-07-01T06:16:32Z</time>
      </trkpt>
      <trkpt lat="45.53847" lon="6.62207">
        <ele>1207.1999511719</ele>
        <time>2012-07-01T06:16:34Z</time>
      </trkpt>
      <trkpt lat="45.53847" lon="6.6221">
        <ele>1208.4000244141</ele>
        <time>2012-07-01T06:16:36Z</time>
      </trkpt>
      <trkpt lat="45.53848" lon="6.62217">
        <ele>1209.5999755859</ele>
        <time>2012-07-01T06:16:41Z</time>
      </trkpt>
      <trkpt lat="45.53847" lon="6.62219">
        <ele>1209.5999755859</ele>
        <time>2012-07-01T06:16:43Z</time>
      </trkpt>
      <trkpt lat="45.53846" lon="6.62226">
        <ele>1210.8000488281</ele>
        <time>2012-07-01T06:16:48Z</time>
      </trkpt>
      <trkpt lat="45.53846" lon="6.62229">
        <ele>1211.8000488281</ele>
        <time>2012-07-01T06:16:50Z</time>
      </trkpt>
      <trkpt lat="45.53847" lon="6.62236">
        <ele>1213</ele>
        <time>2012-07-01T06:16:55Z</time>
      </trkpt>
      <trkpt lat="45.53847" lon="6.6224">
        <ele>1213</ele>
        <time>2012-07-01T06:16:58Z</time>
      </trkpt>
      <trkpt lat="45.53849" lon="6.62246">
        <ele>1214</ele>
        <time>2012-07-01T06:17:02Z</time>
      </trkpt>
      <trkpt lat="45.53849" lon="6.62248">
        <ele>1214</ele>
        <time>2012-07-01T06:17:03Z</time>
      </trkpt>
      <trkpt lat="45.53849" lon="6.62257">
        <ele>1216.1999511719</ele>
        <time>2012-07-01T06:17:10Z</time>
      </trkpt>
      <trkpt lat="45.53849" lon="6.6226">
        <ele>1216.1999511719</ele>
        <time>2012-07-01T06:17:14Z</time>
      </trkpt>
      <trkpt lat="45.53853" lon="6.62265">
        <ele>1216.1999511719</ele>
        <time>2012-07-01T06:17:27Z</time>
      </trkpt>
      <trkpt lat="45.53851" lon="6.62269">
        <ele>1216.1999511719</ele>
        <time>2012-07-01T06:17:31Z</time>
      </trkpt>
      <trkpt lat="45.53852" lon="6.62275">
        <ele>1218.4000244141</ele>
        <time>2012-07-01T06:17:36Z</time>
      </trkpt>
      <trkpt lat="45.53855" lon="6.6228">
        <ele>1218.4000244141</ele>
        <time>2012-07-01T06:17:39Z</time>
      </trkpt>
      <trkpt lat="45.53856" lon="6.62284">
        <ele>1218.4000244141</ele>
        <time>2012-07-01T06:17:43Z</time>
      </trkpt>
      <trkpt lat="45.53858" lon="6.62294">
        <ele>1218.4000244141</ele>
        <time>2012-07-01T06:17:48Z</time>
      </trkpt>
      <trkpt lat="45.53863" lon="6.62305">
        <ele>1219.4000244141</ele>
        <time>2012-07-01T06:17:53Z</time>
      </trkpt>
      <trkpt lat="45.53869" lon="6.6232">
        <ele>1220.4000244141</ele>
        <time>2012-07-01T06:17:59Z</time>
      </trkpt>
      <trkpt lat="45.53871" lon="6.62324">
        <ele>1221.5999755859</ele>
        <time>2012-07-01T06:18:01Z</time>
      </trkpt>
      <trkpt lat="45.53875" lon="6.62336">
        <ele>1222.5999755859</ele>
        <time>2012-07-01T06:18:05Z</time>
      </trkpt>
      <trkpt lat="45.53876" lon="6.62341">
        <ele>1222.5999755859</ele>
        <time>2012-07-01T06:18:07Z</time>
      </trkpt>
      <trkpt lat="45.5388" lon="6.62352">
        <ele>1223.5999755859</ele>
        <time>2012-07-01T06:18:11Z</time>
      </trkpt>
      <trkpt lat="45.53883" lon="6.62357">
        <ele>1223.5999755859</ele>
        <time>2012-07-01T06:18:14Z</time>
      </trkpt>
      <trkpt lat="45.53882" lon="6.62357">
        <ele>1223.5999755859</ele>
        <time>2012-07-01T06:18:21Z</time>
      </trkpt>
      <trkpt lat="45.53885" lon="6.6236">
        <ele>1223.5999755859</ele>
        <time>2012-07-01T06:18:26Z</time>
      </trkpt>
      <trkpt lat="45.53885" lon="6.6236">
        <ele>1223.5999755859</ele>
        <time>2012-07-01T06:18:44Z</time>
      </trkpt>
      <trkpt lat="45.53885" lon="6.62361">
        <ele>1223.5999755859</ele>
        <time>2012-07-01T06:18:48Z</time>
      </trkpt>
      <trkpt lat="45.53886" lon="6.62362">
        <ele>1223.5999755859</ele>
        <time>2012-07-01T06:18:56Z</time>
      </trkpt>
      <trkpt lat="45.53887" lon="6.62363">
        <ele>1223.5999755859</ele>
        <time>2012-07-01T06:19:00Z</time>
      </trkpt>
      <trkpt lat="45.53888" lon="6.62366">
        <ele>1224.5999755859</ele>
        <time>2012-07-01T06:19:08Z</time>
      </trkpt>
      <trkpt lat="45.5389" lon="6.62369">
        <ele>1224.5999755859</ele>
        <time>2012-07-01T06:19:13Z</time>
      </trkpt>
      <trkpt lat="45.53893" lon="6.62374">
        <ele>1224.5999755859</ele>
        <time>2012-07-01T06:19:25Z</time>
      </trkpt>
      <trkpt lat="45.53895" lon="6.62378">
        <ele>1225.5999755859</ele>
        <time>2012-07-01T06:19:28Z</time>
      </trkpt>
      <trkpt lat="45.53901" lon="6.62391">
        <ele>1225.5999755859</ele>
        <time>2012-07-01T06:19:33Z</time>
      </trkpt>
      <trkpt lat="45.53905" lon="6.62403">
        <ele>1227.8000488281</ele>
        <time>2012-07-01T06:19:37Z</time>
      </trkpt>
      <trkpt lat="45.53906" lon="6.62408">
        <ele>1227.8000488281</ele>
        <time>2012-07-01T06:19:39Z</time>
      </trkpt>
      <trkpt lat="45.53906" lon="6.62415">
        <ele>1228.8000488281</ele>
        <time>2012-07-01T06:19:43Z</time>
      </trkpt>
      <trkpt lat="45.53905" lon="6.62419">
        <ele>1229.8000488281</ele>
        <time>2012-07-01T06:19:45Z</time>
      </trkpt>
      <trkpt lat="45.53905" lon="6.62421">
        <ele>1229.8000488281</ele>
        <time>2012-07-01T06:19:53Z</time>
      </trkpt>
      <trkpt lat="45.53906" lon="6.62427">
        <ele>1229.8000488281</ele>
        <time>2012-07-01T06:19:59Z</time>
      </trkpt>
      <trkpt lat="45.53905" lon="6.62435">
        <ele>1230.8000488281</ele>
        <time>2012-07-01T06:20:03Z</time>
      </trkpt>
      <trkpt lat="45.53905" lon="6.62444">
        <ele>1232</ele>
        <time>2012-07-01T06:20:08Z</time>
      </trkpt>
      <trkpt lat="45.53905" lon="6.62459">
        <ele>1234</ele>
        <time>2012-07-01T06:20:17Z</time>
      </trkpt>
      <trkpt lat="45.53904" lon="6.62461">
        <ele>1234</ele>
        <time>2012-07-01T06:20:19Z</time>
      </trkpt>
      <trkpt lat="45.53904" lon="6.62466">
        <ele>1235.1999511719</ele>
        <time>2012-07-01T06:20:22Z</time>
      </trkpt>
      <trkpt lat="45.53904" lon="6.62469">
        <ele>1235.1999511719</ele>
        <time>2012-07-01T06:20:24Z</time>
      </trkpt>
      <trkpt lat="45.53903" lon="6.62483">
        <ele>1236.4000244141</ele>
        <time>2012-07-01T06:20:31Z</time>
      </trkpt>
      <trkpt lat="45.53903" lon="6.62485">
        <ele>1236.4000244141</ele>
        <time>2012-07-01T06:20:35Z</time>
      </trkpt>
      <trkpt lat="45.53904" lon="6.62487">
        <ele>1236.4000244141</ele>
        <time>2012-07-01T06:20:44Z</time>
      </trkpt>
      <trkpt lat="45.53904" lon="6.62493">
        <ele>1237.4000244141</ele>
        <time>2012-07-01T06:20:49Z</time>
      </trkpt>
      <trkpt lat="45.53905" lon="6.62494">
        <ele>1237.4000244141</ele>
        <time>2012-07-01T06:20:56Z</time>
      </trkpt>
      <trkpt lat="45.53905" lon="6.62502">
        <ele>1238.5999755859</ele>
        <time>2012-07-01T06:21:08Z</time>
      </trkpt>
      <trkpt lat="45.53905" lon="6.62504">
        <ele>1238.5999755859</ele>
        <time>2012-07-01T06:21:09Z</time>
      </trkpt>
      <trkpt lat="45.53906" lon="6.62518">
        <ele>1239.5999755859</ele>
        <time>2012-07-01T06:21:18Z</time>
      </trkpt>
      <trkpt lat="45.53906" lon="6.62522">
        <ele>1239.5999755859</ele>
        <time>2012-07-01T06:21:20Z</time>
      </trkpt>
      <trkpt lat="45.53906" lon="6.62537">
        <ele>1240.5999755859</ele>
        <time>2012-07-01T06:21:28Z</time>
      </trkpt>
      <trkpt lat="45.53906" lon="6.62541">
        <ele>1241.5999755859</ele>
        <time>2012-07-01T06:21:30Z</time>
      </trkpt>
      <trkpt lat="45.53903" lon="6.62553">
        <ele>1242.5999755859</ele>
        <time>2012-07-01T06:21:37Z</time>
      </trkpt>
      <trkpt lat="45.53898" lon="6.62562">
        <ele>1242.5999755859</ele>
        <time>2012-07-01T06:21:43Z</time>
      </trkpt>
      <trkpt lat="45.53891" lon="6.62575">
        <ele>1245</ele>
        <time>2012-07-01T06:21:55Z</time>
      </trkpt>
      <trkpt lat="45.53889" lon="6.62579">
        <ele>1246</ele>
        <time>2012-07-01T06:21:58Z</time>
      </trkpt>
      <trkpt lat="45.53885" lon="6.62587">
        <ele>1246</ele>
        <time>2012-07-01T06:22:04Z</time>
      </trkpt>
      <trkpt lat="45.53885" lon="6.62589">
        <ele>1247.1999511719</ele>
        <time>2012-07-01T06:22:05Z</time>
      </trkpt>
      <trkpt lat="45.53881" lon="6.62597">
        <ele>1248.5999755859</ele>
        <time>2012-07-01T06:22:11Z</time>
      </trkpt>
      <trkpt lat="45.53879" lon="6.626">
        <ele>1249.8000488281</ele>
        <time>2012-07-01T06:22:15Z</time>
      </trkpt>
      <trkpt lat="45.53875" lon="6.62601">
        <ele>1250.8000488281</ele>
        <time>2012-07-01T06:22:19Z</time>
      </trkpt>
      <trkpt lat="45.53873" lon="6.62594">
        <ele>1250.8000488281</ele>
        <time>2012-07-01T06:22:23Z</time>
      </trkpt>
      <trkpt lat="45.53872" lon="6.62591">
        <ele>1250.8000488281</ele>
        <time>2012-07-01T06:22:25Z</time>
      </trkpt>
      <trkpt lat="45.5387" lon="6.6257">
        <ele>1252</ele>
        <time>2012-07-01T06:22:35Z</time>
      </trkpt>
      <trkpt lat="45.53868" lon="6.62563">
        <ele>1253</ele>
        <time>2012-07-01T06:22:39Z</time>
      </trkpt>
      <trkpt lat="45.53866" lon="6.62559">
        <ele>1253</ele>
        <time>2012-07-01T06:22:42Z</time>
      </trkpt>
      <trkpt lat="45.53863" lon="6.62557">
        <ele>1254</ele>
        <time>2012-07-01T06:22:45Z</time>
      </trkpt>
      <trkpt lat="45.53852" lon="6.62567">
        <ele>1255.1999511719</ele>
        <time>2012-07-01T06:22:55Z</time>
      </trkpt>
      <trkpt lat="45.53852" lon="6.62569">
        <ele>1255.1999511719</ele>
        <time>2012-07-01T06:22:56Z</time>
      </trkpt>
      <trkpt lat="45.5385" lon="6.62586">
        <ele>1256.4000244141</ele>
        <time>2012-07-01T06:23:06Z</time>
      </trkpt>
      <trkpt lat="45.53851" lon="6.62588">
        <ele>1256.4000244141</ele>
        <time>2012-07-01T06:23:07Z</time>
      </trkpt>
      <trkpt lat="45.53849" lon="6.6262">
        <ele>1257.5999755859</ele>
        <time>2012-07-01T06:23:17Z</time>
      </trkpt>
      <trkpt lat="45.53848" lon="6.62626">
        <ele>1258.5999755859</ele>
        <time>2012-07-01T06:23:19Z</time>
      </trkpt>
      <trkpt lat="45.53843" lon="6.6264">
        <ele>1259.5999755859</ele>
        <time>2012-07-01T06:23:24Z</time>
      </trkpt>
      <trkpt lat="45.53842" lon="6.62641">
        <ele>1259.5999755859</ele>
        <time>2012-07-01T06:23:25Z</time>
      </trkpt>
      <trkpt lat="45.53837" lon="6.62643">
        <ele>1260.5999755859</ele>
        <time>2012-07-01T06:23:29Z</time>
      </trkpt>
      <trkpt lat="45.5383" lon="6.6265">
        <ele>1262</ele>
        <time>2012-07-01T06:23:33Z</time>
      </trkpt>
      <trkpt lat="45.53814" lon="6.62664">
        <ele>1262</ele>
        <time>2012-07-01T06:23:42Z</time>
      </trkpt>
      <trkpt lat="45.53807" lon="6.62665">
        <ele>1262</ele>
        <time>2012-07-01T06:23:45Z</time>
      </trkpt>
      <trkpt lat="45.53793" lon="6.62671">
        <ele>1263.1999511719</ele>
        <time>2012-07-01T06:23:51Z</time>
      </trkpt>
      <trkpt lat="45.53775" lon="6.62683">
        <ele>1263.1999511719</ele>
        <time>2012-07-01T06:23:59Z</time>
      </trkpt>
      <trkpt lat="45.53772" lon="6.62687">
        <ele>1263.1999511719</ele>
        <time>2012-07-01T06:24:02Z</time>
      </trkpt>
      <trkpt lat="45.53769" lon="6.62692">
        <ele>1263.1999511719</ele>
        <time>2012-07-01T06:24:07Z</time>
      </trkpt>
      <trkpt lat="45.53768" lon="6.62691">
        <ele>1263.1999511719</ele>
        <time>2012-07-01T06:24:09Z</time>
      </trkpt>
      <trkpt lat="45.53761" lon="6.62692">
        <ele>1263.1999511719</ele>
        <time>2012-07-01T06:24:13Z</time>
      </trkpt>
      <trkpt lat="45.53757" lon="6.62696">
        <ele>1263.1999511719</ele>
        <time>2012-07-01T06:24:16Z</time>
      </trkpt>
      <trkpt lat="45.53749" lon="6.62704">
        <ele>1263.1999511719</ele>
        <time>2012-07-01T06:24:20Z</time>
      </trkpt>
      <trkpt lat="45.53745" lon="6.62707">
        <ele>1263.1999511719</ele>
        <time>2012-07-01T06:24:22Z</time>
      </trkpt>
      <trkpt lat="45.53731" lon="6.62736">
        <ele>1263.1999511719</ele>
        <time>2012-07-01T06:24:36Z</time>
      </trkpt>
      <trkpt lat="45.53731" lon="6.62738">
        <ele>1263.1999511719</ele>
        <time>2012-07-01T06:24:38Z</time>
      </trkpt>
      <trkpt lat="45.5373" lon="6.62734">
        <ele>1263.1999511719</ele>
        <time>2012-07-01T06:24:47Z</time>
      </trkpt>
      <trkpt lat="45.5373" lon="6.62733">
        <ele>1263.1999511719</ele>
        <time>2012-07-01T06:24:49Z</time>
      </trkpt>
      <trkpt lat="45.53729" lon="6.62732">
        <ele>1263.1999511719</ele>
        <time>2012-07-01T06:24:55Z</time>
      </trkpt>
      <trkpt lat="45.53728" lon="6.62729">
        <ele>1263.1999511719</ele>
        <time>2012-07-01T06:25:03Z</time>
      </trkpt>
      <trkpt lat="45.53727" lon="6.62726">
        <ele>1263.1999511719</ele>
        <time>2012-07-01T06:25:10Z</time>
      </trkpt>
      <trkpt lat="45.53724" lon="6.62723">
        <ele>1263.1999511719</ele>
        <time>2012-07-01T06:25:16Z</time>
      </trkpt>
      <trkpt lat="45.5371" lon="6.62721">
        <ele>1263.1999511719</ele>
        <time>2012-07-01T06:25:24Z</time>
      </trkpt>
      <trkpt lat="45.53677" lon="6.6273">
        <ele>1263.1999511719</ele>
        <time>2012-07-01T06:25:38Z</time>
      </trkpt>
      <trkpt lat="45.53676" lon="6.62732">
        <ele>1263.1999511719</ele>
        <time>2012-07-01T06:25:39Z</time>
      </trkpt>
      <trkpt lat="45.53669" lon="6.62738">
        <ele>1264.1999511719</ele>
        <time>2012-07-01T06:25:43Z</time>
      </trkpt>
      <trkpt lat="45.53667" lon="6.6274">
        <ele>1265.1999511719</ele>
        <time>2012-07-01T06:25:44Z</time>
      </trkpt>
      <trkpt lat="45.53659" lon="6.62748">
        <ele>1266.1999511719</ele>
        <time>2012-07-01T06:25:49Z</time>
      </trkpt>
      <trkpt lat="45.5365" lon="6.62759">
        <ele>1267.1999511719</ele>
        <time>2012-07-01T06:25:53Z</time>
      </trkpt>
      <trkpt lat="45.5364" lon="6.62769">
        <ele>1268.4000244141</ele>
        <time>2012-07-01T06:25:59Z</time>
      </trkpt>
      <trkpt lat="45.53638" lon="6.62772">
        <ele>1269.4000244141</ele>
        <time>2012-07-01T06:26:01Z</time>
      </trkpt>
      <trkpt lat="45.53634" lon="6.62796">
        <ele>1270.4000244141</ele>
        <time>2012-07-01T06:26:14Z</time>
      </trkpt>
      <trkpt lat="45.53634" lon="6.62798">
        <ele>1271.5999755859</ele>
        <time>2012-07-01T06:26:15Z</time>
      </trkpt>
      <trkpt lat="45.53633" lon="6.62811">
        <ele>1272.5999755859</ele>
        <time>2012-07-01T06:26:22Z</time>
      </trkpt>
      <trkpt lat="45.53633" lon="6.62815">
        <ele>1272.5999755859</ele>
        <time>2012-07-01T06:26:24Z</time>
      </trkpt>
      <trkpt lat="45.53634" lon="6.62823">
        <ele>1272.5999755859</ele>
        <time>2012-07-01T06:26:28Z</time>
      </trkpt>
      <trkpt lat="45.53635" lon="6.62829">
        <ele>1273.5999755859</ele>
        <time>2012-07-01T06:26:31Z</time>
      </trkpt>
      <trkpt lat="45.53635" lon="6.62835">
        <ele>1273.5999755859</ele>
        <time>2012-07-01T06:26:34Z</time>
      </trkpt>
      <trkpt lat="45.53636" lon="6.62841">
        <ele>1273.5999755859</ele>
        <time>2012-07-01T06:26:37Z</time>
      </trkpt>
      <trkpt lat="45.53638" lon="6.62851">
        <ele>1274.5999755859</ele>
        <time>2012-07-01T06:26:43Z</time>
      </trkpt>
      <trkpt lat="45.5364" lon="6.62866">
        <ele>1275.8000488281</ele>
        <time>2012-07-01T06:26:51Z</time>
      </trkpt>
      <trkpt lat="45.53642" lon="6.62874">
        <ele>1275.8000488281</ele>
        <time>2012-07-01T06:26:55Z</time>
      </trkpt>
      <trkpt lat="45.53643" lon="6.62885">
        <ele>1276.8000488281</ele>
        <time>2012-07-01T06:27:01Z</time>
      </trkpt>
      <trkpt lat="45.53644" lon="6.62888">
        <ele>1277.8000488281</ele>
        <time>2012-07-01T06:27:03Z</time>
      </trkpt>
      <trkpt lat="45.53645" lon="6.62894">
        <ele>1279</ele>
        <time>2012-07-01T06:27:07Z</time>
      </trkpt>
      <trkpt lat="45.53646" lon="6.62898">
        <ele>1279</ele>
        <time>2012-07-01T06:27:10Z</time>
      </trkpt>
      <trkpt lat="45.53648" lon="6.62905">
        <ele>1280</ele>
        <time>2012-07-01T06:27:14Z</time>
      </trkpt>
      <trkpt lat="45.53649" lon="6.62913">
        <ele>1281.1999511719</ele>
        <time>2012-07-01T06:27:19Z</time>
      </trkpt>
      <trkpt lat="45.53656" lon="6.62948">
        <ele>1285.4000244141</ele>
        <time>2012-07-01T06:27:39Z</time>
      </trkpt>
      <trkpt lat="45.53656" lon="6.62952">
        <ele>1285.4000244141</ele>
        <time>2012-07-01T06:27:41Z</time>
      </trkpt>
      <trkpt lat="45.53658" lon="6.62963">
        <ele>1286.4000244141</ele>
        <time>2012-07-01T06:27:48Z</time>
      </trkpt>
      <trkpt lat="45.53658" lon="6.62966">
        <ele>1286.4000244141</ele>
        <time>2012-07-01T06:27:49Z</time>
      </trkpt>
      <trkpt lat="45.5366" lon="6.62976">
        <ele>1287.5999755859</ele>
        <time>2012-07-01T06:27:55Z</time>
      </trkpt>
      <trkpt lat="45.53661" lon="6.62982">
        <ele>1288.5999755859</ele>
        <time>2012-07-01T06:27:58Z</time>
      </trkpt>
      <trkpt lat="45.53662" lon="6.6299">
        <ele>1288.5999755859</ele>
        <time>2012-07-01T06:28:03Z</time>
      </trkpt>
      <trkpt lat="45.53662" lon="6.62994">
        <ele>1289.5999755859</ele>
        <time>2012-07-01T06:28:05Z</time>
      </trkpt>
      <trkpt lat="45.53663" lon="6.63002">
        <ele>1289.5999755859</ele>
        <time>2012-07-01T06:28:09Z</time>
      </trkpt>
      <trkpt lat="45.53666" lon="6.63016">
        <ele>1291.5999755859</ele>
        <time>2012-07-01T06:28:17Z</time>
      </trkpt>
      <trkpt lat="45.53666" lon="6.6302">
        <ele>1291.5999755859</ele>
        <time>2012-07-01T06:28:21Z</time>
      </trkpt>
      <trkpt lat="45.53667" lon="6.63022">
        <ele>1291.5999755859</ele>
        <time>2012-07-01T06:28:28Z</time>
      </trkpt>
      <trkpt lat="45.53667" lon="6.63028">
        <ele>1292.5999755859</ele>
        <time>2012-07-01T06:28:31Z</time>
      </trkpt>
      <trkpt lat="45.5367" lon="6.6304">
        <ele>1292.5999755859</ele>
        <time>2012-07-01T06:28:37Z</time>
      </trkpt>
      <trkpt lat="45.53671" lon="6.63047">
        <ele>1293.8000488281</ele>
        <time>2012-07-01T06:28:41Z</time>
      </trkpt>
      <trkpt lat="45.53673" lon="6.63057">
        <ele>1293.8000488281</ele>
        <time>2012-07-01T06:28:47Z</time>
      </trkpt>
      <trkpt lat="45.53674" lon="6.63061">
        <ele>1294.8000488281</ele>
        <time>2012-07-01T06:28:49Z</time>
      </trkpt>
      <trkpt lat="45.53679" lon="6.63079">
        <ele>1297</ele>
        <time>2012-07-01T06:29:00Z</time>
      </trkpt>
      <trkpt lat="45.53681" lon="6.63086">
        <ele>1297</ele>
        <time>2012-07-01T06:29:04Z</time>
      </trkpt>
      <trkpt lat="45.53683" lon="6.63096">
        <ele>1298.1999511719</ele>
        <time>2012-07-01T06:29:10Z</time>
      </trkpt>
      <trkpt lat="45.53685" lon="6.63103">
        <ele>1298.1999511719</ele>
        <time>2012-07-01T06:29:14Z</time>
      </trkpt>
      <trkpt lat="45.53686" lon="6.63106">
        <ele>1299.1999511719</ele>
        <time>2012-07-01T06:29:16Z</time>
      </trkpt>
      <trkpt lat="45.53687" lon="6.6311">
        <ele>1299.1999511719</ele>
        <time>2012-07-01T06:29:18Z</time>
      </trkpt>
      <trkpt lat="45.53688" lon="6.63118">
        <ele>1300.1999511719</ele>
        <time>2012-07-01T06:29:22Z</time>
      </trkpt>
      <trkpt lat="45.53689" lon="6.63125">
        <ele>1300.1999511719</ele>
        <time>2012-07-01T06:29:26Z</time>
      </trkpt>
      <trkpt lat="45.53691" lon="6.63129">
        <ele>1301.1999511719</ele>
        <time>2012-07-01T06:29:29Z</time>
      </trkpt>
      <trkpt lat="45.53693" lon="6.6314">
        <ele>1302.4000244141</ele>
        <time>2012-07-01T06:29:37Z</time>
      </trkpt>
      <trkpt lat="45.53694" lon="6.6314">
        <ele>1302.4000244141</ele>
        <time>2012-07-01T06:29:44Z</time>
      </trkpt>
      <trkpt lat="45.53694" lon="6.6314">
        <ele>1302.4000244141</ele>
        <time>2012-07-01T06:29:53Z</time>
      </trkpt>
      <trkpt lat="45.53695" lon="6.63145">
        <ele>1302.4000244141</ele>
        <time>2012-07-01T06:29:56Z</time>
      </trkpt>
      <trkpt lat="45.53698" lon="6.63155">
        <ele>1303.4000244141</ele>
        <time>2012-07-01T06:30:02Z</time>
      </trkpt>
      <trkpt lat="45.53698" lon="6.63157">
        <ele>1303.4000244141</ele>
        <time>2012-07-01T06:30:03Z</time>
      </trkpt>
      <trkpt lat="45.537" lon="6.63173">
        <ele>1304.4000244141</ele>
        <time>2012-07-01T06:30:12Z</time>
      </trkpt>
      <trkpt lat="45.53701" lon="6.63174">
        <ele>1304.4000244141</ele>
        <time>2012-07-01T06:30:13Z</time>
      </trkpt>
      <trkpt lat="45.53704" lon="6.63199">
        <ele>1306.5999755859</ele>
        <time>2012-07-01T06:30:28Z</time>
      </trkpt>
      <trkpt lat="45.53704" lon="6.632">
        <ele>1306.5999755859</ele>
        <time>2012-07-01T06:30:29Z</time>
      </trkpt>
      <trkpt lat="45.53704" lon="6.63202">
        <ele>1307.5999755859</ele>
        <time>2012-07-01T06:30:31Z</time>
      </trkpt>
      <trkpt lat="45.53705" lon="6.63202">
        <ele>1307.5999755859</ele>
        <time>2012-07-01T06:30:32Z</time>
      </trkpt>
      <trkpt lat="45.53705" lon="6.63202">
        <ele>1307.5999755859</ele>
        <time>2012-07-01T06:30:41Z</time>
      </trkpt>
      <trkpt lat="45.53706" lon="6.6321">
        <ele>1307.5999755859</ele>
        <time>2012-07-01T06:30:46Z</time>
      </trkpt>
      <trkpt lat="45.53708" lon="6.6322">
        <ele>1308.5999755859</ele>
        <time>2012-07-01T06:30:52Z</time>
      </trkpt>
      <trkpt lat="45.53708" lon="6.63221">
        <ele>1308.5999755859</ele>
        <time>2012-07-01T06:30:53Z</time>
      </trkpt>
      <trkpt lat="45.53709" lon="6.63233">
        <ele>1309.8000488281</ele>
        <time>2012-07-01T06:31:00Z</time>
      </trkpt>
      <trkpt lat="45.53712" lon="6.6325">
        <ele>1311.8000488281</ele>
        <time>2012-07-01T06:31:09Z</time>
      </trkpt>
      <trkpt lat="45.53712" lon="6.63256">
        <ele>1311.8000488281</ele>
        <time>2012-07-01T06:31:12Z</time>
      </trkpt>
      <trkpt lat="45.53713" lon="6.63267">
        <ele>1313</ele>
        <time>2012-07-01T06:31:17Z</time>
      </trkpt>
      <trkpt lat="45.53714" lon="6.63273">
        <ele>1314</ele>
        <time>2012-07-01T06:31:21Z</time>
      </trkpt>
      <trkpt lat="45.53716" lon="6.63287">
        <ele>1315</ele>
        <time>2012-07-01T06:31:28Z</time>
      </trkpt>
      <trkpt lat="45.53717" lon="6.63289">
        <ele>1315</ele>
        <time>2012-07-01T06:31:29Z</time>
      </trkpt>
      <trkpt lat="45.53721" lon="6.63306">
        <ele>1316</ele>
        <time>2012-07-01T06:31:38Z</time>
      </trkpt>
      <trkpt lat="45.53721" lon="6.63308">
        <ele>1317.1999511719</ele>
        <time>2012-07-01T06:31:39Z</time>
      </trkpt>
      <trkpt lat="45.53719" lon="6.63335">
        <ele>1318.1999511719</ele>
        <time>2012-07-01T06:31:52Z</time>
      </trkpt>
      <trkpt lat="45.53717" lon="6.63337">
        <ele>1318.1999511719</ele>
        <time>2012-07-01T06:31:54Z</time>
      </trkpt>
      <trkpt lat="45.53713" lon="6.63333">
        <ele>1319.4000244141</ele>
        <time>2012-07-01T06:31:59Z</time>
      </trkpt>
      <trkpt lat="45.53712" lon="6.63329">
        <ele>1319.4000244141</ele>
        <time>2012-07-01T06:32:01Z</time>
      </trkpt>
      <trkpt lat="45.53711" lon="6.63326">
        <ele>1320.4000244141</ele>
        <time>2012-07-01T06:32:03Z</time>
      </trkpt>
      <trkpt lat="45.53711" lon="6.63324">
        <ele>1320.4000244141</ele>
        <time>2012-07-01T06:32:04Z</time>
      </trkpt>
      <trkpt lat="45.53709" lon="6.63315">
        <ele>1321.5999755859</ele>
        <time>2012-07-01T06:32:09Z</time>
      </trkpt>
      <trkpt lat="45.53707" lon="6.6331">
        <ele>1321.5999755859</ele>
        <time>2012-07-01T06:32:12Z</time>
      </trkpt>
      <trkpt lat="45.53705" lon="6.63304">
        <ele>1322.5999755859</ele>
        <time>2012-07-01T06:32:16Z</time>
      </trkpt>
      <trkpt lat="45.53702" lon="6.63288">
        <ele>1323.5999755859</ele>
        <time>2012-07-01T06:32:25Z</time>
      </trkpt>
      <trkpt lat="45.537" lon="6.63281">
        <ele>1323.5999755859</ele>
        <time>2012-07-01T06:32:29Z</time>
      </trkpt>
      <trkpt lat="45.53697" lon="6.63274">
        <ele>1324.8000488281</ele>
        <time>2012-07-01T06:32:33Z</time>
      </trkpt>
      <trkpt lat="45.53695" lon="6.63268">
        <ele>1325.8000488281</ele>
        <time>2012-07-01T06:32:37Z</time>
      </trkpt>
      <trkpt lat="45.5369" lon="6.63257">
        <ele>1327</ele>
        <time>2012-07-01T06:32:44Z</time>
      </trkpt>
      <trkpt lat="45.53685" lon="6.6325">
        <ele>1327</ele>
        <time>2012-07-01T06:32:49Z</time>
      </trkpt>
      <trkpt lat="45.53681" lon="6.63244">
        <ele>1328</ele>
        <time>2012-07-01T06:32:54Z</time>
      </trkpt>
      <trkpt lat="45.53678" lon="6.63241">
        <ele>1329.1999511719</ele>
        <time>2012-07-01T06:32:57Z</time>
      </trkpt>
      <trkpt lat="45.53663" lon="6.6323">
        <ele>1331.1999511719</ele>
        <time>2012-07-01T06:33:09Z</time>
      </trkpt>
      <trkpt lat="45.53659" lon="6.63225">
        <ele>1332.4000244141</ele>
        <time>2012-07-01T06:33:13Z</time>
      </trkpt>
      <trkpt lat="45.53651" lon="6.6322">
        <ele>1333.4000244141</ele>
        <time>2012-07-01T06:33:20Z</time>
      </trkpt>
      <trkpt lat="45.53645" lon="6.63214">
        <ele>1334.5999755859</ele>
        <time>2012-07-01T06:33:25Z</time>
      </trkpt>
      <trkpt lat="45.5364" lon="6.63209">
        <ele>1335.5999755859</ele>
        <time>2012-07-01T06:33:30Z</time>
      </trkpt>
      <trkpt lat="45.53634" lon="6.63204">
        <ele>1336.5999755859</ele>
        <time>2012-07-01T06:33:35Z</time>
      </trkpt>
      <trkpt lat="45.5363" lon="6.63198">
        <ele>1336.5999755859</ele>
        <time>2012-07-01T06:33:40Z</time>
      </trkpt>
      <trkpt lat="45.53626" lon="6.63194">
        <ele>1337.8000488281</ele>
        <time>2012-07-01T06:33:43Z</time>
      </trkpt>
      <trkpt lat="45.53617" lon="6.63183">
        <ele>1339</ele>
        <time>2012-07-01T06:33:52Z</time>
      </trkpt>
      <trkpt lat="45.53607" lon="6.63174">
        <ele>1340</ele>
        <time>2012-07-01T06:34:01Z</time>
      </trkpt>
      <trkpt lat="45.53603" lon="6.6317">
        <ele>1341</ele>
        <time>2012-07-01T06:34:05Z</time>
      </trkpt>
      <trkpt lat="45.53597" lon="6.63163">
        <ele>1341</ele>
        <time>2012-07-01T06:34:11Z</time>
      </trkpt>
      <trkpt lat="45.53595" lon="6.6316">
        <ele>1342.1999511719</ele>
        <time>2012-07-01T06:34:13Z</time>
      </trkpt>
      <trkpt lat="45.53589" lon="6.63154">
        <ele>1343.1999511719</ele>
        <time>2012-07-01T06:34:19Z</time>
      </trkpt>
      <trkpt lat="45.53587" lon="6.63151">
        <ele>1343.1999511719</ele>
        <time>2012-07-01T06:34:22Z</time>
      </trkpt>
      <trkpt lat="45.53583" lon="6.63146">
        <ele>1344.1999511719</ele>
        <time>2012-07-01T06:34:26Z</time>
      </trkpt>
      <trkpt lat="45.53581" lon="6.63143">
        <ele>1345.1999511719</ele>
        <time>2012-07-01T06:34:28Z</time>
      </trkpt>
      <trkpt lat="45.53567" lon="6.63127">
        <ele>1347.4000244141</ele>
        <time>2012-07-01T06:34:42Z</time>
      </trkpt>
      <trkpt lat="45.53562" lon="6.63121">
        <ele>1348.5999755859</ele>
        <time>2012-07-01T06:34:47Z</time>
      </trkpt>
      <trkpt lat="45.53556" lon="6.63114">
        <ele>1349.5999755859</ele>
        <time>2012-07-01T06:34:53Z</time>
      </trkpt>
      <trkpt lat="45.53552" lon="6.63109">
        <ele>1349.5999755859</ele>
        <time>2012-07-01T06:34:57Z</time>
      </trkpt>
      <trkpt lat="45.53548" lon="6.63104">
        <ele>1350.5999755859</ele>
        <time>2012-07-01T06:35:01Z</time>
      </trkpt>
      <trkpt lat="45.53547" lon="6.63104">
        <ele>1350.5999755859</ele>
        <time>2012-07-01T06:35:02Z</time>
      </trkpt>
      <trkpt lat="45.53542" lon="6.63099">
        <ele>1351.5999755859</ele>
        <time>2012-07-01T06:35:06Z</time>
      </trkpt>
      <trkpt lat="45.53538" lon="6.63097">
        <ele>1352.5999755859</ele>
        <time>2012-07-01T06:35:10Z</time>
      </trkpt>
      <trkpt lat="45.53536" lon="6.63101">
        <ele>1352.5999755859</ele>
        <time>2012-07-01T06:35:13Z</time>
      </trkpt>
      <trkpt lat="45.5354" lon="6.63111">
        <ele>1354.8000488281</ele>
        <time>2012-07-01T06:35:21Z</time>
      </trkpt>
      <trkpt lat="45.53544" lon="6.6312">
        <ele>1354.8000488281</ele>
        <time>2012-07-01T06:35:26Z</time>
      </trkpt>
      <trkpt lat="45.5355" lon="6.63133">
        <ele>1356</ele>
        <time>2012-07-01T06:35:33Z</time>
      </trkpt>
      <trkpt lat="45.53552" lon="6.63144">
        <ele>1356</ele>
        <time>2012-07-01T06:35:37Z</time>
      </trkpt>
      <trkpt lat="45.53557" lon="6.63162">
        <ele>1357</ele>
        <time>2012-07-01T06:35:43Z</time>
      </trkpt>
      <trkpt lat="45.53558" lon="6.63165">
        <ele>1357</ele>
        <time>2012-07-01T06:35:44Z</time>
      </trkpt>
      <trkpt lat="45.5356" lon="6.63177">
        <ele>1358</ele>
        <time>2012-07-01T06:35:48Z</time>
      </trkpt>
      <trkpt lat="45.53563" lon="6.63189">
        <ele>1359.1999511719</ele>
        <time>2012-07-01T06:35:52Z</time>
      </trkpt>
      <trkpt lat="45.53576" lon="6.63241">
        <ele>1362.4000244141</ele>
        <time>2012-07-01T06:36:10Z</time>
      </trkpt>
      <trkpt lat="45.53577" lon="6.63246">
        <ele>1363.4000244141</ele>
        <time>2012-07-01T06:36:12Z</time>
      </trkpt>
      <trkpt lat="45.53579" lon="6.63253">
        <ele>1363.4000244141</ele>
        <time>2012-07-01T06:36:14Z</time>
      </trkpt>
      <trkpt lat="45.53581" lon="6.63261">
        <ele>1364.5999755859</ele>
        <time>2012-07-01T06:36:17Z</time>
      </trkpt>
      <trkpt lat="45.53584" lon="6.6327">
        <ele>1365.5999755859</ele>
        <time>2012-07-01T06:36:20Z</time>
      </trkpt>
      <trkpt lat="45.53586" lon="6.63282">
        <ele>1365.5999755859</ele>
        <time>2012-07-01T06:36:24Z</time>
      </trkpt>
      <trkpt lat="45.53588" lon="6.63297">
        <ele>1366.5999755859</ele>
        <time>2012-07-01T06:36:29Z</time>
      </trkpt>
      <trkpt lat="45.53589" lon="6.63312">
        <ele>1367.8000488281</ele>
        <time>2012-07-01T06:36:34Z</time>
      </trkpt>
      <trkpt lat="45.5359" lon="6.63325">
        <ele>1368.8000488281</ele>
        <time>2012-07-01T06:36:40Z</time>
      </trkpt>
      <trkpt lat="45.53589" lon="6.6335">
        <ele>1369.8000488281</ele>
        <time>2012-07-01T06:36:52Z</time>
      </trkpt>
      <trkpt lat="45.53589" lon="6.63354">
        <ele>1370.8000488281</ele>
        <time>2012-07-01T06:36:54Z</time>
      </trkpt>
      <trkpt lat="45.5359" lon="6.63366">
        <ele>1370.8000488281</ele>
        <time>2012-07-01T06:37:00Z</time>
      </trkpt>
      <trkpt lat="45.5359" lon="6.63368">
        <ele>1371.8000488281</ele>
        <time>2012-07-01T06:37:01Z</time>
      </trkpt>
      <trkpt lat="45.53591" lon="6.63376">
        <ele>1371.8000488281</ele>
        <time>2012-07-01T06:37:05Z</time>
      </trkpt>
      <trkpt lat="45.53591" lon="6.63379">
        <ele>1372.8000488281</ele>
        <time>2012-07-01T06:37:07Z</time>
      </trkpt>
      <trkpt lat="45.53592" lon="6.63383">
        <ele>1372.8000488281</ele>
        <time>2012-07-01T06:37:09Z</time>
      </trkpt>
      <trkpt lat="45.53592" lon="6.63387">
        <ele>1372.8000488281</ele>
        <time>2012-07-01T06:37:11Z</time>
      </trkpt>
      <trkpt lat="45.53595" lon="6.63419">
        <ele>1376</ele>
        <time>2012-07-01T06:37:24Z</time>
      </trkpt>
      <trkpt lat="45.53597" lon="6.63432">
        <ele>1377</ele>
        <time>2012-07-01T06:37:29Z</time>
      </trkpt>
      <trkpt lat="45.536" lon="6.63446">
        <ele>1378.1999511719</ele>
        <time>2012-07-01T06:37:35Z</time>
      </trkpt>
      <trkpt lat="45.536" lon="6.6345">
        <ele>1379.1999511719</ele>
        <time>2012-07-01T06:37:37Z</time>
      </trkpt>
      <trkpt lat="45.53602" lon="6.63465">
        <ele>1380.1999511719</ele>
        <time>2012-07-01T06:37:44Z</time>
      </trkpt>
      <trkpt lat="45.53603" lon="6.63475">
        <ele>1380.1999511719</ele>
        <time>2012-07-01T06:37:50Z</time>
      </trkpt>
      <trkpt lat="45.53605" lon="6.63489">
        <ele>1381.4000244141</ele>
        <time>2012-07-01T06:37:59Z</time>
      </trkpt>
      <trkpt lat="45.53604" lon="6.63492">
        <ele>1381.4000244141</ele>
        <time>2012-07-01T06:38:01Z</time>
      </trkpt>
      <trkpt lat="45.53605" lon="6.63495">
        <ele>1382.4000244141</ele>
        <time>2012-07-01T06:38:08Z</time>
      </trkpt>
      <trkpt lat="45.5361" lon="6.6351">
        <ele>1382.4000244141</ele>
        <time>2012-07-01T06:38:23Z</time>
      </trkpt>
      <trkpt lat="45.53612" lon="6.63513">
        <ele>1382.4000244141</ele>
        <time>2012-07-01T06:38:25Z</time>
      </trkpt>
      <trkpt lat="45.53613" lon="6.63517">
        <ele>1383.4000244141</ele>
        <time>2012-07-01T06:38:28Z</time>
      </trkpt>
      <trkpt lat="45.53616" lon="6.63525">
        <ele>1383.4000244141</ele>
        <time>2012-07-01T06:38:34Z</time>
      </trkpt>
      <trkpt lat="45.53616" lon="6.63533">
        <ele>1384.4000244141</ele>
        <time>2012-07-01T06:38:38Z</time>
      </trkpt>
      <trkpt lat="45.53615" lon="6.6354">
        <ele>1384.4000244141</ele>
        <time>2012-07-01T06:38:40Z</time>
      </trkpt>
      <trkpt lat="45.53616" lon="6.63571">
        <ele>1385.5999755859</ele>
        <time>2012-07-01T06:38:49Z</time>
      </trkpt>
      <trkpt lat="45.53618" lon="6.63581">
        <ele>1385.5999755859</ele>
        <time>2012-07-01T06:38:52Z</time>
      </trkpt>
      <trkpt lat="45.53632" lon="6.63638">
        <ele>1385.5999755859</ele>
        <time>2012-07-01T06:39:08Z</time>
      </trkpt>
      <trkpt lat="45.53633" lon="6.63642">
        <ele>1385.5999755859</ele>
        <time>2012-07-01T06:39:09Z</time>
      </trkpt>
      <trkpt lat="45.53634" lon="6.63652">
        <ele>1386.5999755859</ele>
        <time>2012-07-01T06:39:12Z</time>
      </trkpt>
      <trkpt lat="45.53637" lon="6.63673">
        <ele>1387.8000488281</ele>
        <time>2012-07-01T06:39:18Z</time>
      </trkpt>
      <trkpt lat="45.53639" lon="6.6369">
        <ele>1387.8000488281</ele>
        <time>2012-07-01T06:39:23Z</time>
      </trkpt>
      <trkpt lat="45.5364" lon="6.63699">
        <ele>1388.8000488281</ele>
        <time>2012-07-01T06:39:26Z</time>
      </trkpt>
      <trkpt lat="45.5364" lon="6.63708">
        <ele>1390</ele>
        <time>2012-07-01T06:39:31Z</time>
      </trkpt>
      <trkpt lat="45.53639" lon="6.63718">
        <ele>1391.1999511719</ele>
        <time>2012-07-01T06:39:35Z</time>
      </trkpt>
      <trkpt lat="45.5364" lon="6.63736">
        <ele>1392.1999511719</ele>
        <time>2012-07-01T06:39:41Z</time>
      </trkpt>
      <trkpt lat="45.5364" lon="6.63754">
        <ele>1392.1999511719</ele>
        <time>2012-07-01T06:39:46Z</time>
      </trkpt>
      <trkpt lat="45.5364" lon="6.63756">
        <ele>1392.1999511719</ele>
        <time>2012-07-01T06:39:47Z</time>
      </trkpt>
      <trkpt lat="45.53644" lon="6.63765">
        <ele>1393.1999511719</ele>
        <time>2012-07-01T06:39:50Z</time>
      </trkpt>
      <trkpt lat="45.53646" lon="6.6377">
        <ele>1394.4000244141</ele>
        <time>2012-07-01T06:39:52Z</time>
      </trkpt>
      <trkpt lat="45.53648" lon="6.63782">
        <ele>1394.4000244141</ele>
        <time>2012-07-01T06:39:57Z</time>
      </trkpt>
      <trkpt lat="45.53648" lon="6.63784">
        <ele>1394.4000244141</ele>
        <time>2012-07-01T06:39:58Z</time>
      </trkpt>
      <trkpt lat="45.53652" lon="6.63798">
        <ele>1395.4000244141</ele>
        <time>2012-07-01T06:40:04Z</time>
      </trkpt>
      <trkpt lat="45.53652" lon="6.638">
        <ele>1395.4000244141</ele>
        <time>2012-07-01T06:40:05Z</time>
      </trkpt>
      <trkpt lat="45.53655" lon="6.6382">
        <ele>1396.4000244141</ele>
        <time>2012-07-01T06:40:14Z</time>
      </trkpt>
      <trkpt lat="45.53657" lon="6.63832">
        <ele>1396.4000244141</ele>
        <time>2012-07-01T06:40:20Z</time>
      </trkpt>
      <trkpt lat="45.53656" lon="6.6384">
        <ele>1397.5999755859</ele>
        <time>2012-07-01T06:40:24Z</time>
      </trkpt>
      <trkpt lat="45.53656" lon="6.63848">
        <ele>1397.5999755859</ele>
        <time>2012-07-01T06:40:28Z</time>
      </trkpt>
      <trkpt lat="45.53658" lon="6.63863">
        <ele>1397.5999755859</ele>
        <time>2012-07-01T06:40:34Z</time>
      </trkpt>
      <trkpt lat="45.53658" lon="6.63883">
        <ele>1397.5999755859</ele>
        <time>2012-07-01T06:40:40Z</time>
      </trkpt>
      <trkpt lat="45.53659" lon="6.63892">
        <ele>1397.5999755859</ele>
        <time>2012-07-01T06:40:44Z</time>
      </trkpt>
      <trkpt lat="45.53659" lon="6.63897">
        <ele>1397.5999755859</ele>
        <time>2012-07-01T06:40:47Z</time>
      </trkpt>
      <trkpt lat="45.53659" lon="6.63901">
        <ele>1397.5999755859</ele>
        <time>2012-07-01T06:40:49Z</time>
      </trkpt>
      <trkpt lat="45.53657" lon="6.63936">
        <ele>1397.5999755859</ele>
        <time>2012-07-01T06:40:59Z</time>
      </trkpt>
      <trkpt lat="45.53657" lon="6.63954">
        <ele>1397.5999755859</ele>
        <time>2012-07-01T06:41:04Z</time>
      </trkpt>
      <trkpt lat="45.53656" lon="6.63972">
        <ele>1397.5999755859</ele>
        <time>2012-07-01T06:41:09Z</time>
      </trkpt>
      <trkpt lat="45.53657" lon="6.63983">
        <ele>1397.5999755859</ele>
        <time>2012-07-01T06:41:12Z</time>
      </trkpt>
      <trkpt lat="45.5366" lon="6.64014">
        <ele>1397.5999755859</ele>
        <time>2012-07-01T06:41:21Z</time>
      </trkpt>
      <trkpt lat="45.53663" lon="6.64038">
        <ele>1397.5999755859</ele>
        <time>2012-07-01T06:41:27Z</time>
      </trkpt>
      <trkpt lat="45.53665" lon="6.64078">
        <ele>1394.5999755859</ele>
        <time>2012-07-01T06:41:37Z</time>
      </trkpt>
      <trkpt lat="45.53664" lon="6.64105">
        <ele>1393.4000244141</ele>
        <time>2012-07-01T06:41:43Z</time>
      </trkpt>
      <trkpt lat="45.53662" lon="6.64181">
        <ele>1390</ele>
        <time>2012-07-01T06:42:03Z</time>
      </trkpt>
      <trkpt lat="45.53662" lon="6.64185">
        <ele>1390</ele>
        <time>2012-07-01T06:42:05Z</time>
      </trkpt>
      <trkpt lat="45.5366" lon="6.6419">
        <ele>1390</ele>
        <time>2012-07-01T06:42:09Z</time>
      </trkpt>
      <trkpt lat="45.53658" lon="6.64192">
        <ele>1390</ele>
        <time>2012-07-01T06:42:11Z</time>
      </trkpt>
      <trkpt lat="45.53654" lon="6.64196">
        <ele>1390</ele>
        <time>2012-07-01T06:42:16Z</time>
      </trkpt>
      <trkpt lat="45.5365" lon="6.64205">
        <ele>1390</ele>
        <time>2012-07-01T06:42:22Z</time>
      </trkpt>
      <trkpt lat="45.5364" lon="6.64213">
        <ele>1390</ele>
        <time>2012-07-01T06:42:32Z</time>
      </trkpt>
      <trkpt lat="45.53638" lon="6.64213">
        <ele>1390</ele>
        <time>2012-07-01T06:42:35Z</time>
      </trkpt>
      <trkpt lat="45.53635" lon="6.64215">
        <ele>1393</ele>
        <time>2012-07-01T06:42:38Z</time>
      </trkpt>
      <trkpt lat="45.53629" lon="6.64225">
        <ele>1393</ele>
        <time>2012-07-01T06:42:48Z</time>
      </trkpt>
      <trkpt lat="45.53628" lon="6.64234">
        <ele>1394.1999511719</ele>
        <time>2012-07-01T06:42:54Z</time>
      </trkpt>
      <trkpt lat="45.53626" lon="6.64242">
        <ele>1395.1999511719</ele>
        <time>2012-07-01T06:42:59Z</time>
      </trkpt>
      <trkpt lat="45.53626" lon="6.64243">
        <ele>1395.1999511719</ele>
        <time>2012-07-01T06:43:05Z</time>
      </trkpt>
      <trkpt lat="45.53622" lon="6.64257">
        <ele>1396.1999511719</ele>
        <time>2012-07-01T06:43:13Z</time>
      </trkpt>
      <trkpt lat="45.5362" lon="6.64266">
        <ele>1396.1999511719</ele>
        <time>2012-07-01T06:43:18Z</time>
      </trkpt>
      <trkpt lat="45.53618" lon="6.64273">
        <ele>1397.4000244141</ele>
        <time>2012-07-01T06:43:22Z</time>
      </trkpt>
      <trkpt lat="45.53618" lon="6.64275">
        <ele>1397.4000244141</ele>
        <time>2012-07-01T06:43:23Z</time>
      </trkpt>
      <trkpt lat="45.53611" lon="6.64303">
        <ele>1398.4000244141</ele>
        <time>2012-07-01T06:43:40Z</time>
      </trkpt>
      <trkpt lat="45.5361" lon="6.64309">
        <ele>1399.5999755859</ele>
        <time>2012-07-01T06:43:43Z</time>
      </trkpt>
      <trkpt lat="45.53607" lon="6.64321">
        <ele>1400.5999755859</ele>
        <time>2012-07-01T06:43:50Z</time>
      </trkpt>
      <trkpt lat="45.53607" lon="6.64324">
        <ele>1400.5999755859</ele>
        <time>2012-07-01T06:43:52Z</time>
      </trkpt>
      <trkpt lat="45.53606" lon="6.64334">
        <ele>1400.5999755859</ele>
        <time>2012-07-01T06:43:58Z</time>
      </trkpt>
      <trkpt lat="45.53605" lon="6.64337">
        <ele>1401.8000488281</ele>
        <time>2012-07-01T06:44:00Z</time>
      </trkpt>
      <trkpt lat="45.53603" lon="6.64343">
        <ele>1401.8000488281</ele>
        <time>2012-07-01T06:44:04Z</time>
      </trkpt>
      <trkpt lat="45.53602" lon="6.64349">
        <ele>1402.8000488281</ele>
        <time>2012-07-01T06:44:08Z</time>
      </trkpt>
      <trkpt lat="45.53599" lon="6.64352">
        <ele>1402.8000488281</ele>
        <time>2012-07-01T06:44:13Z</time>
      </trkpt>
      <trkpt lat="45.53593" lon="6.64351">
        <ele>1403.8000488281</ele>
        <time>2012-07-01T06:44:18Z</time>
      </trkpt>
      <trkpt lat="45.53591" lon="6.6435">
        <ele>1404.8000488281</ele>
        <time>2012-07-01T06:44:20Z</time>
      </trkpt>
      <trkpt lat="45.53587" lon="6.64349">
        <ele>1406</ele>
        <time>2012-07-01T06:44:23Z</time>
      </trkpt>
      <trkpt lat="45.53584" lon="6.64349">
        <ele>1407</ele>
        <time>2012-07-01T06:44:26Z</time>
      </trkpt>
      <trkpt lat="45.53578" lon="6.64349">
        <ele>1408</ele>
        <time>2012-07-01T06:44:31Z</time>
      </trkpt>
      <trkpt lat="45.53574" lon="6.64349">
        <ele>1409</ele>
        <time>2012-07-01T06:44:35Z</time>
      </trkpt>
      <trkpt lat="45.53569" lon="6.64348">
        <ele>1410</ele>
        <time>2012-07-01T06:44:40Z</time>
      </trkpt>
      <trkpt lat="45.53567" lon="6.64348">
        <ele>1411</ele>
        <time>2012-07-01T06:44:42Z</time>
      </trkpt>
      <trkpt lat="45.53555" lon="6.64348">
        <ele>1414.5999755859</ele>
        <time>2012-07-01T06:44:55Z</time>
      </trkpt>
      <trkpt lat="45.53551" lon="6.64348">
        <ele>1415.5999755859</ele>
        <time>2012-07-01T06:44:58Z</time>
      </trkpt>
      <trkpt lat="45.53547" lon="6.64348">
        <ele>1417</ele>
        <time>2012-07-01T06:45:03Z</time>
      </trkpt>
      <trkpt lat="45.53545" lon="6.64348">
        <ele>1418</ele>
        <time>2012-07-01T06:45:05Z</time>
      </trkpt>
      <trkpt lat="45.53544" lon="6.64348">
        <ele>1418</ele>
        <time>2012-07-01T06:45:07Z</time>
      </trkpt>
      <trkpt lat="45.53543" lon="6.64348">
        <ele>1418</ele>
        <time>2012-07-01T06:45:08Z</time>
      </trkpt>
      <trkpt lat="45.53543" lon="6.64348">
        <ele>1419</ele>
        <time>2012-07-01T06:45:11Z</time>
      </trkpt>
      <trkpt lat="45.53543" lon="6.64348">
        <ele>1419</ele>
        <time>2012-07-01T06:45:12Z</time>
      </trkpt>
      <trkpt lat="45.5354" lon="6.64348">
        <ele>1420.1999511719</ele>
        <time>2012-07-01T06:45:18Z</time>
      </trkpt>
      <trkpt lat="45.53531" lon="6.64348">
        <ele>1422.4000244141</ele>
        <time>2012-07-01T06:45:27Z</time>
      </trkpt>
      <trkpt lat="45.53529" lon="6.64348">
        <ele>1422.4000244141</ele>
        <time>2012-07-01T06:45:29Z</time>
      </trkpt>
      <trkpt lat="45.53526" lon="6.64348">
        <ele>1423.4000244141</ele>
        <time>2012-07-01T06:45:32Z</time>
      </trkpt>
      <trkpt lat="45.53524" lon="6.64348">
        <ele>1424.4000244141</ele>
        <time>2012-07-01T06:45:34Z</time>
      </trkpt>
      <trkpt lat="45.53517" lon="6.64348">
        <ele>1425.5999755859</ele>
        <time>2012-07-01T06:45:40Z</time>
      </trkpt>
      <trkpt lat="45.53516" lon="6.64347">
        <ele>1425.5999755859</ele>
        <time>2012-07-01T06:45:41Z</time>
      </trkpt>
      <trkpt lat="45.5351" lon="6.64346">
        <ele>1426.8000488281</ele>
        <time>2012-07-01T06:45:46Z</time>
      </trkpt>
      <trkpt lat="45.53507" lon="6.64344">
        <ele>1427.8000488281</ele>
        <time>2012-07-01T06:45:49Z</time>
      </trkpt>
      <trkpt lat="45.53503" lon="6.64325">
        <ele>1428.8000488281</ele>
        <time>2012-07-01T06:46:06Z</time>
      </trkpt>
      <trkpt lat="45.53503" lon="6.64321">
        <ele>1428.8000488281</ele>
        <time>2012-07-01T06:46:08Z</time>
      </trkpt>
      <trkpt lat="45.53503" lon="6.64317">
        <ele>1429.8000488281</ele>
        <time>2012-07-01T06:46:11Z</time>
      </trkpt>
      <trkpt lat="45.53504" lon="6.64314">
        <ele>1429.8000488281</ele>
        <time>2012-07-01T06:46:13Z</time>
      </trkpt>
      <trkpt lat="45.53503" lon="6.64307">
        <ele>1431</ele>
        <time>2012-07-01T06:46:18Z</time>
      </trkpt>
      <trkpt lat="45.53501" lon="6.64301">
        <ele>1432</ele>
        <time>2012-07-01T06:46:23Z</time>
      </trkpt>
      <trkpt lat="45.53505" lon="6.64286">
        <ele>1432</ele>
        <time>2012-07-01T06:46:32Z</time>
      </trkpt>
      <trkpt lat="45.53506" lon="6.64274">
        <ele>1432</ele>
        <time>2012-07-01T06:46:37Z</time>
      </trkpt>
      <trkpt lat="45.53506" lon="6.64265">
        <ele>1433.1999511719</ele>
        <time>2012-07-01T06:46:42Z</time>
      </trkpt>
      <trkpt lat="45.53508" lon="6.64245">
        <ele>1434.4000244141</ele>
        <time>2012-07-01T06:46:53Z</time>
      </trkpt>
      <trkpt lat="45.53508" lon="6.64241">
        <ele>1434.4000244141</ele>
        <time>2012-07-01T06:46:55Z</time>
      </trkpt>
      <trkpt lat="45.53509" lon="6.64222">
        <ele>1434.4000244141</ele>
        <time>2012-07-01T06:47:06Z</time>
      </trkpt>
      <trkpt lat="45.53509" lon="6.64219">
        <ele>1434.4000244141</ele>
        <time>2012-07-01T06:47:08Z</time>
      </trkpt>
      <trkpt lat="45.5351" lon="6.64211">
        <ele>1434.4000244141</ele>
        <time>2012-07-01T06:47:13Z</time>
      </trkpt>
      <trkpt lat="45.5351" lon="6.64209">
        <ele>1435.4000244141</ele>
        <time>2012-07-01T06:47:14Z</time>
      </trkpt>
      <trkpt lat="45.53512" lon="6.64198">
        <ele>1435.4000244141</ele>
        <time>2012-07-01T06:47:20Z</time>
      </trkpt>
      <trkpt lat="45.53512" lon="6.64195">
        <ele>1435.4000244141</ele>
        <time>2012-07-01T06:47:22Z</time>
      </trkpt>
      <trkpt lat="45.53518" lon="6.6417">
        <ele>1435.4000244141</ele>
        <time>2012-07-01T06:47:38Z</time>
      </trkpt>
      <trkpt lat="45.53519" lon="6.64167">
        <ele>1435.4000244141</ele>
        <time>2012-07-01T06:47:40Z</time>
      </trkpt>
      <trkpt lat="45.53521" lon="6.64153">
        <ele>1435.4000244141</ele>
        <time>2012-07-01T06:47:48Z</time>
      </trkpt>
      <trkpt lat="45.53521" lon="6.64151">
        <ele>1435.4000244141</ele>
        <time>2012-07-01T06:47:50Z</time>
      </trkpt>
      <trkpt lat="45.53522" lon="6.64127">
        <ele>1435.4000244141</ele>
        <time>2012-07-01T06:48:05Z</time>
      </trkpt>
      <trkpt lat="45.53523" lon="6.64124">
        <ele>1435.4000244141</ele>
        <time>2012-07-01T06:48:07Z</time>
      </trkpt>
      <trkpt lat="45.53524" lon="6.64121">
        <ele>1435.4000244141</ele>
        <time>2012-07-01T06:48:09Z</time>
      </trkpt>
      <trkpt lat="45.53524" lon="6.64121">
        <ele>1435.4000244141</ele>
        <time>2012-07-01T06:48:10Z</time>
      </trkpt>
      <trkpt lat="45.53527" lon="6.64114">
        <ele>1435.4000244141</ele>
        <time>2012-07-01T06:48:17Z</time>
      </trkpt>
      <trkpt lat="45.53535" lon="6.64094">
        <ele>1435.4000244141</ele>
        <time>2012-07-01T06:48:28Z</time>
      </trkpt>
      <trkpt lat="45.53542" lon="6.64079">
        <ele>1435.4000244141</ele>
        <time>2012-07-01T06:48:37Z</time>
      </trkpt>
      <trkpt lat="45.53553" lon="6.64052">
        <ele>1435.4000244141</ele>
        <time>2012-07-01T06:48:53Z</time>
      </trkpt>
      <trkpt lat="45.53555" lon="6.64045">
        <ele>1436.4000244141</ele>
        <time>2012-07-01T06:48:57Z</time>
      </trkpt>
      <trkpt lat="45.5356" lon="6.64024">
        <ele>1436.4000244141</ele>
        <time>2012-07-01T06:49:08Z</time>
      </trkpt>
      <trkpt lat="45.5356" lon="6.64023">
        <ele>1436.4000244141</ele>
        <time>2012-07-01T06:49:09Z</time>
      </trkpt>
      <trkpt lat="45.53561" lon="6.64014">
        <ele>1436.4000244141</ele>
        <time>2012-07-01T06:49:14Z</time>
      </trkpt>
      <trkpt lat="45.53561" lon="6.64011">
        <ele>1436.4000244141</ele>
        <time>2012-07-01T06:49:16Z</time>
      </trkpt>
      <trkpt lat="45.53558" lon="6.63984">
        <ele>1437.5999755859</ele>
        <time>2012-07-01T06:49:30Z</time>
      </trkpt>
      <trkpt lat="45.53555" lon="6.63968">
        <ele>1437.5999755859</ele>
        <time>2012-07-01T06:49:38Z</time>
      </trkpt>
      <trkpt lat="45.53553" lon="6.63953">
        <ele>1439.5999755859</ele>
        <time>2012-07-01T06:49:46Z</time>
      </trkpt>
      <trkpt lat="45.53551" lon="6.63936">
        <ele>1440.8000488281</ele>
        <time>2012-07-01T06:49:56Z</time>
      </trkpt>
      <trkpt lat="45.53547" lon="6.63912">
        <ele>1440.8000488281</ele>
        <time>2012-07-01T06:50:08Z</time>
      </trkpt>
      <trkpt lat="45.53547" lon="6.63911">
        <ele>1440.8000488281</ele>
        <time>2012-07-01T06:50:09Z</time>
      </trkpt>
      <trkpt lat="45.53543" lon="6.63894">
        <ele>1442.8000488281</ele>
        <time>2012-07-01T06:50:18Z</time>
      </trkpt>
      <trkpt lat="45.53542" lon="6.63891">
        <ele>1442.8000488281</ele>
        <time>2012-07-01T06:50:20Z</time>
      </trkpt>
      <trkpt lat="45.53537" lon="6.6388">
        <ele>1442.8000488281</ele>
        <time>2012-07-01T06:50:28Z</time>
      </trkpt>
      <trkpt lat="45.53529" lon="6.63847">
        <ele>1442.8000488281</ele>
        <time>2012-07-01T06:50:41Z</time>
      </trkpt>
      <trkpt lat="45.53527" lon="6.63821">
        <ele>1442.8000488281</ele>
        <time>2012-07-01T06:50:48Z</time>
      </trkpt>
      <trkpt lat="45.53524" lon="6.63808">
        <ele>1442.8000488281</ele>
        <time>2012-07-01T06:50:54Z</time>
      </trkpt>
      <trkpt lat="45.53519" lon="6.63804">
        <ele>1442.8000488281</ele>
        <time>2012-07-01T06:50:59Z</time>
      </trkpt>
      <trkpt lat="45.53513" lon="6.63802">
        <ele>1442.8000488281</ele>
        <time>2012-07-01T06:51:05Z</time>
      </trkpt>
      <trkpt lat="45.5351" lon="6.63802">
        <ele>1444</ele>
        <time>2012-07-01T06:51:07Z</time>
      </trkpt>
      <trkpt lat="45.53508" lon="6.63801">
        <ele>1444</ele>
        <time>2012-07-01T06:51:09Z</time>
      </trkpt>
      <trkpt lat="45.53506" lon="6.63802">
        <ele>1444</ele>
        <time>2012-07-01T06:51:10Z</time>
      </trkpt>
      <trkpt lat="45.53493" lon="6.63813">
        <ele>1446</ele>
        <time>2012-07-01T06:51:24Z</time>
      </trkpt>
      <trkpt lat="45.53491" lon="6.63813">
        <ele>1446</ele>
        <time>2012-07-01T06:51:26Z</time>
      </trkpt>
      <trkpt lat="45.53487" lon="6.63813">
        <ele>1447</ele>
        <time>2012-07-01T06:51:31Z</time>
      </trkpt>
      <trkpt lat="45.53485" lon="6.63815">
        <ele>1448.1999511719</ele>
        <time>2012-07-01T06:51:33Z</time>
      </trkpt>
      <trkpt lat="45.53481" lon="6.63823">
        <ele>1450.4000244141</ele>
        <time>2012-07-01T06:51:41Z</time>
      </trkpt>
      <trkpt lat="45.5348" lon="6.63825">
        <ele>1450.4000244141</ele>
        <time>2012-07-01T06:51:42Z</time>
      </trkpt>
      <trkpt lat="45.53477" lon="6.63833">
        <ele>1451.4000244141</ele>
        <time>2012-07-01T06:51:48Z</time>
      </trkpt>
      <trkpt lat="45.53476" lon="6.63835">
        <ele>1452.5999755859</ele>
        <time>2012-07-01T06:51:50Z</time>
      </trkpt>
      <trkpt lat="45.53474" lon="6.6384">
        <ele>1453.8000488281</ele>
        <time>2012-07-01T06:51:54Z</time>
      </trkpt>
      <trkpt lat="45.53469" lon="6.63852">
        <ele>1456</ele>
        <time>2012-07-01T06:52:03Z</time>
      </trkpt>
      <trkpt lat="45.53467" lon="6.63855">
        <ele>1456</ele>
        <time>2012-07-01T06:52:05Z</time>
      </trkpt>
      <trkpt lat="45.53464" lon="6.63859">
        <ele>1457</ele>
        <time>2012-07-01T06:52:10Z</time>
      </trkpt>
      <trkpt lat="45.53463" lon="6.6386">
        <ele>1458</ele>
        <time>2012-07-01T06:52:11Z</time>
      </trkpt>
      <trkpt lat="45.53459" lon="6.63863">
        <ele>1459.1999511719</ele>
        <time>2012-07-01T06:52:15Z</time>
      </trkpt>
      <trkpt lat="45.53454" lon="6.63866">
        <ele>1460.1999511719</ele>
        <time>2012-07-01T06:52:20Z</time>
      </trkpt>
      <trkpt lat="45.5345" lon="6.63867">
        <ele>1461.1999511719</ele>
        <time>2012-07-01T06:52:24Z</time>
      </trkpt>
      <trkpt lat="45.53449" lon="6.63868">
        <ele>1461.1999511719</ele>
        <time>2012-07-01T06:52:25Z</time>
      </trkpt>
      <trkpt lat="45.5344" lon="6.63872">
        <ele>1463.4000244141</ele>
        <time>2012-07-01T06:52:34Z</time>
      </trkpt>
      <trkpt lat="45.53437" lon="6.63872">
        <ele>1463.4000244141</ele>
        <time>2012-07-01T06:52:37Z</time>
      </trkpt>
      <trkpt lat="45.53429" lon="6.63872">
        <ele>1464.4000244141</ele>
        <time>2012-07-01T06:52:44Z</time>
      </trkpt>
      <trkpt lat="45.53428" lon="6.63872">
        <ele>1465.4000244141</ele>
        <time>2012-07-01T06:52:45Z</time>
      </trkpt>
      <trkpt lat="45.53417" lon="6.63871">
        <ele>1466.5999755859</ele>
        <time>2012-07-01T06:52:55Z</time>
      </trkpt>
      <trkpt lat="45.53416" lon="6.63872">
        <ele>1466.5999755859</ele>
        <time>2012-07-01T06:52:57Z</time>
      </trkpt>
      <trkpt lat="45.53411" lon="6.6387">
        <ele>1467.5999755859</ele>
        <time>2012-07-01T06:53:02Z</time>
      </trkpt>
      <trkpt lat="45.53409" lon="6.63868">
        <ele>1467.5999755859</ele>
        <time>2012-07-01T06:53:04Z</time>
      </trkpt>
      <trkpt lat="45.53404" lon="6.63868">
        <ele>1467.5999755859</ele>
        <time>2012-07-01T06:53:08Z</time>
      </trkpt>
      <trkpt lat="45.53401" lon="6.63869">
        <ele>1468.5999755859</ele>
        <time>2012-07-01T06:53:11Z</time>
      </trkpt>
      <trkpt lat="45.53396" lon="6.6387">
        <ele>1469.5999755859</ele>
        <time>2012-07-01T06:53:15Z</time>
      </trkpt>
      <trkpt lat="45.53388" lon="6.63872">
        <ele>1471.8000488281</ele>
        <time>2012-07-01T06:53:23Z</time>
      </trkpt>
      <trkpt lat="45.53387" lon="6.63873">
        <ele>1471.8000488281</ele>
        <time>2012-07-01T06:53:24Z</time>
      </trkpt>
      <trkpt lat="45.53378" lon="6.63875">
        <ele>1473</ele>
        <time>2012-07-01T06:53:31Z</time>
      </trkpt>
      <trkpt lat="45.53377" lon="6.63876">
        <ele>1474</ele>
        <time>2012-07-01T06:53:32Z</time>
      </trkpt>
      <trkpt lat="45.53368" lon="6.63883">
        <ele>1475</ele>
        <time>2012-07-01T06:53:40Z</time>
      </trkpt>
      <trkpt lat="45.53367" lon="6.63884">
        <ele>1475</ele>
        <time>2012-07-01T06:53:41Z</time>
      </trkpt>
      <trkpt lat="45.53359" lon="6.63892">
        <ele>1477.4000244141</ele>
        <time>2012-07-01T06:53:51Z</time>
      </trkpt>
      <trkpt lat="45.53358" lon="6.63893">
        <ele>1477.4000244141</ele>
        <time>2012-07-01T06:53:52Z</time>
      </trkpt>
      <trkpt lat="45.53354" lon="6.639">
        <ele>1478.5999755859</ele>
        <time>2012-07-01T06:53:57Z</time>
      </trkpt>
      <trkpt lat="45.53352" lon="6.63905">
        <ele>1479.5999755859</ele>
        <time>2012-07-01T06:54:00Z</time>
      </trkpt>
      <trkpt lat="45.53348" lon="6.63911">
        <ele>1480.5999755859</ele>
        <time>2012-07-01T06:54:05Z</time>
      </trkpt>
      <trkpt lat="45.53346" lon="6.63913">
        <ele>1480.5999755859</ele>
        <time>2012-07-01T06:54:08Z</time>
      </trkpt>
      <trkpt lat="45.53341" lon="6.63916">
        <ele>1481.8000488281</ele>
        <time>2012-07-01T06:54:12Z</time>
      </trkpt>
      <trkpt lat="45.53339" lon="6.63917">
        <ele>1483</ele>
        <time>2012-07-01T06:54:14Z</time>
      </trkpt>
      <trkpt lat="45.53327" lon="6.63929">
        <ele>1485</ele>
        <time>2012-07-01T06:54:27Z</time>
      </trkpt>
      <trkpt lat="45.5332" lon="6.63936">
        <ele>1486.1999511719</ele>
        <time>2012-07-01T06:54:34Z</time>
      </trkpt>
      <trkpt lat="45.53316" lon="6.63941">
        <ele>1487.1999511719</ele>
        <time>2012-07-01T06:54:38Z</time>
      </trkpt>
      <trkpt lat="45.53312" lon="6.63945">
        <ele>1488.1999511719</ele>
        <time>2012-07-01T06:54:42Z</time>
      </trkpt>
      <trkpt lat="45.53309" lon="6.63948">
        <ele>1488.1999511719</ele>
        <time>2012-07-01T06:54:45Z</time>
      </trkpt>
      <trkpt lat="45.53305" lon="6.63953">
        <ele>1489.1999511719</ele>
        <time>2012-07-01T06:54:50Z</time>
      </trkpt>
      <trkpt lat="45.53304" lon="6.63955">
        <ele>1489.1999511719</ele>
        <time>2012-07-01T06:54:51Z</time>
      </trkpt>
      <trkpt lat="45.533" lon="6.63959">
        <ele>1490.4000244141</ele>
        <time>2012-07-01T06:54:55Z</time>
      </trkpt>
      <trkpt lat="45.53299" lon="6.63961">
        <ele>1490.4000244141</ele>
        <time>2012-07-01T06:54:56Z</time>
      </trkpt>
      <trkpt lat="45.53288" lon="6.63976">
        <ele>1493.8000488281</ele>
        <time>2012-07-01T06:55:09Z</time>
      </trkpt>
      <trkpt lat="45.53285" lon="6.63979">
        <ele>1493.8000488281</ele>
        <time>2012-07-01T06:55:12Z</time>
      </trkpt>
      <trkpt lat="45.5328" lon="6.63982">
        <ele>1495.8000488281</ele>
        <time>2012-07-01T06:55:16Z</time>
      </trkpt>
      <trkpt lat="45.53279" lon="6.63982">
        <ele>1495.8000488281</ele>
        <time>2012-07-01T06:55:17Z</time>
      </trkpt>
      <trkpt lat="45.53275" lon="6.63983">
        <ele>1497</ele>
        <time>2012-07-01T06:55:22Z</time>
      </trkpt>
      <trkpt lat="45.53274" lon="6.63983">
        <ele>1498</ele>
        <time>2012-07-01T06:55:23Z</time>
      </trkpt>
      <trkpt lat="45.53269" lon="6.63982">
        <ele>1499</ele>
        <time>2012-07-01T06:55:28Z</time>
      </trkpt>
      <trkpt lat="45.53267" lon="6.6398">
        <ele>1499</ele>
        <time>2012-07-01T06:55:30Z</time>
      </trkpt>
      <trkpt lat="45.53262" lon="6.63977">
        <ele>1501.1999511719</ele>
        <time>2012-07-01T06:55:35Z</time>
      </trkpt>
      <trkpt lat="45.53259" lon="6.63963">
        <ele>1502.4000244141</ele>
        <time>2012-07-01T06:55:45Z</time>
      </trkpt>
      <trkpt lat="45.53259" lon="6.63961">
        <ele>1502.4000244141</ele>
        <time>2012-07-01T06:55:46Z</time>
      </trkpt>
      <trkpt lat="45.53258" lon="6.63955">
        <ele>1503.4000244141</ele>
        <time>2012-07-01T06:55:50Z</time>
      </trkpt>
      <trkpt lat="45.53258" lon="6.63945">
        <ele>1503.4000244141</ele>
        <time>2012-07-01T06:55:56Z</time>
      </trkpt>
      <trkpt lat="45.53258" lon="6.63938">
        <ele>1504.4000244141</ele>
        <time>2012-07-01T06:56:01Z</time>
      </trkpt>
      <trkpt lat="45.53257" lon="6.63937">
        <ele>1504.4000244141</ele>
        <time>2012-07-01T06:56:02Z</time>
      </trkpt>
      <trkpt lat="45.53253" lon="6.63935">
        <ele>1505.5999755859</ele>
        <time>2012-07-01T06:56:07Z</time>
      </trkpt>
      <trkpt lat="45.53252" lon="6.63935">
        <ele>1505.5999755859</ele>
        <time>2012-07-01T06:56:08Z</time>
      </trkpt>
      <trkpt lat="45.53249" lon="6.63936">
        <ele>1506.5999755859</ele>
        <time>2012-07-01T06:56:29Z</time>
      </trkpt>
      <trkpt lat="45.53247" lon="6.63937">
        <ele>1507.8000488281</ele>
        <time>2012-07-01T06:56:32Z</time>
      </trkpt>
      <trkpt lat="45.53244" lon="6.63942">
        <ele>1507.8000488281</ele>
        <time>2012-07-01T06:56:37Z</time>
      </trkpt>
      <trkpt lat="45.53243" lon="6.63943">
        <ele>1507.8000488281</ele>
        <time>2012-07-01T06:56:38Z</time>
      </trkpt>
      <trkpt lat="45.5324" lon="6.63951">
        <ele>1508.8000488281</ele>
        <time>2012-07-01T06:56:43Z</time>
      </trkpt>
      <trkpt lat="45.53239" lon="6.63952">
        <ele>1508.8000488281</ele>
        <time>2012-07-01T06:56:44Z</time>
      </trkpt>
      <trkpt lat="45.53236" lon="6.63956">
        <ele>1508.8000488281</ele>
        <time>2012-07-01T06:56:49Z</time>
      </trkpt>
      <trkpt lat="45.53234" lon="6.63959">
        <ele>1509.8000488281</ele>
        <time>2012-07-01T06:56:51Z</time>
      </trkpt>
      <trkpt lat="45.53228" lon="6.63969">
        <ele>1511</ele>
        <time>2012-07-01T06:56:58Z</time>
      </trkpt>
      <trkpt lat="45.53226" lon="6.63985">
        <ele>1511</ele>
        <time>2012-07-01T06:57:08Z</time>
      </trkpt>
      <trkpt lat="45.53226" lon="6.63993">
        <ele>1511</ele>
        <time>2012-07-01T06:57:12Z</time>
      </trkpt>
      <trkpt lat="45.5323" lon="6.64011">
        <ele>1511</ele>
        <time>2012-07-01T06:57:18Z</time>
      </trkpt>
      <trkpt lat="45.53233" lon="6.64017">
        <ele>1511</ele>
        <time>2012-07-01T06:57:20Z</time>
      </trkpt>
      <trkpt lat="45.53241" lon="6.64029">
        <ele>1511</ele>
        <time>2012-07-01T06:57:25Z</time>
      </trkpt>
      <trkpt lat="45.53247" lon="6.64037">
        <ele>1508</ele>
        <time>2012-07-01T06:57:28Z</time>
      </trkpt>
      <trkpt lat="45.53254" lon="6.64052">
        <ele>1506.8000488281</ele>
        <time>2012-07-01T06:57:33Z</time>
      </trkpt>
      <trkpt lat="45.53257" lon="6.64058">
        <ele>1506.8000488281</ele>
        <time>2012-07-01T06:57:35Z</time>
      </trkpt>
      <trkpt lat="45.53259" lon="6.64095">
        <ele>1504.8000488281</ele>
        <time>2012-07-01T06:57:45Z</time>
      </trkpt>
      <trkpt lat="45.53258" lon="6.64098">
        <ele>1503.5999755859</ele>
        <time>2012-07-01T06:57:46Z</time>
      </trkpt>
      <trkpt lat="45.53255" lon="6.6411">
        <ele>1503.5999755859</ele>
        <time>2012-07-01T06:57:50Z</time>
      </trkpt>
      <trkpt lat="45.53254" lon="6.64114">
        <ele>1502.5999755859</ele>
        <time>2012-07-01T06:57:51Z</time>
      </trkpt>
      <trkpt lat="45.53249" lon="6.64128">
        <ele>1502.5999755859</ele>
        <time>2012-07-01T06:57:55Z</time>
      </trkpt>
      <trkpt lat="45.53249" lon="6.64131">
        <ele>1501.5999755859</ele>
        <time>2012-07-01T06:57:56Z</time>
      </trkpt>
      <trkpt lat="45.53251" lon="6.64152">
        <ele>1500.4000244141</ele>
        <time>2012-07-01T06:58:02Z</time>
      </trkpt>
      <trkpt lat="45.53255" lon="6.64165">
        <ele>1500.4000244141</ele>
        <time>2012-07-01T06:58:06Z</time>
      </trkpt>
      <trkpt lat="45.53258" lon="6.64171">
        <ele>1499.1999511719</ele>
        <time>2012-07-01T06:58:08Z</time>
      </trkpt>
      <trkpt lat="45.53263" lon="6.64186">
        <ele>1498.1999511719</ele>
        <time>2012-07-01T06:58:14Z</time>
      </trkpt>
      <trkpt lat="45.53269" lon="6.64198">
        <ele>1498.1999511719</ele>
        <time>2012-07-01T06:58:20Z</time>
      </trkpt>
      <trkpt lat="45.53274" lon="6.64215">
        <ele>1497.1999511719</ele>
        <time>2012-07-01T06:58:25Z</time>
      </trkpt>
      <trkpt lat="45.53275" lon="6.64226">
        <ele>1496.1999511719</ele>
        <time>2012-07-01T06:58:28Z</time>
      </trkpt>
      <trkpt lat="45.53276" lon="6.64248">
        <ele>1496.1999511719</ele>
        <time>2012-07-01T06:58:36Z</time>
      </trkpt>
      <trkpt lat="45.53276" lon="6.64254">
        <ele>1496.1999511719</ele>
        <time>2012-07-01T06:58:39Z</time>
      </trkpt>
      <trkpt lat="45.53275" lon="6.64257">
        <ele>1495</ele>
        <time>2012-07-01T06:58:41Z</time>
      </trkpt>
      <trkpt lat="45.53274" lon="6.64259">
        <ele>1495</ele>
        <time>2012-07-01T06:58:42Z</time>
      </trkpt>
      <trkpt lat="45.53262" lon="6.64293">
        <ele>1498.1999511719</ele>
        <time>2012-07-01T06:59:04Z</time>
      </trkpt>
      <trkpt lat="45.53261" lon="6.64294">
        <ele>1499.4000244141</ele>
        <time>2012-07-01T06:59:05Z</time>
      </trkpt>
      <trkpt lat="45.53257" lon="6.64298">
        <ele>1499.4000244141</ele>
        <time>2012-07-01T06:59:09Z</time>
      </trkpt>
      <trkpt lat="45.53256" lon="6.643">
        <ele>1500.4000244141</ele>
        <time>2012-07-01T06:59:10Z</time>
      </trkpt>
      <trkpt lat="45.53249" lon="6.64308">
        <ele>1501.4000244141</ele>
        <time>2012-07-01T06:59:17Z</time>
      </trkpt>
      <trkpt lat="45.53245" lon="6.6431">
        <ele>1501.4000244141</ele>
        <time>2012-07-01T06:59:21Z</time>
      </trkpt>
      <trkpt lat="45.53241" lon="6.64314">
        <ele>1502.5999755859</ele>
        <time>2012-07-01T06:59:25Z</time>
      </trkpt>
      <trkpt lat="45.53238" lon="6.64317">
        <ele>1503.5999755859</ele>
        <time>2012-07-01T06:59:28Z</time>
      </trkpt>
      <trkpt lat="45.53234" lon="6.6432">
        <ele>1503.5999755859</ele>
        <time>2012-07-01T06:59:31Z</time>
      </trkpt>
      <trkpt lat="45.53226" lon="6.64328">
        <ele>1505.8000488281</ele>
        <time>2012-07-01T06:59:40Z</time>
      </trkpt>
      <trkpt lat="45.53221" lon="6.64334">
        <ele>1506.8000488281</ele>
        <time>2012-07-01T06:59:45Z</time>
      </trkpt>
      <trkpt lat="45.53217" lon="6.6434">
        <ele>1507.8000488281</ele>
        <time>2012-07-01T06:59:50Z</time>
      </trkpt>
      <trkpt lat="45.53215" lon="6.64343">
        <ele>1507.8000488281</ele>
        <time>2012-07-01T06:59:53Z</time>
      </trkpt>
      <trkpt lat="45.53212" lon="6.64348">
        <ele>1509</ele>
        <time>2012-07-01T06:59:57Z</time>
      </trkpt>
      <trkpt lat="45.53212" lon="6.6435">
        <ele>1510</ele>
        <time>2012-07-01T06:59:59Z</time>
      </trkpt>
      <trkpt lat="45.53209" lon="6.64355">
        <ele>1510</ele>
        <time>2012-07-01T07:00:04Z</time>
      </trkpt>
      <trkpt lat="45.53208" lon="6.6436">
        <ele>1511.1999511719</ele>
        <time>2012-07-01T07:00:07Z</time>
      </trkpt>
      <trkpt lat="45.53198" lon="6.64388">
        <ele>1512.1999511719</ele>
        <time>2012-07-01T07:00:24Z</time>
      </trkpt>
      <trkpt lat="45.53195" lon="6.64398">
        <ele>1512.1999511719</ele>
        <time>2012-07-01T07:00:30Z</time>
      </trkpt>
      <trkpt lat="45.53193" lon="6.64404">
        <ele>1513.1999511719</ele>
        <time>2012-07-01T07:00:33Z</time>
      </trkpt>
      <trkpt lat="45.53192" lon="6.64408">
        <ele>1513.1999511719</ele>
        <time>2012-07-01T07:00:35Z</time>
      </trkpt>
      <trkpt lat="45.53188" lon="6.64418">
        <ele>1513.1999511719</ele>
        <time>2012-07-01T07:00:40Z</time>
      </trkpt>
      <trkpt lat="45.53185" lon="6.64427">
        <ele>1514.1999511719</ele>
        <time>2012-07-01T07:00:45Z</time>
      </trkpt>
      <trkpt lat="45.53181" lon="6.64438">
        <ele>1514.1999511719</ele>
        <time>2012-07-01T07:00:51Z</time>
      </trkpt>
      <trkpt lat="45.5318" lon="6.6444">
        <ele>1515.4000244141</ele>
        <time>2012-07-01T07:00:52Z</time>
      </trkpt>
      <trkpt lat="45.53173" lon="6.64455">
        <ele>1516.4000244141</ele>
        <time>2012-07-01T07:01:01Z</time>
      </trkpt>
      <trkpt lat="45.53166" lon="6.64465">
        <ele>1516.4000244141</ele>
        <time>2012-07-01T07:01:08Z</time>
      </trkpt>
      <trkpt lat="45.53164" lon="6.64467">
        <ele>1517.4000244141</ele>
        <time>2012-07-01T07:01:09Z</time>
      </trkpt>
      <trkpt lat="45.53158" lon="6.64473">
        <ele>1517.4000244141</ele>
        <time>2012-07-01T07:01:16Z</time>
      </trkpt>
      <trkpt lat="45.53157" lon="6.64474">
        <ele>1518.4000244141</ele>
        <time>2012-07-01T07:01:17Z</time>
      </trkpt>
      <trkpt lat="45.53148" lon="6.64478">
        <ele>1519.5999755859</ele>
        <time>2012-07-01T07:01:24Z</time>
      </trkpt>
      <trkpt lat="45.5314" lon="6.64483">
        <ele>1519.5999755859</ele>
        <time>2012-07-01T07:01:30Z</time>
      </trkpt>
      <trkpt lat="45.53135" lon="6.64486">
        <ele>1520.5999755859</ele>
        <time>2012-07-01T07:01:34Z</time>
      </trkpt>
      <trkpt lat="45.53134" lon="6.64486">
        <ele>1520.5999755859</ele>
        <time>2012-07-01T07:01:35Z</time>
      </trkpt>
      <trkpt lat="45.53121" lon="6.64496">
        <ele>1521.8000488281</ele>
        <time>2012-07-01T07:01:47Z</time>
      </trkpt>
      <trkpt lat="45.53118" lon="6.64499">
        <ele>1522.8000488281</ele>
        <time>2012-07-01T07:01:50Z</time>
      </trkpt>
      <trkpt lat="45.53112" lon="6.64503">
        <ele>1522.8000488281</ele>
        <time>2012-07-01T07:01:55Z</time>
      </trkpt>
      <trkpt lat="45.53108" lon="6.64507">
        <ele>1522.8000488281</ele>
        <time>2012-07-01T07:01:58Z</time>
      </trkpt>
      <trkpt lat="45.53097" lon="6.64515">
        <ele>1523.8000488281</ele>
        <time>2012-07-01T07:02:05Z</time>
      </trkpt>
      <trkpt lat="45.53096" lon="6.64516">
        <ele>1523.8000488281</ele>
        <time>2012-07-01T07:02:06Z</time>
      </trkpt>
      <trkpt lat="45.53093" lon="6.64519">
        <ele>1523.8000488281</ele>
        <time>2012-07-01T07:02:09Z</time>
      </trkpt>
      <trkpt lat="45.53093" lon="6.6452">
        <ele>1523.8000488281</ele>
        <time>2012-07-01T07:02:10Z</time>
      </trkpt>
      <trkpt lat="45.53088" lon="6.64531">
        <ele>1523.8000488281</ele>
        <time>2012-07-01T07:02:20Z</time>
      </trkpt>
      <trkpt lat="45.53089" lon="6.64542">
        <ele>1523.8000488281</ele>
        <time>2012-07-01T07:02:37Z</time>
      </trkpt>
      <trkpt lat="45.5309" lon="6.64543">
        <ele>1523.8000488281</ele>
        <time>2012-07-01T07:02:40Z</time>
      </trkpt>
      <trkpt lat="45.53088" lon="6.64554">
        <ele>1524.8000488281</ele>
        <time>2012-07-01T07:02:48Z</time>
      </trkpt>
      <trkpt lat="45.53087" lon="6.64561">
        <ele>1524.8000488281</ele>
        <time>2012-07-01T07:02:52Z</time>
      </trkpt>
      <trkpt lat="45.53085" lon="6.64567">
        <ele>1526</ele>
        <time>2012-07-01T07:02:56Z</time>
      </trkpt>
      <trkpt lat="45.53085" lon="6.64569">
        <ele>1526</ele>
        <time>2012-07-01T07:02:57Z</time>
      </trkpt>
      <trkpt lat="45.53082" lon="6.64576">
        <ele>1526</ele>
        <time>2012-07-01T07:03:02Z</time>
      </trkpt>
      <trkpt lat="45.53079" lon="6.64584">
        <ele>1527</ele>
        <time>2012-07-01T07:03:07Z</time>
      </trkpt>
      <trkpt lat="45.53069" lon="6.64602">
        <ele>1529</ele>
        <time>2012-07-01T07:03:25Z</time>
      </trkpt>
      <trkpt lat="45.53067" lon="6.64604">
        <ele>1529</ele>
        <time>2012-07-01T07:03:27Z</time>
      </trkpt>
      <trkpt lat="45.53062" lon="6.64611">
        <ele>1530.1999511719</ele>
        <time>2012-07-01T07:03:34Z</time>
      </trkpt>
      <trkpt lat="45.53061" lon="6.64613">
        <ele>1530.1999511719</ele>
        <time>2012-07-01T07:03:35Z</time>
      </trkpt>
      <trkpt lat="45.53059" lon="6.64615">
        <ele>1531.1999511719</ele>
        <time>2012-07-01T07:03:39Z</time>
      </trkpt>
      <trkpt lat="45.53061" lon="6.6462">
        <ele>1531.1999511719</ele>
        <time>2012-07-01T07:03:45Z</time>
      </trkpt>
      <trkpt lat="45.5306" lon="6.64633">
        <ele>1532.1999511719</ele>
        <time>2012-07-01T07:03:51Z</time>
      </trkpt>
      <trkpt lat="45.5306" lon="6.64633">
        <ele>1532.1999511719</ele>
        <time>2012-07-01T07:03:52Z</time>
      </trkpt>
      <trkpt lat="45.5306" lon="6.64628">
        <ele>1532.1999511719</ele>
        <time>2012-07-01T07:03:57Z</time>
      </trkpt>
      <trkpt lat="45.53059" lon="6.64622">
        <ele>1532.1999511719</ele>
        <time>2012-07-01T07:04:04Z</time>
      </trkpt>
      <trkpt lat="45.53059" lon="6.64621">
        <ele>1533.1999511719</ele>
        <time>2012-07-01T07:04:05Z</time>
      </trkpt>
      <trkpt lat="45.53058" lon="6.64635">
        <ele>1534.4000244141</ele>
        <time>2012-07-01T07:04:12Z</time>
      </trkpt>
      <trkpt lat="45.53057" lon="6.64642">
        <ele>1534.4000244141</ele>
        <time>2012-07-01T07:04:14Z</time>
      </trkpt>
      <trkpt lat="45.53056" lon="6.64654">
        <ele>1535.4000244141</ele>
        <time>2012-07-01T07:04:18Z</time>
      </trkpt>
      <trkpt lat="45.53056" lon="6.64657">
        <ele>1535.4000244141</ele>
        <time>2012-07-01T07:04:19Z</time>
      </trkpt>
      <trkpt lat="45.53053" lon="6.64673">
        <ele>1536.4000244141</ele>
        <time>2012-07-01T07:04:24Z</time>
      </trkpt>
      <trkpt lat="45.53051" lon="6.64687">
        <ele>1536.4000244141</ele>
        <time>2012-07-01T07:04:29Z</time>
      </trkpt>
      <trkpt lat="45.53035" lon="6.64714">
        <ele>1539.5999755859</ele>
        <time>2012-07-01T07:04:40Z</time>
      </trkpt>
      <trkpt lat="45.53032" lon="6.64719">
        <ele>1539.5999755859</ele>
        <time>2012-07-01T07:04:42Z</time>
      </trkpt>
      <trkpt lat="45.53027" lon="6.6473">
        <ele>1540.8000488281</ele>
        <time>2012-07-01T07:04:46Z</time>
      </trkpt>
      <trkpt lat="45.53024" lon="6.64741">
        <ele>1540.8000488281</ele>
        <time>2012-07-01T07:04:49Z</time>
      </trkpt>
      <trkpt lat="45.53019" lon="6.64763">
        <ele>1540.8000488281</ele>
        <time>2012-07-01T07:04:54Z</time>
      </trkpt>
      <trkpt lat="45.53018" lon="6.64767">
        <ele>1541.8000488281</ele>
        <time>2012-07-01T07:04:55Z</time>
      </trkpt>
      <trkpt lat="45.53015" lon="6.64808">
        <ele>1541.8000488281</ele>
        <time>2012-07-01T07:05:06Z</time>
      </trkpt>
      <trkpt lat="45.53015" lon="6.64815">
        <ele>1541.8000488281</ele>
        <time>2012-07-01T07:05:08Z</time>
      </trkpt>
      <trkpt lat="45.53017" lon="6.64826">
        <ele>1541.8000488281</ele>
        <time>2012-07-01T07:05:11Z</time>
      </trkpt>
      <trkpt lat="45.53014" lon="6.6486">
        <ele>1537.5999755859</ele>
        <time>2012-07-01T07:05:20Z</time>
      </trkpt>
      <trkpt lat="45.53013" lon="6.64863">
        <ele>1536.4000244141</ele>
        <time>2012-07-01T07:05:21Z</time>
      </trkpt>
      <trkpt lat="45.53006" lon="6.64888">
        <ele>1534</ele>
        <time>2012-07-01T07:05:28Z</time>
      </trkpt>
      <trkpt lat="45.53005" lon="6.64894">
        <ele>1534</ele>
        <time>2012-07-01T07:05:30Z</time>
      </trkpt>
      <trkpt lat="45.52998" lon="6.64908">
        <ele>1533</ele>
        <time>2012-07-01T07:05:35Z</time>
      </trkpt>
      <trkpt lat="45.5299" lon="6.64917">
        <ele>1533</ele>
        <time>2012-07-01T07:05:39Z</time>
      </trkpt>
      <trkpt lat="45.52965" lon="6.6493">
        <ele>1533</ele>
        <time>2012-07-01T07:05:49Z</time>
      </trkpt>
      <trkpt lat="45.52951" lon="6.64932">
        <ele>1533</ele>
        <time>2012-07-01T07:05:54Z</time>
      </trkpt>
      <trkpt lat="45.52922" lon="6.6497">
        <ele>1533</ele>
        <time>2012-07-01T07:06:10Z</time>
      </trkpt>
      <trkpt lat="45.52923" lon="6.64973">
        <ele>1536</ele>
        <time>2012-07-01T07:06:11Z</time>
      </trkpt>
      <trkpt lat="45.52932" lon="6.64984">
        <ele>1536</ele>
        <time>2012-07-01T07:06:16Z</time>
      </trkpt>
      <trkpt lat="45.52941" lon="6.64991">
        <ele>1536</ele>
        <time>2012-07-01T07:06:20Z</time>
      </trkpt>
      <trkpt lat="45.52957" lon="6.65004">
        <ele>1537.1999511719</ele>
        <time>2012-07-01T07:06:27Z</time>
      </trkpt>
      <trkpt lat="45.52961" lon="6.65009">
        <ele>1537.1999511719</ele>
        <time>2012-07-01T07:06:29Z</time>
      </trkpt>
      <trkpt lat="45.52967" lon="6.65025">
        <ele>1539.4000244141</ele>
        <time>2012-07-01T07:06:34Z</time>
      </trkpt>
      <trkpt lat="45.52967" lon="6.65028">
        <ele>1539.4000244141</ele>
        <time>2012-07-01T07:06:35Z</time>
      </trkpt>
      <trkpt lat="45.52967" lon="6.65043">
        <ele>1540.4000244141</ele>
        <time>2012-07-01T07:06:39Z</time>
      </trkpt>
      <trkpt lat="45.52963" lon="6.65054">
        <ele>1542.5999755859</ele>
        <time>2012-07-01T07:06:43Z</time>
      </trkpt>
      <trkpt lat="45.52961" lon="6.65056">
        <ele>1542.5999755859</ele>
        <time>2012-07-01T07:06:44Z</time>
      </trkpt>
      <trkpt lat="45.52946" lon="6.65068">
        <ele>1543.5999755859</ele>
        <time>2012-07-01T07:06:52Z</time>
      </trkpt>
      <trkpt lat="45.5294" lon="6.65074">
        <ele>1544.8000488281</ele>
        <time>2012-07-01T07:06:56Z</time>
      </trkpt>
      <trkpt lat="45.52933" lon="6.65085">
        <ele>1544.8000488281</ele>
        <time>2012-07-01T07:07:03Z</time>
      </trkpt>
      <trkpt lat="45.52932" lon="6.65086">
        <ele>1545.8000488281</ele>
        <time>2012-07-01T07:07:04Z</time>
      </trkpt>
      <trkpt lat="45.5293" lon="6.65089">
        <ele>1546.8000488281</ele>
        <time>2012-07-01T07:07:06Z</time>
      </trkpt>
      <trkpt lat="45.52928" lon="6.65092">
        <ele>1546.8000488281</ele>
        <time>2012-07-01T07:07:08Z</time>
      </trkpt>
      <trkpt lat="45.52915" lon="6.65113">
        <ele>1546.8000488281</ele>
        <time>2012-07-01T07:07:22Z</time>
      </trkpt>
      <trkpt lat="45.52913" lon="6.65116">
        <ele>1546.8000488281</ele>
        <time>2012-07-01T07:07:24Z</time>
      </trkpt>
      <trkpt lat="45.52904" lon="6.65125">
        <ele>1546.8000488281</ele>
        <time>2012-07-01T07:07:31Z</time>
      </trkpt>
      <trkpt lat="45.52893" lon="6.65133">
        <ele>1546.8000488281</ele>
        <time>2012-07-01T07:07:36Z</time>
      </trkpt>
      <trkpt lat="45.52874" lon="6.65152">
        <ele>1546.8000488281</ele>
        <time>2012-07-01T07:07:45Z</time>
      </trkpt>
      <trkpt lat="45.52871" lon="6.65167">
        <ele>1546.8000488281</ele>
        <time>2012-07-01T07:07:50Z</time>
      </trkpt>
      <trkpt lat="45.52869" lon="6.65173">
        <ele>1546.8000488281</ele>
        <time>2012-07-01T07:08:00Z</time>
      </trkpt>
      <trkpt lat="45.5287" lon="6.65177">
        <ele>1546.8000488281</ele>
        <time>2012-07-01T07:08:03Z</time>
      </trkpt>
      <trkpt lat="45.52872" lon="6.65185">
        <ele>1546.8000488281</ele>
        <time>2012-07-01T07:08:08Z</time>
      </trkpt>
      <trkpt lat="45.52876" lon="6.65191">
        <ele>1546.8000488281</ele>
        <time>2012-07-01T07:08:15Z</time>
      </trkpt>
      <trkpt lat="45.52879" lon="6.65196">
        <ele>1546.8000488281</ele>
        <time>2012-07-01T07:08:20Z</time>
      </trkpt>
      <trkpt lat="45.52884" lon="6.65202">
        <ele>1547.8000488281</ele>
        <time>2012-07-01T07:08:25Z</time>
      </trkpt>
      <trkpt lat="45.52886" lon="6.65207">
        <ele>1548.8000488281</ele>
        <time>2012-07-01T07:08:28Z</time>
      </trkpt>
      <trkpt lat="45.5289" lon="6.65213">
        <ele>1550</ele>
        <time>2012-07-01T07:08:32Z</time>
      </trkpt>
      <trkpt lat="45.52892" lon="6.65217">
        <ele>1550</ele>
        <time>2012-07-01T07:08:35Z</time>
      </trkpt>
      <trkpt lat="45.52894" lon="6.6522">
        <ele>1550</ele>
        <time>2012-07-01T07:08:40Z</time>
      </trkpt>
      <trkpt lat="45.52898" lon="6.65225">
        <ele>1550</ele>
        <time>2012-07-01T07:08:44Z</time>
      </trkpt>
      <trkpt lat="45.52906" lon="6.65238">
        <ele>1552</ele>
        <time>2012-07-01T07:08:54Z</time>
      </trkpt>
      <trkpt lat="45.52906" lon="6.6524">
        <ele>1552</ele>
        <time>2012-07-01T07:08:55Z</time>
      </trkpt>
      <trkpt lat="45.52909" lon="6.65247">
        <ele>1553</ele>
        <time>2012-07-01T07:08:59Z</time>
      </trkpt>
      <trkpt lat="45.5291" lon="6.65248">
        <ele>1554.1999511719</ele>
        <time>2012-07-01T07:09:00Z</time>
      </trkpt>
      <trkpt lat="45.52912" lon="6.65253">
        <ele>1555.1999511719</ele>
        <time>2012-07-01T07:09:03Z</time>
      </trkpt>
      <trkpt lat="45.52915" lon="6.65258">
        <ele>1555.1999511719</ele>
        <time>2012-07-01T07:09:07Z</time>
      </trkpt>
      <trkpt lat="45.52916" lon="6.65262">
        <ele>1556.4000244141</ele>
        <time>2012-07-01T07:09:09Z</time>
      </trkpt>
      <trkpt lat="45.5292" lon="6.65267">
        <ele>1556.4000244141</ele>
        <time>2012-07-01T07:09:13Z</time>
      </trkpt>
      <trkpt lat="45.52926" lon="6.65276">
        <ele>1556.4000244141</ele>
        <time>2012-07-01T07:09:19Z</time>
      </trkpt>
      <trkpt lat="45.52931" lon="6.65289">
        <ele>1557.5999755859</ele>
        <time>2012-07-01T07:09:27Z</time>
      </trkpt>
      <trkpt lat="45.52931" lon="6.6529">
        <ele>1557.5999755859</ele>
        <time>2012-07-01T07:09:28Z</time>
      </trkpt>
      <trkpt lat="45.52935" lon="6.65305">
        <ele>1558.5999755859</ele>
        <time>2012-07-01T07:09:37Z</time>
      </trkpt>
      <trkpt lat="45.52935" lon="6.65307">
        <ele>1558.5999755859</ele>
        <time>2012-07-01T07:09:38Z</time>
      </trkpt>
      <trkpt lat="45.52935" lon="6.65315">
        <ele>1559.8000488281</ele>
        <time>2012-07-01T07:09:43Z</time>
      </trkpt>
      <trkpt lat="45.52935" lon="6.65316">
        <ele>1559.8000488281</ele>
        <time>2012-07-01T07:09:44Z</time>
      </trkpt>
      <trkpt lat="45.52933" lon="6.6532">
        <ele>1559.8000488281</ele>
        <time>2012-07-01T07:09:47Z</time>
      </trkpt>
      <trkpt lat="45.5293" lon="6.65326">
        <ele>1559.8000488281</ele>
        <time>2012-07-01T07:09:51Z</time>
      </trkpt>
      <trkpt lat="45.52916" lon="6.65335">
        <ele>1561.8000488281</ele>
        <time>2012-07-01T07:10:02Z</time>
      </trkpt>
      <trkpt lat="45.52912" lon="6.65336">
        <ele>1563</ele>
        <time>2012-07-01T07:10:05Z</time>
      </trkpt>
      <trkpt lat="45.52907" lon="6.65337">
        <ele>1564</ele>
        <time>2012-07-01T07:10:08Z</time>
      </trkpt>
      <trkpt lat="45.52905" lon="6.65338">
        <ele>1564</ele>
        <time>2012-07-01T07:10:09Z</time>
      </trkpt>
      <trkpt lat="45.52902" lon="6.65338">
        <ele>1565</ele>
        <time>2012-07-01T07:10:11Z</time>
      </trkpt>
      <trkpt lat="45.52901" lon="6.65338">
        <ele>1566</ele>
        <time>2012-07-01T07:10:12Z</time>
      </trkpt>
      <trkpt lat="45.52896" lon="6.65339">
        <ele>1568.1999511719</ele>
        <time>2012-07-01T07:10:16Z</time>
      </trkpt>
      <trkpt lat="45.52892" lon="6.6534">
        <ele>1568.1999511719</ele>
        <time>2012-07-01T07:10:19Z</time>
      </trkpt>
      <trkpt lat="45.52885" lon="6.65344">
        <ele>1569.1999511719</ele>
        <time>2012-07-01T07:10:24Z</time>
      </trkpt>
      <trkpt lat="45.5288" lon="6.65355">
        <ele>1570.1999511719</ele>
        <time>2012-07-01T07:10:33Z</time>
      </trkpt>
      <trkpt lat="45.5288" lon="6.65358">
        <ele>1571.1999511719</ele>
        <time>2012-07-01T07:10:35Z</time>
      </trkpt>
      <trkpt lat="45.52882" lon="6.65364">
        <ele>1572.4000244141</ele>
        <time>2012-07-01T07:10:39Z</time>
      </trkpt>
      <trkpt lat="45.52885" lon="6.65366">
        <ele>1572.4000244141</ele>
        <time>2012-07-01T07:10:41Z</time>
      </trkpt>
      <trkpt lat="45.52887" lon="6.65369">
        <ele>1573.4000244141</ele>
        <time>2012-07-01T07:10:43Z</time>
      </trkpt>
      <trkpt lat="45.52888" lon="6.6537">
        <ele>1574.4000244141</ele>
        <time>2012-07-01T07:10:44Z</time>
      </trkpt>
      <trkpt lat="45.52894" lon="6.65375">
        <ele>1576.5999755859</ele>
        <time>2012-07-01T07:10:49Z</time>
      </trkpt>
      <trkpt lat="45.52897" lon="6.6538">
        <ele>1577.5999755859</ele>
        <time>2012-07-01T07:10:52Z</time>
      </trkpt>
      <trkpt lat="45.52905" lon="6.65391">
        <ele>1579.5999755859</ele>
        <time>2012-07-01T07:11:08Z</time>
      </trkpt>
      <trkpt lat="45.52905" lon="6.65393">
        <ele>1579.5999755859</ele>
        <time>2012-07-01T07:11:09Z</time>
      </trkpt>
      <trkpt lat="45.52908" lon="6.654">
        <ele>1579.5999755859</ele>
        <time>2012-07-01T07:11:15Z</time>
      </trkpt>
      <trkpt lat="45.52911" lon="6.65409">
        <ele>1579.5999755859</ele>
        <time>2012-07-01T07:11:21Z</time>
      </trkpt>
      <trkpt lat="45.52911" lon="6.65414">
        <ele>1582</ele>
        <time>2012-07-01T07:11:25Z</time>
      </trkpt>
      <trkpt lat="45.5291" lon="6.65417">
        <ele>1583</ele>
        <time>2012-07-01T07:11:27Z</time>
      </trkpt>
      <trkpt lat="45.52907" lon="6.65424">
        <ele>1583</ele>
        <time>2012-07-01T07:11:35Z</time>
      </trkpt>
      <trkpt lat="45.52906" lon="6.65425">
        <ele>1583</ele>
        <time>2012-07-01T07:11:36Z</time>
      </trkpt>
      <trkpt lat="45.52901" lon="6.65428">
        <ele>1583</ele>
        <time>2012-07-01T07:11:41Z</time>
      </trkpt>
      <trkpt lat="45.52896" lon="6.65433">
        <ele>1584</ele>
        <time>2012-07-01T07:11:49Z</time>
      </trkpt>
      <trkpt lat="45.52894" lon="6.65435">
        <ele>1585</ele>
        <time>2012-07-01T07:11:52Z</time>
      </trkpt>
      <trkpt lat="45.5289" lon="6.6544">
        <ele>1586.1999511719</ele>
        <time>2012-07-01T07:11:58Z</time>
      </trkpt>
      <trkpt lat="45.52886" lon="6.65445">
        <ele>1586.1999511719</ele>
        <time>2012-07-01T07:12:05Z</time>
      </trkpt>
      <trkpt lat="45.52885" lon="6.65448">
        <ele>1587.1999511719</ele>
        <time>2012-07-01T07:12:08Z</time>
      </trkpt>
      <trkpt lat="45.52885" lon="6.65449">
        <ele>1587.1999511719</ele>
        <time>2012-07-01T07:12:09Z</time>
      </trkpt>
      <trkpt lat="45.52882" lon="6.65454">
        <ele>1587.1999511719</ele>
        <time>2012-07-01T07:12:13Z</time>
      </trkpt>
      <trkpt lat="45.5288" lon="6.65461">
        <ele>1588.1999511719</ele>
        <time>2012-07-01T07:12:16Z</time>
      </trkpt>
      <trkpt lat="45.52872" lon="6.65481">
        <ele>1590.4000244141</ele>
        <time>2012-07-01T07:12:29Z</time>
      </trkpt>
      <trkpt lat="45.52869" lon="6.65488">
        <ele>1591.4000244141</ele>
        <time>2012-07-01T07:12:33Z</time>
      </trkpt>
      <trkpt lat="45.52867" lon="6.65496">
        <ele>1594</ele>
        <time>2012-07-01T07:12:38Z</time>
      </trkpt>
      <trkpt lat="45.52866" lon="6.655">
        <ele>1595</ele>
        <time>2012-07-01T07:12:40Z</time>
      </trkpt>
      <trkpt lat="45.52863" lon="6.65506">
        <ele>1596</ele>
        <time>2012-07-01T07:12:44Z</time>
      </trkpt>
      <trkpt lat="45.52861" lon="6.6551">
        <ele>1596</ele>
        <time>2012-07-01T07:12:46Z</time>
      </trkpt>
      <trkpt lat="45.52853" lon="6.65523">
        <ele>1597</ele>
        <time>2012-07-01T07:12:54Z</time>
      </trkpt>
      <trkpt lat="45.5285" lon="6.6553">
        <ele>1598.1999511719</ele>
        <time>2012-07-01T07:12:58Z</time>
      </trkpt>
      <trkpt lat="45.52848" lon="6.65536">
        <ele>1599.1999511719</ele>
        <time>2012-07-01T07:13:02Z</time>
      </trkpt>
      <trkpt lat="45.52846" lon="6.65551">
        <ele>1600.1999511719</ele>
        <time>2012-07-01T07:13:10Z</time>
      </trkpt>
      <trkpt lat="45.52845" lon="6.65552">
        <ele>1600.1999511719</ele>
        <time>2012-07-01T07:13:11Z</time>
      </trkpt>
      <trkpt lat="45.52844" lon="6.6556">
        <ele>1600.1999511719</ele>
        <time>2012-07-01T07:13:15Z</time>
      </trkpt>
      <trkpt lat="45.52842" lon="6.65567">
        <ele>1601.1999511719</ele>
        <time>2012-07-01T07:13:19Z</time>
      </trkpt>
      <trkpt lat="45.52839" lon="6.65577">
        <ele>1602.4000244141</ele>
        <time>2012-07-01T07:13:25Z</time>
      </trkpt>
      <trkpt lat="45.52837" lon="6.65585">
        <ele>1602.4000244141</ele>
        <time>2012-07-01T07:13:30Z</time>
      </trkpt>
      <trkpt lat="45.52836" lon="6.6559">
        <ele>1603.4000244141</ele>
        <time>2012-07-01T07:13:33Z</time>
      </trkpt>
      <trkpt lat="45.52836" lon="6.65594">
        <ele>1603.4000244141</ele>
        <time>2012-07-01T07:13:35Z</time>
      </trkpt>
      <trkpt lat="45.52836" lon="6.65608">
        <ele>1605.8000488281</ele>
        <time>2012-07-01T07:13:45Z</time>
      </trkpt>
      <trkpt lat="45.52836" lon="6.65609">
        <ele>1605.8000488281</ele>
        <time>2012-07-01T07:13:46Z</time>
      </trkpt>
      <trkpt lat="45.52834" lon="6.65621">
        <ele>1605.8000488281</ele>
        <time>2012-07-01T07:13:52Z</time>
      </trkpt>
      <trkpt lat="45.52834" lon="6.65623">
        <ele>1606.8000488281</ele>
        <time>2012-07-01T07:13:53Z</time>
      </trkpt>
      <trkpt lat="45.52835" lon="6.65633">
        <ele>1607.8000488281</ele>
        <time>2012-07-01T07:13:59Z</time>
      </trkpt>
      <trkpt lat="45.52835" lon="6.65637">
        <ele>1607.8000488281</ele>
        <time>2012-07-01T07:14:01Z</time>
      </trkpt>
      <trkpt lat="45.52833" lon="6.65647">
        <ele>1609.8000488281</ele>
        <time>2012-07-01T07:14:07Z</time>
      </trkpt>
      <trkpt lat="45.52833" lon="6.65649">
        <ele>1609.8000488281</ele>
        <time>2012-07-01T07:14:08Z</time>
      </trkpt>
      <trkpt lat="45.52832" lon="6.65653">
        <ele>1609.8000488281</ele>
        <time>2012-07-01T07:14:11Z</time>
      </trkpt>
      <trkpt lat="45.52828" lon="6.65662">
        <ele>1610.8000488281</ele>
        <time>2012-07-01T07:14:17Z</time>
      </trkpt>
      <trkpt lat="45.52824" lon="6.65666">
        <ele>1610.8000488281</ele>
        <time>2012-07-01T07:14:21Z</time>
      </trkpt>
      <trkpt lat="45.5282" lon="6.65673">
        <ele>1612</ele>
        <time>2012-07-01T07:14:26Z</time>
      </trkpt>
      <trkpt lat="45.52819" lon="6.65679">
        <ele>1612</ele>
        <time>2012-07-01T07:14:29Z</time>
      </trkpt>
      <trkpt lat="45.52818" lon="6.65686">
        <ele>1614</ele>
        <time>2012-07-01T07:14:33Z</time>
      </trkpt>
      <trkpt lat="45.52818" lon="6.65689">
        <ele>1615.1999511719</ele>
        <time>2012-07-01T07:14:35Z</time>
      </trkpt>
      <trkpt lat="45.52818" lon="6.65697">
        <ele>1616.1999511719</ele>
        <time>2012-07-01T07:14:39Z</time>
      </trkpt>
      <trkpt lat="45.52818" lon="6.65701">
        <ele>1617.1999511719</ele>
        <time>2012-07-01T07:14:41Z</time>
      </trkpt>
      <trkpt lat="45.52819" lon="6.65709">
        <ele>1618.1999511719</ele>
        <time>2012-07-01T07:14:52Z</time>
      </trkpt>
      <trkpt lat="45.5282" lon="6.65718">
        <ele>1618.1999511719</ele>
        <time>2012-07-01T07:14:57Z</time>
      </trkpt>
      <trkpt lat="45.52819" lon="6.65724">
        <ele>1619.4000244141</ele>
        <time>2012-07-01T07:15:01Z</time>
      </trkpt>
      <trkpt lat="45.52819" lon="6.65726">
        <ele>1620.5999755859</ele>
        <time>2012-07-01T07:15:02Z</time>
      </trkpt>
      <trkpt lat="45.52817" lon="6.65733">
        <ele>1621.5999755859</ele>
        <time>2012-07-01T07:15:07Z</time>
      </trkpt>
      <trkpt lat="45.52817" lon="6.65735">
        <ele>1621.5999755859</ele>
        <time>2012-07-01T07:15:08Z</time>
      </trkpt>
      <trkpt lat="45.52816" lon="6.65738">
        <ele>1621.5999755859</ele>
        <time>2012-07-01T07:15:10Z</time>
      </trkpt>
      <trkpt lat="45.52815" lon="6.65743">
        <ele>1622.8000488281</ele>
        <time>2012-07-01T07:15:13Z</time>
      </trkpt>
      <trkpt lat="45.52814" lon="6.65746">
        <ele>1622.8000488281</ele>
        <time>2012-07-01T07:15:16Z</time>
      </trkpt>
      <trkpt lat="45.52814" lon="6.65758">
        <ele>1623.8000488281</ele>
        <time>2012-07-01T07:15:23Z</time>
      </trkpt>
      <trkpt lat="45.52812" lon="6.65768">
        <ele>1624.8000488281</ele>
        <time>2012-07-01T07:15:29Z</time>
      </trkpt>
      <trkpt lat="45.52812" lon="6.65771">
        <ele>1625.8000488281</ele>
        <time>2012-07-01T07:15:31Z</time>
      </trkpt>
      <trkpt lat="45.52812" lon="6.65774">
        <ele>1625.8000488281</ele>
        <time>2012-07-01T07:15:33Z</time>
      </trkpt>
      <trkpt lat="45.5281" lon="6.65782">
        <ele>1627</ele>
        <time>2012-07-01T07:15:38Z</time>
      </trkpt>
      <trkpt lat="45.52809" lon="6.65783">
        <ele>1628</ele>
        <time>2012-07-01T07:15:39Z</time>
      </trkpt>
      <trkpt lat="45.52805" lon="6.65794">
        <ele>1630.4000244141</ele>
        <time>2012-07-01T07:15:46Z</time>
      </trkpt>
      <trkpt lat="45.52804" lon="6.65796">
        <ele>1630.4000244141</ele>
        <time>2012-07-01T07:15:48Z</time>
      </trkpt>
      <trkpt lat="45.52789" lon="6.65818">
        <ele>1632.5999755859</ele>
        <time>2012-07-01T07:16:04Z</time>
      </trkpt>
      <trkpt lat="45.52789" lon="6.65819">
        <ele>1633.5999755859</ele>
        <time>2012-07-01T07:16:05Z</time>
      </trkpt>
      <trkpt lat="45.52785" lon="6.65824">
        <ele>1633.5999755859</ele>
        <time>2012-07-01T07:16:09Z</time>
      </trkpt>
      <trkpt lat="45.52784" lon="6.65825">
        <ele>1634.5999755859</ele>
        <time>2012-07-01T07:16:10Z</time>
      </trkpt>
      <trkpt lat="45.52777" lon="6.65834">
        <ele>1635.8000488281</ele>
        <time>2012-07-01T07:16:17Z</time>
      </trkpt>
      <trkpt lat="45.52773" lon="6.65837">
        <ele>1635.8000488281</ele>
        <time>2012-07-01T07:16:20Z</time>
      </trkpt>
      <trkpt lat="45.52769" lon="6.6584">
        <ele>1637</ele>
        <time>2012-07-01T07:16:24Z</time>
      </trkpt>
      <trkpt lat="45.52767" lon="6.65842">
        <ele>1637</ele>
        <time>2012-07-01T07:16:25Z</time>
      </trkpt>
      <trkpt lat="45.5276" lon="6.65851">
        <ele>1638</ele>
        <time>2012-07-01T07:16:32Z</time>
      </trkpt>
      <trkpt lat="45.52755" lon="6.6586">
        <ele>1639.1999511719</ele>
        <time>2012-07-01T07:16:40Z</time>
      </trkpt>
      <trkpt lat="45.52752" lon="6.65863">
        <ele>1640.1999511719</ele>
        <time>2012-07-01T07:16:43Z</time>
      </trkpt>
      <trkpt lat="45.52749" lon="6.65866">
        <ele>1641.1999511719</ele>
        <time>2012-07-01T07:16:46Z</time>
      </trkpt>
      <trkpt lat="45.52749" lon="6.65867">
        <ele>1641.1999511719</ele>
        <time>2012-07-01T07:16:47Z</time>
      </trkpt>
      <trkpt lat="45.52744" lon="6.65873">
        <ele>1641.1999511719</ele>
        <time>2012-07-01T07:16:52Z</time>
      </trkpt>
      <trkpt lat="45.52744" lon="6.65875">
        <ele>1642.1999511719</ele>
        <time>2012-07-01T07:16:53Z</time>
      </trkpt>
      <trkpt lat="45.52741" lon="6.65879">
        <ele>1642.1999511719</ele>
        <time>2012-07-01T07:16:56Z</time>
      </trkpt>
      <trkpt lat="45.52738" lon="6.65883">
        <ele>1642.1999511719</ele>
        <time>2012-07-01T07:17:00Z</time>
      </trkpt>
      <trkpt lat="45.52728" lon="6.659">
        <ele>1644.4000244141</ele>
        <time>2012-07-01T07:17:11Z</time>
      </trkpt>
      <trkpt lat="45.52726" lon="6.65903">
        <ele>1644.4000244141</ele>
        <time>2012-07-01T07:17:13Z</time>
      </trkpt>
      <trkpt lat="45.52724" lon="6.65908">
        <ele>1644.4000244141</ele>
        <time>2012-07-01T07:17:18Z</time>
      </trkpt>
      <trkpt lat="45.52723" lon="6.6591">
        <ele>1645.5999755859</ele>
        <time>2012-07-01T07:17:19Z</time>
      </trkpt>
      <trkpt lat="45.52717" lon="6.65922">
        <ele>1645.5999755859</ele>
        <time>2012-07-01T07:17:28Z</time>
      </trkpt>
      <trkpt lat="45.52716" lon="6.65923">
        <ele>1645.5999755859</ele>
        <time>2012-07-01T07:17:30Z</time>
      </trkpt>
      <trkpt lat="45.52715" lon="6.65924">
        <ele>1645.5999755859</ele>
        <time>2012-07-01T07:17:42Z</time>
      </trkpt>
      <trkpt lat="45.52716" lon="6.65924">
        <ele>1645.5999755859</ele>
        <time>2012-07-01T07:17:46Z</time>
      </trkpt>
      <trkpt lat="45.52711" lon="6.65933">
        <ele>1645.5999755859</ele>
        <time>2012-07-01T07:17:54Z</time>
      </trkpt>
      <trkpt lat="45.52707" lon="6.65939">
        <ele>1647.8000488281</ele>
        <time>2012-07-01T07:18:00Z</time>
      </trkpt>
      <trkpt lat="45.52708" lon="6.65939">
        <ele>1647.8000488281</ele>
        <time>2012-07-01T07:18:01Z</time>
      </trkpt>
      <trkpt lat="45.52705" lon="6.65946">
        <ele>1648.8000488281</ele>
        <time>2012-07-01T07:18:05Z</time>
      </trkpt>
      <trkpt lat="45.52703" lon="6.6595">
        <ele>1648.8000488281</ele>
        <time>2012-07-01T07:18:08Z</time>
      </trkpt>
      <trkpt lat="45.52702" lon="6.65954">
        <ele>1649.8000488281</ele>
        <time>2012-07-01T07:18:11Z</time>
      </trkpt>
      <trkpt lat="45.52701" lon="6.65955">
        <ele>1651</ele>
        <time>2012-07-01T07:18:12Z</time>
      </trkpt>
      <trkpt lat="45.52698" lon="6.65961">
        <ele>1652</ele>
        <time>2012-07-01T07:18:16Z</time>
      </trkpt>
      <trkpt lat="45.52696" lon="6.65965">
        <ele>1653.1999511719</ele>
        <time>2012-07-01T07:18:19Z</time>
      </trkpt>
      <trkpt lat="45.52689" lon="6.65975">
        <ele>1656.4000244141</ele>
        <time>2012-07-01T07:18:28Z</time>
      </trkpt>
      <trkpt lat="45.52687" lon="6.65976">
        <ele>1656.4000244141</ele>
        <time>2012-07-01T07:18:30Z</time>
      </trkpt>
      <trkpt lat="45.52686" lon="6.65978">
        <ele>1657.4000244141</ele>
        <time>2012-07-01T07:18:32Z</time>
      </trkpt>
      <trkpt lat="45.52683" lon="6.65981">
        <ele>1658.5999755859</ele>
        <time>2012-07-01T07:18:35Z</time>
      </trkpt>
      <trkpt lat="45.5268" lon="6.65985">
        <ele>1659.5999755859</ele>
        <time>2012-07-01T07:18:39Z</time>
      </trkpt>
      <trkpt lat="45.52678" lon="6.65986">
        <ele>1659.5999755859</ele>
        <time>2012-07-01T07:18:41Z</time>
      </trkpt>
      <trkpt lat="45.52675" lon="6.65989">
        <ele>1661.8000488281</ele>
        <time>2012-07-01T07:18:44Z</time>
      </trkpt>
      <trkpt lat="45.52674" lon="6.6599">
        <ele>1661.8000488281</ele>
        <time>2012-07-01T07:18:45Z</time>
      </trkpt>
      <trkpt lat="45.5267" lon="6.65994">
        <ele>1661.8000488281</ele>
        <time>2012-07-01T07:18:50Z</time>
      </trkpt>
      <trkpt lat="45.52668" lon="6.65995">
        <ele>1663</ele>
        <time>2012-07-01T07:18:54Z</time>
      </trkpt>
      <trkpt lat="45.52666" lon="6.66001">
        <ele>1664</ele>
        <time>2012-07-01T07:18:58Z</time>
      </trkpt>
      <trkpt lat="45.52665" lon="6.66005">
        <ele>1664</ele>
        <time>2012-07-01T07:19:01Z</time>
      </trkpt>
      <trkpt lat="45.52663" lon="6.6601">
        <ele>1664</ele>
        <time>2012-07-01T07:19:04Z</time>
      </trkpt>
      <trkpt lat="45.52658" lon="6.66019">
        <ele>1665</ele>
        <time>2012-07-01T07:19:10Z</time>
      </trkpt>
      <trkpt lat="45.52654" lon="6.66028">
        <ele>1666.1999511719</ele>
        <time>2012-07-01T07:19:16Z</time>
      </trkpt>
      <trkpt lat="45.5265" lon="6.66037">
        <ele>1666.1999511719</ele>
        <time>2012-07-01T07:19:24Z</time>
      </trkpt>
      <trkpt lat="45.52649" lon="6.6604">
        <ele>1667.1999511719</ele>
        <time>2012-07-01T07:19:26Z</time>
      </trkpt>
      <trkpt lat="45.52638" lon="6.66057">
        <ele>1670.4000244141</ele>
        <time>2012-07-01T07:19:41Z</time>
      </trkpt>
      <trkpt lat="45.52637" lon="6.66058">
        <ele>1670.4000244141</ele>
        <time>2012-07-01T07:19:42Z</time>
      </trkpt>
      <trkpt lat="45.52634" lon="6.66064">
        <ele>1671.5999755859</ele>
        <time>2012-07-01T07:19:47Z</time>
      </trkpt>
      <trkpt lat="45.52633" lon="6.66066">
        <ele>1671.5999755859</ele>
        <time>2012-07-01T07:19:48Z</time>
      </trkpt>
      <trkpt lat="45.52631" lon="6.66071">
        <ele>1673.8000488281</ele>
        <time>2012-07-01T07:19:52Z</time>
      </trkpt>
      <trkpt lat="45.52629" lon="6.66074">
        <ele>1673.8000488281</ele>
        <time>2012-07-01T07:19:54Z</time>
      </trkpt>
      <trkpt lat="45.52627" lon="6.6608">
        <ele>1675</ele>
        <time>2012-07-01T07:19:57Z</time>
      </trkpt>
      <trkpt lat="45.52626" lon="6.66084">
        <ele>1676</ele>
        <time>2012-07-01T07:19:59Z</time>
      </trkpt>
      <trkpt lat="45.52624" lon="6.66092">
        <ele>1677.1999511719</ele>
        <time>2012-07-01T07:20:04Z</time>
      </trkpt>
      <trkpt lat="45.52621" lon="6.66102">
        <ele>1678.1999511719</ele>
        <time>2012-07-01T07:20:12Z</time>
      </trkpt>
      <trkpt lat="45.5262" lon="6.66103">
        <ele>1678.1999511719</ele>
        <time>2012-07-01T07:20:13Z</time>
      </trkpt>
      <trkpt lat="45.52616" lon="6.6611">
        <ele>1678.1999511719</ele>
        <time>2012-07-01T07:20:18Z</time>
      </trkpt>
      <trkpt lat="45.52616" lon="6.66111">
        <ele>1678.1999511719</ele>
        <time>2012-07-01T07:20:19Z</time>
      </trkpt>
      <trkpt lat="45.5261" lon="6.66118">
        <ele>1678.1999511719</ele>
        <time>2012-07-01T07:20:25Z</time>
      </trkpt>
      <trkpt lat="45.52607" lon="6.66121">
        <ele>1679.4000244141</ele>
        <time>2012-07-01T07:20:28Z</time>
      </trkpt>
      <trkpt lat="45.52601" lon="6.66125">
        <ele>1680.4000244141</ele>
        <time>2012-07-01T07:20:32Z</time>
      </trkpt>
      <trkpt lat="45.52599" lon="6.66127">
        <ele>1680.4000244141</ele>
        <time>2012-07-01T07:20:34Z</time>
      </trkpt>
      <trkpt lat="45.52595" lon="6.66147">
        <ele>1682.8000488281</ele>
        <time>2012-07-01T07:20:49Z</time>
      </trkpt>
      <trkpt lat="45.52595" lon="6.66149">
        <ele>1682.8000488281</ele>
        <time>2012-07-01T07:20:50Z</time>
      </trkpt>
      <trkpt lat="45.52594" lon="6.66152">
        <ele>1683.8000488281</ele>
        <time>2012-07-01T07:20:52Z</time>
      </trkpt>
      <trkpt lat="45.52594" lon="6.66155">
        <ele>1683.8000488281</ele>
        <time>2012-07-01T07:20:54Z</time>
      </trkpt>
      <trkpt lat="45.52593" lon="6.66158">
        <ele>1683.8000488281</ele>
        <time>2012-07-01T07:20:56Z</time>
      </trkpt>
      <trkpt lat="45.52592" lon="6.6616">
        <ele>1685</ele>
        <time>2012-07-01T07:20:59Z</time>
      </trkpt>
      <trkpt lat="45.52588" lon="6.66166">
        <ele>1686</ele>
        <time>2012-07-01T07:21:05Z</time>
      </trkpt>
      <trkpt lat="45.52586" lon="6.66171">
        <ele>1686</ele>
        <time>2012-07-01T07:21:08Z</time>
      </trkpt>
      <trkpt lat="45.52581" lon="6.66178">
        <ele>1686</ele>
        <time>2012-07-01T07:21:13Z</time>
      </trkpt>
      <trkpt lat="45.52577" lon="6.66182">
        <ele>1687</ele>
        <time>2012-07-01T07:21:17Z</time>
      </trkpt>
      <trkpt lat="45.52576" lon="6.66184">
        <ele>1687</ele>
        <time>2012-07-01T07:21:18Z</time>
      </trkpt>
      <trkpt lat="45.52569" lon="6.66191">
        <ele>1688.1999511719</ele>
        <time>2012-07-01T07:21:24Z</time>
      </trkpt>
      <trkpt lat="45.52568" lon="6.66192">
        <ele>1688.1999511719</ele>
        <time>2012-07-01T07:21:25Z</time>
      </trkpt>
      <trkpt lat="45.52562" lon="6.66197">
        <ele>1688.1999511719</ele>
        <time>2012-07-01T07:21:31Z</time>
      </trkpt>
      <trkpt lat="45.52561" lon="6.66199">
        <ele>1689.1999511719</ele>
        <time>2012-07-01T07:21:32Z</time>
      </trkpt>
      <trkpt lat="45.52557" lon="6.66203">
        <ele>1689.1999511719</ele>
        <time>2012-07-01T07:21:36Z</time>
      </trkpt>
      <trkpt lat="45.52557" lon="6.66207">
        <ele>1690.1999511719</ele>
        <time>2012-07-01T07:21:39Z</time>
      </trkpt>
      <trkpt lat="45.52555" lon="6.66227">
        <ele>1692.5999755859</ele>
        <time>2012-07-01T07:21:49Z</time>
      </trkpt>
      <trkpt lat="45.52554" lon="6.66231">
        <ele>1692.5999755859</ele>
        <time>2012-07-01T07:21:51Z</time>
      </trkpt>
      <trkpt lat="45.52553" lon="6.66239">
        <ele>1693.5999755859</ele>
        <time>2012-07-01T07:21:55Z</time>
      </trkpt>
      <trkpt lat="45.52551" lon="6.66244">
        <ele>1693.5999755859</ele>
        <time>2012-07-01T07:21:58Z</time>
      </trkpt>
      <trkpt lat="45.52548" lon="6.66253">
        <ele>1694.5999755859</ele>
        <time>2012-07-01T07:22:04Z</time>
      </trkpt>
      <trkpt lat="45.52544" lon="6.66259">
        <ele>1695.8000488281</ele>
        <time>2012-07-01T07:22:08Z</time>
      </trkpt>
      <trkpt lat="45.52539" lon="6.66265">
        <ele>1695.8000488281</ele>
        <time>2012-07-01T07:22:13Z</time>
      </trkpt>
      <trkpt lat="45.52538" lon="6.66266">
        <ele>1696.8000488281</ele>
        <time>2012-07-01T07:22:14Z</time>
      </trkpt>
      <trkpt lat="45.52533" lon="6.66272">
        <ele>1698</ele>
        <time>2012-07-01T07:22:19Z</time>
      </trkpt>
      <trkpt lat="45.5253" lon="6.66279">
        <ele>1698</ele>
        <time>2012-07-01T07:22:24Z</time>
      </trkpt>
      <trkpt lat="45.52529" lon="6.66282">
        <ele>1699</ele>
        <time>2012-07-01T07:22:26Z</time>
      </trkpt>
      <trkpt lat="45.52526" lon="6.66289">
        <ele>1700</ele>
        <time>2012-07-01T07:22:31Z</time>
      </trkpt>
      <trkpt lat="45.52525" lon="6.66291">
        <ele>1700</ele>
        <time>2012-07-01T07:22:32Z</time>
      </trkpt>
      <trkpt lat="45.52516" lon="6.66301">
        <ele>1701.1999511719</ele>
        <time>2012-07-01T07:22:41Z</time>
      </trkpt>
      <trkpt lat="45.52515" lon="6.66301">
        <ele>1701.1999511719</ele>
        <time>2012-07-01T07:22:42Z</time>
      </trkpt>
      <trkpt lat="45.5251" lon="6.66306">
        <ele>1701.1999511719</ele>
        <time>2012-07-01T07:22:47Z</time>
      </trkpt>
      <trkpt lat="45.52506" lon="6.6631">
        <ele>1702.1999511719</ele>
        <time>2012-07-01T07:22:51Z</time>
      </trkpt>
      <trkpt lat="45.52503" lon="6.66319">
        <ele>1703.1999511719</ele>
        <time>2012-07-01T07:22:58Z</time>
      </trkpt>
      <trkpt lat="45.52502" lon="6.66324">
        <ele>1703.1999511719</ele>
        <time>2012-07-01T07:23:01Z</time>
      </trkpt>
      <trkpt lat="45.52493" lon="6.66333">
        <ele>1703.1999511719</ele>
        <time>2012-07-01T07:23:08Z</time>
      </trkpt>
      <trkpt lat="45.52492" lon="6.66334">
        <ele>1704.4000244141</ele>
        <time>2012-07-01T07:23:09Z</time>
      </trkpt>
      <trkpt lat="45.52479" lon="6.66342">
        <ele>1704.4000244141</ele>
        <time>2012-07-01T07:23:18Z</time>
      </trkpt>
      <trkpt lat="45.52474" lon="6.66343">
        <ele>1705.4000244141</ele>
        <time>2012-07-01T07:23:21Z</time>
      </trkpt>
      <trkpt lat="45.52468" lon="6.66347">
        <ele>1706.4000244141</ele>
        <time>2012-07-01T07:23:25Z</time>
      </trkpt>
      <trkpt lat="45.52464" lon="6.66349">
        <ele>1706.4000244141</ele>
        <time>2012-07-01T07:23:28Z</time>
      </trkpt>
      <trkpt lat="45.52452" lon="6.66359">
        <ele>1707.5999755859</ele>
        <time>2012-07-01T07:23:38Z</time>
      </trkpt>
      <trkpt lat="45.52447" lon="6.66362">
        <ele>1708.5999755859</ele>
        <time>2012-07-01T07:23:43Z</time>
      </trkpt>
      <trkpt lat="45.52445" lon="6.66363">
        <ele>1709.5999755859</ele>
        <time>2012-07-01T07:23:44Z</time>
      </trkpt>
      <trkpt lat="45.52442" lon="6.66365">
        <ele>1709.5999755859</ele>
        <time>2012-07-01T07:23:47Z</time>
      </trkpt>
      <trkpt lat="45.52441" lon="6.66365">
        <ele>1710.8000488281</ele>
        <time>2012-07-01T07:23:48Z</time>
      </trkpt>
      <trkpt lat="45.52436" lon="6.66366">
        <ele>1711.8000488281</ele>
        <time>2012-07-01T07:23:53Z</time>
      </trkpt>
      <trkpt lat="45.52433" lon="6.66367">
        <ele>1711.8000488281</ele>
        <time>2012-07-01T07:23:57Z</time>
      </trkpt>
      <trkpt lat="45.52431" lon="6.66368">
        <ele>1713</ele>
        <time>2012-07-01T07:23:59Z</time>
      </trkpt>
      <trkpt lat="45.52429" lon="6.66369">
        <ele>1713</ele>
        <time>2012-07-01T07:24:02Z</time>
      </trkpt>
      <trkpt lat="45.52419" lon="6.66368">
        <ele>1715.1999511719</ele>
        <time>2012-07-01T07:24:10Z</time>
      </trkpt>
      <trkpt lat="45.52416" lon="6.66367">
        <ele>1716.1999511719</ele>
        <time>2012-07-01T07:24:12Z</time>
      </trkpt>
      <trkpt lat="45.52412" lon="6.66367">
        <ele>1716.1999511719</ele>
        <time>2012-07-01T07:24:15Z</time>
      </trkpt>
      <trkpt lat="45.5241" lon="6.66366">
        <ele>1717.1999511719</ele>
        <time>2012-07-01T07:24:17Z</time>
      </trkpt>
      <trkpt lat="45.52401" lon="6.66365">
        <ele>1718.4000244141</ele>
        <time>2012-07-01T07:24:24Z</time>
      </trkpt>
      <trkpt lat="45.524" lon="6.66365">
        <ele>1718.4000244141</ele>
        <time>2012-07-01T07:24:25Z</time>
      </trkpt>
      <trkpt lat="45.52393" lon="6.66369">
        <ele>1719.5999755859</ele>
        <time>2012-07-01T07:24:32Z</time>
      </trkpt>
      <trkpt lat="45.52389" lon="6.6637">
        <ele>1719.5999755859</ele>
        <time>2012-07-01T07:24:36Z</time>
      </trkpt>
      <trkpt lat="45.52385" lon="6.66373">
        <ele>1719.5999755859</ele>
        <time>2012-07-01T07:24:43Z</time>
      </trkpt>
      <trkpt lat="45.52376" lon="6.66376">
        <ele>1720.5999755859</ele>
        <time>2012-07-01T07:24:57Z</time>
      </trkpt>
      <trkpt lat="45.52374" lon="6.66377">
        <ele>1720.5999755859</ele>
        <time>2012-07-01T07:25:00Z</time>
      </trkpt>
      <trkpt lat="45.52374" lon="6.66377">
        <ele>1721.8000488281</ele>
        <time>2012-07-01T07:25:03Z</time>
      </trkpt>
      <trkpt lat="45.52372" lon="6.66379">
        <ele>1721.8000488281</ele>
        <time>2012-07-01T07:25:08Z</time>
      </trkpt>
      <trkpt lat="45.52367" lon="6.6638">
        <ele>1722.8000488281</ele>
        <time>2012-07-01T07:25:13Z</time>
      </trkpt>
      <trkpt lat="45.52365" lon="6.66381">
        <ele>1722.8000488281</ele>
        <time>2012-07-01T07:25:15Z</time>
      </trkpt>
      <trkpt lat="45.5236" lon="6.66382">
        <ele>1722.8000488281</ele>
        <time>2012-07-01T07:25:18Z</time>
      </trkpt>
      <trkpt lat="45.52359" lon="6.66383">
        <ele>1723.8000488281</ele>
        <time>2012-07-01T07:25:19Z</time>
      </trkpt>
      <trkpt lat="45.52352" lon="6.66386">
        <ele>1726</ele>
        <time>2012-07-01T07:25:34Z</time>
      </trkpt>
      <trkpt lat="45.52349" lon="6.66387">
        <ele>1726</ele>
        <time>2012-07-01T07:25:38Z</time>
      </trkpt>
      <trkpt lat="45.52344" lon="6.66387">
        <ele>1728.1999511719</ele>
        <time>2012-07-01T07:25:45Z</time>
      </trkpt>
      <trkpt lat="45.5234" lon="6.66388">
        <ele>1729.1999511719</ele>
        <time>2012-07-01T07:25:50Z</time>
      </trkpt>
      <trkpt lat="45.52338" lon="6.66391">
        <ele>1729.1999511719</ele>
        <time>2012-07-01T07:25:57Z</time>
      </trkpt>
      <trkpt lat="45.52336" lon="6.66391">
        <ele>1730.4000244141</ele>
        <time>2012-07-01T07:25:59Z</time>
      </trkpt>
      <trkpt lat="45.52331" lon="6.66392">
        <ele>1731.4000244141</ele>
        <time>2012-07-01T07:26:05Z</time>
      </trkpt>
      <trkpt lat="45.5233" lon="6.66393">
        <ele>1731.4000244141</ele>
        <time>2012-07-01T07:26:06Z</time>
      </trkpt>
      <trkpt lat="45.52327" lon="6.66394">
        <ele>1732.4000244141</ele>
        <time>2012-07-01T07:26:14Z</time>
      </trkpt>
      <trkpt lat="45.52318" lon="6.66396">
        <ele>1734.5999755859</ele>
        <time>2012-07-01T07:26:24Z</time>
      </trkpt>
      <trkpt lat="45.52316" lon="6.66396">
        <ele>1734.5999755859</ele>
        <time>2012-07-01T07:26:26Z</time>
      </trkpt>
      <trkpt lat="45.52312" lon="6.66397">
        <ele>1735.8000488281</ele>
        <time>2012-07-01T07:26:29Z</time>
      </trkpt>
      <trkpt lat="45.52311" lon="6.66397">
        <ele>1735.8000488281</ele>
        <time>2012-07-01T07:26:30Z</time>
      </trkpt>
      <trkpt lat="45.52308" lon="6.66397">
        <ele>1736.8000488281</ele>
        <time>2012-07-01T07:26:33Z</time>
      </trkpt>
      <trkpt lat="45.52303" lon="6.66399">
        <ele>1736.8000488281</ele>
        <time>2012-07-01T07:26:37Z</time>
      </trkpt>
      <trkpt lat="45.52298" lon="6.66399">
        <ele>1738</ele>
        <time>2012-07-01T07:26:41Z</time>
      </trkpt>
      <trkpt lat="45.52292" lon="6.66399">
        <ele>1739</ele>
        <time>2012-07-01T07:26:45Z</time>
      </trkpt>
      <trkpt lat="45.52275" lon="6.66398">
        <ele>1741.1999511719</ele>
        <time>2012-07-01T07:26:58Z</time>
      </trkpt>
      <trkpt lat="45.52274" lon="6.66397">
        <ele>1741.1999511719</ele>
        <time>2012-07-01T07:26:59Z</time>
      </trkpt>
      <trkpt lat="45.52269" lon="6.66395">
        <ele>1742.4000244141</ele>
        <time>2012-07-01T07:27:04Z</time>
      </trkpt>
      <trkpt lat="45.52267" lon="6.66394">
        <ele>1742.4000244141</ele>
        <time>2012-07-01T07:27:07Z</time>
      </trkpt>
      <trkpt lat="45.52264" lon="6.66393">
        <ele>1743.4000244141</ele>
        <time>2012-07-01T07:27:09Z</time>
      </trkpt>
      <trkpt lat="45.52264" lon="6.66392">
        <ele>1743.4000244141</ele>
        <time>2012-07-01T07:27:10Z</time>
      </trkpt>
      <trkpt lat="45.52261" lon="6.66391">
        <ele>1744.4000244141</ele>
        <time>2012-07-01T07:27:13Z</time>
      </trkpt>
      <trkpt lat="45.5226" lon="6.66391">
        <ele>1744.4000244141</ele>
        <time>2012-07-01T07:27:14Z</time>
      </trkpt>
      <trkpt lat="45.52257" lon="6.6639">
        <ele>1745.5999755859</ele>
        <time>2012-07-01T07:27:17Z</time>
      </trkpt>
      <trkpt lat="45.5225" lon="6.66391">
        <ele>1748</ele>
        <time>2012-07-01T07:27:26Z</time>
      </trkpt>
      <trkpt lat="45.52249" lon="6.66391">
        <ele>1748</ele>
        <time>2012-07-01T07:27:27Z</time>
      </trkpt>
      <trkpt lat="45.52245" lon="6.6639">
        <ele>1749</ele>
        <time>2012-07-01T07:27:31Z</time>
      </trkpt>
      <trkpt lat="45.52243" lon="6.66389">
        <ele>1749</ele>
        <time>2012-07-01T07:27:34Z</time>
      </trkpt>
      <trkpt lat="45.52242" lon="6.66388">
        <ele>1750.1999511719</ele>
        <time>2012-07-01T07:27:36Z</time>
      </trkpt>
      <trkpt lat="45.52241" lon="6.66383">
        <ele>1751.1999511719</ele>
        <time>2012-07-01T07:27:41Z</time>
      </trkpt>
      <trkpt lat="45.52237" lon="6.6638">
        <ele>1752.1999511719</ele>
        <time>2012-07-01T07:27:46Z</time>
      </trkpt>
      <trkpt lat="45.52236" lon="6.66378">
        <ele>1753.4000244141</ele>
        <time>2012-07-01T07:27:48Z</time>
      </trkpt>
      <trkpt lat="45.52228" lon="6.66374">
        <ele>1755.4000244141</ele>
        <time>2012-07-01T07:27:59Z</time>
      </trkpt>
      <trkpt lat="45.52229" lon="6.66374">
        <ele>1756.4000244141</ele>
        <time>2012-07-01T07:28:01Z</time>
      </trkpt>
      <trkpt lat="45.52225" lon="6.66373">
        <ele>1757.4000244141</ele>
        <time>2012-07-01T07:28:05Z</time>
      </trkpt>
      <trkpt lat="45.52222" lon="6.66372">
        <ele>1757.4000244141</ele>
        <time>2012-07-01T07:28:08Z</time>
      </trkpt>
      <trkpt lat="45.52219" lon="6.6637">
        <ele>1759.5999755859</ele>
        <time>2012-07-01T07:28:13Z</time>
      </trkpt>
      <trkpt lat="45.52216" lon="6.66371">
        <ele>1760.5999755859</ele>
        <time>2012-07-01T07:28:18Z</time>
      </trkpt>
      <trkpt lat="45.52214" lon="6.66371">
        <ele>1761.5999755859</ele>
        <time>2012-07-01T07:28:22Z</time>
      </trkpt>
      <trkpt lat="45.52214" lon="6.66371">
        <ele>1761.5999755859</ele>
        <time>2012-07-01T07:28:23Z</time>
      </trkpt>
      <trkpt lat="45.52206" lon="6.6637">
        <ele>1764</ele>
        <time>2012-07-01T07:28:32Z</time>
      </trkpt>
      <trkpt lat="45.52199" lon="6.66367">
        <ele>1766.1999511719</ele>
        <time>2012-07-01T07:28:41Z</time>
      </trkpt>
      <trkpt lat="45.52195" lon="6.66368">
        <ele>1766.1999511719</ele>
        <time>2012-07-01T07:28:44Z</time>
      </trkpt>
      <trkpt lat="45.52186" lon="6.66369">
        <ele>1766.1999511719</ele>
        <time>2012-07-01T07:28:51Z</time>
      </trkpt>
      <trkpt lat="45.52184" lon="6.66369">
        <ele>1766.1999511719</ele>
        <time>2012-07-01T07:28:52Z</time>
      </trkpt>
      <trkpt lat="45.52172" lon="6.66364">
        <ele>1766.1999511719</ele>
        <time>2012-07-01T07:28:59Z</time>
      </trkpt>
      <trkpt lat="45.52163" lon="6.66361">
        <ele>1766.1999511719</ele>
        <time>2012-07-01T07:29:03Z</time>
      </trkpt>
      <trkpt lat="45.52149" lon="6.66359">
        <ele>1766.1999511719</ele>
        <time>2012-07-01T07:29:09Z</time>
      </trkpt>
      <trkpt lat="45.52143" lon="6.66372">
        <ele>1766.1999511719</ele>
        <time>2012-07-01T07:29:14Z</time>
      </trkpt>
      <trkpt lat="45.52158" lon="6.66413">
        <ele>1767.1999511719</ele>
        <time>2012-07-01T07:29:30Z</time>
      </trkpt>
      <trkpt lat="45.52159" lon="6.66416">
        <ele>1768.1999511719</ele>
        <time>2012-07-01T07:29:31Z</time>
      </trkpt>
      <trkpt lat="45.52169" lon="6.66443">
        <ele>1768.1999511719</ele>
        <time>2012-07-01T07:29:40Z</time>
      </trkpt>
      <trkpt lat="45.52169" lon="6.66445">
        <ele>1768.1999511719</ele>
        <time>2012-07-01T07:29:41Z</time>
      </trkpt>
      <trkpt lat="45.52171" lon="6.66455">
        <ele>1769.4000244141</ele>
        <time>2012-07-01T07:29:46Z</time>
      </trkpt>
      <trkpt lat="45.52171" lon="6.66463">
        <ele>1769.4000244141</ele>
        <time>2012-07-01T07:29:50Z</time>
      </trkpt>
      <trkpt lat="45.52167" lon="6.66461">
        <ele>1770.5999755859</ele>
        <time>2012-07-01T07:29:55Z</time>
      </trkpt>
      <trkpt lat="45.52166" lon="6.66458">
        <ele>1770.5999755859</ele>
        <time>2012-07-01T07:29:57Z</time>
      </trkpt>
      <trkpt lat="45.52165" lon="6.66456">
        <ele>1771.8000488281</ele>
        <time>2012-07-01T07:29:59Z</time>
      </trkpt>
      <trkpt lat="45.52161" lon="6.66444">
        <ele>1772.8000488281</ele>
        <time>2012-07-01T07:30:07Z</time>
      </trkpt>
      <trkpt lat="45.52161" lon="6.66443">
        <ele>1772.8000488281</ele>
        <time>2012-07-01T07:30:08Z</time>
      </trkpt>
      <trkpt lat="45.52159" lon="6.66438">
        <ele>1773.8000488281</ele>
        <time>2012-07-01T07:30:11Z</time>
      </trkpt>
      <trkpt lat="45.52154" lon="6.6643">
        <ele>1774.8000488281</ele>
        <time>2012-07-01T07:30:17Z</time>
      </trkpt>
      <trkpt lat="45.52146" lon="6.66419">
        <ele>1776</ele>
        <time>2012-07-01T07:30:25Z</time>
      </trkpt>
      <trkpt lat="45.52146" lon="6.66414">
        <ele>1776</ele>
        <time>2012-07-01T07:30:27Z</time>
      </trkpt>
      <trkpt lat="45.52142" lon="6.66409">
        <ele>1777</ele>
        <time>2012-07-01T07:30:31Z</time>
      </trkpt>
      <trkpt lat="45.52135" lon="6.66402">
        <ele>1778</ele>
        <time>2012-07-01T07:30:38Z</time>
      </trkpt>
      <trkpt lat="45.52121" lon="6.66391">
        <ele>1780</ele>
        <time>2012-07-01T07:30:51Z</time>
      </trkpt>
      <trkpt lat="45.5212" lon="6.66391">
        <ele>1780</ele>
        <time>2012-07-01T07:30:52Z</time>
      </trkpt>
      <trkpt lat="45.52112" lon="6.66389">
        <ele>1781.1999511719</ele>
        <time>2012-07-01T07:30:58Z</time>
      </trkpt>
      <trkpt lat="45.52107" lon="6.66386">
        <ele>1782.4000244141</ele>
        <time>2012-07-01T07:31:02Z</time>
      </trkpt>
      <trkpt lat="45.52101" lon="6.66383">
        <ele>1783.4000244141</ele>
        <time>2012-07-01T07:31:08Z</time>
      </trkpt>
      <trkpt lat="45.521" lon="6.66383">
        <ele>1783.4000244141</ele>
        <time>2012-07-01T07:31:09Z</time>
      </trkpt>
      <trkpt lat="45.52096" lon="6.66382">
        <ele>1783.4000244141</ele>
        <time>2012-07-01T07:31:12Z</time>
      </trkpt>
      <trkpt lat="45.52093" lon="6.66381">
        <ele>1784.5999755859</ele>
        <time>2012-07-01T07:31:15Z</time>
      </trkpt>
      <trkpt lat="45.52085" lon="6.66379">
        <ele>1785.5999755859</ele>
        <time>2012-07-01T07:31:22Z</time>
      </trkpt>
      <trkpt lat="45.52079" lon="6.66376">
        <ele>1785.5999755859</ele>
        <time>2012-07-01T07:31:28Z</time>
      </trkpt>
      <trkpt lat="45.52078" lon="6.66375">
        <ele>1786.8000488281</ele>
        <time>2012-07-01T07:31:29Z</time>
      </trkpt>
      <trkpt lat="45.52072" lon="6.66372">
        <ele>1787.8000488281</ele>
        <time>2012-07-01T07:31:34Z</time>
      </trkpt>
      <trkpt lat="45.52068" lon="6.66369">
        <ele>1788.8000488281</ele>
        <time>2012-07-01T07:31:38Z</time>
      </trkpt>
      <trkpt lat="45.52065" lon="6.66367">
        <ele>1788.8000488281</ele>
        <time>2012-07-01T07:31:41Z</time>
      </trkpt>
      <trkpt lat="45.52061" lon="6.66365">
        <ele>1789.8000488281</ele>
        <time>2012-07-01T07:31:44Z</time>
      </trkpt>
      <trkpt lat="45.52056" lon="6.66362">
        <ele>1791</ele>
        <time>2012-07-01T07:31:49Z</time>
      </trkpt>
      <trkpt lat="45.52052" lon="6.66359">
        <ele>1791</ele>
        <time>2012-07-01T07:31:54Z</time>
      </trkpt>
      <trkpt lat="45.5204" lon="6.66349">
        <ele>1795.4000244141</ele>
        <time>2012-07-01T07:32:08Z</time>
      </trkpt>
      <trkpt lat="45.52039" lon="6.66347">
        <ele>1795.4000244141</ele>
        <time>2012-07-01T07:32:09Z</time>
      </trkpt>
      <trkpt lat="45.52036" lon="6.66345">
        <ele>1796.4000244141</ele>
        <time>2012-07-01T07:32:14Z</time>
      </trkpt>
      <trkpt lat="45.52035" lon="6.66345">
        <ele>1796.4000244141</ele>
        <time>2012-07-01T07:32:16Z</time>
      </trkpt>
      <trkpt lat="45.52032" lon="6.66342">
        <ele>1796.4000244141</ele>
        <time>2012-07-01T07:32:21Z</time>
      </trkpt>
      <trkpt lat="45.52031" lon="6.66342">
        <ele>1797.4000244141</ele>
        <time>2012-07-01T07:32:22Z</time>
      </trkpt>
      <trkpt lat="45.52026" lon="6.66341">
        <ele>1798.5999755859</ele>
        <time>2012-07-01T07:32:27Z</time>
      </trkpt>
      <trkpt lat="45.52024" lon="6.66341">
        <ele>1798.5999755859</ele>
        <time>2012-07-01T07:32:29Z</time>
      </trkpt>
      <trkpt lat="45.52019" lon="6.66338">
        <ele>1799.5999755859</ele>
        <time>2012-07-01T07:32:34Z</time>
      </trkpt>
      <trkpt lat="45.52015" lon="6.66334">
        <ele>1801.5999755859</ele>
        <time>2012-07-01T07:32:41Z</time>
      </trkpt>
      <trkpt lat="45.52013" lon="6.66332">
        <ele>1802.8000488281</ele>
        <time>2012-07-01T07:32:43Z</time>
      </trkpt>
      <trkpt lat="45.52009" lon="6.6633">
        <ele>1803.8000488281</ele>
        <time>2012-07-01T07:32:48Z</time>
      </trkpt>
      <trkpt lat="45.52007" lon="6.66329">
        <ele>1803.8000488281</ele>
        <time>2012-07-01T07:32:49Z</time>
      </trkpt>
      <trkpt lat="45.52006" lon="6.66328">
        <ele>1805</ele>
        <time>2012-07-01T07:32:51Z</time>
      </trkpt>
      <trkpt lat="45.52004" lon="6.66327">
        <ele>1806.1999511719</ele>
        <time>2012-07-01T07:32:54Z</time>
      </trkpt>
      <trkpt lat="45.52001" lon="6.66325">
        <ele>1807.1999511719</ele>
        <time>2012-07-01T07:32:57Z</time>
      </trkpt>
      <trkpt lat="45.52001" lon="6.66325">
        <ele>1807.1999511719</ele>
        <time>2012-07-01T07:32:58Z</time>
      </trkpt>
      <trkpt lat="45.51997" lon="6.66319">
        <ele>1810.4000244141</ele>
        <time>2012-07-01T07:33:07Z</time>
      </trkpt>
      <trkpt lat="45.51996" lon="6.66319">
        <ele>1810.4000244141</ele>
        <time>2012-07-01T07:33:08Z</time>
      </trkpt>
      <trkpt lat="45.51996" lon="6.66317">
        <ele>1811.4000244141</ele>
        <time>2012-07-01T07:33:10Z</time>
      </trkpt>
      <trkpt lat="45.51993" lon="6.66317">
        <ele>1811.4000244141</ele>
        <time>2012-07-01T07:33:12Z</time>
      </trkpt>
      <trkpt lat="45.51991" lon="6.66317">
        <ele>1812.4000244141</ele>
        <time>2012-07-01T07:33:14Z</time>
      </trkpt>
      <trkpt lat="45.51989" lon="6.66316">
        <ele>1812.4000244141</ele>
        <time>2012-07-01T07:33:16Z</time>
      </trkpt>
      <trkpt lat="45.51987" lon="6.66313">
        <ele>1813.5999755859</ele>
        <time>2012-07-01T07:33:20Z</time>
      </trkpt>
      <trkpt lat="45.51985" lon="6.66312">
        <ele>1814.8000488281</ele>
        <time>2012-07-01T07:33:22Z</time>
      </trkpt>
      <trkpt lat="45.5198" lon="6.66312">
        <ele>1815.8000488281</ele>
        <time>2012-07-01T07:33:27Z</time>
      </trkpt>
      <trkpt lat="45.51976" lon="6.66311">
        <ele>1817</ele>
        <time>2012-07-01T07:33:31Z</time>
      </trkpt>
      <trkpt lat="45.51974" lon="6.6631">
        <ele>1817</ele>
        <time>2012-07-01T07:33:33Z</time>
      </trkpt>
      <trkpt lat="45.51972" lon="6.6631">
        <ele>1818</ele>
        <time>2012-07-01T07:33:35Z</time>
      </trkpt>
      <trkpt lat="45.5197" lon="6.6631">
        <ele>1818</ele>
        <time>2012-07-01T07:33:38Z</time>
      </trkpt>
      <trkpt lat="45.51965" lon="6.66311">
        <ele>1819.1999511719</ele>
        <time>2012-07-01T07:33:43Z</time>
      </trkpt>
      <trkpt lat="45.51963" lon="6.66312">
        <ele>1820.4000244141</ele>
        <time>2012-07-01T07:33:47Z</time>
      </trkpt>
      <trkpt lat="45.51956" lon="6.6631">
        <ele>1821.4000244141</ele>
        <time>2012-07-01T07:33:53Z</time>
      </trkpt>
      <trkpt lat="45.51952" lon="6.66309">
        <ele>1822.5999755859</ele>
        <time>2012-07-01T07:33:57Z</time>
      </trkpt>
      <trkpt lat="45.51943" lon="6.66305">
        <ele>1824.5999755859</ele>
        <time>2012-07-01T07:34:06Z</time>
      </trkpt>
      <trkpt lat="45.51939" lon="6.66304">
        <ele>1824.5999755859</ele>
        <time>2012-07-01T07:34:09Z</time>
      </trkpt>
      <trkpt lat="45.51937" lon="6.66303">
        <ele>1825.8000488281</ele>
        <time>2012-07-01T07:34:11Z</time>
      </trkpt>
      <trkpt lat="45.51933" lon="6.66302">
        <ele>1825.8000488281</ele>
        <time>2012-07-01T07:34:15Z</time>
      </trkpt>
      <trkpt lat="45.51929" lon="6.663">
        <ele>1826.8000488281</ele>
        <time>2012-07-01T07:34:19Z</time>
      </trkpt>
      <trkpt lat="45.51928" lon="6.66299">
        <ele>1827.8000488281</ele>
        <time>2012-07-01T07:34:20Z</time>
      </trkpt>
      <trkpt lat="45.51923" lon="6.66294">
        <ele>1828.8000488281</ele>
        <time>2012-07-01T07:34:25Z</time>
      </trkpt>
      <trkpt lat="45.5192" lon="6.66291">
        <ele>1828.8000488281</ele>
        <time>2012-07-01T07:34:28Z</time>
      </trkpt>
      <trkpt lat="45.51919" lon="6.66289">
        <ele>1829.8000488281</ele>
        <time>2012-07-01T07:34:30Z</time>
      </trkpt>
      <trkpt lat="45.51913" lon="6.66281">
        <ele>1831</ele>
        <time>2012-07-01T07:34:38Z</time>
      </trkpt>
      <trkpt lat="45.51911" lon="6.66279">
        <ele>1832</ele>
        <time>2012-07-01T07:34:40Z</time>
      </trkpt>
      <trkpt lat="45.51908" lon="6.66274">
        <ele>1833</ele>
        <time>2012-07-01T07:34:45Z</time>
      </trkpt>
      <trkpt lat="45.51906" lon="6.66271">
        <ele>1833</ele>
        <time>2012-07-01T07:34:49Z</time>
      </trkpt>
      <trkpt lat="45.51905" lon="6.66266">
        <ele>1834.1999511719</ele>
        <time>2012-07-01T07:34:52Z</time>
      </trkpt>
      <trkpt lat="45.51901" lon="6.66262">
        <ele>1834.1999511719</ele>
        <time>2012-07-01T07:34:56Z</time>
      </trkpt>
      <trkpt lat="45.519" lon="6.66256">
        <ele>1835.4000244141</ele>
        <time>2012-07-01T07:34:59Z</time>
      </trkpt>
      <trkpt lat="45.51897" lon="6.66252">
        <ele>1835.4000244141</ele>
        <time>2012-07-01T07:35:03Z</time>
      </trkpt>
      <trkpt lat="45.51889" lon="6.6624">
        <ele>1838.5999755859</ele>
        <time>2012-07-01T07:35:15Z</time>
      </trkpt>
      <trkpt lat="45.51889" lon="6.6624">
        <ele>1838.5999755859</ele>
        <time>2012-07-01T07:35:16Z</time>
      </trkpt>
      <trkpt lat="45.51887" lon="6.66235">
        <ele>1838.5999755859</ele>
        <time>2012-07-01T07:35:19Z</time>
      </trkpt>
      <trkpt lat="45.51886" lon="6.66233">
        <ele>1838.5999755859</ele>
        <time>2012-07-01T07:35:21Z</time>
      </trkpt>
      <trkpt lat="45.51883" lon="6.66227">
        <ele>1839.8000488281</ele>
        <time>2012-07-01T07:35:26Z</time>
      </trkpt>
      <trkpt lat="45.51882" lon="6.66226">
        <ele>1839.8000488281</ele>
        <time>2012-07-01T07:35:27Z</time>
      </trkpt>
      <trkpt lat="45.5188" lon="6.66224">
        <ele>1840.8000488281</ele>
        <time>2012-07-01T07:35:29Z</time>
      </trkpt>
      <trkpt lat="45.51878" lon="6.66222">
        <ele>1840.8000488281</ele>
        <time>2012-07-01T07:35:31Z</time>
      </trkpt>
      <trkpt lat="45.51873" lon="6.66217">
        <ele>1842</ele>
        <time>2012-07-01T07:35:36Z</time>
      </trkpt>
      <trkpt lat="45.51865" lon="6.66207">
        <ele>1843.1999511719</ele>
        <time>2012-07-01T07:35:45Z</time>
      </trkpt>
      <trkpt lat="45.51864" lon="6.66207">
        <ele>1843.1999511719</ele>
        <time>2012-07-01T07:35:46Z</time>
      </trkpt>
      <trkpt lat="45.5186" lon="6.66203">
        <ele>1844.4000244141</ele>
        <time>2012-07-01T07:35:50Z</time>
      </trkpt>
      <trkpt lat="45.51857" lon="6.66199">
        <ele>1844.4000244141</ele>
        <time>2012-07-01T07:35:54Z</time>
      </trkpt>
      <trkpt lat="45.51851" lon="6.66187">
        <ele>1845.4000244141</ele>
        <time>2012-07-01T07:36:03Z</time>
      </trkpt>
      <trkpt lat="45.51848" lon="6.66184">
        <ele>1845.4000244141</ele>
        <time>2012-07-01T07:36:06Z</time>
      </trkpt>
      <trkpt lat="45.51847" lon="6.66181">
        <ele>1846.4000244141</ele>
        <time>2012-07-01T07:36:08Z</time>
      </trkpt>
      <trkpt lat="45.51845" lon="6.66177">
        <ele>1846.4000244141</ele>
        <time>2012-07-01T07:36:11Z</time>
      </trkpt>
      <trkpt lat="45.51835" lon="6.66163">
        <ele>1848.5999755859</ele>
        <time>2012-07-01T07:36:23Z</time>
      </trkpt>
      <trkpt lat="45.51833" lon="6.66161">
        <ele>1848.5999755859</ele>
        <time>2012-07-01T07:36:25Z</time>
      </trkpt>
      <trkpt lat="45.51831" lon="6.66158">
        <ele>1849.5999755859</ele>
        <time>2012-07-01T07:36:28Z</time>
      </trkpt>
      <trkpt lat="45.5183" lon="6.66157">
        <ele>1849.5999755859</ele>
        <time>2012-07-01T07:36:29Z</time>
      </trkpt>
      <trkpt lat="45.51827" lon="6.66154">
        <ele>1849.5999755859</ele>
        <time>2012-07-01T07:36:33Z</time>
      </trkpt>
      <trkpt lat="45.51826" lon="6.66151">
        <ele>1849.5999755859</ele>
        <time>2012-07-01T07:36:34Z</time>
      </trkpt>
      <trkpt lat="45.51824" lon="6.66149">
        <ele>1850.8000488281</ele>
        <time>2012-07-01T07:36:37Z</time>
      </trkpt>
      <trkpt lat="45.51821" lon="6.66145">
        <ele>1850.8000488281</ele>
        <time>2012-07-01T07:36:41Z</time>
      </trkpt>
      <trkpt lat="45.51818" lon="6.66142">
        <ele>1852</ele>
        <time>2012-07-01T07:36:45Z</time>
      </trkpt>
      <trkpt lat="45.51812" lon="6.66139">
        <ele>1853</ele>
        <time>2012-07-01T07:36:52Z</time>
      </trkpt>
      <trkpt lat="45.51811" lon="6.66139">
        <ele>1853</ele>
        <time>2012-07-01T07:36:56Z</time>
      </trkpt>
      <trkpt lat="45.51812" lon="6.66137">
        <ele>1854</ele>
        <time>2012-07-01T07:37:10Z</time>
      </trkpt>
      <trkpt lat="45.51811" lon="6.66135">
        <ele>1854</ele>
        <time>2012-07-01T07:37:13Z</time>
      </trkpt>
      <trkpt lat="45.51802" lon="6.6613">
        <ele>1856.1999511719</ele>
        <time>2012-07-01T07:37:21Z</time>
      </trkpt>
      <trkpt lat="45.51801" lon="6.66128">
        <ele>1856.1999511719</ele>
        <time>2012-07-01T07:37:23Z</time>
      </trkpt>
      <trkpt lat="45.51796" lon="6.66124">
        <ele>1857.1999511719</ele>
        <time>2012-07-01T07:37:28Z</time>
      </trkpt>
      <trkpt lat="45.5179" lon="6.66119">
        <ele>1857.1999511719</ele>
        <time>2012-07-01T07:37:34Z</time>
      </trkpt>
      <trkpt lat="45.51774" lon="6.66102">
        <ele>1861.5999755859</ele>
        <time>2012-07-01T07:37:52Z</time>
      </trkpt>
      <trkpt lat="45.51769" lon="6.66097">
        <ele>1861.5999755859</ele>
        <time>2012-07-01T07:37:57Z</time>
      </trkpt>
      <trkpt lat="45.51766" lon="6.66094">
        <ele>1862.8000488281</ele>
        <time>2012-07-01T07:38:01Z</time>
      </trkpt>
      <trkpt lat="45.51766" lon="6.66094">
        <ele>1862.8000488281</ele>
        <time>2012-07-01T07:38:02Z</time>
      </trkpt>
      <trkpt lat="45.51761" lon="6.66089">
        <ele>1864</ele>
        <time>2012-07-01T07:38:15Z</time>
      </trkpt>
      <trkpt lat="45.51759" lon="6.66087">
        <ele>1864</ele>
        <time>2012-07-01T07:38:17Z</time>
      </trkpt>
      <trkpt lat="45.51751" lon="6.66077">
        <ele>1866.1999511719</ele>
        <time>2012-07-01T07:38:27Z</time>
      </trkpt>
      <trkpt lat="45.5175" lon="6.66075">
        <ele>1866.1999511719</ele>
        <time>2012-07-01T07:38:29Z</time>
      </trkpt>
      <trkpt lat="45.51747" lon="6.6607">
        <ele>1867.1999511719</ele>
        <time>2012-07-01T07:38:33Z</time>
      </trkpt>
      <trkpt lat="45.51744" lon="6.66061">
        <ele>1868.1999511719</ele>
        <time>2012-07-01T07:38:40Z</time>
      </trkpt>
      <trkpt lat="45.51742" lon="6.66057">
        <ele>1869.4000244141</ele>
        <time>2012-07-01T07:38:43Z</time>
      </trkpt>
      <trkpt lat="45.5174" lon="6.66051">
        <ele>1870.5999755859</ele>
        <time>2012-07-01T07:38:48Z</time>
      </trkpt>
      <trkpt lat="45.5174" lon="6.66049">
        <ele>1870.5999755859</ele>
        <time>2012-07-01T07:38:49Z</time>
      </trkpt>
      <trkpt lat="45.51737" lon="6.66042">
        <ele>1871.8000488281</ele>
        <time>2012-07-01T07:38:54Z</time>
      </trkpt>
      <trkpt lat="45.51736" lon="6.66036">
        <ele>1871.8000488281</ele>
        <time>2012-07-01T07:38:58Z</time>
      </trkpt>
      <trkpt lat="45.51732" lon="6.66023">
        <ele>1873</ele>
        <time>2012-07-01T07:39:05Z</time>
      </trkpt>
      <trkpt lat="45.51727" lon="6.66014">
        <ele>1873</ele>
        <time>2012-07-01T07:39:11Z</time>
      </trkpt>
      <trkpt lat="45.51708" lon="6.65998">
        <ele>1874</ele>
        <time>2012-07-01T07:39:28Z</time>
      </trkpt>
      <trkpt lat="45.51704" lon="6.65995">
        <ele>1875.1999511719</ele>
        <time>2012-07-01T07:39:32Z</time>
      </trkpt>
      <trkpt lat="45.517" lon="6.65992">
        <ele>1875.1999511719</ele>
        <time>2012-07-01T07:39:36Z</time>
      </trkpt>
      <trkpt lat="45.517" lon="6.65991">
        <ele>1875.1999511719</ele>
        <time>2012-07-01T07:39:37Z</time>
      </trkpt>
      <trkpt lat="45.51698" lon="6.65988">
        <ele>1876.1999511719</ele>
        <time>2012-07-01T07:39:40Z</time>
      </trkpt>
      <trkpt lat="45.51696" lon="6.65987">
        <ele>1876.1999511719</ele>
        <time>2012-07-01T07:39:42Z</time>
      </trkpt>
      <trkpt lat="45.51692" lon="6.65981">
        <ele>1878.4000244141</ele>
        <time>2012-07-01T07:39:48Z</time>
      </trkpt>
      <trkpt lat="45.51688" lon="6.65977">
        <ele>1879.4000244141</ele>
        <time>2012-07-01T07:39:52Z</time>
      </trkpt>
      <trkpt lat="45.51685" lon="6.65973">
        <ele>1880.5999755859</ele>
        <time>2012-07-01T07:39:56Z</time>
      </trkpt>
      <trkpt lat="45.51676" lon="6.6597">
        <ele>1881.5999755859</ele>
        <time>2012-07-01T07:40:06Z</time>
      </trkpt>
      <trkpt lat="45.51675" lon="6.65969">
        <ele>1882.5999755859</ele>
        <time>2012-07-01T07:40:07Z</time>
      </trkpt>
      <trkpt lat="45.51673" lon="6.65967">
        <ele>1883.8000488281</ele>
        <time>2012-07-01T07:40:10Z</time>
      </trkpt>
      <trkpt lat="45.51669" lon="6.65966">
        <ele>1885</ele>
        <time>2012-07-01T07:40:15Z</time>
      </trkpt>
      <trkpt lat="45.51665" lon="6.65965">
        <ele>1886.1999511719</ele>
        <time>2012-07-01T07:40:21Z</time>
      </trkpt>
      <trkpt lat="45.51665" lon="6.65964">
        <ele>1886.1999511719</ele>
        <time>2012-07-01T07:40:23Z</time>
      </trkpt>
      <trkpt lat="45.51662" lon="6.65962">
        <ele>1887.1999511719</ele>
        <time>2012-07-01T07:40:27Z</time>
      </trkpt>
      <trkpt lat="45.5166" lon="6.65963">
        <ele>1888.4000244141</ele>
        <time>2012-07-01T07:40:30Z</time>
      </trkpt>
      <trkpt lat="45.51649" lon="6.65964">
        <ele>1891.5999755859</ele>
        <time>2012-07-01T07:40:44Z</time>
      </trkpt>
      <trkpt lat="45.51648" lon="6.65964">
        <ele>1891.5999755859</ele>
        <time>2012-07-01T07:40:46Z</time>
      </trkpt>
      <trkpt lat="45.51645" lon="6.65963">
        <ele>1892.5999755859</ele>
        <time>2012-07-01T07:40:49Z</time>
      </trkpt>
      <trkpt lat="45.51645" lon="6.65962">
        <ele>1892.5999755859</ele>
        <time>2012-07-01T07:40:50Z</time>
      </trkpt>
      <trkpt lat="45.51642" lon="6.65962">
        <ele>1893.5999755859</ele>
        <time>2012-07-01T07:40:54Z</time>
      </trkpt>
      <trkpt lat="45.51639" lon="6.65962">
        <ele>1894.8000488281</ele>
        <time>2012-07-01T07:40:57Z</time>
      </trkpt>
      <trkpt lat="45.51635" lon="6.65963">
        <ele>1895.8000488281</ele>
        <time>2012-07-01T07:41:03Z</time>
      </trkpt>
      <trkpt lat="45.51634" lon="6.65964">
        <ele>1895.8000488281</ele>
        <time>2012-07-01T07:41:05Z</time>
      </trkpt>
      <trkpt lat="45.5163" lon="6.65965">
        <ele>1897</ele>
        <time>2012-07-01T07:41:08Z</time>
      </trkpt>
      <trkpt lat="45.51626" lon="6.65966">
        <ele>1898</ele>
        <time>2012-07-01T07:41:15Z</time>
      </trkpt>
      <trkpt lat="45.51623" lon="6.65967">
        <ele>1899</ele>
        <time>2012-07-01T07:41:18Z</time>
      </trkpt>
      <trkpt lat="45.51618" lon="6.65968">
        <ele>1900</ele>
        <time>2012-07-01T07:41:24Z</time>
      </trkpt>
      <trkpt lat="45.51618" lon="6.65968">
        <ele>1900</ele>
        <time>2012-07-01T07:41:25Z</time>
      </trkpt>
      <trkpt lat="45.51615" lon="6.65972">
        <ele>1901.1999511719</ele>
        <time>2012-07-01T07:41:33Z</time>
      </trkpt>
      <trkpt lat="45.51615" lon="6.65977">
        <ele>1901.1999511719</ele>
        <time>2012-07-01T07:41:36Z</time>
      </trkpt>
      <trkpt lat="45.51615" lon="6.65983">
        <ele>1902.1999511719</ele>
        <time>2012-07-01T07:41:41Z</time>
      </trkpt>
      <trkpt lat="45.51615" lon="6.65985">
        <ele>1903.1999511719</ele>
        <time>2012-07-01T07:41:42Z</time>
      </trkpt>
      <trkpt lat="45.51614" lon="6.65999">
        <ele>1906.1999511719</ele>
        <time>2012-07-01T07:41:54Z</time>
      </trkpt>
      <trkpt lat="45.51614" lon="6.66002">
        <ele>1906.1999511719</ele>
        <time>2012-07-01T07:41:57Z</time>
      </trkpt>
      <trkpt lat="45.51615" lon="6.66009">
        <ele>1907.1999511719</ele>
        <time>2012-07-01T07:42:02Z</time>
      </trkpt>
      <trkpt lat="45.51615" lon="6.66011">
        <ele>1908.4000244141</ele>
        <time>2012-07-01T07:42:04Z</time>
      </trkpt>
      <trkpt lat="45.51615" lon="6.66017">
        <ele>1909.5999755859</ele>
        <time>2012-07-01T07:42:09Z</time>
      </trkpt>
      <trkpt lat="45.51615" lon="6.66021">
        <ele>1910.5999755859</ele>
        <time>2012-07-01T07:42:12Z</time>
      </trkpt>
      <trkpt lat="45.51615" lon="6.66023">
        <ele>1911.5999755859</ele>
        <time>2012-07-01T07:42:14Z</time>
      </trkpt>
      <trkpt lat="45.51614" lon="6.66028">
        <ele>1911.5999755859</ele>
        <time>2012-07-01T07:42:18Z</time>
      </trkpt>
      <trkpt lat="45.51614" lon="6.66039">
        <ele>1914.4000244141</ele>
        <time>2012-07-01T07:42:27Z</time>
      </trkpt>
      <trkpt lat="45.51614" lon="6.66046">
        <ele>1914.4000244141</ele>
        <time>2012-07-01T07:42:32Z</time>
      </trkpt>
      <trkpt lat="45.51614" lon="6.66047">
        <ele>1915.4000244141</ele>
        <time>2012-07-01T07:42:33Z</time>
      </trkpt>
      <trkpt lat="45.51614" lon="6.66053">
        <ele>1916.4000244141</ele>
        <time>2012-07-01T07:42:38Z</time>
      </trkpt>
      <trkpt lat="45.51614" lon="6.66057">
        <ele>1917.5999755859</ele>
        <time>2012-07-01T07:42:41Z</time>
      </trkpt>
      <trkpt lat="45.51614" lon="6.66062">
        <ele>1918.5999755859</ele>
        <time>2012-07-01T07:42:46Z</time>
      </trkpt>
      <trkpt lat="45.51614" lon="6.66064">
        <ele>1918.5999755859</ele>
        <time>2012-07-01T07:42:49Z</time>
      </trkpt>
      <trkpt lat="45.51614" lon="6.66066">
        <ele>1919.8000488281</ele>
        <time>2012-07-01T07:42:56Z</time>
      </trkpt>
      <trkpt lat="45.51613" lon="6.66067">
        <ele>1919.8000488281</ele>
        <time>2012-07-01T07:43:02Z</time>
      </trkpt>
      <trkpt lat="45.51612" lon="6.6608">
        <ele>1922</ele>
        <time>2012-07-01T07:43:20Z</time>
      </trkpt>
      <trkpt lat="45.51612" lon="6.66083">
        <ele>1922</ele>
        <time>2012-07-01T07:43:22Z</time>
      </trkpt>
      <trkpt lat="45.51612" lon="6.66091">
        <ele>1923</ele>
        <time>2012-07-01T07:43:28Z</time>
      </trkpt>
      <trkpt lat="45.51611" lon="6.66095">
        <ele>1924</ele>
        <time>2012-07-01T07:43:31Z</time>
      </trkpt>
      <trkpt lat="45.5161" lon="6.66104">
        <ele>1925.1999511719</ele>
        <time>2012-07-01T07:43:38Z</time>
      </trkpt>
      <trkpt lat="45.51609" lon="6.66109">
        <ele>1925.1999511719</ele>
        <time>2012-07-01T07:43:43Z</time>
      </trkpt>
      <trkpt lat="45.51608" lon="6.6611">
        <ele>1926.1999511719</ele>
        <time>2012-07-01T07:43:51Z</time>
      </trkpt>
      <trkpt lat="45.51607" lon="6.66114">
        <ele>1926.1999511719</ele>
        <time>2012-07-01T07:43:56Z</time>
      </trkpt>
      <trkpt lat="45.51606" lon="6.6612">
        <ele>1927.1999511719</ele>
        <time>2012-07-01T07:44:01Z</time>
      </trkpt>
      <trkpt lat="45.51607" lon="6.66129">
        <ele>1929.4000244141</ele>
        <time>2012-07-01T07:44:08Z</time>
      </trkpt>
      <trkpt lat="45.51606" lon="6.66133">
        <ele>1929.4000244141</ele>
        <time>2012-07-01T07:44:11Z</time>
      </trkpt>
      <trkpt lat="45.51607" lon="6.66137">
        <ele>1930.5999755859</ele>
        <time>2012-07-01T07:44:14Z</time>
      </trkpt>
      <trkpt lat="45.51606" lon="6.6614">
        <ele>1930.5999755859</ele>
        <time>2012-07-01T07:44:16Z</time>
      </trkpt>
      <trkpt lat="45.51606" lon="6.66146">
        <ele>1931.5999755859</ele>
        <time>2012-07-01T07:44:21Z</time>
      </trkpt>
      <trkpt lat="45.51606" lon="6.66148">
        <ele>1932.5999755859</ele>
        <time>2012-07-01T07:44:23Z</time>
      </trkpt>
      <trkpt lat="45.51606" lon="6.66152">
        <ele>1933.8000488281</ele>
        <time>2012-07-01T07:44:26Z</time>
      </trkpt>
      <trkpt lat="45.51606" lon="6.66152">
        <ele>1933.8000488281</ele>
        <time>2012-07-01T07:44:30Z</time>
      </trkpt>
      <trkpt lat="45.51608" lon="6.66165">
        <ele>1937.4000244141</ele>
        <time>2012-07-01T07:44:44Z</time>
      </trkpt>
      <trkpt lat="45.51609" lon="6.6617">
        <ele>1938.4000244141</ele>
        <time>2012-07-01T07:44:48Z</time>
      </trkpt>
      <trkpt lat="45.51609" lon="6.66174">
        <ele>1939.5999755859</ele>
        <time>2012-07-01T07:44:51Z</time>
      </trkpt>
      <trkpt lat="45.5161" lon="6.66178">
        <ele>1940.5999755859</ele>
        <time>2012-07-01T07:44:55Z</time>
      </trkpt>
      <trkpt lat="45.5161" lon="6.66181">
        <ele>1941.8000488281</ele>
        <time>2012-07-01T07:44:58Z</time>
      </trkpt>
      <trkpt lat="45.51611" lon="6.66183">
        <ele>1941.8000488281</ele>
        <time>2012-07-01T07:45:00Z</time>
      </trkpt>
      <trkpt lat="45.51612" lon="6.66186">
        <ele>1943.8000488281</ele>
        <time>2012-07-01T07:45:04Z</time>
      </trkpt>
      <trkpt lat="45.51613" lon="6.66187">
        <ele>1943.8000488281</ele>
        <time>2012-07-01T07:45:06Z</time>
      </trkpt>
      <trkpt lat="45.51614" lon="6.66192">
        <ele>1945.8000488281</ele>
        <time>2012-07-01T07:45:12Z</time>
      </trkpt>
      <trkpt lat="45.51615" lon="6.66199">
        <ele>1948</ele>
        <time>2012-07-01T07:45:21Z</time>
      </trkpt>
      <trkpt lat="45.51615" lon="6.66201">
        <ele>1948</ele>
        <time>2012-07-01T07:45:23Z</time>
      </trkpt>
      <trkpt lat="45.51616" lon="6.66206">
        <ele>1949</ele>
        <time>2012-07-01T07:45:29Z</time>
      </trkpt>
      <trkpt lat="45.51616" lon="6.66208">
        <ele>1950</ele>
        <time>2012-07-01T07:45:31Z</time>
      </trkpt>
      <trkpt lat="45.51617" lon="6.66211">
        <ele>1951.1999511719</ele>
        <time>2012-07-01T07:45:36Z</time>
      </trkpt>
      <trkpt lat="45.51617" lon="6.66214">
        <ele>1952.1999511719</ele>
        <time>2012-07-01T07:45:38Z</time>
      </trkpt>
      <trkpt lat="45.51618" lon="6.66218">
        <ele>1953.1999511719</ele>
        <time>2012-07-01T07:45:43Z</time>
      </trkpt>
      <trkpt lat="45.51618" lon="6.66221">
        <ele>1953.1999511719</ele>
        <time>2012-07-01T07:45:46Z</time>
      </trkpt>
      <trkpt lat="45.51619" lon="6.66231">
        <ele>1956.8000488281</ele>
        <time>2012-07-01T07:45:57Z</time>
      </trkpt>
      <trkpt lat="45.51619" lon="6.66232">
        <ele>1957.8000488281</ele>
        <time>2012-07-01T07:46:02Z</time>
      </trkpt>
      <trkpt lat="45.51618" lon="6.66234">
        <ele>1959</ele>
        <time>2012-07-01T07:46:06Z</time>
      </trkpt>
      <trkpt lat="45.51618" lon="6.66238">
        <ele>1960</ele>
        <time>2012-07-01T07:46:10Z</time>
      </trkpt>
      <trkpt lat="45.51618" lon="6.66243">
        <ele>1961</ele>
        <time>2012-07-01T07:46:15Z</time>
      </trkpt>
      <trkpt lat="45.51618" lon="6.66247">
        <ele>1961</ele>
        <time>2012-07-01T07:46:18Z</time>
      </trkpt>
      <trkpt lat="45.5162" lon="6.66256">
        <ele>1962</ele>
        <time>2012-07-01T07:46:24Z</time>
      </trkpt>
      <trkpt lat="45.51622" lon="6.66261">
        <ele>1963.1999511719</ele>
        <time>2012-07-01T07:46:28Z</time>
      </trkpt>
      <trkpt lat="45.51622" lon="6.66264">
        <ele>1963.1999511719</ele>
        <time>2012-07-01T07:46:30Z</time>
      </trkpt>
      <trkpt lat="45.51625" lon="6.66273">
        <ele>1965.4000244141</ele>
        <time>2012-07-01T07:46:37Z</time>
      </trkpt>
      <trkpt lat="45.51626" lon="6.66275">
        <ele>1965.4000244141</ele>
        <time>2012-07-01T07:46:38Z</time>
      </trkpt>
      <trkpt lat="45.51628" lon="6.66279">
        <ele>1965.4000244141</ele>
        <time>2012-07-01T07:46:42Z</time>
      </trkpt>
      <trkpt lat="45.51629" lon="6.66283">
        <ele>1966.4000244141</ele>
        <time>2012-07-01T07:46:44Z</time>
      </trkpt>
      <trkpt lat="45.51631" lon="6.66288">
        <ele>1967.4000244141</ele>
        <time>2012-07-01T07:46:49Z</time>
      </trkpt>
      <trkpt lat="45.51634" lon="6.66294">
        <ele>1968.4000244141</ele>
        <time>2012-07-01T07:46:54Z</time>
      </trkpt>
      <trkpt lat="45.51636" lon="6.66301">
        <ele>1969.5999755859</ele>
        <time>2012-07-01T07:46:59Z</time>
      </trkpt>
      <trkpt lat="45.51636" lon="6.66303">
        <ele>1969.5999755859</ele>
        <time>2012-07-01T07:47:00Z</time>
      </trkpt>
      <trkpt lat="45.51643" lon="6.66322">
        <ele>1971.5999755859</ele>
        <time>2012-07-01T07:47:13Z</time>
      </trkpt>
      <trkpt lat="45.51644" lon="6.66325">
        <ele>1972.5999755859</ele>
        <time>2012-07-01T07:47:15Z</time>
      </trkpt>
      <trkpt lat="45.51646" lon="6.66335">
        <ele>1972.5999755859</ele>
        <time>2012-07-01T07:47:22Z</time>
      </trkpt>
      <trkpt lat="45.51646" lon="6.66338">
        <ele>1973.5999755859</ele>
        <time>2012-07-01T07:47:24Z</time>
      </trkpt>
      <trkpt lat="45.51647" lon="6.66347">
        <ele>1974.5999755859</ele>
        <time>2012-07-01T07:47:30Z</time>
      </trkpt>
      <trkpt lat="45.51648" lon="6.66352">
        <ele>1974.5999755859</ele>
        <time>2012-07-01T07:47:33Z</time>
      </trkpt>
      <trkpt lat="45.51648" lon="6.66362">
        <ele>1975.8000488281</ele>
        <time>2012-07-01T07:47:39Z</time>
      </trkpt>
      <trkpt lat="45.51649" lon="6.6637">
        <ele>1975.8000488281</ele>
        <time>2012-07-01T07:47:43Z</time>
      </trkpt>
      <trkpt lat="45.5165" lon="6.66376">
        <ele>1976.8000488281</ele>
        <time>2012-07-01T07:47:47Z</time>
      </trkpt>
      <trkpt lat="45.51651" lon="6.66384">
        <ele>1977.8000488281</ele>
        <time>2012-07-01T07:47:52Z</time>
      </trkpt>
      <trkpt lat="45.51652" lon="6.66391">
        <ele>1977.8000488281</ele>
        <time>2012-07-01T07:47:56Z</time>
      </trkpt>
      <trkpt lat="45.51653" lon="6.66394">
        <ele>1978.8000488281</ele>
        <time>2012-07-01T07:47:58Z</time>
      </trkpt>
      <trkpt lat="45.51653" lon="6.66394">
        <ele>1978.8000488281</ele>
        <time>2012-07-01T07:48:02Z</time>
      </trkpt>
      <trkpt lat="45.51654" lon="6.66402">
        <ele>1978.8000488281</ele>
        <time>2012-07-01T07:48:12Z</time>
      </trkpt>
      <trkpt lat="45.51654" lon="6.66402">
        <ele>1978.8000488281</ele>
        <time>2012-07-01T07:48:13Z</time>
      </trkpt>
      <trkpt lat="45.51655" lon="6.66404">
        <ele>1980</ele>
        <time>2012-07-01T07:48:25Z</time>
      </trkpt>
      <trkpt lat="45.51655" lon="6.66408">
        <ele>1980</ele>
        <time>2012-07-01T07:48:28Z</time>
      </trkpt>
      <trkpt lat="45.51655" lon="6.6644">
        <ele>1983.1999511719</ele>
        <time>2012-07-01T07:48:49Z</time>
      </trkpt>
      <trkpt lat="45.51654" lon="6.66448">
        <ele>1983.1999511719</ele>
        <time>2012-07-01T07:48:53Z</time>
      </trkpt>
      <trkpt lat="45.51652" lon="6.66454">
        <ele>1984.1999511719</ele>
        <time>2012-07-01T07:48:57Z</time>
      </trkpt>
      <trkpt lat="45.51651" lon="6.66455">
        <ele>1984.1999511719</ele>
        <time>2012-07-01T07:48:58Z</time>
      </trkpt>
      <trkpt lat="45.51651" lon="6.66462">
        <ele>1985.1999511719</ele>
        <time>2012-07-01T07:49:07Z</time>
      </trkpt>
      <trkpt lat="45.5165" lon="6.66467">
        <ele>1985.1999511719</ele>
        <time>2012-07-01T07:49:10Z</time>
      </trkpt>
      <trkpt lat="45.51649" lon="6.66474">
        <ele>1986.4000244141</ele>
        <time>2012-07-01T07:49:15Z</time>
      </trkpt>
      <trkpt lat="45.51649" lon="6.66476">
        <ele>1986.4000244141</ele>
        <time>2012-07-01T07:49:16Z</time>
      </trkpt>
      <trkpt lat="45.51647" lon="6.66482">
        <ele>1987.5999755859</ele>
        <time>2012-07-01T07:49:20Z</time>
      </trkpt>
      <trkpt lat="45.51646" lon="6.66491">
        <ele>1989.8000488281</ele>
        <time>2012-07-01T07:49:27Z</time>
      </trkpt>
      <trkpt lat="45.51646" lon="6.66492">
        <ele>1990.8000488281</ele>
        <time>2012-07-01T07:49:28Z</time>
      </trkpt>
      <trkpt lat="45.51646" lon="6.66495">
        <ele>1990.8000488281</ele>
        <time>2012-07-01T07:49:31Z</time>
      </trkpt>
      <trkpt lat="45.51646" lon="6.66496">
        <ele>1992</ele>
        <time>2012-07-01T07:49:32Z</time>
      </trkpt>
      <trkpt lat="45.51646" lon="6.66503">
        <ele>1994.1999511719</ele>
        <time>2012-07-01T07:49:37Z</time>
      </trkpt>
      <trkpt lat="45.51646" lon="6.6651">
        <ele>1994.1999511719</ele>
        <time>2012-07-01T07:49:42Z</time>
      </trkpt>
      <trkpt lat="45.51647" lon="6.66516">
        <ele>1994.1999511719</ele>
        <time>2012-07-01T07:49:47Z</time>
      </trkpt>
      <trkpt lat="45.51646" lon="6.6652">
        <ele>1995.4000244141</ele>
        <time>2012-07-01T07:49:49Z</time>
      </trkpt>
      <trkpt lat="45.51646" lon="6.66535">
        <ele>1997.4000244141</ele>
        <time>2012-07-01T07:50:00Z</time>
      </trkpt>
      <trkpt lat="45.51645" lon="6.6654">
        <ele>1997.4000244141</ele>
        <time>2012-07-01T07:50:03Z</time>
      </trkpt>
      <trkpt lat="45.51645" lon="6.66548">
        <ele>1998.4000244141</ele>
        <time>2012-07-01T07:50:08Z</time>
      </trkpt>
      <trkpt lat="45.51644" lon="6.66549">
        <ele>1999.4000244141</ele>
        <time>2012-07-01T07:50:09Z</time>
      </trkpt>
      <trkpt lat="45.51643" lon="6.66558">
        <ele>2000.4000244141</ele>
        <time>2012-07-01T07:50:15Z</time>
      </trkpt>
      <trkpt lat="45.51643" lon="6.66562">
        <ele>2000.4000244141</ele>
        <time>2012-07-01T07:50:18Z</time>
      </trkpt>
      <trkpt lat="45.51642" lon="6.66567">
        <ele>2001.5999755859</ele>
        <time>2012-07-01T07:50:21Z</time>
      </trkpt>
      <trkpt lat="45.51643" lon="6.6657">
        <ele>2001.5999755859</ele>
        <time>2012-07-01T07:50:23Z</time>
      </trkpt>
      <trkpt lat="45.51642" lon="6.66575">
        <ele>2002.5999755859</ele>
        <time>2012-07-01T07:50:27Z</time>
      </trkpt>
      <trkpt lat="45.5164" lon="6.6659">
        <ele>2004</ele>
        <time>2012-07-01T07:50:38Z</time>
      </trkpt>
      <trkpt lat="45.5164" lon="6.66593">
        <ele>2005.1999511719</ele>
        <time>2012-07-01T07:50:39Z</time>
      </trkpt>
      <trkpt lat="45.51638" lon="6.66599">
        <ele>2006.1999511719</ele>
        <time>2012-07-01T07:50:44Z</time>
      </trkpt>
      <trkpt lat="45.51637" lon="6.66603">
        <ele>2006.1999511719</ele>
        <time>2012-07-01T07:50:47Z</time>
      </trkpt>
      <trkpt lat="45.51637" lon="6.66611">
        <ele>2007.1999511719</ele>
        <time>2012-07-01T07:50:53Z</time>
      </trkpt>
      <trkpt lat="45.51637" lon="6.66616">
        <ele>2007.1999511719</ele>
        <time>2012-07-01T07:50:56Z</time>
      </trkpt>
      <trkpt lat="45.51636" lon="6.66619">
        <ele>2008.4000244141</ele>
        <time>2012-07-01T07:50:58Z</time>
      </trkpt>
      <trkpt lat="45.51636" lon="6.66622">
        <ele>2009.5999755859</ele>
        <time>2012-07-01T07:51:02Z</time>
      </trkpt>
      <trkpt lat="45.51632" lon="6.6665">
        <ele>2011.5999755859</ele>
        <time>2012-07-01T07:51:19Z</time>
      </trkpt>
      <trkpt lat="45.51632" lon="6.66656">
        <ele>2011.5999755859</ele>
        <time>2012-07-01T07:51:23Z</time>
      </trkpt>
      <trkpt lat="45.51631" lon="6.66668">
        <ele>2012.8000488281</ele>
        <time>2012-07-01T07:51:30Z</time>
      </trkpt>
      <trkpt lat="45.51629" lon="6.66674">
        <ele>2013.8000488281</ele>
        <time>2012-07-01T07:51:34Z</time>
      </trkpt>
      <trkpt lat="45.51627" lon="6.66686">
        <ele>2013.8000488281</ele>
        <time>2012-07-01T07:51:42Z</time>
      </trkpt>
      <trkpt lat="45.51627" lon="6.66687">
        <ele>2014.8000488281</ele>
        <time>2012-07-01T07:51:43Z</time>
      </trkpt>
      <trkpt lat="45.51625" lon="6.66693">
        <ele>2015.8000488281</ele>
        <time>2012-07-01T07:51:48Z</time>
      </trkpt>
      <trkpt lat="45.51625" lon="6.66697">
        <ele>2015.8000488281</ele>
        <time>2012-07-01T07:51:51Z</time>
      </trkpt>
      <trkpt lat="45.51625" lon="6.66703">
        <ele>2015.8000488281</ele>
        <time>2012-07-01T07:51:57Z</time>
      </trkpt>
      <trkpt lat="45.51622" lon="6.6671">
        <ele>2018</ele>
        <time>2012-07-01T07:52:03Z</time>
      </trkpt>
      <trkpt lat="45.51621" lon="6.66713">
        <ele>2019.1999511719</ele>
        <time>2012-07-01T07:52:06Z</time>
      </trkpt>
      <trkpt lat="45.51617" lon="6.6672">
        <ele>2021.1999511719</ele>
        <time>2012-07-01T07:52:13Z</time>
      </trkpt>
      <trkpt lat="45.51617" lon="6.66721">
        <ele>2021.1999511719</ele>
        <time>2012-07-01T07:52:15Z</time>
      </trkpt>
      <trkpt lat="45.51616" lon="6.66723">
        <ele>2022.4000244141</ele>
        <time>2012-07-01T07:52:18Z</time>
      </trkpt>
      <trkpt lat="45.51615" lon="6.66726">
        <ele>2022.4000244141</ele>
        <time>2012-07-01T07:52:21Z</time>
      </trkpt>
      <trkpt lat="45.51613" lon="6.66729">
        <ele>2023.4000244141</ele>
        <time>2012-07-01T07:52:25Z</time>
      </trkpt>
      <trkpt lat="45.51613" lon="6.6673">
        <ele>2024.5999755859</ele>
        <time>2012-07-01T07:52:27Z</time>
      </trkpt>
      <trkpt lat="45.5161" lon="6.66739">
        <ele>2028</ele>
        <time>2012-07-01T07:52:38Z</time>
      </trkpt>
      <trkpt lat="45.51609" lon="6.6674">
        <ele>2029.1999511719</ele>
        <time>2012-07-01T07:52:41Z</time>
      </trkpt>
      <trkpt lat="45.51607" lon="6.66744">
        <ele>2030.4000244141</ele>
        <time>2012-07-01T07:52:46Z</time>
      </trkpt>
      <trkpt lat="45.51606" lon="6.66746">
        <ele>2031.4000244141</ele>
        <time>2012-07-01T07:52:48Z</time>
      </trkpt>
      <trkpt lat="45.51605" lon="6.66751">
        <ele>2033.5999755859</ele>
        <time>2012-07-01T07:52:55Z</time>
      </trkpt>
      <trkpt lat="45.51605" lon="6.66752">
        <ele>2033.5999755859</ele>
        <time>2012-07-01T07:52:57Z</time>
      </trkpt>
      <trkpt lat="45.51604" lon="6.66757">
        <ele>2034.5999755859</ele>
        <time>2012-07-01T07:53:02Z</time>
      </trkpt>
      <trkpt lat="45.51602" lon="6.66757">
        <ele>2035.5999755859</ele>
        <time>2012-07-01T07:53:03Z</time>
      </trkpt>
      <trkpt lat="45.51602" lon="6.6676">
        <ele>2036.5999755859</ele>
        <time>2012-07-01T07:53:06Z</time>
      </trkpt>
      <trkpt lat="45.516" lon="6.66765">
        <ele>2038.8000488281</ele>
        <time>2012-07-01T07:53:15Z</time>
      </trkpt>
      <trkpt lat="45.51599" lon="6.66767">
        <ele>2040</ele>
        <time>2012-07-01T07:53:17Z</time>
      </trkpt>
      <trkpt lat="45.51599" lon="6.66769">
        <ele>2041.4000244141</ele>
        <time>2012-07-01T07:53:21Z</time>
      </trkpt>
      <trkpt lat="45.51598" lon="6.66771">
        <ele>2041.4000244141</ele>
        <time>2012-07-01T07:53:26Z</time>
      </trkpt>
      <trkpt lat="45.51595" lon="6.66777">
        <ele>2044.1999511719</ele>
        <time>2012-07-01T07:53:34Z</time>
      </trkpt>
      <trkpt lat="45.51594" lon="6.6678">
        <ele>2044.1999511719</ele>
        <time>2012-07-01T07:53:38Z</time>
      </trkpt>
      <trkpt lat="45.51592" lon="6.66784">
        <ele>2045.4000244141</ele>
        <time>2012-07-01T07:53:44Z</time>
      </trkpt>
      <trkpt lat="45.51591" lon="6.66787">
        <ele>2046.4000244141</ele>
        <time>2012-07-01T07:53:47Z</time>
      </trkpt>
      <trkpt lat="45.51587" lon="6.66796">
        <ele>2049.8000488281</ele>
        <time>2012-07-01T07:53:58Z</time>
      </trkpt>
      <trkpt lat="45.51586" lon="6.66797">
        <ele>2049.8000488281</ele>
        <time>2012-07-01T07:54:00Z</time>
      </trkpt>
      <trkpt lat="45.51586" lon="6.66798">
        <ele>2049.8000488281</ele>
        <time>2012-07-01T07:54:13Z</time>
      </trkpt>
      <trkpt lat="45.51584" lon="6.66799">
        <ele>2050.8000488281</ele>
        <time>2012-07-01T07:54:17Z</time>
      </trkpt>
      <trkpt lat="45.51583" lon="6.66801">
        <ele>2052</ele>
        <time>2012-07-01T07:54:24Z</time>
      </trkpt>
      <trkpt lat="45.51581" lon="6.66803">
        <ele>2053</ele>
        <time>2012-07-01T07:54:27Z</time>
      </trkpt>
      <trkpt lat="45.51579" lon="6.66806">
        <ele>2054.1999511719</ele>
        <time>2012-07-01T07:54:31Z</time>
      </trkpt>
      <trkpt lat="45.51577" lon="6.66808">
        <ele>2054.1999511719</ele>
        <time>2012-07-01T07:54:35Z</time>
      </trkpt>
      <trkpt lat="45.51575" lon="6.66811">
        <ele>2055.3999023438</ele>
        <time>2012-07-01T07:54:38Z</time>
      </trkpt>
      <trkpt lat="45.51573" lon="6.66813">
        <ele>2056.3999023438</ele>
        <time>2012-07-01T07:54:41Z</time>
      </trkpt>
      <trkpt lat="45.51571" lon="6.66814">
        <ele>2057.3999023438</ele>
        <time>2012-07-01T07:54:43Z</time>
      </trkpt>
      <trkpt lat="45.5157" lon="6.66816">
        <ele>2058.3999023438</ele>
        <time>2012-07-01T07:54:46Z</time>
      </trkpt>
      <trkpt lat="45.51567" lon="6.66819">
        <ele>2058.3999023438</ele>
        <time>2012-07-01T07:54:50Z</time>
      </trkpt>
      <trkpt lat="45.51563" lon="6.66823">
        <ele>2060.8000488281</ele>
        <time>2012-07-01T07:54:57Z</time>
      </trkpt>
      <trkpt lat="45.51562" lon="6.66824">
        <ele>2061.8000488281</ele>
        <time>2012-07-01T07:54:59Z</time>
      </trkpt>
      <trkpt lat="45.5156" lon="6.66827">
        <ele>2061.8000488281</ele>
        <time>2012-07-01T07:55:04Z</time>
      </trkpt>
      <trkpt lat="45.51558" lon="6.66828">
        <ele>2063</ele>
        <time>2012-07-01T07:55:06Z</time>
      </trkpt>
      <trkpt lat="45.51549" lon="6.66834">
        <ele>2066.3999023438</ele>
        <time>2012-07-01T07:55:19Z</time>
      </trkpt>
      <trkpt lat="45.51549" lon="6.66834">
        <ele>2066.3999023438</ele>
        <time>2012-07-01T07:55:20Z</time>
      </trkpt>
      <trkpt lat="45.51543" lon="6.66834">
        <ele>2069</ele>
        <time>2012-07-01T07:55:28Z</time>
      </trkpt>
      <trkpt lat="45.51543" lon="6.66834">
        <ele>2069</ele>
        <time>2012-07-01T07:55:29Z</time>
      </trkpt>
      <trkpt lat="45.51539" lon="6.66831">
        <ele>2070</ele>
        <time>2012-07-01T07:55:34Z</time>
      </trkpt>
      <trkpt lat="45.51532" lon="6.66828">
        <ele>2070</ele>
        <time>2012-07-01T07:55:41Z</time>
      </trkpt>
      <trkpt lat="45.51528" lon="6.66824">
        <ele>2071.1999511719</ele>
        <time>2012-07-01T07:55:46Z</time>
      </trkpt>
      <trkpt lat="45.51525" lon="6.66821">
        <ele>2071.1999511719</ele>
        <time>2012-07-01T07:55:50Z</time>
      </trkpt>
      <trkpt lat="45.51522" lon="6.66815">
        <ele>2072.1999511719</ele>
        <time>2012-07-01T07:55:56Z</time>
      </trkpt>
      <trkpt lat="45.51517" lon="6.66811">
        <ele>2074.8000488281</ele>
        <time>2012-07-01T07:56:02Z</time>
      </trkpt>
      <trkpt lat="45.51516" lon="6.6681">
        <ele>2076</ele>
        <time>2012-07-01T07:56:03Z</time>
      </trkpt>
      <trkpt lat="45.51515" lon="6.66807">
        <ele>2076</ele>
        <time>2012-07-01T07:56:06Z</time>
      </trkpt>
      <trkpt lat="45.51514" lon="6.66804">
        <ele>2076</ele>
        <time>2012-07-01T07:56:08Z</time>
      </trkpt>
      <trkpt lat="45.51511" lon="6.66793">
        <ele>2078.3999023438</ele>
        <time>2012-07-01T07:56:15Z</time>
      </trkpt>
      <trkpt lat="45.51509" lon="6.6679">
        <ele>2079.3999023438</ele>
        <time>2012-07-01T07:56:18Z</time>
      </trkpt>
      <trkpt lat="45.51505" lon="6.66769">
        <ele>2079.3999023438</ele>
        <time>2012-07-01T07:56:32Z</time>
      </trkpt>
      <trkpt lat="45.51502" lon="6.66762">
        <ele>2079.3999023438</ele>
        <time>2012-07-01T07:56:37Z</time>
      </trkpt>
      <trkpt lat="45.51493" lon="6.66747">
        <ele>2080.3999023438</ele>
        <time>2012-07-01T07:56:52Z</time>
      </trkpt>
      <trkpt lat="45.5149" lon="6.66744">
        <ele>2081.6000976562</ele>
        <time>2012-07-01T07:56:56Z</time>
      </trkpt>
      <trkpt lat="45.51487" lon="6.6674">
        <ele>2082.6000976562</ele>
        <time>2012-07-01T07:57:00Z</time>
      </trkpt>
      <trkpt lat="45.51487" lon="6.6674">
        <ele>2082.6000976562</ele>
        <time>2012-07-01T07:57:01Z</time>
      </trkpt>
      <trkpt lat="45.51484" lon="6.66736">
        <ele>2083.8000488281</ele>
        <time>2012-07-01T07:57:05Z</time>
      </trkpt>
      <trkpt lat="45.51484" lon="6.66736">
        <ele>2083.8000488281</ele>
        <time>2012-07-01T07:57:06Z</time>
      </trkpt>
      <trkpt lat="45.51481" lon="6.6673">
        <ele>2084.8000488281</ele>
        <time>2012-07-01T07:57:11Z</time>
      </trkpt>
      <trkpt lat="45.5148" lon="6.66729">
        <ele>2086</ele>
        <time>2012-07-01T07:57:12Z</time>
      </trkpt>
      <trkpt lat="45.51477" lon="6.66724">
        <ele>2087</ele>
        <time>2012-07-01T07:57:17Z</time>
      </trkpt>
      <trkpt lat="45.51473" lon="6.66718">
        <ele>2089</ele>
        <time>2012-07-01T07:57:24Z</time>
      </trkpt>
      <trkpt lat="45.51473" lon="6.66717">
        <ele>2089</ele>
        <time>2012-07-01T07:57:25Z</time>
      </trkpt>
      <trkpt lat="45.5147" lon="6.66712">
        <ele>2090</ele>
        <time>2012-07-01T07:57:29Z</time>
      </trkpt>
      <trkpt lat="45.5147" lon="6.66712">
        <ele>2090</ele>
        <time>2012-07-01T07:57:30Z</time>
      </trkpt>
      <trkpt lat="45.51467" lon="6.66708">
        <ele>2091.1999511719</ele>
        <time>2012-07-01T07:57:34Z</time>
      </trkpt>
      <trkpt lat="45.51465" lon="6.66704">
        <ele>2092.6000976562</ele>
        <time>2012-07-01T07:57:38Z</time>
      </trkpt>
      <trkpt lat="45.51464" lon="6.66703">
        <ele>2093.6000976562</ele>
        <time>2012-07-01T07:57:40Z</time>
      </trkpt>
      <trkpt lat="45.51461" lon="6.66699">
        <ele>2093.6000976562</ele>
        <time>2012-07-01T07:57:44Z</time>
      </trkpt>
      <trkpt lat="45.51455" lon="6.66688">
        <ele>2095.8000488281</ele>
        <time>2012-07-01T07:58:00Z</time>
      </trkpt>
      <trkpt lat="45.51454" lon="6.66687">
        <ele>2096.8000488281</ele>
        <time>2012-07-01T07:58:01Z</time>
      </trkpt>
      <trkpt lat="45.51452" lon="6.66684">
        <ele>2098</ele>
        <time>2012-07-01T07:58:05Z</time>
      </trkpt>
      <trkpt lat="45.51449" lon="6.6668">
        <ele>2099.6000976562</ele>
        <time>2012-07-01T07:58:09Z</time>
      </trkpt>
      <trkpt lat="45.51447" lon="6.66678">
        <ele>2099.6000976562</ele>
        <time>2012-07-01T07:58:11Z</time>
      </trkpt>
      <trkpt lat="45.51446" lon="6.66675">
        <ele>2099.6000976562</ele>
        <time>2012-07-01T07:58:14Z</time>
      </trkpt>
      <trkpt lat="45.51442" lon="6.66673">
        <ele>2101.8000488281</ele>
        <time>2012-07-01T07:58:18Z</time>
      </trkpt>
      <trkpt lat="45.51442" lon="6.66672">
        <ele>2101.8000488281</ele>
        <time>2012-07-01T07:58:19Z</time>
      </trkpt>
      <trkpt lat="45.5144" lon="6.6667">
        <ele>2103</ele>
        <time>2012-07-01T07:58:21Z</time>
      </trkpt>
      <trkpt lat="45.51435" lon="6.66662">
        <ele>2104</ele>
        <time>2012-07-01T07:58:30Z</time>
      </trkpt>
      <trkpt lat="45.51433" lon="6.66659">
        <ele>2105.1999511719</ele>
        <time>2012-07-01T07:58:33Z</time>
      </trkpt>
      <trkpt lat="45.5143" lon="6.66654">
        <ele>2107.3999023438</ele>
        <time>2012-07-01T07:58:39Z</time>
      </trkpt>
      <trkpt lat="45.51429" lon="6.66652">
        <ele>2108.6000976562</ele>
        <time>2012-07-01T07:58:41Z</time>
      </trkpt>
      <trkpt lat="45.51426" lon="6.66648">
        <ele>2108.6000976562</ele>
        <time>2012-07-01T07:58:45Z</time>
      </trkpt>
      <trkpt lat="45.51424" lon="6.66645">
        <ele>2109.8000488281</ele>
        <time>2012-07-01T07:58:48Z</time>
      </trkpt>
      <trkpt lat="45.51421" lon="6.6664">
        <ele>2109.8000488281</ele>
        <time>2012-07-01T07:58:53Z</time>
      </trkpt>
      <trkpt lat="45.5142" lon="6.66639">
        <ele>2110.8000488281</ele>
        <time>2012-07-01T07:58:54Z</time>
      </trkpt>
      <trkpt lat="45.51413" lon="6.66628">
        <ele>2113.3999023438</ele>
        <time>2012-07-01T07:59:06Z</time>
      </trkpt>
      <trkpt lat="45.51412" lon="6.66628">
        <ele>2114.8000488281</ele>
        <time>2012-07-01T07:59:07Z</time>
      </trkpt>
      <trkpt lat="45.51408" lon="6.66625">
        <ele>2115.8000488281</ele>
        <time>2012-07-01T07:59:12Z</time>
      </trkpt>
      <trkpt lat="45.51405" lon="6.66624">
        <ele>2116.8000488281</ele>
        <time>2012-07-01T07:59:15Z</time>
      </trkpt>
      <trkpt lat="45.51402" lon="6.66622">
        <ele>2116.8000488281</ele>
        <time>2012-07-01T07:59:19Z</time>
      </trkpt>
      <trkpt lat="45.51403" lon="6.6662">
        <ele>2118</ele>
        <time>2012-07-01T07:59:20Z</time>
      </trkpt>
      <trkpt lat="45.51396" lon="6.66615">
        <ele>2119.1999511719</ele>
        <time>2012-07-01T07:59:28Z</time>
      </trkpt>
      <trkpt lat="45.51395" lon="6.66615">
        <ele>2120.3999023438</ele>
        <time>2012-07-01T07:59:29Z</time>
      </trkpt>
      <trkpt lat="45.51391" lon="6.66612">
        <ele>2120.3999023438</ele>
        <time>2012-07-01T07:59:33Z</time>
      </trkpt>
      <trkpt lat="45.51384" lon="6.66604">
        <ele>2123.6000976562</ele>
        <time>2012-07-01T07:59:42Z</time>
      </trkpt>
      <trkpt lat="45.51383" lon="6.66601">
        <ele>2123.6000976562</ele>
        <time>2012-07-01T07:59:44Z</time>
      </trkpt>
      <trkpt lat="45.51378" lon="6.66595">
        <ele>2124.8000488281</ele>
        <time>2012-07-01T07:59:50Z</time>
      </trkpt>
      <trkpt lat="45.51378" lon="6.66594">
        <ele>2124.8000488281</ele>
        <time>2012-07-01T07:59:51Z</time>
      </trkpt>
      <trkpt lat="45.51373" lon="6.66588">
        <ele>2125.8000488281</ele>
        <time>2012-07-01T07:59:58Z</time>
      </trkpt>
      <trkpt lat="45.51372" lon="6.66586">
        <ele>2125.8000488281</ele>
        <time>2012-07-01T08:00:00Z</time>
      </trkpt>
      <trkpt lat="45.51368" lon="6.66581">
        <ele>2126.8000488281</ele>
        <time>2012-07-01T08:00:05Z</time>
      </trkpt>
      <trkpt lat="45.51367" lon="6.6658">
        <ele>2126.8000488281</ele>
        <time>2012-07-01T08:00:06Z</time>
      </trkpt>
      <trkpt lat="45.51357" lon="6.66572">
        <ele>2130.1999511719</ele>
        <time>2012-07-01T08:00:18Z</time>
      </trkpt>
      <trkpt lat="45.51356" lon="6.66571">
        <ele>2130.1999511719</ele>
        <time>2012-07-01T08:00:19Z</time>
      </trkpt>
      <trkpt lat="45.51355" lon="6.66569">
        <ele>2131.3999023438</ele>
        <time>2012-07-01T08:00:22Z</time>
      </trkpt>
      <trkpt lat="45.51354" lon="6.66567">
        <ele>2131.3999023438</ele>
        <time>2012-07-01T08:00:23Z</time>
      </trkpt>
      <trkpt lat="45.51349" lon="6.6656">
        <ele>2134.6000976562</ele>
        <time>2012-07-01T08:00:30Z</time>
      </trkpt>
      <trkpt lat="45.51349" lon="6.66559">
        <ele>2134.6000976562</ele>
        <time>2012-07-01T08:00:31Z</time>
      </trkpt>
      <trkpt lat="45.51347" lon="6.66553">
        <ele>2135.6000976562</ele>
        <time>2012-07-01T08:00:36Z</time>
      </trkpt>
      <trkpt lat="45.51343" lon="6.66549">
        <ele>2135.6000976562</ele>
        <time>2012-07-01T08:00:41Z</time>
      </trkpt>
      <trkpt lat="45.51338" lon="6.66543">
        <ele>2137</ele>
        <time>2012-07-01T08:00:47Z</time>
      </trkpt>
      <trkpt lat="45.51331" lon="6.66536">
        <ele>2138</ele>
        <time>2012-07-01T08:00:55Z</time>
      </trkpt>
      <trkpt lat="45.5133" lon="6.66535">
        <ele>2138</ele>
        <time>2012-07-01T08:00:56Z</time>
      </trkpt>
      <trkpt lat="45.51329" lon="6.66532">
        <ele>2140.1999511719</ele>
        <time>2012-07-01T08:00:59Z</time>
      </trkpt>
      <trkpt lat="45.51328" lon="6.6653">
        <ele>2140.1999511719</ele>
        <time>2012-07-01T08:01:01Z</time>
      </trkpt>
      <trkpt lat="45.51324" lon="6.66525">
        <ele>2141.1999511719</ele>
        <time>2012-07-01T08:01:06Z</time>
      </trkpt>
      <trkpt lat="45.51323" lon="6.66524">
        <ele>2141.1999511719</ele>
        <time>2012-07-01T08:01:07Z</time>
      </trkpt>
      <trkpt lat="45.5132" lon="6.6652">
        <ele>2142.3999023438</ele>
        <time>2012-07-01T08:01:11Z</time>
      </trkpt>
      <trkpt lat="45.5132" lon="6.6652">
        <ele>2142.3999023438</ele>
        <time>2012-07-01T08:01:12Z</time>
      </trkpt>
      <trkpt lat="45.51314" lon="6.66514">
        <ele>2144.6000976562</ele>
        <time>2012-07-01T08:01:28Z</time>
      </trkpt>
      <trkpt lat="45.51314" lon="6.66513">
        <ele>2145.6000976562</ele>
        <time>2012-07-01T08:01:29Z</time>
      </trkpt>
      <trkpt lat="45.51311" lon="6.66508">
        <ele>2146.6000976562</ele>
        <time>2012-07-01T08:01:34Z</time>
      </trkpt>
      <trkpt lat="45.5131" lon="6.66507">
        <ele>2148.1999511719</ele>
        <time>2012-07-01T08:01:35Z</time>
      </trkpt>
      <trkpt lat="45.51304" lon="6.66502">
        <ele>2149.3999023438</ele>
        <time>2012-07-01T08:01:44Z</time>
      </trkpt>
      <trkpt lat="45.51303" lon="6.66501">
        <ele>2149.3999023438</ele>
        <time>2012-07-01T08:01:45Z</time>
      </trkpt>
      <trkpt lat="45.51301" lon="6.665">
        <ele>2152</ele>
        <time>2012-07-01T08:01:47Z</time>
      </trkpt>
      <trkpt lat="45.51299" lon="6.66499">
        <ele>2152</ele>
        <time>2012-07-01T08:01:50Z</time>
      </trkpt>
      <trkpt lat="45.51295" lon="6.66496">
        <ele>2153</ele>
        <time>2012-07-01T08:01:54Z</time>
      </trkpt>
      <trkpt lat="45.51291" lon="6.66495">
        <ele>2149.8000488281</ele>
        <time>2012-07-01T08:01:59Z</time>
      </trkpt>
      <trkpt lat="45.51287" lon="6.66493">
        <ele>2151.8000488281</ele>
        <time>2012-07-01T08:02:04Z</time>
      </trkpt>
      <trkpt lat="45.51286" lon="6.66491">
        <ele>2151.8000488281</ele>
        <time>2012-07-01T08:02:06Z</time>
      </trkpt>
      <trkpt lat="45.51283" lon="6.66489">
        <ele>2152.8000488281</ele>
        <time>2012-07-01T08:02:09Z</time>
      </trkpt>
      <trkpt lat="45.5128" lon="6.66487">
        <ele>2154</ele>
        <time>2012-07-01T08:02:12Z</time>
      </trkpt>
      <trkpt lat="45.51278" lon="6.66485">
        <ele>2155</ele>
        <time>2012-07-01T08:02:15Z</time>
      </trkpt>
      <trkpt lat="45.51274" lon="6.66482">
        <ele>2156</ele>
        <time>2012-07-01T08:02:19Z</time>
      </trkpt>
      <trkpt lat="45.51273" lon="6.66481">
        <ele>2156</ele>
        <time>2012-07-01T08:02:20Z</time>
      </trkpt>
      <trkpt lat="45.51263" lon="6.66478">
        <ele>2158.6000976562</ele>
        <time>2012-07-01T08:02:31Z</time>
      </trkpt>
      <trkpt lat="45.51258" lon="6.6648">
        <ele>2158.6000976562</ele>
        <time>2012-07-01T08:02:35Z</time>
      </trkpt>
      <trkpt lat="45.51252" lon="6.66482">
        <ele>2159.8000488281</ele>
        <time>2012-07-01T08:02:41Z</time>
      </trkpt>
      <trkpt lat="45.51246" lon="6.66483">
        <ele>2159.8000488281</ele>
        <time>2012-07-01T08:02:46Z</time>
      </trkpt>
      <trkpt lat="45.51237" lon="6.66486">
        <ele>2159.8000488281</ele>
        <time>2012-07-01T08:02:53Z</time>
      </trkpt>
      <trkpt lat="45.51232" lon="6.66488">
        <ele>2159.8000488281</ele>
        <time>2012-07-01T08:02:59Z</time>
      </trkpt>
      <trkpt lat="45.51232" lon="6.66488">
        <ele>2158.6000976562</ele>
        <time>2012-07-01T08:03:02Z</time>
      </trkpt>
      <trkpt lat="45.51232" lon="6.66489">
        <ele>2158.6000976562</ele>
        <time>2012-07-01T08:03:07Z</time>
      </trkpt>
      <trkpt lat="45.5123" lon="6.6649">
        <ele>2161.8000488281</ele>
        <time>2012-07-01T08:03:13Z</time>
      </trkpt>
      <trkpt lat="45.51228" lon="6.66491">
        <ele>2163</ele>
        <time>2012-07-01T08:03:21Z</time>
      </trkpt>
      <trkpt lat="45.51223" lon="6.66492">
        <ele>2164.1999511719</ele>
        <time>2012-07-01T08:03:26Z</time>
      </trkpt>
      <trkpt lat="45.51217" lon="6.66495">
        <ele>2165.3999023438</ele>
        <time>2012-07-01T08:03:32Z</time>
      </trkpt>
      <trkpt lat="45.51216" lon="6.66495">
        <ele>2165.3999023438</ele>
        <time>2012-07-01T08:03:33Z</time>
      </trkpt>
      <trkpt lat="45.51211" lon="6.66496">
        <ele>2166.3999023438</ele>
        <time>2012-07-01T08:03:38Z</time>
      </trkpt>
      <trkpt lat="45.5121" lon="6.66496">
        <ele>2166.3999023438</ele>
        <time>2012-07-01T08:03:39Z</time>
      </trkpt>
      <trkpt lat="45.51207" lon="6.66497">
        <ele>2167.3999023438</ele>
        <time>2012-07-01T08:03:42Z</time>
      </trkpt>
      <trkpt lat="45.51204" lon="6.66497">
        <ele>2167.3999023438</ele>
        <time>2012-07-01T08:03:45Z</time>
      </trkpt>
      <trkpt lat="45.5119" lon="6.66501">
        <ele>2169.8000488281</ele>
        <time>2012-07-01T08:03:59Z</time>
      </trkpt>
      <trkpt lat="45.51188" lon="6.66502">
        <ele>2169.8000488281</ele>
        <time>2012-07-01T08:04:01Z</time>
      </trkpt>
      <trkpt lat="45.51184" lon="6.66503">
        <ele>2169.8000488281</ele>
        <time>2012-07-01T08:04:05Z</time>
      </trkpt>
      <trkpt lat="45.51183" lon="6.66503">
        <ele>2171.6000976562</ele>
        <time>2012-07-01T08:04:06Z</time>
      </trkpt>
      <trkpt lat="45.51178" lon="6.66505">
        <ele>2171.6000976562</ele>
        <time>2012-07-01T08:04:10Z</time>
      </trkpt>
      <trkpt lat="45.51177" lon="6.66505">
        <ele>2171.6000976562</ele>
        <time>2012-07-01T08:04:11Z</time>
      </trkpt>
      <trkpt lat="45.51172" lon="6.66506">
        <ele>2172.6000976562</ele>
        <time>2012-07-01T08:04:16Z</time>
      </trkpt>
      <trkpt lat="45.51167" lon="6.66505">
        <ele>2174</ele>
        <time>2012-07-01T08:04:21Z</time>
      </trkpt>
      <trkpt lat="45.51164" lon="6.66505">
        <ele>2174.1999511719</ele>
        <time>2012-07-01T08:04:24Z</time>
      </trkpt>
      <trkpt lat="45.51157" lon="6.66503">
        <ele>2176.1999511719</ele>
        <time>2012-07-01T08:04:31Z</time>
      </trkpt>
      <trkpt lat="45.51156" lon="6.66503">
        <ele>2176.1999511719</ele>
        <time>2012-07-01T08:04:32Z</time>
      </trkpt>
      <trkpt lat="45.51152" lon="6.665">
        <ele>2177.3999023438</ele>
        <time>2012-07-01T08:04:36Z</time>
      </trkpt>
      <trkpt lat="45.51149" lon="6.66497">
        <ele>2177.3999023438</ele>
        <time>2012-07-01T08:04:40Z</time>
      </trkpt>
      <trkpt lat="45.51145" lon="6.66493">
        <ele>2179.6000976562</ele>
        <time>2012-07-01T08:04:46Z</time>
      </trkpt>
      <trkpt lat="45.51143" lon="6.66492">
        <ele>2179.6000976562</ele>
        <time>2012-07-01T08:04:48Z</time>
      </trkpt>
      <trkpt lat="45.51139" lon="6.66489">
        <ele>2180.6000976562</ele>
        <time>2012-07-01T08:04:53Z</time>
      </trkpt>
      <trkpt lat="45.51138" lon="6.66488">
        <ele>2182</ele>
        <time>2012-07-01T08:04:54Z</time>
      </trkpt>
      <trkpt lat="45.51119" lon="6.66482">
        <ele>2185.3999023438</ele>
        <time>2012-07-01T08:05:14Z</time>
      </trkpt>
      <trkpt lat="45.51114" lon="6.66481">
        <ele>2185.3999023438</ele>
        <time>2012-07-01T08:05:20Z</time>
      </trkpt>
      <trkpt lat="45.5111" lon="6.66478">
        <ele>2185.3999023438</ele>
        <time>2012-07-01T08:05:25Z</time>
      </trkpt>
      <trkpt lat="45.51107" lon="6.66475">
        <ele>2185.3999023438</ele>
        <time>2012-07-01T08:05:30Z</time>
      </trkpt>
      <trkpt lat="45.51103" lon="6.6647">
        <ele>2187.8000488281</ele>
        <time>2012-07-01T08:05:36Z</time>
      </trkpt>
      <trkpt lat="45.51101" lon="6.66469">
        <ele>2187.8000488281</ele>
        <time>2012-07-01T08:05:38Z</time>
      </trkpt>
      <trkpt lat="45.51092" lon="6.66464">
        <ele>2188.8000488281</ele>
        <time>2012-07-01T08:05:47Z</time>
      </trkpt>
      <trkpt lat="45.51087" lon="6.66464">
        <ele>2189.8000488281</ele>
        <time>2012-07-01T08:05:52Z</time>
      </trkpt>
      <trkpt lat="45.51079" lon="6.66462">
        <ele>2191</ele>
        <time>2012-07-01T08:06:02Z</time>
      </trkpt>
      <trkpt lat="45.51071" lon="6.66464">
        <ele>2193.1999511719</ele>
        <time>2012-07-01T08:06:11Z</time>
      </trkpt>
      <trkpt lat="45.51062" lon="6.66471">
        <ele>2193.1999511719</ele>
        <time>2012-07-01T08:06:16Z</time>
      </trkpt>
      <trkpt lat="45.5105" lon="6.66481">
        <ele>2193.1999511719</ele>
        <time>2012-07-01T08:06:22Z</time>
      </trkpt>
      <trkpt lat="45.51039" lon="6.66495">
        <ele>2193.1999511719</ele>
        <time>2012-07-01T08:06:29Z</time>
      </trkpt>
      <trkpt lat="45.51028" lon="6.66516">
        <ele>2189.6000976562</ele>
        <time>2012-07-01T08:06:38Z</time>
      </trkpt>
      <trkpt lat="45.51025" lon="6.6652">
        <ele>2189.6000976562</ele>
        <time>2012-07-01T08:06:40Z</time>
      </trkpt>
      <trkpt lat="45.51022" lon="6.66538">
        <ele>2188.1999511719</ele>
        <time>2012-07-01T08:06:49Z</time>
      </trkpt>
      <trkpt lat="45.51022" lon="6.6654">
        <ele>2188.1999511719</ele>
        <time>2012-07-01T08:06:50Z</time>
      </trkpt>
      <trkpt lat="45.50979" lon="6.66585">
        <ele>2187.1999511719</ele>
        <time>2012-07-01T08:07:15Z</time>
      </trkpt>
      <trkpt lat="45.50977" lon="6.66586">
        <ele>2187.1999511719</ele>
        <time>2012-07-01T08:07:16Z</time>
      </trkpt>
      <trkpt lat="45.50962" lon="6.66602">
        <ele>2186.1999511719</ele>
        <time>2012-07-01T08:07:24Z</time>
      </trkpt>
      <trkpt lat="45.50958" lon="6.66608">
        <ele>2185</ele>
        <time>2012-07-01T08:07:27Z</time>
      </trkpt>
      <trkpt lat="45.50952" lon="6.66618">
        <ele>2182.6000976562</ele>
        <time>2012-07-01T08:07:31Z</time>
      </trkpt>
      <trkpt lat="45.50945" lon="6.66631">
        <ele>2182.6000976562</ele>
        <time>2012-07-01T08:07:36Z</time>
      </trkpt>
      <trkpt lat="45.50941" lon="6.6664">
        <ele>2180.3999023438</ele>
        <time>2012-07-01T08:07:39Z</time>
      </trkpt>
      <trkpt lat="45.50939" lon="6.66643">
        <ele>2179.1999511719</ele>
        <time>2012-07-01T08:07:40Z</time>
      </trkpt>
      <trkpt lat="45.50922" lon="6.66674">
        <ele>2178</ele>
        <time>2012-07-01T08:07:52Z</time>
      </trkpt>
      <trkpt lat="45.5092" lon="6.66686">
        <ele>2175.8000488281</ele>
        <time>2012-07-01T08:07:58Z</time>
      </trkpt>
      <trkpt lat="45.5092" lon="6.66687">
        <ele>2175.8000488281</ele>
        <time>2012-07-01T08:08:00Z</time>
      </trkpt>
      <trkpt lat="45.50909" lon="6.66698">
        <ele>2173</ele>
        <time>2012-07-01T08:08:07Z</time>
      </trkpt>
      <trkpt lat="45.50904" lon="6.667">
        <ele>2171.8000488281</ele>
        <time>2012-07-01T08:08:09Z</time>
      </trkpt>
      <trkpt lat="45.50889" lon="6.6671">
        <ele>2170.6000976562</ele>
        <time>2012-07-01T08:08:16Z</time>
      </trkpt>
      <trkpt lat="45.50885" lon="6.66712">
        <ele>2169.6000976562</ele>
        <time>2012-07-01T08:08:18Z</time>
      </trkpt>
      <trkpt lat="45.50869" lon="6.66728">
        <ele>2168.3999023438</ele>
        <time>2012-07-01T08:08:26Z</time>
      </trkpt>
      <trkpt lat="45.50867" lon="6.66731">
        <ele>2167</ele>
        <time>2012-07-01T08:08:27Z</time>
      </trkpt>
      <trkpt lat="45.50858" lon="6.66768">
        <ele>2164.8000488281</ele>
        <time>2012-07-01T08:08:41Z</time>
      </trkpt>
      <trkpt lat="45.50856" lon="6.66775">
        <ele>2164.8000488281</ele>
        <time>2012-07-01T08:08:46Z</time>
      </trkpt>
      <trkpt lat="45.50855" lon="6.66783">
        <ele>2164.8000488281</ele>
        <time>2012-07-01T08:08:52Z</time>
      </trkpt>
      <trkpt lat="45.50855" lon="6.66784">
        <ele>2164.8000488281</ele>
        <time>2012-07-01T08:08:57Z</time>
      </trkpt>
      <trkpt lat="45.50855" lon="6.66784">
        <ele>2164.8000488281</ele>
        <time>2012-07-01T08:09:00Z</time>
      </trkpt>
      <trkpt lat="45.50855" lon="6.66784">
        <ele>2163.8000488281</ele>
        <time>2012-07-01T08:09:05Z</time>
      </trkpt>
      <trkpt lat="45.50855" lon="6.66784">
        <ele>2163.8000488281</ele>
        <time>2012-07-01T08:09:10Z</time>
      </trkpt>
      <trkpt lat="45.50855" lon="6.66784">
        <ele>2163.8000488281</ele>
        <time>2012-07-01T08:09:17Z</time>
      </trkpt>
      <trkpt lat="45.50855" lon="6.66785">
        <ele>2163.8000488281</ele>
        <time>2012-07-01T08:09:31Z</time>
      </trkpt>
      <trkpt lat="45.50855" lon="6.66785">
        <ele>2163.8000488281</ele>
        <time>2012-07-01T08:09:37Z</time>
      </trkpt>
      <trkpt lat="45.50855" lon="6.66785">
        <ele>2163.8000488281</ele>
        <time>2012-07-01T08:09:38Z</time>
      </trkpt>
      <trkpt lat="45.50855" lon="6.66786">
        <ele>2163.8000488281</ele>
        <time>2012-07-01T08:09:54Z</time>
      </trkpt>
      <trkpt lat="45.50855" lon="6.66787">
        <ele>2162.3999023438</ele>
        <time>2012-07-01T08:09:58Z</time>
      </trkpt>
      <trkpt lat="45.50855" lon="6.66787">
        <ele>2162.3999023438</ele>
        <time>2012-07-01T08:10:06Z</time>
      </trkpt>
      <trkpt lat="45.50855" lon="6.66787">
        <ele>2162.3999023438</ele>
        <time>2012-07-01T08:10:10Z</time>
      </trkpt>
      <trkpt lat="45.50855" lon="6.66788">
        <ele>2162.3999023438</ele>
        <time>2012-07-01T08:10:14Z</time>
      </trkpt>
      <trkpt lat="45.50856" lon="6.66789">
        <ele>2162.3999023438</ele>
        <time>2012-07-01T08:10:22Z</time>
      </trkpt>
      <trkpt lat="45.50842" lon="6.66806">
        <ele>2165.6000976562</ele>
        <time>2012-07-01T08:10:39Z</time>
      </trkpt>
      <trkpt lat="45.5084" lon="6.66807">
        <ele>2165.6000976562</ele>
        <time>2012-07-01T08:10:40Z</time>
      </trkpt>
      <trkpt lat="45.50824" lon="6.66816">
        <ele>2165.6000976562</ele>
        <time>2012-07-01T08:10:47Z</time>
      </trkpt>
      <trkpt lat="45.50818" lon="6.66821">
        <ele>2165.6000976562</ele>
        <time>2012-07-01T08:10:50Z</time>
      </trkpt>
      <trkpt lat="45.50807" lon="6.66835">
        <ele>2162.6000976562</ele>
        <time>2012-07-01T08:10:55Z</time>
      </trkpt>
      <trkpt lat="45.50806" lon="6.66837">
        <ele>2161.6000976562</ele>
        <time>2012-07-01T08:10:56Z</time>
      </trkpt>
      <trkpt lat="45.50798" lon="6.66857">
        <ele>2159.3999023438</ele>
        <time>2012-07-01T08:11:02Z</time>
      </trkpt>
      <trkpt lat="45.50794" lon="6.66871">
        <ele>2159.3999023438</ele>
        <time>2012-07-01T08:11:06Z</time>
      </trkpt>
      <trkpt lat="45.50792" lon="6.66883">
        <ele>2159.3999023438</ele>
        <time>2012-07-01T08:11:10Z</time>
      </trkpt>
      <trkpt lat="45.50791" lon="6.66892">
        <ele>2157.3999023438</ele>
        <time>2012-07-01T08:11:13Z</time>
      </trkpt>
      <trkpt lat="45.50791" lon="6.66894">
        <ele>2156.1999511719</ele>
        <time>2012-07-01T08:11:14Z</time>
      </trkpt>
      <trkpt lat="45.50788" lon="6.66901">
        <ele>2155.1999511719</ele>
        <time>2012-07-01T08:11:17Z</time>
      </trkpt>
      <trkpt lat="45.50786" lon="6.66904">
        <ele>2154</ele>
        <time>2012-07-01T08:11:18Z</time>
      </trkpt>
      <trkpt lat="45.50782" lon="6.66911">
        <ele>2151.8000488281</ele>
        <time>2012-07-01T08:11:21Z</time>
      </trkpt>
      <trkpt lat="45.50779" lon="6.66915">
        <ele>2150.6000976562</ele>
        <time>2012-07-01T08:11:23Z</time>
      </trkpt>
      <trkpt lat="45.50771" lon="6.66925">
        <ele>2148.1999511719</ele>
        <time>2012-07-01T08:11:27Z</time>
      </trkpt>
      <trkpt lat="45.50769" lon="6.66926">
        <ele>2148.1999511719</ele>
        <time>2012-07-01T08:11:28Z</time>
      </trkpt>
      <trkpt lat="45.50751" lon="6.66949">
        <ele>2144</ele>
        <time>2012-07-01T08:11:38Z</time>
      </trkpt>
      <trkpt lat="45.50746" lon="6.66956">
        <ele>2143</ele>
        <time>2012-07-01T08:11:41Z</time>
      </trkpt>
      <trkpt lat="45.5073" lon="6.66966">
        <ele>2143</ele>
        <time>2012-07-01T08:11:48Z</time>
      </trkpt>
      <trkpt lat="45.50724" lon="6.66968">
        <ele>2142</ele>
        <time>2012-07-01T08:11:50Z</time>
      </trkpt>
      <trkpt lat="45.50714" lon="6.66969">
        <ele>2140.8000488281</ele>
        <time>2012-07-01T08:11:54Z</time>
      </trkpt>
      <trkpt lat="45.50707" lon="6.6697">
        <ele>2139.6000976562</ele>
        <time>2012-07-01T08:11:57Z</time>
      </trkpt>
      <trkpt lat="45.50689" lon="6.66969">
        <ele>2139.6000976562</ele>
        <time>2012-07-01T08:12:04Z</time>
      </trkpt>
      <trkpt lat="45.50687" lon="6.66969">
        <ele>2138.1999511719</ele>
        <time>2012-07-01T08:12:05Z</time>
      </trkpt>
      <trkpt lat="45.50671" lon="6.66968">
        <ele>2137</ele>
        <time>2012-07-01T08:12:11Z</time>
      </trkpt>
      <trkpt lat="45.5064" lon="6.66984">
        <ele>2133.8000488281</ele>
        <time>2012-07-01T08:12:23Z</time>
      </trkpt>
      <trkpt lat="45.50636" lon="6.66988">
        <ele>2132.8000488281</ele>
        <time>2012-07-01T08:12:25Z</time>
      </trkpt>
      <trkpt lat="45.50618" lon="6.67001">
        <ele>2131.8000488281</ele>
        <time>2012-07-01T08:12:33Z</time>
      </trkpt>
      <trkpt lat="45.50609" lon="6.67005">
        <ele>2130.6000976562</ele>
        <time>2012-07-01T08:12:37Z</time>
      </trkpt>
      <trkpt lat="45.50604" lon="6.67008">
        <ele>2128.1999511719</ele>
        <time>2012-07-01T08:12:39Z</time>
      </trkpt>
      <trkpt lat="45.50599" lon="6.67011">
        <ele>2127.1999511719</ele>
        <time>2012-07-01T08:12:42Z</time>
      </trkpt>
      <trkpt lat="45.50597" lon="6.67014">
        <ele>2126</ele>
        <time>2012-07-01T08:12:44Z</time>
      </trkpt>
      <trkpt lat="45.50593" lon="6.6702">
        <ele>2124.8000488281</ele>
        <time>2012-07-01T08:12:47Z</time>
      </trkpt>
      <trkpt lat="45.5058" lon="6.67043">
        <ele>2120.1999511719</ele>
        <time>2012-07-01T08:12:57Z</time>
      </trkpt>
      <trkpt lat="45.50579" lon="6.67045">
        <ele>2119.1999511719</ele>
        <time>2012-07-01T08:12:58Z</time>
      </trkpt>
      <trkpt lat="45.50575" lon="6.67061">
        <ele>2117.8000488281</ele>
        <time>2012-07-01T08:13:04Z</time>
      </trkpt>
      <trkpt lat="45.50574" lon="6.67062">
        <ele>2116.6000976562</ele>
        <time>2012-07-01T08:13:05Z</time>
      </trkpt>
      <trkpt lat="45.50572" lon="6.67071">
        <ele>2115.3999023438</ele>
        <time>2012-07-01T08:13:09Z</time>
      </trkpt>
      <trkpt lat="45.50572" lon="6.67076">
        <ele>2114.3999023438</ele>
        <time>2012-07-01T08:13:11Z</time>
      </trkpt>
      <trkpt lat="45.5057" lon="6.67085">
        <ele>2113.1999511719</ele>
        <time>2012-07-01T08:13:14Z</time>
      </trkpt>
      <trkpt lat="45.50568" lon="6.67094">
        <ele>2113.1999511719</ele>
        <time>2012-07-01T08:13:17Z</time>
      </trkpt>
      <trkpt lat="45.50566" lon="6.67105">
        <ele>2110.8000488281</ele>
        <time>2012-07-01T08:13:21Z</time>
      </trkpt>
      <trkpt lat="45.50563" lon="6.67118">
        <ele>2107.8000488281</ele>
        <time>2012-07-01T08:13:26Z</time>
      </trkpt>
      <trkpt lat="45.50562" lon="6.6712">
        <ele>2111</ele>
        <time>2012-07-01T08:13:27Z</time>
      </trkpt>
      <trkpt lat="45.5056" lon="6.67126">
        <ele>2108</ele>
        <time>2012-07-01T08:13:32Z</time>
      </trkpt>
      <trkpt lat="45.50559" lon="6.67129">
        <ele>2106.8000488281</ele>
        <time>2012-07-01T08:13:33Z</time>
      </trkpt>
      <trkpt lat="45.50554" lon="6.67147">
        <ele>2105.6000976562</ele>
        <time>2012-07-01T08:13:38Z</time>
      </trkpt>
      <trkpt lat="45.50549" lon="6.67159">
        <ele>2103.1999511719</ele>
        <time>2012-07-01T08:13:42Z</time>
      </trkpt>
      <trkpt lat="45.50544" lon="6.67171">
        <ele>2101</ele>
        <time>2012-07-01T08:13:46Z</time>
      </trkpt>
      <trkpt lat="45.50541" lon="6.67177">
        <ele>2099.8000488281</ele>
        <time>2012-07-01T08:13:48Z</time>
      </trkpt>
      <trkpt lat="45.50521" lon="6.6721">
        <ele>2097.1999511719</ele>
        <time>2012-07-01T08:14:00Z</time>
      </trkpt>
      <trkpt lat="45.5052" lon="6.67211">
        <ele>2097.1999511719</ele>
        <time>2012-07-01T08:14:01Z</time>
      </trkpt>
      <trkpt lat="45.50516" lon="6.67216">
        <ele>2097.1999511719</ele>
        <time>2012-07-01T08:14:06Z</time>
      </trkpt>
      <trkpt lat="45.50514" lon="6.6722">
        <ele>2097.1999511719</ele>
        <time>2012-07-01T08:14:09Z</time>
      </trkpt>
      <trkpt lat="45.5051" lon="6.67227">
        <ele>2095</ele>
        <time>2012-07-01T08:14:16Z</time>
      </trkpt>
      <trkpt lat="45.50506" lon="6.67235">
        <ele>2095</ele>
        <time>2012-07-01T08:14:21Z</time>
      </trkpt>
      <trkpt lat="45.50497" lon="6.67247">
        <ele>2094</ele>
        <time>2012-07-01T08:14:26Z</time>
      </trkpt>
      <trkpt lat="45.50495" lon="6.67251">
        <ele>2093</ele>
        <time>2012-07-01T08:14:28Z</time>
      </trkpt>
      <trkpt lat="45.50494" lon="6.67259">
        <ele>2092</ele>
        <time>2012-07-01T08:14:31Z</time>
      </trkpt>
      <trkpt lat="45.50494" lon="6.6727">
        <ele>2091</ele>
        <time>2012-07-01T08:14:35Z</time>
      </trkpt>
      <trkpt lat="45.50494" lon="6.67278">
        <ele>2089.8000488281</ele>
        <time>2012-07-01T08:14:38Z</time>
      </trkpt>
      <trkpt lat="45.50493" lon="6.67286">
        <ele>2088.8000488281</ele>
        <time>2012-07-01T08:14:41Z</time>
      </trkpt>
      <trkpt lat="45.50492" lon="6.67299">
        <ele>2086.8000488281</ele>
        <time>2012-07-01T08:14:45Z</time>
      </trkpt>
      <trkpt lat="45.50489" lon="6.67309">
        <ele>2084.3999023438</ele>
        <time>2012-07-01T08:14:48Z</time>
      </trkpt>
      <trkpt lat="45.50485" lon="6.67323">
        <ele>2084.3999023438</ele>
        <time>2012-07-01T08:14:52Z</time>
      </trkpt>
      <trkpt lat="45.50479" lon="6.67341">
        <ele>2083.1999511719</ele>
        <time>2012-07-01T08:14:58Z</time>
      </trkpt>
      <trkpt lat="45.50472" lon="6.67356">
        <ele>2083.1999511719</ele>
        <time>2012-07-01T08:15:04Z</time>
      </trkpt>
      <trkpt lat="45.50482" lon="6.674">
        <ele>2082</ele>
        <time>2012-07-01T08:15:18Z</time>
      </trkpt>
      <trkpt lat="45.50484" lon="6.67418">
        <ele>2082</ele>
        <time>2012-07-01T08:15:23Z</time>
      </trkpt>
      <trkpt lat="45.50487" lon="6.67441">
        <ele>2080.8000488281</ele>
        <time>2012-07-01T08:15:29Z</time>
      </trkpt>
      <trkpt lat="45.50487" lon="6.67444">
        <ele>2080.8000488281</ele>
        <time>2012-07-01T08:15:30Z</time>
      </trkpt>
      <trkpt lat="45.50491" lon="6.67487">
        <ele>2080.8000488281</ele>
        <time>2012-07-01T08:15:42Z</time>
      </trkpt>
      <trkpt lat="45.50493" lon="6.67506">
        <ele>2080.8000488281</ele>
        <time>2012-07-01T08:15:47Z</time>
      </trkpt>
      <trkpt lat="45.50502" lon="6.67535">
        <ele>2080.8000488281</ele>
        <time>2012-07-01T08:15:57Z</time>
      </trkpt>
      <trkpt lat="45.50506" lon="6.67537">
        <ele>2079.6000976562</ele>
        <time>2012-07-01T08:15:59Z</time>
      </trkpt>
      <trkpt lat="45.5052" lon="6.67543">
        <ele>2079.6000976562</ele>
        <time>2012-07-01T08:16:06Z</time>
      </trkpt>
      <trkpt lat="45.50523" lon="6.67546">
        <ele>2077.6000976562</ele>
        <time>2012-07-01T08:16:09Z</time>
      </trkpt>
      <trkpt lat="45.50524" lon="6.67547">
        <ele>2077.6000976562</ele>
        <time>2012-07-01T08:16:10Z</time>
      </trkpt>
      <trkpt lat="45.50534" lon="6.67565">
        <ele>2077.6000976562</ele>
        <time>2012-07-01T08:16:17Z</time>
      </trkpt>
      <trkpt lat="45.50537" lon="6.6757">
        <ele>2077.6000976562</ele>
        <time>2012-07-01T08:16:19Z</time>
      </trkpt>
      <trkpt lat="45.50544" lon="6.67589">
        <ele>2075.6000976562</ele>
        <time>2012-07-01T08:16:25Z</time>
      </trkpt>
      <trkpt lat="45.50548" lon="6.67595">
        <ele>2075.6000976562</ele>
        <time>2012-07-01T08:16:28Z</time>
      </trkpt>
      <trkpt lat="45.50552" lon="6.67595">
        <ele>2074.3999023438</ele>
        <time>2012-07-01T08:16:30Z</time>
      </trkpt>
      <trkpt lat="45.50557" lon="6.67593">
        <ele>2074.3999023438</ele>
        <time>2012-07-01T08:16:33Z</time>
      </trkpt>
      <trkpt lat="45.50588" lon="6.67578">
        <ele>2071.1999511719</ele>
        <time>2012-07-01T08:16:48Z</time>
      </trkpt>
      <trkpt lat="45.50595" lon="6.67575">
        <ele>2070</ele>
        <time>2012-07-01T08:16:51Z</time>
      </trkpt>
      <trkpt lat="45.50617" lon="6.67565">
        <ele>2073.1999511719</ele>
        <time>2012-07-01T08:16:57Z</time>
      </trkpt>
      <trkpt lat="45.50624" lon="6.67564">
        <ele>2073.1999511719</ele>
        <time>2012-07-01T08:16:59Z</time>
      </trkpt>
      <trkpt lat="45.50642" lon="6.67551">
        <ele>2074.3999023438</ele>
        <time>2012-07-01T08:17:08Z</time>
      </trkpt>
      <trkpt lat="45.50648" lon="6.67548">
        <ele>2071.1999511719</ele>
        <time>2012-07-01T08:17:11Z</time>
      </trkpt>
      <trkpt lat="45.50654" lon="6.67543">
        <ele>2070.1999511719</ele>
        <time>2012-07-01T08:17:14Z</time>
      </trkpt>
      <trkpt lat="45.50656" lon="6.67541">
        <ele>2069</ele>
        <time>2012-07-01T08:17:15Z</time>
      </trkpt>
      <trkpt lat="45.5066" lon="6.67536">
        <ele>2069</ele>
        <time>2012-07-01T08:17:19Z</time>
      </trkpt>
      <trkpt lat="45.50674" lon="6.67522">
        <ele>2067.8000488281</ele>
        <time>2012-07-01T08:17:28Z</time>
      </trkpt>
      <trkpt lat="45.50676" lon="6.6752">
        <ele>2067.8000488281</ele>
        <time>2012-07-01T08:17:29Z</time>
      </trkpt>
      <trkpt lat="45.50685" lon="6.67511">
        <ele>2066.6000976562</ele>
        <time>2012-07-01T08:17:39Z</time>
      </trkpt>
      <trkpt lat="45.50684" lon="6.67511">
        <ele>2066.6000976562</ele>
        <time>2012-07-01T08:17:44Z</time>
      </trkpt>
      <trkpt lat="45.50684" lon="6.67511">
        <ele>2066.6000976562</ele>
        <time>2012-07-01T08:17:55Z</time>
      </trkpt>
      <trkpt lat="45.50685" lon="6.67511">
        <ele>2066.6000976562</ele>
        <time>2012-07-01T08:17:56Z</time>
      </trkpt>
      <trkpt lat="45.50689" lon="6.67503">
        <ele>2065.6000976562</ele>
        <time>2012-07-01T08:18:03Z</time>
      </trkpt>
      <trkpt lat="45.50691" lon="6.675">
        <ele>2065.6000976562</ele>
        <time>2012-07-01T08:18:07Z</time>
      </trkpt>
      <trkpt lat="45.5069" lon="6.67491">
        <ele>2063.1999511719</ele>
        <time>2012-07-01T08:18:16Z</time>
      </trkpt>
      <trkpt lat="45.50692" lon="6.67491">
        <ele>2062.1999511719</ele>
        <time>2012-07-01T08:18:17Z</time>
      </trkpt>
      <trkpt lat="45.50694" lon="6.6749">
        <ele>2061</ele>
        <time>2012-07-01T08:18:19Z</time>
      </trkpt>
      <trkpt lat="45.50695" lon="6.6749">
        <ele>2061</ele>
        <time>2012-07-01T08:18:21Z</time>
      </trkpt>
      <trkpt lat="45.50694" lon="6.67486">
        <ele>2060</ele>
        <time>2012-07-01T08:18:25Z</time>
      </trkpt>
      <trkpt lat="45.50694" lon="6.67483">
        <ele>2058.8000488281</ele>
        <time>2012-07-01T08:18:26Z</time>
      </trkpt>
      <trkpt lat="45.50689" lon="6.6748">
        <ele>2057.1999511719</ele>
        <time>2012-07-01T08:18:29Z</time>
      </trkpt>
      <trkpt lat="45.50685" lon="6.67471">
        <ele>2056.1999511719</ele>
        <time>2012-07-01T08:18:34Z</time>
      </trkpt>
      <trkpt lat="45.50685" lon="6.67469">
        <ele>2055</ele>
        <time>2012-07-01T08:18:36Z</time>
      </trkpt>
      <trkpt lat="45.50692" lon="6.67466">
        <ele>2053</ele>
        <time>2012-07-01T08:18:43Z</time>
      </trkpt>
      <trkpt lat="45.50695" lon="6.67466">
        <ele>2052</ele>
        <time>2012-07-01T08:18:45Z</time>
      </trkpt>
      <trkpt lat="45.50699" lon="6.67465">
        <ele>2049.8000488281</ele>
        <time>2012-07-01T08:18:49Z</time>
      </trkpt>
      <trkpt lat="45.50701" lon="6.67465">
        <ele>2049.8000488281</ele>
        <time>2012-07-01T08:18:50Z</time>
      </trkpt>
      <trkpt lat="45.50703" lon="6.67464">
        <ele>2047.5999755859</ele>
        <time>2012-07-01T08:18:53Z</time>
      </trkpt>
      <trkpt lat="45.50702" lon="6.67461">
        <ele>2047.5999755859</ele>
        <time>2012-07-01T08:18:54Z</time>
      </trkpt>
      <trkpt lat="45.50701" lon="6.67456">
        <ele>2045.5999755859</ele>
        <time>2012-07-01T08:18:56Z</time>
      </trkpt>
      <trkpt lat="45.507" lon="6.6745">
        <ele>2045.5999755859</ele>
        <time>2012-07-01T08:18:58Z</time>
      </trkpt>
      <trkpt lat="45.50715" lon="6.67449">
        <ele>2040</ele>
        <time>2012-07-01T08:19:10Z</time>
      </trkpt>
      <trkpt lat="45.50718" lon="6.67452">
        <ele>2040</ele>
        <time>2012-07-01T08:19:12Z</time>
      </trkpt>
      <trkpt lat="45.50725" lon="6.67457">
        <ele>2038.8000488281</ele>
        <time>2012-07-01T08:19:18Z</time>
      </trkpt>
      <trkpt lat="45.50726" lon="6.67457">
        <ele>2037.8000488281</ele>
        <time>2012-07-01T08:19:19Z</time>
      </trkpt>
      <trkpt lat="45.50727" lon="6.67458">
        <ele>2037.8000488281</ele>
        <time>2012-07-01T08:19:24Z</time>
      </trkpt>
      <trkpt lat="45.50728" lon="6.67457">
        <ele>2036.8000488281</ele>
        <time>2012-07-01T08:19:29Z</time>
      </trkpt>
      <trkpt lat="45.50729" lon="6.67458">
        <ele>2036.8000488281</ele>
        <time>2012-07-01T08:19:37Z</time>
      </trkpt>
      <trkpt lat="45.50729" lon="6.67459">
        <ele>2035.5999755859</ele>
        <time>2012-07-01T08:19:38Z</time>
      </trkpt>
      <trkpt lat="45.50735" lon="6.6746">
        <ele>2034.5999755859</ele>
        <time>2012-07-01T08:19:46Z</time>
      </trkpt>
      <trkpt lat="45.50737" lon="6.67461">
        <ele>2033.4000244141</ele>
        <time>2012-07-01T08:19:53Z</time>
      </trkpt>
      <trkpt lat="45.50739" lon="6.67462">
        <ele>2033.4000244141</ele>
        <time>2012-07-01T08:19:58Z</time>
      </trkpt>
      <trkpt lat="45.50739" lon="6.67464">
        <ele>2032.4000244141</ele>
        <time>2012-07-01T08:20:01Z</time>
      </trkpt>
      <trkpt lat="45.50741" lon="6.67463">
        <ele>2032.4000244141</ele>
        <time>2012-07-01T08:20:05Z</time>
      </trkpt>
      <trkpt lat="45.50742" lon="6.67463">
        <ele>2032.4000244141</ele>
        <time>2012-07-01T08:20:12Z</time>
      </trkpt>
      <trkpt lat="45.50743" lon="6.67463">
        <ele>2032.4000244141</ele>
        <time>2012-07-01T08:20:17Z</time>
      </trkpt>
      <trkpt lat="45.50744" lon="6.67463">
        <ele>2032.4000244141</ele>
        <time>2012-07-01T08:20:24Z</time>
      </trkpt>
      <trkpt lat="45.5075" lon="6.6747">
        <ele>2032.4000244141</ele>
        <time>2012-07-01T08:20:29Z</time>
      </trkpt>
      <trkpt lat="45.50768" lon="6.67487">
        <ele>2027.8000488281</ele>
        <time>2012-07-01T08:20:39Z</time>
      </trkpt>
      <trkpt lat="45.50769" lon="6.6749">
        <ele>2026.5999755859</ele>
        <time>2012-07-01T08:20:40Z</time>
      </trkpt>
      <trkpt lat="45.50771" lon="6.67496">
        <ele>2025.5999755859</ele>
        <time>2012-07-01T08:20:46Z</time>
      </trkpt>
      <trkpt lat="45.50771" lon="6.67497">
        <ele>2025.5999755859</ele>
        <time>2012-07-01T08:20:51Z</time>
      </trkpt>
      <trkpt lat="45.50771" lon="6.67506">
        <ele>2025.5999755859</ele>
        <time>2012-07-01T08:21:00Z</time>
      </trkpt>
      <trkpt lat="45.50771" lon="6.67508">
        <ele>2024.1999511719</ele>
        <time>2012-07-01T08:21:02Z</time>
      </trkpt>
      <trkpt lat="45.50775" lon="6.67506">
        <ele>2024.1999511719</ele>
        <time>2012-07-01T08:21:05Z</time>
      </trkpt>
      <trkpt lat="45.50779" lon="6.67508">
        <ele>2024.1999511719</ele>
        <time>2012-07-01T08:21:08Z</time>
      </trkpt>
      <trkpt lat="45.50779" lon="6.6751">
        <ele>2021.8000488281</ele>
        <time>2012-07-01T08:21:10Z</time>
      </trkpt>
      <trkpt lat="45.50775" lon="6.67525">
        <ele>2019.5999755859</ele>
        <time>2012-07-01T08:21:17Z</time>
      </trkpt>
      <trkpt lat="45.50774" lon="6.67528">
        <ele>2018.5999755859</ele>
        <time>2012-07-01T08:21:18Z</time>
      </trkpt>
      <trkpt lat="45.50775" lon="6.67533">
        <ele>2018.5999755859</ele>
        <time>2012-07-01T08:21:24Z</time>
      </trkpt>
      <trkpt lat="45.50777" lon="6.67537">
        <ele>2018.5999755859</ele>
        <time>2012-07-01T08:21:27Z</time>
      </trkpt>
      <trkpt lat="45.50781" lon="6.67542">
        <ele>2018.5999755859</ele>
        <time>2012-07-01T08:21:33Z</time>
      </trkpt>
      <trkpt lat="45.50781" lon="6.67543">
        <ele>2018.5999755859</ele>
        <time>2012-07-01T08:21:34Z</time>
      </trkpt>
      <trkpt lat="45.5079" lon="6.67548">
        <ele>2018.5999755859</ele>
        <time>2012-07-01T08:21:42Z</time>
      </trkpt>
      <trkpt lat="45.50793" lon="6.67548">
        <ele>2018.5999755859</ele>
        <time>2012-07-01T08:21:45Z</time>
      </trkpt>
      <trkpt lat="45.50809" lon="6.67549">
        <ele>2017.4000244141</ele>
        <time>2012-07-01T08:22:00Z</time>
      </trkpt>
      <trkpt lat="45.50813" lon="6.67556">
        <ele>2017.4000244141</ele>
        <time>2012-07-01T08:22:04Z</time>
      </trkpt>
      <trkpt lat="45.50819" lon="6.67572">
        <ele>2017.4000244141</ele>
        <time>2012-07-01T08:22:10Z</time>
      </trkpt>
      <trkpt lat="45.5082" lon="6.67576">
        <ele>2017.4000244141</ele>
        <time>2012-07-01T08:22:11Z</time>
      </trkpt>
      <trkpt lat="45.50826" lon="6.67589">
        <ele>2016</ele>
        <time>2012-07-01T08:22:16Z</time>
      </trkpt>
      <trkpt lat="45.50836" lon="6.67601">
        <ele>2016</ele>
        <time>2012-07-01T08:22:21Z</time>
      </trkpt>
      <trkpt lat="45.50844" lon="6.67615">
        <ele>2014</ele>
        <time>2012-07-01T08:22:26Z</time>
      </trkpt>
      <trkpt lat="45.50852" lon="6.67628">
        <ele>2014</ele>
        <time>2012-07-01T08:22:32Z</time>
      </trkpt>
      <trkpt lat="45.50855" lon="6.67633">
        <ele>2012.8000488281</ele>
        <time>2012-07-01T08:22:36Z</time>
      </trkpt>
      <trkpt lat="45.50857" lon="6.67629">
        <ele>2012.8000488281</ele>
        <time>2012-07-01T08:22:42Z</time>
      </trkpt>
      <trkpt lat="45.50854" lon="6.67622">
        <ele>2012.8000488281</ele>
        <time>2012-07-01T08:22:44Z</time>
      </trkpt>
      <trkpt lat="45.50845" lon="6.67601">
        <ele>2011.8000488281</ele>
        <time>2012-07-01T08:22:51Z</time>
      </trkpt>
      <trkpt lat="45.50843" lon="6.67594">
        <ele>2011.8000488281</ele>
        <time>2012-07-01T08:22:53Z</time>
      </trkpt>
      <trkpt lat="45.50837" lon="6.67564">
        <ele>2009.5999755859</ele>
        <time>2012-07-01T08:23:01Z</time>
      </trkpt>
      <trkpt lat="45.50834" lon="6.67556">
        <ele>2009.5999755859</ele>
        <time>2012-07-01T08:23:03Z</time>
      </trkpt>
      <trkpt lat="45.50827" lon="6.67533">
        <ele>2008.4000244141</ele>
        <time>2012-07-01T08:23:10Z</time>
      </trkpt>
      <trkpt lat="45.50827" lon="6.6753">
        <ele>2008.4000244141</ele>
        <time>2012-07-01T08:23:11Z</time>
      </trkpt>
      <trkpt lat="45.50868" lon="6.67518">
        <ele>2011.4000244141</ele>
        <time>2012-07-01T08:23:31Z</time>
      </trkpt>
      <trkpt lat="45.50868" lon="6.67516">
        <ele>2011.4000244141</ele>
        <time>2012-07-01T08:23:33Z</time>
      </trkpt>
      <trkpt lat="45.50886" lon="6.67514">
        <ele>2011.4000244141</ele>
        <time>2012-07-01T08:23:44Z</time>
      </trkpt>
      <trkpt lat="45.50888" lon="6.67514">
        <ele>2008.1999511719</ele>
        <time>2012-07-01T08:23:45Z</time>
      </trkpt>
      <trkpt lat="45.50892" lon="6.67517">
        <ele>2007.1999511719</ele>
        <time>2012-07-01T08:23:47Z</time>
      </trkpt>
      <trkpt lat="45.50894" lon="6.67518">
        <ele>2006</ele>
        <time>2012-07-01T08:23:48Z</time>
      </trkpt>
      <trkpt lat="45.50897" lon="6.67521">
        <ele>2005</ele>
        <time>2012-07-01T08:23:50Z</time>
      </trkpt>
      <trkpt lat="45.50899" lon="6.67522">
        <ele>2003.8000488281</ele>
        <time>2012-07-01T08:23:51Z</time>
      </trkpt>
      <trkpt lat="45.50907" lon="6.67528">
        <ele>2001.5999755859</ele>
        <time>2012-07-01T08:23:56Z</time>
      </trkpt>
      <trkpt lat="45.50915" lon="6.67535">
        <ele>1999.1999511719</ele>
        <time>2012-07-01T08:24:01Z</time>
      </trkpt>
      <trkpt lat="45.5092" lon="6.67538">
        <ele>1998</ele>
        <time>2012-07-01T08:24:04Z</time>
      </trkpt>
      <trkpt lat="45.50922" lon="6.67541">
        <ele>1997</ele>
        <time>2012-07-01T08:24:06Z</time>
      </trkpt>
      <trkpt lat="45.50923" lon="6.67542">
        <ele>1995.8000488281</ele>
        <time>2012-07-01T08:24:07Z</time>
      </trkpt>
      <trkpt lat="45.50927" lon="6.67547">
        <ele>1994.8000488281</ele>
        <time>2012-07-01T08:24:11Z</time>
      </trkpt>
      <trkpt lat="45.50927" lon="6.67549">
        <ele>1993.5999755859</ele>
        <time>2012-07-01T08:24:12Z</time>
      </trkpt>
      <trkpt lat="45.50931" lon="6.67554">
        <ele>1991.4000244141</ele>
        <time>2012-07-01T08:24:16Z</time>
      </trkpt>
      <trkpt lat="45.50934" lon="6.67555">
        <ele>1990.1999511719</ele>
        <time>2012-07-01T08:24:18Z</time>
      </trkpt>
      <trkpt lat="45.50949" lon="6.67562">
        <ele>1984.8000488281</ele>
        <time>2012-07-01T08:24:29Z</time>
      </trkpt>
      <trkpt lat="45.50951" lon="6.67564">
        <ele>1984.8000488281</ele>
        <time>2012-07-01T08:24:31Z</time>
      </trkpt>
      <trkpt lat="45.50954" lon="6.67565">
        <ele>1982.4000244141</ele>
        <time>2012-07-01T08:24:33Z</time>
      </trkpt>
      <trkpt lat="45.50957" lon="6.67567">
        <ele>1982.4000244141</ele>
        <time>2012-07-01T08:24:36Z</time>
      </trkpt>
      <trkpt lat="45.50961" lon="6.67569">
        <ele>1980.1999511719</ele>
        <time>2012-07-01T08:24:39Z</time>
      </trkpt>
      <trkpt lat="45.50962" lon="6.67571">
        <ele>1978.8000488281</ele>
        <time>2012-07-01T08:24:41Z</time>
      </trkpt>
      <trkpt lat="45.50965" lon="6.67572">
        <ele>1977.5999755859</ele>
        <time>2012-07-01T08:24:43Z</time>
      </trkpt>
      <trkpt lat="45.50969" lon="6.67574">
        <ele>1977.5999755859</ele>
        <time>2012-07-01T08:24:47Z</time>
      </trkpt>
      <trkpt lat="45.50972" lon="6.67577">
        <ele>1975.4000244141</ele>
        <time>2012-07-01T08:24:50Z</time>
      </trkpt>
      <trkpt lat="45.50979" lon="6.67584">
        <ele>1971.5999755859</ele>
        <time>2012-07-01T08:24:56Z</time>
      </trkpt>
      <trkpt lat="45.50982" lon="6.67589">
        <ele>1970.4000244141</ele>
        <time>2012-07-01T08:24:59Z</time>
      </trkpt>
      <trkpt lat="45.50985" lon="6.67593">
        <ele>1969.1999511719</ele>
        <time>2012-07-01T08:25:01Z</time>
      </trkpt>
      <trkpt lat="45.50989" lon="6.67598">
        <ele>1968.1999511719</ele>
        <time>2012-07-01T08:25:04Z</time>
      </trkpt>
      <trkpt lat="45.50995" lon="6.67603">
        <ele>1967</ele>
        <time>2012-07-01T08:25:09Z</time>
      </trkpt>
      <trkpt lat="45.50997" lon="6.67604">
        <ele>1966</ele>
        <time>2012-07-01T08:25:10Z</time>
      </trkpt>
      <trkpt lat="45.50999" lon="6.67607">
        <ele>1964</ele>
        <time>2012-07-01T08:25:12Z</time>
      </trkpt>
      <trkpt lat="45.51002" lon="6.6761">
        <ele>1963</ele>
        <time>2012-07-01T08:25:14Z</time>
      </trkpt>
      <trkpt lat="45.51012" lon="6.6762">
        <ele>1958.1999511719</ele>
        <time>2012-07-01T08:25:23Z</time>
      </trkpt>
      <trkpt lat="45.51016" lon="6.67622">
        <ele>1957</ele>
        <time>2012-07-01T08:25:26Z</time>
      </trkpt>
      <trkpt lat="45.51021" lon="6.67625">
        <ele>1954.8000488281</ele>
        <time>2012-07-01T08:25:30Z</time>
      </trkpt>
      <trkpt lat="45.51023" lon="6.67626">
        <ele>1954.8000488281</ele>
        <time>2012-07-01T08:25:31Z</time>
      </trkpt>
      <trkpt lat="45.51028" lon="6.67631">
        <ele>1953.5999755859</ele>
        <time>2012-07-01T08:25:36Z</time>
      </trkpt>
      <trkpt lat="45.5103" lon="6.67631">
        <ele>1952.4000244141</ele>
        <time>2012-07-01T08:25:40Z</time>
      </trkpt>
      <trkpt lat="45.51034" lon="6.67633">
        <ele>1951.1999511719</ele>
        <time>2012-07-01T08:25:44Z</time>
      </trkpt>
      <trkpt lat="45.51039" lon="6.67634">
        <ele>1951.1999511719</ele>
        <time>2012-07-01T08:25:48Z</time>
      </trkpt>
      <trkpt lat="45.5105" lon="6.67635">
        <ele>1950.1999511719</ele>
        <time>2012-07-01T08:25:53Z</time>
      </trkpt>
      <trkpt lat="45.51068" lon="6.6763">
        <ele>1947</ele>
        <time>2012-07-01T08:26:00Z</time>
      </trkpt>
      <trkpt lat="45.51076" lon="6.67627">
        <ele>1945.8000488281</ele>
        <time>2012-07-01T08:26:03Z</time>
      </trkpt>
      <trkpt lat="45.51087" lon="6.67625">
        <ele>1944.8000488281</ele>
        <time>2012-07-01T08:26:07Z</time>
      </trkpt>
      <trkpt lat="45.51089" lon="6.67624">
        <ele>1943.5999755859</ele>
        <time>2012-07-01T08:26:08Z</time>
      </trkpt>
      <trkpt lat="45.51096" lon="6.6762">
        <ele>1942.4000244141</ele>
        <time>2012-07-01T08:26:12Z</time>
      </trkpt>
      <trkpt lat="45.51099" lon="6.67617">
        <ele>1941.4000244141</ele>
        <time>2012-07-01T08:26:16Z</time>
      </trkpt>
      <trkpt lat="45.51113" lon="6.67612">
        <ele>1941.4000244141</ele>
        <time>2012-07-01T08:26:25Z</time>
      </trkpt>
      <trkpt lat="45.51117" lon="6.67613">
        <ele>1940.4000244141</ele>
        <time>2012-07-01T08:26:26Z</time>
      </trkpt>
      <trkpt lat="45.51152" lon="6.67609">
        <ele>1938.1999511719</ele>
        <time>2012-07-01T08:26:43Z</time>
      </trkpt>
      <trkpt lat="45.51154" lon="6.6761">
        <ele>1938.1999511719</ele>
        <time>2012-07-01T08:26:44Z</time>
      </trkpt>
      <trkpt lat="45.51164" lon="6.67606">
        <ele>1938.1999511719</ele>
        <time>2012-07-01T08:26:49Z</time>
      </trkpt>
      <trkpt lat="45.51166" lon="6.67606">
        <ele>1936.8000488281</ele>
        <time>2012-07-01T08:26:50Z</time>
      </trkpt>
      <trkpt lat="45.51176" lon="6.67606">
        <ele>1936.8000488281</ele>
        <time>2012-07-01T08:26:54Z</time>
      </trkpt>
      <trkpt lat="45.51178" lon="6.67606">
        <ele>1935.8000488281</ele>
        <time>2012-07-01T08:26:55Z</time>
      </trkpt>
      <trkpt lat="45.51196" lon="6.67609">
        <ele>1933.5999755859</ele>
        <time>2012-07-01T08:27:03Z</time>
      </trkpt>
      <trkpt lat="45.51206" lon="6.6761">
        <ele>1933.5999755859</ele>
        <time>2012-07-01T08:27:07Z</time>
      </trkpt>
      <trkpt lat="45.51235" lon="6.676">
        <ele>1933.5999755859</ele>
        <time>2012-07-01T08:27:20Z</time>
      </trkpt>
      <trkpt lat="45.51275" lon="6.67568">
        <ele>1933.5999755859</ele>
        <time>2012-07-01T08:27:39Z</time>
      </trkpt>
      <trkpt lat="45.51286" lon="6.67556">
        <ele>1933.5999755859</ele>
        <time>2012-07-01T08:27:45Z</time>
      </trkpt>
      <trkpt lat="45.51304" lon="6.67532">
        <ele>1933.5999755859</ele>
        <time>2012-07-01T08:27:56Z</time>
      </trkpt>
      <trkpt lat="45.51314" lon="6.67531">
        <ele>1933.5999755859</ele>
        <time>2012-07-01T08:28:01Z</time>
      </trkpt>
      <trkpt lat="45.51327" lon="6.67528">
        <ele>1932.4000244141</ele>
        <time>2012-07-01T08:28:08Z</time>
      </trkpt>
      <trkpt lat="45.51331" lon="6.67526">
        <ele>1932.4000244141</ele>
        <time>2012-07-01T08:28:10Z</time>
      </trkpt>
      <trkpt lat="45.51339" lon="6.67521">
        <ele>1930</ele>
        <time>2012-07-01T08:28:14Z</time>
      </trkpt>
      <trkpt lat="45.51344" lon="6.67521">
        <ele>1930</ele>
        <time>2012-07-01T08:28:16Z</time>
      </trkpt>
      <trkpt lat="45.51369" lon="6.67536">
        <ele>1927.5999755859</ele>
        <time>2012-07-01T08:28:29Z</time>
      </trkpt>
      <trkpt lat="45.51372" lon="6.67545">
        <ele>1926.5999755859</ele>
        <time>2012-07-01T08:28:32Z</time>
      </trkpt>
      <trkpt lat="45.51372" lon="6.67551">
        <ele>1926.5999755859</ele>
        <time>2012-07-01T08:28:34Z</time>
      </trkpt>
      <trkpt lat="45.51372" lon="6.67554">
        <ele>1925.4000244141</ele>
        <time>2012-07-01T08:28:35Z</time>
      </trkpt>
      <trkpt lat="45.51368" lon="6.67566">
        <ele>1925.4000244141</ele>
        <time>2012-07-01T08:28:39Z</time>
      </trkpt>
      <trkpt lat="45.51362" lon="6.67574">
        <ele>1924.1999511719</ele>
        <time>2012-07-01T08:28:43Z</time>
      </trkpt>
      <trkpt lat="45.51356" lon="6.67585">
        <ele>1923</ele>
        <time>2012-07-01T08:28:48Z</time>
      </trkpt>
      <trkpt lat="45.51352" lon="6.67592">
        <ele>1923</ele>
        <time>2012-07-01T08:28:52Z</time>
      </trkpt>
      <trkpt lat="45.51351" lon="6.67595">
        <ele>1923</ele>
        <time>2012-07-01T08:28:59Z</time>
      </trkpt>
      <trkpt lat="45.5136" lon="6.67599">
        <ele>1923</ele>
        <time>2012-07-01T08:29:10Z</time>
      </trkpt>
      <trkpt lat="45.51367" lon="6.67597">
        <ele>1921.8000488281</ele>
        <time>2012-07-01T08:29:13Z</time>
      </trkpt>
      <trkpt lat="45.51382" lon="6.67587">
        <ele>1920.5999755859</ele>
        <time>2012-07-01T08:29:20Z</time>
      </trkpt>
      <trkpt lat="45.51388" lon="6.67583">
        <ele>1919.5999755859</ele>
        <time>2012-07-01T08:29:23Z</time>
      </trkpt>
      <trkpt lat="45.51404" lon="6.67576">
        <ele>1918.1999511719</ele>
        <time>2012-07-01T08:29:29Z</time>
      </trkpt>
      <trkpt lat="45.51412" lon="6.67572">
        <ele>1918.1999511719</ele>
        <time>2012-07-01T08:29:32Z</time>
      </trkpt>
      <trkpt lat="45.51445" lon="6.67559">
        <ele>1917</ele>
        <time>2012-07-01T08:29:45Z</time>
      </trkpt>
      <trkpt lat="45.51456" lon="6.67558">
        <ele>1915.8000488281</ele>
        <time>2012-07-01T08:29:49Z</time>
      </trkpt>
      <trkpt lat="45.51489" lon="6.67555">
        <ele>1913.5999755859</ele>
        <time>2012-07-01T08:30:02Z</time>
      </trkpt>
      <trkpt lat="45.51504" lon="6.67556">
        <ele>1913.5999755859</ele>
        <time>2012-07-01T08:30:08Z</time>
      </trkpt>
      <trkpt lat="45.51531" lon="6.67554">
        <ele>1913.5999755859</ele>
        <time>2012-07-01T08:30:19Z</time>
      </trkpt>
      <trkpt lat="45.51537" lon="6.67551">
        <ele>1912.4000244141</ele>
        <time>2012-07-01T08:30:22Z</time>
      </trkpt>
      <trkpt lat="45.51553" lon="6.67536">
        <ele>1911.1999511719</ele>
        <time>2012-07-01T08:30:30Z</time>
      </trkpt>
      <trkpt lat="45.51559" lon="6.67529">
        <ele>1911.1999511719</ele>
        <time>2012-07-01T08:30:33Z</time>
      </trkpt>
      <trkpt lat="45.51569" lon="6.67518">
        <ele>1909</ele>
        <time>2012-07-01T08:30:38Z</time>
      </trkpt>
      <trkpt lat="45.51574" lon="6.67513">
        <ele>1907.8000488281</ele>
        <time>2012-07-01T08:30:40Z</time>
      </trkpt>
      <trkpt lat="45.51593" lon="6.67495">
        <ele>1907.8000488281</ele>
        <time>2012-07-01T08:30:49Z</time>
      </trkpt>
      <trkpt lat="45.51602" lon="6.67483">
        <ele>1906.8000488281</ele>
        <time>2012-07-01T08:30:54Z</time>
      </trkpt>
      <trkpt lat="45.51608" lon="6.67476">
        <ele>1906.8000488281</ele>
        <time>2012-07-01T08:30:57Z</time>
      </trkpt>
      <trkpt lat="45.51617" lon="6.67465">
        <ele>1904.5999755859</ele>
        <time>2012-07-01T08:31:02Z</time>
      </trkpt>
      <trkpt lat="45.51622" lon="6.67461">
        <ele>1904.5999755859</ele>
        <time>2012-07-01T08:31:04Z</time>
      </trkpt>
      <trkpt lat="45.51633" lon="6.6745">
        <ele>1903.5999755859</ele>
        <time>2012-07-01T08:31:09Z</time>
      </trkpt>
      <trkpt lat="45.51635" lon="6.67447">
        <ele>1902.4000244141</ele>
        <time>2012-07-01T08:31:10Z</time>
      </trkpt>
      <trkpt lat="45.51653" lon="6.67437">
        <ele>1901.4000244141</ele>
        <time>2012-07-01T08:31:19Z</time>
      </trkpt>
      <trkpt lat="45.51656" lon="6.67435">
        <ele>1901.4000244141</ele>
        <time>2012-07-01T08:31:20Z</time>
      </trkpt>
      <trkpt lat="45.51695" lon="6.67415">
        <ele>1898.1999511719</ele>
        <time>2012-07-01T08:31:37Z</time>
      </trkpt>
      <trkpt lat="45.51704" lon="6.67412">
        <ele>1897</ele>
        <time>2012-07-01T08:31:41Z</time>
      </trkpt>
      <trkpt lat="45.51708" lon="6.67411">
        <ele>1897</ele>
        <time>2012-07-01T08:31:43Z</time>
      </trkpt>
      <trkpt lat="45.51712" lon="6.67408">
        <ele>1896</ele>
        <time>2012-07-01T08:31:45Z</time>
      </trkpt>
      <trkpt lat="45.5172" lon="6.67405">
        <ele>1895</ele>
        <time>2012-07-01T08:31:48Z</time>
      </trkpt>
      <trkpt lat="45.51728" lon="6.67403">
        <ele>1895</ele>
        <time>2012-07-01T08:31:51Z</time>
      </trkpt>
      <trkpt lat="45.51743" lon="6.67396">
        <ele>1893.8000488281</ele>
        <time>2012-07-01T08:31:57Z</time>
      </trkpt>
      <trkpt lat="45.51754" lon="6.67393">
        <ele>1893.8000488281</ele>
        <time>2012-07-01T08:32:01Z</time>
      </trkpt>
      <trkpt lat="45.51765" lon="6.67388">
        <ele>1892.8000488281</ele>
        <time>2012-07-01T08:32:05Z</time>
      </trkpt>
      <trkpt lat="45.51783" lon="6.67382">
        <ele>1891.8000488281</ele>
        <time>2012-07-01T08:32:13Z</time>
      </trkpt>
      <trkpt lat="45.51785" lon="6.67381">
        <ele>1891.8000488281</ele>
        <time>2012-07-01T08:32:14Z</time>
      </trkpt>
      <trkpt lat="45.51796" lon="6.67374">
        <ele>1890.5999755859</ele>
        <time>2012-07-01T08:32:19Z</time>
      </trkpt>
      <trkpt lat="45.51803" lon="6.67368">
        <ele>1890.5999755859</ele>
        <time>2012-07-01T08:32:23Z</time>
      </trkpt>
      <trkpt lat="45.51811" lon="6.6736">
        <ele>1888.1999511719</ele>
        <time>2012-07-01T08:32:27Z</time>
      </trkpt>
      <trkpt lat="45.51823" lon="6.67349">
        <ele>1888.1999511719</ele>
        <time>2012-07-01T08:32:32Z</time>
      </trkpt>
      <trkpt lat="45.51831" lon="6.6734">
        <ele>1885.8000488281</ele>
        <time>2012-07-01T08:32:37Z</time>
      </trkpt>
      <trkpt lat="45.51841" lon="6.67338">
        <ele>1885.8000488281</ele>
        <time>2012-07-01T08:32:42Z</time>
      </trkpt>
      <trkpt lat="45.519" lon="6.67292">
        <ele>1885.8000488281</ele>
        <time>2012-07-01T08:33:10Z</time>
      </trkpt>
      <trkpt lat="45.51905" lon="6.67285">
        <ele>1883.5999755859</ele>
        <time>2012-07-01T08:33:13Z</time>
      </trkpt>
      <trkpt lat="45.51909" lon="6.67277">
        <ele>1882.5999755859</ele>
        <time>2012-07-01T08:33:16Z</time>
      </trkpt>
      <trkpt lat="45.51911" lon="6.67275">
        <ele>1881.4000244141</ele>
        <time>2012-07-01T08:33:17Z</time>
      </trkpt>
      <trkpt lat="45.51917" lon="6.67264">
        <ele>1880.4000244141</ele>
        <time>2012-07-01T08:33:21Z</time>
      </trkpt>
      <trkpt lat="45.51921" lon="6.67259">
        <ele>1879.4000244141</ele>
        <time>2012-07-01T08:33:23Z</time>
      </trkpt>
      <trkpt lat="45.51928" lon="6.67247">
        <ele>1878.4000244141</ele>
        <time>2012-07-01T08:33:28Z</time>
      </trkpt>
      <trkpt lat="45.5193" lon="6.67244">
        <ele>1877.4000244141</ele>
        <time>2012-07-01T08:33:29Z</time>
      </trkpt>
      <trkpt lat="45.5194" lon="6.67225">
        <ele>1875.1999511719</ele>
        <time>2012-07-01T08:33:36Z</time>
      </trkpt>
      <trkpt lat="45.51954" lon="6.67179">
        <ele>1874.1999511719</ele>
        <time>2012-07-01T08:33:50Z</time>
      </trkpt>
      <trkpt lat="45.51956" lon="6.67173">
        <ele>1874.1999511719</ele>
        <time>2012-07-01T08:33:52Z</time>
      </trkpt>
      <trkpt lat="45.51967" lon="6.67148">
        <ele>1873.1999511719</ele>
        <time>2012-07-01T08:34:00Z</time>
      </trkpt>
      <trkpt lat="45.51975" lon="6.67134">
        <ele>1872</ele>
        <time>2012-07-01T08:34:06Z</time>
      </trkpt>
      <trkpt lat="45.51983" lon="6.67128">
        <ele>1872</ele>
        <time>2012-07-01T08:34:10Z</time>
      </trkpt>
      <trkpt lat="45.51985" lon="6.67128">
        <ele>1871</ele>
        <time>2012-07-01T08:34:11Z</time>
      </trkpt>
      <trkpt lat="45.51992" lon="6.67125">
        <ele>1869.5999755859</ele>
        <time>2012-07-01T08:34:14Z</time>
      </trkpt>
      <trkpt lat="45.51996" lon="6.67121">
        <ele>1868.4000244141</ele>
        <time>2012-07-01T08:34:16Z</time>
      </trkpt>
      <trkpt lat="45.52018" lon="6.67095">
        <ele>1863.8000488281</ele>
        <time>2012-07-01T08:34:27Z</time>
      </trkpt>
      <trkpt lat="45.5202" lon="6.67092">
        <ele>1863.8000488281</ele>
        <time>2012-07-01T08:34:28Z</time>
      </trkpt>
      <trkpt lat="45.52032" lon="6.67057">
        <ele>1863.8000488281</ele>
        <time>2012-07-01T08:34:39Z</time>
      </trkpt>
      <trkpt lat="45.52037" lon="6.67038">
        <ele>1863.8000488281</ele>
        <time>2012-07-01T08:34:45Z</time>
      </trkpt>
      <trkpt lat="45.5204" lon="6.6702">
        <ele>1866</ele>
        <time>2012-07-01T08:34:51Z</time>
      </trkpt>
      <trkpt lat="45.5204" lon="6.67014">
        <ele>1867.1999511719</ele>
        <time>2012-07-01T08:34:53Z</time>
      </trkpt>
      <trkpt lat="45.52042" lon="6.67002">
        <ele>1867.1999511719</ele>
        <time>2012-07-01T08:34:59Z</time>
      </trkpt>
      <trkpt lat="45.52042" lon="6.66999">
        <ele>1868.4000244141</ele>
        <time>2012-07-01T08:35:02Z</time>
      </trkpt>
      <trkpt lat="45.52042" lon="6.67">
        <ele>1868.4000244141</ele>
        <time>2012-07-01T08:35:09Z</time>
      </trkpt>
      <trkpt lat="45.52041" lon="6.66976">
        <ele>1869.4000244141</ele>
        <time>2012-07-01T08:35:27Z</time>
      </trkpt>
      <trkpt lat="45.52043" lon="6.66961">
        <ele>1869.4000244141</ele>
        <time>2012-07-01T08:35:32Z</time>
      </trkpt>
      <trkpt lat="45.52049" lon="6.66933">
        <ele>1869.4000244141</ele>
        <time>2012-07-01T08:35:43Z</time>
      </trkpt>
      <trkpt lat="45.5205" lon="6.66928">
        <ele>1869.4000244141</ele>
        <time>2012-07-01T08:35:47Z</time>
      </trkpt>
      <trkpt lat="45.52051" lon="6.66923">
        <ele>1866.4000244141</ele>
        <time>2012-07-01T08:35:50Z</time>
      </trkpt>
      <trkpt lat="45.52052" lon="6.66922">
        <ele>1866.4000244141</ele>
        <time>2012-07-01T08:35:51Z</time>
      </trkpt>
      <trkpt lat="45.52055" lon="6.66916">
        <ele>1865.4000244141</ele>
        <time>2012-07-01T08:35:56Z</time>
      </trkpt>
      <trkpt lat="45.52056" lon="6.66916">
        <ele>1864.1999511719</ele>
        <time>2012-07-01T08:35:57Z</time>
      </trkpt>
      <trkpt lat="45.5207" lon="6.66909">
        <ele>1862.1999511719</ele>
        <time>2012-07-01T08:36:08Z</time>
      </trkpt>
      <trkpt lat="45.52076" lon="6.66912">
        <ele>1860.8000488281</ele>
        <time>2012-07-01T08:36:11Z</time>
      </trkpt>
      <trkpt lat="45.52088" lon="6.66919">
        <ele>1860.8000488281</ele>
        <time>2012-07-01T08:36:17Z</time>
      </trkpt>
      <trkpt lat="45.52092" lon="6.66921">
        <ele>1859.5999755859</ele>
        <time>2012-07-01T08:36:19Z</time>
      </trkpt>
      <trkpt lat="45.52097" lon="6.66925">
        <ele>1858.4000244141</ele>
        <time>2012-07-01T08:36:22Z</time>
      </trkpt>
      <trkpt lat="45.52104" lon="6.66929">
        <ele>1856.4000244141</ele>
        <time>2012-07-01T08:36:26Z</time>
      </trkpt>
      <trkpt lat="45.52106" lon="6.6693">
        <ele>1855.4000244141</ele>
        <time>2012-07-01T08:36:31Z</time>
      </trkpt>
      <trkpt lat="45.52107" lon="6.66931">
        <ele>1855.4000244141</ele>
        <time>2012-07-01T08:36:32Z</time>
      </trkpt>
      <trkpt lat="45.52112" lon="6.66935">
        <ele>1854.1999511719</ele>
        <time>2012-07-01T08:36:35Z</time>
      </trkpt>
      <trkpt lat="45.52115" lon="6.66939">
        <ele>1852</ele>
        <time>2012-07-01T08:36:38Z</time>
      </trkpt>
      <trkpt lat="45.52117" lon="6.66942">
        <ele>1850.8000488281</ele>
        <time>2012-07-01T08:36:40Z</time>
      </trkpt>
      <trkpt lat="45.52118" lon="6.66944">
        <ele>1849.5999755859</ele>
        <time>2012-07-01T08:36:42Z</time>
      </trkpt>
      <trkpt lat="45.52119" lon="6.66945">
        <ele>1848.4000244141</ele>
        <time>2012-07-01T08:36:45Z</time>
      </trkpt>
      <trkpt lat="45.52123" lon="6.66949">
        <ele>1847.1999511719</ele>
        <time>2012-07-01T08:36:48Z</time>
      </trkpt>
      <trkpt lat="45.5213" lon="6.66958">
        <ele>1846.1999511719</ele>
        <time>2012-07-01T08:36:52Z</time>
      </trkpt>
      <trkpt lat="45.52135" lon="6.66966">
        <ele>1846.1999511719</ele>
        <time>2012-07-01T08:36:56Z</time>
      </trkpt>
      <trkpt lat="45.52137" lon="6.66967">
        <ele>1846.1999511719</ele>
        <time>2012-07-01T08:36:57Z</time>
      </trkpt>
      <trkpt lat="45.52153" lon="6.66962">
        <ele>1843.8000488281</ele>
        <time>2012-07-01T08:37:09Z</time>
      </trkpt>
      <trkpt lat="45.52153" lon="6.66962">
        <ele>1843.8000488281</ele>
        <time>2012-07-01T08:37:10Z</time>
      </trkpt>
      <trkpt lat="45.52156" lon="6.66961">
        <ele>1843.8000488281</ele>
        <time>2012-07-01T08:37:15Z</time>
      </trkpt>
      <trkpt lat="45.52157" lon="6.66962">
        <ele>1843.8000488281</ele>
        <time>2012-07-01T08:37:19Z</time>
      </trkpt>
      <trkpt lat="45.52162" lon="6.66961">
        <ele>1842.8000488281</ele>
        <time>2012-07-01T08:37:29Z</time>
      </trkpt>
      <trkpt lat="45.52165" lon="6.66961">
        <ele>1842.8000488281</ele>
        <time>2012-07-01T08:37:31Z</time>
      </trkpt>
      <trkpt lat="45.5217" lon="6.66962">
        <ele>1839.1999511719</ele>
        <time>2012-07-01T08:37:35Z</time>
      </trkpt>
      <trkpt lat="45.52172" lon="6.66962">
        <ele>1838.1999511719</ele>
        <time>2012-07-01T08:37:37Z</time>
      </trkpt>
      <trkpt lat="45.52174" lon="6.6696">
        <ele>1837</ele>
        <time>2012-07-01T08:37:40Z</time>
      </trkpt>
      <trkpt lat="45.52184" lon="6.66954">
        <ele>1835</ele>
        <time>2012-07-01T08:37:49Z</time>
      </trkpt>
      <trkpt lat="45.52186" lon="6.66953">
        <ele>1835</ele>
        <time>2012-07-01T08:37:50Z</time>
      </trkpt>
      <trkpt lat="45.52192" lon="6.66945">
        <ele>1834</ele>
        <time>2012-07-01T08:37:54Z</time>
      </trkpt>
      <trkpt lat="45.52192" lon="6.66943">
        <ele>1832.8000488281</ele>
        <time>2012-07-01T08:37:55Z</time>
      </trkpt>
      <trkpt lat="45.52194" lon="6.66931">
        <ele>1832.8000488281</ele>
        <time>2012-07-01T08:37:59Z</time>
      </trkpt>
      <trkpt lat="45.52195" lon="6.66928">
        <ele>1831.5999755859</ele>
        <time>2012-07-01T08:38:00Z</time>
      </trkpt>
      <trkpt lat="45.52197" lon="6.66912">
        <ele>1830.4000244141</ele>
        <time>2012-07-01T08:38:05Z</time>
      </trkpt>
      <trkpt lat="45.52196" lon="6.66909">
        <ele>1829.4000244141</ele>
        <time>2012-07-01T08:38:06Z</time>
      </trkpt>
      <trkpt lat="45.52198" lon="6.6688">
        <ele>1827.1999511719</ele>
        <time>2012-07-01T08:38:17Z</time>
      </trkpt>
      <trkpt lat="45.52199" lon="6.66877">
        <ele>1826</ele>
        <time>2012-07-01T08:38:18Z</time>
      </trkpt>
      <trkpt lat="45.52201" lon="6.66865">
        <ele>1824.8000488281</ele>
        <time>2012-07-01T08:38:22Z</time>
      </trkpt>
      <trkpt lat="45.52202" lon="6.66861">
        <ele>1824.8000488281</ele>
        <time>2012-07-01T08:38:23Z</time>
      </trkpt>
      <trkpt lat="45.5221" lon="6.66841">
        <ele>1822.1999511719</ele>
        <time>2012-07-01T08:38:30Z</time>
      </trkpt>
      <trkpt lat="45.52211" lon="6.66838">
        <ele>1822.1999511719</ele>
        <time>2012-07-01T08:38:31Z</time>
      </trkpt>
      <trkpt lat="45.52217" lon="6.66818">
        <ele>1820.1999511719</ele>
        <time>2012-07-01T08:38:38Z</time>
      </trkpt>
      <trkpt lat="45.52219" lon="6.66812">
        <ele>1820.1999511719</ele>
        <time>2012-07-01T08:38:40Z</time>
      </trkpt>
      <trkpt lat="45.52222" lon="6.66798">
        <ele>1818.5999755859</ele>
        <time>2012-07-01T08:38:44Z</time>
      </trkpt>
      <trkpt lat="45.52226" lon="6.66785">
        <ele>1817.1999511719</ele>
        <time>2012-07-01T08:38:49Z</time>
      </trkpt>
      <trkpt lat="45.52228" lon="6.66782">
        <ele>1817.1999511719</ele>
        <time>2012-07-01T08:38:50Z</time>
      </trkpt>
      <trkpt lat="45.52237" lon="6.66769">
        <ele>1814.8000488281</ele>
        <time>2012-07-01T08:38:56Z</time>
      </trkpt>
      <trkpt lat="45.52237" lon="6.66767">
        <ele>1814.8000488281</ele>
        <time>2012-07-01T08:38:57Z</time>
      </trkpt>
      <trkpt lat="45.5224" lon="6.6675">
        <ele>1813.8000488281</ele>
        <time>2012-07-01T08:39:02Z</time>
      </trkpt>
      <trkpt lat="45.52242" lon="6.6674">
        <ele>1813.8000488281</ele>
        <time>2012-07-01T08:39:06Z</time>
      </trkpt>
      <trkpt lat="45.52245" lon="6.66726">
        <ele>1813.8000488281</ele>
        <time>2012-07-01T08:39:10Z</time>
      </trkpt>
      <trkpt lat="45.52243" lon="6.66715">
        <ele>1813.8000488281</ele>
        <time>2012-07-01T08:39:13Z</time>
      </trkpt>
      <trkpt lat="45.52244" lon="6.66683">
        <ele>1811.5999755859</ele>
        <time>2012-07-01T08:39:21Z</time>
      </trkpt>
      <trkpt lat="45.52242" lon="6.66677">
        <ele>1811.5999755859</ele>
        <time>2012-07-01T08:39:23Z</time>
      </trkpt>
      <trkpt lat="45.52243" lon="6.66668">
        <ele>1808.8000488281</ele>
        <time>2012-07-01T08:39:26Z</time>
      </trkpt>
      <trkpt lat="45.52243" lon="6.66664">
        <ele>1807.8000488281</ele>
        <time>2012-07-01T08:39:28Z</time>
      </trkpt>
      <trkpt lat="45.52244" lon="6.66661">
        <ele>1805</ele>
        <time>2012-07-01T08:39:30Z</time>
      </trkpt>
      <trkpt lat="45.52245" lon="6.66657">
        <ele>1803</ele>
        <time>2012-07-01T08:39:32Z</time>
      </trkpt>
      <trkpt lat="45.52247" lon="6.66654">
        <ele>1801.5999755859</ele>
        <time>2012-07-01T08:39:34Z</time>
      </trkpt>
      <trkpt lat="45.52251" lon="6.6665">
        <ele>1800.4000244141</ele>
        <time>2012-07-01T08:39:39Z</time>
      </trkpt>
      <trkpt lat="45.52252" lon="6.66648">
        <ele>1799.1999511719</ele>
        <time>2012-07-01T08:39:41Z</time>
      </trkpt>
      <trkpt lat="45.52257" lon="6.66643">
        <ele>1798.1999511719</ele>
        <time>2012-07-01T08:39:48Z</time>
      </trkpt>
      <trkpt lat="45.52258" lon="6.66642">
        <ele>1796</ele>
        <time>2012-07-01T08:39:49Z</time>
      </trkpt>
      <trkpt lat="45.52263" lon="6.66638">
        <ele>1793.8000488281</ele>
        <time>2012-07-01T08:39:56Z</time>
      </trkpt>
      <trkpt lat="45.52266" lon="6.66638">
        <ele>1792.8000488281</ele>
        <time>2012-07-01T08:39:59Z</time>
      </trkpt>
      <trkpt lat="45.52268" lon="6.66636">
        <ele>1791.8000488281</ele>
        <time>2012-07-01T08:40:03Z</time>
      </trkpt>
      <trkpt lat="45.52269" lon="6.66636">
        <ele>1791.8000488281</ele>
        <time>2012-07-01T08:40:04Z</time>
      </trkpt>
      <trkpt lat="45.52272" lon="6.66634">
        <ele>1789.5999755859</ele>
        <time>2012-07-01T08:40:09Z</time>
      </trkpt>
      <trkpt lat="45.52273" lon="6.66634">
        <ele>1789.5999755859</ele>
        <time>2012-07-01T08:40:10Z</time>
      </trkpt>
      <trkpt lat="45.52297" lon="6.66656">
        <ele>1785.8000488281</ele>
        <time>2012-07-01T08:40:30Z</time>
      </trkpt>
      <trkpt lat="45.52299" lon="6.6666">
        <ele>1784.8000488281</ele>
        <time>2012-07-01T08:40:32Z</time>
      </trkpt>
      <trkpt lat="45.523" lon="6.66662">
        <ele>1784.8000488281</ele>
        <time>2012-07-01T08:40:37Z</time>
      </trkpt>
      <trkpt lat="45.523" lon="6.6666">
        <ele>1784.8000488281</ele>
        <time>2012-07-01T08:40:39Z</time>
      </trkpt>
      <trkpt lat="45.52301" lon="6.66658">
        <ele>1783.5999755859</ele>
        <time>2012-07-01T08:40:42Z</time>
      </trkpt>
      <trkpt lat="45.52303" lon="6.66656">
        <ele>1782.5999755859</ele>
        <time>2012-07-01T08:40:45Z</time>
      </trkpt>
      <trkpt lat="45.52305" lon="6.66654">
        <ele>1781.4000244141</ele>
        <time>2012-07-01T08:40:49Z</time>
      </trkpt>
      <trkpt lat="45.52306" lon="6.66653">
        <ele>1781.4000244141</ele>
        <time>2012-07-01T08:40:50Z</time>
      </trkpt>
      <trkpt lat="45.52307" lon="6.6665">
        <ele>1779</ele>
        <time>2012-07-01T08:40:55Z</time>
      </trkpt>
      <trkpt lat="45.5231" lon="6.6664">
        <ele>1778</ele>
        <time>2012-07-01T08:41:04Z</time>
      </trkpt>
      <trkpt lat="45.5231" lon="6.66639">
        <ele>1776.8000488281</ele>
        <time>2012-07-01T08:41:05Z</time>
      </trkpt>
      <trkpt lat="45.52313" lon="6.66638">
        <ele>1775.8000488281</ele>
        <time>2012-07-01T08:41:09Z</time>
      </trkpt>
      <trkpt lat="45.52316" lon="6.66636">
        <ele>1774.4000244141</ele>
        <time>2012-07-01T08:41:13Z</time>
      </trkpt>
      <trkpt lat="45.52317" lon="6.66634">
        <ele>1773.4000244141</ele>
        <time>2012-07-01T08:41:16Z</time>
      </trkpt>
      <trkpt lat="45.5232" lon="6.66633">
        <ele>1772.4000244141</ele>
        <time>2012-07-01T08:41:19Z</time>
      </trkpt>
      <trkpt lat="45.52323" lon="6.66635">
        <ele>1771.4000244141</ele>
        <time>2012-07-01T08:41:22Z</time>
      </trkpt>
      <trkpt lat="45.52326" lon="6.66638">
        <ele>1770.4000244141</ele>
        <time>2012-07-01T08:41:24Z</time>
      </trkpt>
      <trkpt lat="45.52334" lon="6.66649">
        <ele>1767.1999511719</ele>
        <time>2012-07-01T08:41:34Z</time>
      </trkpt>
      <trkpt lat="45.52335" lon="6.66651">
        <ele>1767.1999511719</ele>
        <time>2012-07-01T08:41:35Z</time>
      </trkpt>
      <trkpt lat="45.52338" lon="6.66656">
        <ele>1765.8000488281</ele>
        <time>2012-07-01T08:41:39Z</time>
      </trkpt>
      <trkpt lat="45.5234" lon="6.66658">
        <ele>1764.5999755859</ele>
        <time>2012-07-01T08:41:41Z</time>
      </trkpt>
      <trkpt lat="45.52345" lon="6.66664">
        <ele>1762.4000244141</ele>
        <time>2012-07-01T08:41:46Z</time>
      </trkpt>
      <trkpt lat="45.52346" lon="6.66665">
        <ele>1762.4000244141</ele>
        <time>2012-07-01T08:41:47Z</time>
      </trkpt>
      <trkpt lat="45.52349" lon="6.66667">
        <ele>1761.4000244141</ele>
        <time>2012-07-01T08:41:51Z</time>
      </trkpt>
      <trkpt lat="45.52351" lon="6.66669">
        <ele>1760.1999511719</ele>
        <time>2012-07-01T08:41:53Z</time>
      </trkpt>
      <trkpt lat="45.52357" lon="6.66672">
        <ele>1758</ele>
        <time>2012-07-01T08:41:59Z</time>
      </trkpt>
      <trkpt lat="45.52363" lon="6.66676">
        <ele>1755.8000488281</ele>
        <time>2012-07-01T08:42:05Z</time>
      </trkpt>
      <trkpt lat="45.52364" lon="6.66676">
        <ele>1755.8000488281</ele>
        <time>2012-07-01T08:42:07Z</time>
      </trkpt>
      <trkpt lat="45.52369" lon="6.6668">
        <ele>1753.8000488281</ele>
        <time>2012-07-01T08:42:11Z</time>
      </trkpt>
      <trkpt lat="45.52372" lon="6.66681">
        <ele>1752.5999755859</ele>
        <time>2012-07-01T08:42:13Z</time>
      </trkpt>
      <trkpt lat="45.52375" lon="6.66683">
        <ele>1751.4000244141</ele>
        <time>2012-07-01T08:42:15Z</time>
      </trkpt>
      <trkpt lat="45.52376" lon="6.66684">
        <ele>1750.4000244141</ele>
        <time>2012-07-01T08:42:16Z</time>
      </trkpt>
      <trkpt lat="45.52383" lon="6.66689">
        <ele>1749.1999511719</ele>
        <time>2012-07-01T08:42:20Z</time>
      </trkpt>
      <trkpt lat="45.52384" lon="6.6669">
        <ele>1748.1999511719</ele>
        <time>2012-07-01T08:42:21Z</time>
      </trkpt>
      <trkpt lat="45.52398" lon="6.66709">
        <ele>1744.1999511719</ele>
        <time>2012-07-01T08:42:31Z</time>
      </trkpt>
      <trkpt lat="45.524" lon="6.66717">
        <ele>1742.5999755859</ele>
        <time>2012-07-01T08:42:34Z</time>
      </trkpt>
      <trkpt lat="45.52405" lon="6.66728">
        <ele>1741.5999755859</ele>
        <time>2012-07-01T08:42:38Z</time>
      </trkpt>
      <trkpt lat="45.52406" lon="6.66731">
        <ele>1741.5999755859</ele>
        <time>2012-07-01T08:42:39Z</time>
      </trkpt>
      <trkpt lat="45.5241" lon="6.66743">
        <ele>1739.4000244141</ele>
        <time>2012-07-01T08:42:43Z</time>
      </trkpt>
      <trkpt lat="45.52414" lon="6.6675">
        <ele>1738.1999511719</ele>
        <time>2012-07-01T08:42:45Z</time>
      </trkpt>
      <trkpt lat="45.52418" lon="6.66766">
        <ele>1737</ele>
        <time>2012-07-01T08:42:50Z</time>
      </trkpt>
      <trkpt lat="45.52418" lon="6.66769">
        <ele>1735.8000488281</ele>
        <time>2012-07-01T08:42:51Z</time>
      </trkpt>
      <trkpt lat="45.52422" lon="6.66786">
        <ele>1734.4000244141</ele>
        <time>2012-07-01T08:42:56Z</time>
      </trkpt>
      <trkpt lat="45.5242" lon="6.66803">
        <ele>1731.4000244141</ele>
        <time>2012-07-01T08:43:02Z</time>
      </trkpt>
      <trkpt lat="45.5242" lon="6.6681">
        <ele>1730</ele>
        <time>2012-07-01T08:43:04Z</time>
      </trkpt>
      <trkpt lat="45.52421" lon="6.66819">
        <ele>1727.8000488281</ele>
        <time>2012-07-01T08:43:07Z</time>
      </trkpt>
      <trkpt lat="45.52422" lon="6.66832">
        <ele>1726.5999755859</ele>
        <time>2012-07-01T08:43:12Z</time>
      </trkpt>
      <trkpt lat="45.52424" lon="6.66838">
        <ele>1725.5999755859</ele>
        <time>2012-07-01T08:43:14Z</time>
      </trkpt>
      <trkpt lat="45.52426" lon="6.66844">
        <ele>1724.5999755859</ele>
        <time>2012-07-01T08:43:16Z</time>
      </trkpt>
      <trkpt lat="45.52428" lon="6.66849">
        <ele>1723.1999511719</ele>
        <time>2012-07-01T08:43:18Z</time>
      </trkpt>
      <trkpt lat="45.52432" lon="6.66858">
        <ele>1722</ele>
        <time>2012-07-01T08:43:21Z</time>
      </trkpt>
      <trkpt lat="45.52439" lon="6.66838">
        <ele>1718.5999755859</ele>
        <time>2012-07-01T08:43:31Z</time>
      </trkpt>
      <trkpt lat="45.52439" lon="6.66835">
        <ele>1717.4000244141</ele>
        <time>2012-07-01T08:43:32Z</time>
      </trkpt>
      <trkpt lat="45.52441" lon="6.66819">
        <ele>1715.1999511719</ele>
        <time>2012-07-01T08:43:37Z</time>
      </trkpt>
      <trkpt lat="45.52442" lon="6.66816">
        <ele>1715.1999511719</ele>
        <time>2012-07-01T08:43:38Z</time>
      </trkpt>
      <trkpt lat="45.52451" lon="6.66799">
        <ele>1714</ele>
        <time>2012-07-01T08:43:44Z</time>
      </trkpt>
      <trkpt lat="45.52452" lon="6.66797">
        <ele>1714</ele>
        <time>2012-07-01T08:43:45Z</time>
      </trkpt>
      <trkpt lat="45.52454" lon="6.66792">
        <ele>1711.8000488281</ele>
        <time>2012-07-01T08:43:47Z</time>
      </trkpt>
      <trkpt lat="45.52456" lon="6.66786">
        <ele>1710.5999755859</ele>
        <time>2012-07-01T08:43:49Z</time>
      </trkpt>
      <trkpt lat="45.52459" lon="6.66779">
        <ele>1709.5999755859</ele>
        <time>2012-07-01T08:43:51Z</time>
      </trkpt>
      <trkpt lat="45.52468" lon="6.6676">
        <ele>1707.4000244141</ele>
        <time>2012-07-01T08:43:58Z</time>
      </trkpt>
      <trkpt lat="45.5247" lon="6.66758">
        <ele>1706.4000244141</ele>
        <time>2012-07-01T08:43:59Z</time>
      </trkpt>
      <trkpt lat="45.52473" lon="6.66752">
        <ele>1705.1999511719</ele>
        <time>2012-07-01T08:44:01Z</time>
      </trkpt>
      <trkpt lat="45.52476" lon="6.66747">
        <ele>1703.8000488281</ele>
        <time>2012-07-01T08:44:03Z</time>
      </trkpt>
      <trkpt lat="45.52483" lon="6.66739">
        <ele>1702.8000488281</ele>
        <time>2012-07-01T08:44:08Z</time>
      </trkpt>
      <trkpt lat="45.52483" lon="6.66739">
        <ele>1702.8000488281</ele>
        <time>2012-07-01T08:44:10Z</time>
      </trkpt>
      <trkpt lat="45.52484" lon="6.66737">
        <ele>1700.8000488281</ele>
        <time>2012-07-01T08:44:19Z</time>
      </trkpt>
      <trkpt lat="45.52489" lon="6.66736">
        <ele>1699.4000244141</ele>
        <time>2012-07-01T08:44:22Z</time>
      </trkpt>
      <trkpt lat="45.52501" lon="6.66745">
        <ele>1694.5999755859</ele>
        <time>2012-07-01T08:44:32Z</time>
      </trkpt>
      <trkpt lat="45.52503" lon="6.66753">
        <ele>1692.4000244141</ele>
        <time>2012-07-01T08:44:35Z</time>
      </trkpt>
      <trkpt lat="45.52504" lon="6.66761">
        <ele>1692.4000244141</ele>
        <time>2012-07-01T08:44:38Z</time>
      </trkpt>
      <trkpt lat="45.52505" lon="6.66764">
        <ele>1690.8000488281</ele>
        <time>2012-07-01T08:44:39Z</time>
      </trkpt>
      <trkpt lat="45.52506" lon="6.66775">
        <ele>1688.8000488281</ele>
        <time>2012-07-01T08:44:43Z</time>
      </trkpt>
      <trkpt lat="45.52508" lon="6.66783">
        <ele>1687.8000488281</ele>
        <time>2012-07-01T08:44:46Z</time>
      </trkpt>
      <trkpt lat="45.5251" lon="6.66792">
        <ele>1685</ele>
        <time>2012-07-01T08:44:49Z</time>
      </trkpt>
      <trkpt lat="45.52511" lon="6.66799">
        <ele>1683.8000488281</ele>
        <time>2012-07-01T08:44:51Z</time>
      </trkpt>
      <trkpt lat="45.52511" lon="6.66808">
        <ele>1682.8000488281</ele>
        <time>2012-07-01T08:44:54Z</time>
      </trkpt>
      <trkpt lat="45.52511" lon="6.6683">
        <ele>1680.1999511719</ele>
        <time>2012-07-01T08:45:00Z</time>
      </trkpt>
      <trkpt lat="45.52511" lon="6.6684">
        <ele>1678.8000488281</ele>
        <time>2012-07-01T08:45:03Z</time>
      </trkpt>
      <trkpt lat="45.52511" lon="6.66851">
        <ele>1677.5999755859</ele>
        <time>2012-07-01T08:45:06Z</time>
      </trkpt>
      <trkpt lat="45.52511" lon="6.66854">
        <ele>1677.5999755859</ele>
        <time>2012-07-01T08:45:07Z</time>
      </trkpt>
      <trkpt lat="45.52512" lon="6.66872">
        <ele>1675.5999755859</ele>
        <time>2012-07-01T08:45:12Z</time>
      </trkpt>
      <trkpt lat="45.52513" lon="6.66882">
        <ele>1674.4000244141</ele>
        <time>2012-07-01T08:45:15Z</time>
      </trkpt>
      <trkpt lat="45.52516" lon="6.66904">
        <ele>1672.4000244141</ele>
        <time>2012-07-01T08:45:21Z</time>
      </trkpt>
      <trkpt lat="45.52517" lon="6.66914">
        <ele>1671.1999511719</ele>
        <time>2012-07-01T08:45:24Z</time>
      </trkpt>
      <trkpt lat="45.52519" lon="6.66956">
        <ele>1666.8000488281</ele>
        <time>2012-07-01T08:45:36Z</time>
      </trkpt>
      <trkpt lat="45.52518" lon="6.6697">
        <ele>1665.8000488281</ele>
        <time>2012-07-01T08:45:40Z</time>
      </trkpt>
      <trkpt lat="45.52514" lon="6.66987">
        <ele>1664.4000244141</ele>
        <time>2012-07-01T08:45:45Z</time>
      </trkpt>
      <trkpt lat="45.52514" lon="6.6699">
        <ele>1663.1999511719</ele>
        <time>2012-07-01T08:45:46Z</time>
      </trkpt>
      <trkpt lat="45.52509" lon="6.67008">
        <ele>1661</ele>
        <time>2012-07-01T08:45:52Z</time>
      </trkpt>
      <trkpt lat="45.52505" lon="6.67021">
        <ele>1661</ele>
        <time>2012-07-01T08:45:56Z</time>
      </trkpt>
      <trkpt lat="45.52502" lon="6.67037">
        <ele>1658.5999755859</ele>
        <time>2012-07-01T08:46:01Z</time>
      </trkpt>
      <trkpt lat="45.52502" lon="6.67043">
        <ele>1658.5999755859</ele>
        <time>2012-07-01T08:46:03Z</time>
      </trkpt>
      <trkpt lat="45.52501" lon="6.67061">
        <ele>1657.4000244141</ele>
        <time>2012-07-01T08:46:08Z</time>
      </trkpt>
      <trkpt lat="45.52497" lon="6.67082">
        <ele>1655.1999511719</ele>
        <time>2012-07-01T08:46:14Z</time>
      </trkpt>
      <trkpt lat="45.52496" lon="6.67085">
        <ele>1654</ele>
        <time>2012-07-01T08:46:15Z</time>
      </trkpt>
      <trkpt lat="45.52492" lon="6.67109">
        <ele>1651.8000488281</ele>
        <time>2012-07-01T08:46:22Z</time>
      </trkpt>
      <trkpt lat="45.52493" lon="6.67113">
        <ele>1651.8000488281</ele>
        <time>2012-07-01T08:46:23Z</time>
      </trkpt>
      <trkpt lat="45.52497" lon="6.67123">
        <ele>1650.5999755859</ele>
        <time>2012-07-01T08:46:26Z</time>
      </trkpt>
      <trkpt lat="45.52502" lon="6.67131">
        <ele>1650.5999755859</ele>
        <time>2012-07-01T08:46:29Z</time>
      </trkpt>
      <trkpt lat="45.52506" lon="6.67143">
        <ele>1648.5999755859</ele>
        <time>2012-07-01T08:46:34Z</time>
      </trkpt>
      <trkpt lat="45.52506" lon="6.67146">
        <ele>1647.4000244141</ele>
        <time>2012-07-01T08:46:35Z</time>
      </trkpt>
      <trkpt lat="45.52521" lon="6.6719">
        <ele>1643</ele>
        <time>2012-07-01T08:46:49Z</time>
      </trkpt>
      <trkpt lat="45.52524" lon="6.67205">
        <ele>1643</ele>
        <time>2012-07-01T08:46:54Z</time>
      </trkpt>
      <trkpt lat="45.52531" lon="6.67228">
        <ele>1640.8000488281</ele>
        <time>2012-07-01T08:47:01Z</time>
      </trkpt>
      <trkpt lat="45.5254" lon="6.67236">
        <ele>1640.8000488281</ele>
        <time>2012-07-01T08:47:06Z</time>
      </trkpt>
      <trkpt lat="45.52547" lon="6.67238">
        <ele>1638.5999755859</ele>
        <time>2012-07-01T08:47:10Z</time>
      </trkpt>
      <trkpt lat="45.5255" lon="6.6724">
        <ele>1637.5999755859</ele>
        <time>2012-07-01T08:47:12Z</time>
      </trkpt>
      <trkpt lat="45.52558" lon="6.67246">
        <ele>1636.1999511719</ele>
        <time>2012-07-01T08:47:15Z</time>
      </trkpt>
      <trkpt lat="45.52565" lon="6.67254">
        <ele>1636.1999511719</ele>
        <time>2012-07-01T08:47:19Z</time>
      </trkpt>
      <trkpt lat="45.52574" lon="6.6727">
        <ele>1635.1999511719</ele>
        <time>2012-07-01T08:47:26Z</time>
      </trkpt>
      <trkpt lat="45.52592" lon="6.67285">
        <ele>1635.1999511719</ele>
        <time>2012-07-01T08:47:37Z</time>
      </trkpt>
      <trkpt lat="45.52596" lon="6.67278">
        <ele>1635.1999511719</ele>
        <time>2012-07-01T08:47:40Z</time>
      </trkpt>
      <trkpt lat="45.5261" lon="6.67272">
        <ele>1635.1999511719</ele>
        <time>2012-07-01T08:47:47Z</time>
      </trkpt>
      <trkpt lat="45.52624" lon="6.67273">
        <ele>1635.1999511719</ele>
        <time>2012-07-01T08:47:53Z</time>
      </trkpt>
      <trkpt lat="45.52648" lon="6.67273">
        <ele>1633</ele>
        <time>2012-07-01T08:48:03Z</time>
      </trkpt>
      <trkpt lat="45.52655" lon="6.67271">
        <ele>1633</ele>
        <time>2012-07-01T08:48:06Z</time>
      </trkpt>
      <trkpt lat="45.52667" lon="6.67267">
        <ele>1633</ele>
        <time>2012-07-01T08:48:11Z</time>
      </trkpt>
      <trkpt lat="45.52683" lon="6.67261">
        <ele>1633</ele>
        <time>2012-07-01T08:48:18Z</time>
      </trkpt>
      <trkpt lat="45.52696" lon="6.67258">
        <ele>1633</ele>
        <time>2012-07-01T08:48:38Z</time>
      </trkpt>
      <trkpt lat="45.52695" lon="6.67258">
        <ele>1633</ele>
        <time>2012-07-01T08:48:43Z</time>
      </trkpt>
      <trkpt lat="45.52696" lon="6.67259">
        <ele>1633</ele>
        <time>2012-07-01T08:48:56Z</time>
      </trkpt>
      <trkpt lat="45.52696" lon="6.67259">
        <ele>1633</ele>
        <time>2012-07-01T08:49:01Z</time>
      </trkpt>
      <trkpt lat="45.52697" lon="6.67259">
        <ele>1633</ele>
        <time>2012-07-01T08:49:08Z</time>
      </trkpt>
      <trkpt lat="45.52696" lon="6.67259">
        <ele>1633</ele>
        <time>2012-07-01T08:49:11Z</time>
      </trkpt>
      <trkpt lat="45.52696" lon="6.67259">
        <ele>1632</ele>
        <time>2012-07-01T08:49:18Z</time>
      </trkpt>
      <trkpt lat="45.52689" lon="6.67259">
        <ele>1630.8000488281</ele>
        <time>2012-07-01T08:49:24Z</time>
      </trkpt>
      <trkpt lat="45.5267" lon="6.67266">
        <ele>1629.5999755859</ele>
        <time>2012-07-01T08:49:35Z</time>
      </trkpt>
      <trkpt lat="45.52654" lon="6.6727">
        <ele>1629.5999755859</ele>
        <time>2012-07-01T08:49:43Z</time>
      </trkpt>
      <trkpt lat="45.52651" lon="6.6726">
        <ele>1629.5999755859</ele>
        <time>2012-07-01T08:49:46Z</time>
      </trkpt>
      <trkpt lat="45.52644" lon="6.67235">
        <ele>1629.5999755859</ele>
        <time>2012-07-01T08:49:53Z</time>
      </trkpt>
      <trkpt lat="45.5264" lon="6.67212">
        <ele>1629.5999755859</ele>
        <time>2012-07-01T08:50:00Z</time>
      </trkpt>
      <trkpt lat="45.52637" lon="6.67203">
        <ele>1629.5999755859</ele>
        <time>2012-07-01T08:50:10Z</time>
      </trkpt>
      <trkpt lat="45.52638" lon="6.672">
        <ele>1629.5999755859</ele>
        <time>2012-07-01T08:50:11Z</time>
      </trkpt>
      <trkpt lat="45.52637" lon="6.67196">
        <ele>1629.5999755859</ele>
        <time>2012-07-01T08:50:19Z</time>
      </trkpt>
      <trkpt lat="45.5264" lon="6.67192">
        <ele>1629.5999755859</ele>
        <time>2012-07-01T08:50:25Z</time>
      </trkpt>
      <trkpt lat="45.52634" lon="6.67184">
        <ele>1625.4000244141</ele>
        <time>2012-07-01T08:50:44Z</time>
      </trkpt>
      <trkpt lat="45.52631" lon="6.67184">
        <ele>1624.4000244141</ele>
        <time>2012-07-01T08:50:47Z</time>
      </trkpt>
      <trkpt lat="45.52628" lon="6.67182">
        <ele>1623.1999511719</ele>
        <time>2012-07-01T08:50:51Z</time>
      </trkpt>
      <trkpt lat="45.52627" lon="6.67183">
        <ele>1623.1999511719</ele>
        <time>2012-07-01T08:50:56Z</time>
      </trkpt>
      <trkpt lat="45.52624" lon="6.67187">
        <ele>1622.1999511719</ele>
        <time>2012-07-01T08:51:08Z</time>
      </trkpt>
      <trkpt lat="45.52619" lon="6.67188">
        <ele>1622.1999511719</ele>
        <time>2012-07-01T08:51:15Z</time>
      </trkpt>
      <trkpt lat="45.52614" lon="6.67184">
        <ele>1620.8000488281</ele>
        <time>2012-07-01T08:51:20Z</time>
      </trkpt>
      <trkpt lat="45.52612" lon="6.67184">
        <ele>1620.8000488281</ele>
        <time>2012-07-01T08:51:22Z</time>
      </trkpt>
      <trkpt lat="45.52607" lon="6.67183">
        <ele>1619.8000488281</ele>
        <time>2012-07-01T08:51:27Z</time>
      </trkpt>
      <trkpt lat="45.52599" lon="6.67186">
        <ele>1617.8000488281</ele>
        <time>2012-07-01T08:51:34Z</time>
      </trkpt>
      <trkpt lat="45.52598" lon="6.67187">
        <ele>1617.8000488281</ele>
        <time>2012-07-01T08:51:35Z</time>
      </trkpt>
      <trkpt lat="45.52593" lon="6.67194">
        <ele>1617.8000488281</ele>
        <time>2012-07-01T08:51:42Z</time>
      </trkpt>
      <trkpt lat="45.5259" lon="6.67194">
        <ele>1617.8000488281</ele>
        <time>2012-07-01T08:51:45Z</time>
      </trkpt>
      <trkpt lat="45.52588" lon="6.67193">
        <ele>1617.8000488281</ele>
        <time>2012-07-01T08:51:48Z</time>
      </trkpt>
      <trkpt lat="45.52585" lon="6.67191">
        <ele>1616.5999755859</ele>
        <time>2012-07-01T08:51:50Z</time>
      </trkpt>
      <trkpt lat="45.52585" lon="6.67185">
        <ele>1615.5999755859</ele>
        <time>2012-07-01T08:51:53Z</time>
      </trkpt>
      <trkpt lat="45.52585" lon="6.67183">
        <ele>1615.5999755859</ele>
        <time>2012-07-01T08:51:54Z</time>
      </trkpt>
      <trkpt lat="45.52584" lon="6.67165">
        <ele>1614.1999511719</ele>
        <time>2012-07-01T08:52:01Z</time>
      </trkpt>
      <trkpt lat="45.52584" lon="6.67158">
        <ele>1614.1999511719</ele>
        <time>2012-07-01T08:52:04Z</time>
      </trkpt>
      <trkpt lat="45.52594" lon="6.67149">
        <ele>1614.1999511719</ele>
        <time>2012-07-01T08:52:13Z</time>
      </trkpt>
      <trkpt lat="45.52598" lon="6.67146">
        <ele>1614.1999511719</ele>
        <time>2012-07-01T08:52:17Z</time>
      </trkpt>
      <trkpt lat="45.52608" lon="6.67134">
        <ele>1614.1999511719</ele>
        <time>2012-07-01T08:52:23Z</time>
      </trkpt>
      <trkpt lat="45.52609" lon="6.67131">
        <ele>1614.1999511719</ele>
        <time>2012-07-01T08:52:24Z</time>
      </trkpt>
      <trkpt lat="45.52613" lon="6.6712">
        <ele>1614.1999511719</ele>
        <time>2012-07-01T08:52:29Z</time>
      </trkpt>
      <trkpt lat="45.52616" lon="6.67116">
        <ele>1614.1999511719</ele>
        <time>2012-07-01T08:52:32Z</time>
      </trkpt>
      <trkpt lat="45.5262" lon="6.67111">
        <ele>1614.1999511719</ele>
        <time>2012-07-01T08:52:36Z</time>
      </trkpt>
      <trkpt lat="45.52628" lon="6.67097">
        <ele>1614.1999511719</ele>
        <time>2012-07-01T08:52:47Z</time>
      </trkpt>
      <trkpt lat="45.52629" lon="6.67091">
        <ele>1612.1999511719</ele>
        <time>2012-07-01T08:52:51Z</time>
      </trkpt>
      <trkpt lat="45.52631" lon="6.67088">
        <ele>1612.1999511719</ele>
        <time>2012-07-01T08:52:54Z</time>
      </trkpt>
      <trkpt lat="45.52631" lon="6.67087">
        <ele>1611.1999511719</ele>
        <time>2012-07-01T08:52:55Z</time>
      </trkpt>
      <trkpt lat="45.52627" lon="6.67078">
        <ele>1610.1999511719</ele>
        <time>2012-07-01T08:52:59Z</time>
      </trkpt>
      <trkpt lat="45.52624" lon="6.67077">
        <ele>1610.1999511719</ele>
        <time>2012-07-01T08:53:01Z</time>
      </trkpt>
      <trkpt lat="45.5262" lon="6.67075">
        <ele>1609</ele>
        <time>2012-07-01T08:53:04Z</time>
      </trkpt>
      <trkpt lat="45.52621" lon="6.67075">
        <ele>1609</ele>
        <time>2012-07-01T08:53:05Z</time>
      </trkpt>
      <trkpt lat="45.52632" lon="6.67062">
        <ele>1604.5999755859</ele>
        <time>2012-07-01T08:53:15Z</time>
      </trkpt>
      <trkpt lat="45.52634" lon="6.67061">
        <ele>1604.5999755859</ele>
        <time>2012-07-01T08:53:18Z</time>
      </trkpt>
      <trkpt lat="45.52638" lon="6.67059">
        <ele>1602.1999511719</ele>
        <time>2012-07-01T08:53:21Z</time>
      </trkpt>
      <trkpt lat="45.52639" lon="6.6706">
        <ele>1602.1999511719</ele>
        <time>2012-07-01T08:53:22Z</time>
      </trkpt>
      <trkpt lat="45.52645" lon="6.67055">
        <ele>1601.1999511719</ele>
        <time>2012-07-01T08:53:26Z</time>
      </trkpt>
      <trkpt lat="45.52646" lon="6.67054">
        <ele>1600</ele>
        <time>2012-07-01T08:53:27Z</time>
      </trkpt>
      <trkpt lat="45.52649" lon="6.6705">
        <ele>1600</ele>
        <time>2012-07-01T08:53:31Z</time>
      </trkpt>
      <trkpt lat="45.5265" lon="6.67049">
        <ele>1600</ele>
        <time>2012-07-01T08:53:32Z</time>
      </trkpt>
      <trkpt lat="45.52653" lon="6.67049">
        <ele>1598.8000488281</ele>
        <time>2012-07-01T08:53:36Z</time>
      </trkpt>
      <trkpt lat="45.52664" lon="6.67041">
        <ele>1597.8000488281</ele>
        <time>2012-07-01T08:53:44Z</time>
      </trkpt>
      <trkpt lat="45.52666" lon="6.6704">
        <ele>1597.8000488281</ele>
        <time>2012-07-01T08:53:46Z</time>
      </trkpt>
      <trkpt lat="45.52672" lon="6.67037">
        <ele>1597.8000488281</ele>
        <time>2012-07-01T08:53:52Z</time>
      </trkpt>
      <trkpt lat="45.52677" lon="6.67033">
        <ele>1596.8000488281</ele>
        <time>2012-07-01T08:53:55Z</time>
      </trkpt>
      <trkpt lat="45.52681" lon="6.67028">
        <ele>1595.8000488281</ele>
        <time>2012-07-01T08:53:59Z</time>
      </trkpt>
      <trkpt lat="45.52684" lon="6.67025">
        <ele>1594.5999755859</ele>
        <time>2012-07-01T08:54:01Z</time>
      </trkpt>
      <trkpt lat="45.52688" lon="6.67018">
        <ele>1593.5999755859</ele>
        <time>2012-07-01T08:54:04Z</time>
      </trkpt>
      <trkpt lat="45.5269" lon="6.67016">
        <ele>1592.4000244141</ele>
        <time>2012-07-01T08:54:05Z</time>
      </trkpt>
      <trkpt lat="45.5271" lon="6.67004">
        <ele>1590.1999511719</ele>
        <time>2012-07-01T08:54:14Z</time>
      </trkpt>
      <trkpt lat="45.52711" lon="6.67003">
        <ele>1590.1999511719</ele>
        <time>2012-07-01T08:54:15Z</time>
      </trkpt>
      <trkpt lat="45.52718" lon="6.66999">
        <ele>1589.1999511719</ele>
        <time>2012-07-01T08:54:20Z</time>
      </trkpt>
      <trkpt lat="45.52723" lon="6.66995">
        <ele>1589.1999511719</ele>
        <time>2012-07-01T08:54:23Z</time>
      </trkpt>
      <trkpt lat="45.52731" lon="6.6699">
        <ele>1589.1999511719</ele>
        <time>2012-07-01T08:54:27Z</time>
      </trkpt>
      <trkpt lat="45.52733" lon="6.66989">
        <ele>1588</ele>
        <time>2012-07-01T08:54:28Z</time>
      </trkpt>
      <trkpt lat="45.52745" lon="6.66985">
        <ele>1588</ele>
        <time>2012-07-01T08:54:34Z</time>
      </trkpt>
      <trkpt lat="45.52748" lon="6.66983">
        <ele>1588</ele>
        <time>2012-07-01T08:54:36Z</time>
      </trkpt>
      <trkpt lat="45.5276" lon="6.66977">
        <ele>1588</ele>
        <time>2012-07-01T08:54:41Z</time>
      </trkpt>
      <trkpt lat="45.52778" lon="6.66973">
        <ele>1586.8000488281</ele>
        <time>2012-07-01T08:54:48Z</time>
      </trkpt>
      <trkpt lat="45.52784" lon="6.66968">
        <ele>1585.8000488281</ele>
        <time>2012-07-01T08:54:51Z</time>
      </trkpt>
      <trkpt lat="45.52796" lon="6.66962">
        <ele>1585.8000488281</ele>
        <time>2012-07-01T08:54:56Z</time>
      </trkpt>
      <trkpt lat="45.52799" lon="6.66961">
        <ele>1584.5999755859</ele>
        <time>2012-07-01T08:54:57Z</time>
      </trkpt>
      <trkpt lat="45.5281" lon="6.66956">
        <ele>1584.5999755859</ele>
        <time>2012-07-01T08:55:02Z</time>
      </trkpt>
      <trkpt lat="45.52817" lon="6.66951">
        <ele>1584.5999755859</ele>
        <time>2012-07-01T08:55:05Z</time>
      </trkpt>
      <trkpt lat="45.52835" lon="6.66944">
        <ele>1584.5999755859</ele>
        <time>2012-07-01T08:55:11Z</time>
      </trkpt>
      <trkpt lat="45.52837" lon="6.66945">
        <ele>1584.5999755859</ele>
        <time>2012-07-01T08:55:12Z</time>
      </trkpt>
      <trkpt lat="45.52881" lon="6.66948">
        <ele>1582.4000244141</ele>
        <time>2012-07-01T08:55:29Z</time>
      </trkpt>
      <trkpt lat="45.52886" lon="6.66946">
        <ele>1582.4000244141</ele>
        <time>2012-07-01T08:55:31Z</time>
      </trkpt>
      <trkpt lat="45.52887" lon="6.66946">
        <ele>1581.4000244141</ele>
        <time>2012-07-01T08:55:35Z</time>
      </trkpt>
      <trkpt lat="45.52894" lon="6.66946">
        <ele>1581.4000244141</ele>
        <time>2012-07-01T08:55:44Z</time>
      </trkpt>
      <trkpt lat="45.52899" lon="6.6695">
        <ele>1581.4000244141</ele>
        <time>2012-07-01T08:55:48Z</time>
      </trkpt>
      <trkpt lat="45.52901" lon="6.6695">
        <ele>1581.4000244141</ele>
        <time>2012-07-01T08:55:49Z</time>
      </trkpt>
      <trkpt lat="45.52914" lon="6.66942">
        <ele>1581.4000244141</ele>
        <time>2012-07-01T08:55:56Z</time>
      </trkpt>
      <trkpt lat="45.52916" lon="6.66943">
        <ele>1581.4000244141</ele>
        <time>2012-07-01T08:55:57Z</time>
      </trkpt>
      <trkpt lat="45.5292" lon="6.66941">
        <ele>1581.4000244141</ele>
        <time>2012-07-01T08:56:00Z</time>
      </trkpt>
      <trkpt lat="45.52938" lon="6.66947">
        <ele>1581.4000244141</ele>
        <time>2012-07-01T08:56:10Z</time>
      </trkpt>
      <trkpt lat="45.52945" lon="6.66949">
        <ele>1581.4000244141</ele>
        <time>2012-07-01T08:56:13Z</time>
      </trkpt>
      <trkpt lat="45.52957" lon="6.66956">
        <ele>1580.4000244141</ele>
        <time>2012-07-01T08:56:19Z</time>
      </trkpt>
      <trkpt lat="45.5296" lon="6.66958">
        <ele>1580.4000244141</ele>
        <time>2012-07-01T08:56:22Z</time>
      </trkpt>
      <trkpt lat="45.52965" lon="6.66956">
        <ele>1580.4000244141</ele>
        <time>2012-07-01T08:56:33Z</time>
      </trkpt>
      <trkpt lat="45.52973" lon="6.66957">
        <ele>1580.4000244141</ele>
        <time>2012-07-01T08:56:37Z</time>
      </trkpt>
      <trkpt lat="45.52979" lon="6.66961">
        <ele>1580.4000244141</ele>
        <time>2012-07-01T08:56:40Z</time>
      </trkpt>
      <trkpt lat="45.52982" lon="6.66968">
        <ele>1580.4000244141</ele>
        <time>2012-07-01T08:56:44Z</time>
      </trkpt>
      <trkpt lat="45.52993" lon="6.66975">
        <ele>1580.4000244141</ele>
        <time>2012-07-01T08:56:57Z</time>
      </trkpt>
      <trkpt lat="45.52994" lon="6.66975">
        <ele>1579.4000244141</ele>
        <time>2012-07-01T08:56:58Z</time>
      </trkpt>
      <trkpt lat="45.52997" lon="6.66973">
        <ele>1578.1999511719</ele>
        <time>2012-07-01T08:57:00Z</time>
      </trkpt>
      <trkpt lat="45.52999" lon="6.66972">
        <ele>1578.1999511719</ele>
        <time>2012-07-01T08:57:01Z</time>
      </trkpt>
      <trkpt lat="45.53008" lon="6.66971">
        <ele>1578.1999511719</ele>
        <time>2012-07-01T08:57:06Z</time>
      </trkpt>
      <trkpt lat="45.53015" lon="6.66969">
        <ele>1576.8000488281</ele>
        <time>2012-07-01T08:57:09Z</time>
      </trkpt>
      <trkpt lat="45.53019" lon="6.66966">
        <ele>1576.8000488281</ele>
        <time>2012-07-01T08:57:11Z</time>
      </trkpt>
      <trkpt lat="45.53025" lon="6.66963">
        <ele>1576.8000488281</ele>
        <time>2012-07-01T08:57:15Z</time>
      </trkpt>
      <trkpt lat="45.53029" lon="6.6696">
        <ele>1575.5999755859</ele>
        <time>2012-07-01T08:57:17Z</time>
      </trkpt>
      <trkpt lat="45.53042" lon="6.66962">
        <ele>1574.5999755859</ele>
        <time>2012-07-01T08:57:25Z</time>
      </trkpt>
      <trkpt lat="45.53045" lon="6.66962">
        <ele>1574.5999755859</ele>
        <time>2012-07-01T08:57:27Z</time>
      </trkpt>
      <trkpt lat="45.53064" lon="6.66958">
        <ele>1574.5999755859</ele>
        <time>2012-07-01T08:57:37Z</time>
      </trkpt>
      <trkpt lat="45.5307" lon="6.66957">
        <ele>1573.4000244141</ele>
        <time>2012-07-01T08:57:40Z</time>
      </trkpt>
      <trkpt lat="45.53076" lon="6.66955">
        <ele>1573.4000244141</ele>
        <time>2012-07-01T08:57:43Z</time>
      </trkpt>
      <trkpt lat="45.53077" lon="6.66955">
        <ele>1572</ele>
        <time>2012-07-01T08:57:44Z</time>
      </trkpt>
      <trkpt lat="45.53083" lon="6.66951">
        <ele>1571</ele>
        <time>2012-07-01T08:57:47Z</time>
      </trkpt>
      <trkpt lat="45.53086" lon="6.66949">
        <ele>1571</ele>
        <time>2012-07-01T08:57:49Z</time>
      </trkpt>
      <trkpt lat="45.5311" lon="6.66933">
        <ele>1566.4000244141</ele>
        <time>2012-07-01T08:58:03Z</time>
      </trkpt>
      <trkpt lat="45.53111" lon="6.66931">
        <ele>1565.4000244141</ele>
        <time>2012-07-01T08:58:04Z</time>
      </trkpt>
      <trkpt lat="45.53107" lon="6.66928">
        <ele>1564.1999511719</ele>
        <time>2012-07-01T08:58:08Z</time>
      </trkpt>
      <trkpt lat="45.53102" lon="6.66928">
        <ele>1563</ele>
        <time>2012-07-01T08:58:11Z</time>
      </trkpt>
      <trkpt lat="45.53097" lon="6.66928">
        <ele>1562</ele>
        <time>2012-07-01T08:58:14Z</time>
      </trkpt>
      <trkpt lat="45.53096" lon="6.66928">
        <ele>1562</ele>
        <time>2012-07-01T08:58:16Z</time>
      </trkpt>
      <trkpt lat="45.53093" lon="6.66928">
        <ele>1561</ele>
        <time>2012-07-01T08:58:18Z</time>
      </trkpt>
      <trkpt lat="45.5309" lon="6.66928">
        <ele>1559.8000488281</ele>
        <time>2012-07-01T08:58:20Z</time>
      </trkpt>
      <trkpt lat="45.53083" lon="6.66926">
        <ele>1558.8000488281</ele>
        <time>2012-07-01T08:58:24Z</time>
      </trkpt>
      <trkpt lat="45.53078" lon="6.6692">
        <ele>1556.4000244141</ele>
        <time>2012-07-01T08:58:28Z</time>
      </trkpt>
      <trkpt lat="45.53074" lon="6.66916">
        <ele>1556.4000244141</ele>
        <time>2012-07-01T08:58:31Z</time>
      </trkpt>
      <trkpt lat="45.53068" lon="6.66911">
        <ele>1554.4000244141</ele>
        <time>2012-07-01T08:58:34Z</time>
      </trkpt>
      <trkpt lat="45.53065" lon="6.66908">
        <ele>1554.4000244141</ele>
        <time>2012-07-01T08:58:36Z</time>
      </trkpt>
      <trkpt lat="45.53061" lon="6.66906">
        <ele>1552</ele>
        <time>2012-07-01T08:58:39Z</time>
      </trkpt>
      <trkpt lat="45.53058" lon="6.66905">
        <ele>1552</ele>
        <time>2012-07-01T08:58:41Z</time>
      </trkpt>
      <trkpt lat="45.53046" lon="6.66898">
        <ele>1552</ele>
        <time>2012-07-01T08:58:48Z</time>
      </trkpt>
      <trkpt lat="45.53042" lon="6.66898">
        <ele>1550</ele>
        <time>2012-07-01T08:58:50Z</time>
      </trkpt>
      <trkpt lat="45.53024" lon="6.66896">
        <ele>1547.8000488281</ele>
        <time>2012-07-01T08:59:01Z</time>
      </trkpt>
      <trkpt lat="45.53021" lon="6.6689">
        <ele>1547.8000488281</ele>
        <time>2012-07-01T08:59:04Z</time>
      </trkpt>
      <trkpt lat="45.53027" lon="6.66887">
        <ele>1544.4000244141</ele>
        <time>2012-07-01T08:59:07Z</time>
      </trkpt>
      <trkpt lat="45.5303" lon="6.66886">
        <ele>1542.8000488281</ele>
        <time>2012-07-01T08:59:09Z</time>
      </trkpt>
      <trkpt lat="45.53034" lon="6.66884">
        <ele>1540.5999755859</ele>
        <time>2012-07-01T08:59:12Z</time>
      </trkpt>
      <trkpt lat="45.53036" lon="6.66884">
        <ele>1540.5999755859</ele>
        <time>2012-07-01T08:59:13Z</time>
      </trkpt>
      <trkpt lat="45.5304" lon="6.66882">
        <ele>1539.4000244141</ele>
        <time>2012-07-01T08:59:16Z</time>
      </trkpt>
      <trkpt lat="45.53041" lon="6.66881">
        <ele>1538.1999511719</ele>
        <time>2012-07-01T08:59:17Z</time>
      </trkpt>
      <trkpt lat="45.53039" lon="6.66877">
        <ele>1538.1999511719</ele>
        <time>2012-07-01T08:59:21Z</time>
      </trkpt>
      <trkpt lat="45.53033" lon="6.6687">
        <ele>1536</ele>
        <time>2012-07-01T08:59:31Z</time>
      </trkpt>
      <trkpt lat="45.53034" lon="6.66869">
        <ele>1535</ele>
        <time>2012-07-01T08:59:32Z</time>
      </trkpt>
      <trkpt lat="45.5304" lon="6.66867">
        <ele>1534</ele>
        <time>2012-07-01T08:59:36Z</time>
      </trkpt>
      <trkpt lat="45.53042" lon="6.66865">
        <ele>1532.8000488281</ele>
        <time>2012-07-01T08:59:39Z</time>
      </trkpt>
      <trkpt lat="45.53047" lon="6.66862">
        <ele>1531.5999755859</ele>
        <time>2012-07-01T08:59:43Z</time>
      </trkpt>
      <trkpt lat="45.53047" lon="6.66859">
        <ele>1530.4000244141</ele>
        <time>2012-07-01T08:59:45Z</time>
      </trkpt>
      <trkpt lat="45.53049" lon="6.66856">
        <ele>1529.4000244141</ele>
        <time>2012-07-01T08:59:48Z</time>
      </trkpt>
      <trkpt lat="45.5305" lon="6.66849">
        <ele>1528.4000244141</ele>
        <time>2012-07-01T08:59:52Z</time>
      </trkpt>
      <trkpt lat="45.53054" lon="6.6682">
        <ele>1528.4000244141</ele>
        <time>2012-07-01T09:00:03Z</time>
      </trkpt>
      <trkpt lat="45.53062" lon="6.66811">
        <ele>1528.4000244141</ele>
        <time>2012-07-01T09:00:08Z</time>
      </trkpt>
      <trkpt lat="45.53067" lon="6.66803">
        <ele>1528.4000244141</ele>
        <time>2012-07-01T09:00:13Z</time>
      </trkpt>
      <trkpt lat="45.53068" lon="6.66803">
        <ele>1528.4000244141</ele>
        <time>2012-07-01T09:00:19Z</time>
      </trkpt>
      <trkpt lat="45.53078" lon="6.66798">
        <ele>1527.4000244141</ele>
        <time>2012-07-01T09:00:36Z</time>
      </trkpt>
      <trkpt lat="45.53079" lon="6.66798">
        <ele>1527.4000244141</ele>
        <time>2012-07-01T09:00:37Z</time>
      </trkpt>
      <trkpt lat="45.53084" lon="6.66796">
        <ele>1526.1999511719</ele>
        <time>2012-07-01T09:00:42Z</time>
      </trkpt>
      <trkpt lat="45.53085" lon="6.66795">
        <ele>1525.1999511719</ele>
        <time>2012-07-01T09:00:44Z</time>
      </trkpt>
      <trkpt lat="45.53089" lon="6.66794">
        <ele>1524.1999511719</ele>
        <time>2012-07-01T09:00:47Z</time>
      </trkpt>
      <trkpt lat="45.53094" lon="6.66789">
        <ele>1521.8000488281</ele>
        <time>2012-07-01T09:00:55Z</time>
      </trkpt>
      <trkpt lat="45.53096" lon="6.66788">
        <ele>1520.5999755859</ele>
        <time>2012-07-01T09:00:57Z</time>
      </trkpt>
      <trkpt lat="45.53099" lon="6.66782">
        <ele>1519.4000244141</ele>
        <time>2012-07-01T09:01:01Z</time>
      </trkpt>
      <trkpt lat="45.53101" lon="6.66778">
        <ele>1518.1999511719</ele>
        <time>2012-07-01T09:01:04Z</time>
      </trkpt>
      <trkpt lat="45.53105" lon="6.66765">
        <ele>1517</ele>
        <time>2012-07-01T09:01:10Z</time>
      </trkpt>
      <trkpt lat="45.53105" lon="6.66763">
        <ele>1517</ele>
        <time>2012-07-01T09:01:12Z</time>
      </trkpt>
      <trkpt lat="45.53111" lon="6.66753">
        <ele>1514.4000244141</ele>
        <time>2012-07-01T09:01:19Z</time>
      </trkpt>
      <trkpt lat="45.53112" lon="6.6675">
        <ele>1514.4000244141</ele>
        <time>2012-07-01T09:01:21Z</time>
      </trkpt>
      <trkpt lat="45.5312" lon="6.66743">
        <ele>1511</ele>
        <time>2012-07-01T09:01:29Z</time>
      </trkpt>
      <trkpt lat="45.53121" lon="6.66742">
        <ele>1510</ele>
        <time>2012-07-01T09:01:30Z</time>
      </trkpt>
      <trkpt lat="45.53124" lon="6.66737">
        <ele>1509</ele>
        <time>2012-07-01T09:01:34Z</time>
      </trkpt>
      <trkpt lat="45.53125" lon="6.66736">
        <ele>1507.8000488281</ele>
        <time>2012-07-01T09:01:35Z</time>
      </trkpt>
      <trkpt lat="45.53129" lon="6.66728">
        <ele>1506.8000488281</ele>
        <time>2012-07-01T09:01:39Z</time>
      </trkpt>
      <trkpt lat="45.53131" lon="6.66726">
        <ele>1505.4000244141</ele>
        <time>2012-07-01T09:01:40Z</time>
      </trkpt>
      <trkpt lat="45.53135" lon="6.66719">
        <ele>1505.4000244141</ele>
        <time>2012-07-01T09:01:44Z</time>
      </trkpt>
      <trkpt lat="45.53135" lon="6.66713">
        <ele>1504.1999511719</ele>
        <time>2012-07-01T09:01:46Z</time>
      </trkpt>
      <trkpt lat="45.53136" lon="6.66703">
        <ele>1503.1999511719</ele>
        <time>2012-07-01T09:01:49Z</time>
      </trkpt>
      <trkpt lat="45.53139" lon="6.66681">
        <ele>1500.8000488281</ele>
        <time>2012-07-01T09:01:57Z</time>
      </trkpt>
      <trkpt lat="45.53139" lon="6.66671">
        <ele>1500.8000488281</ele>
        <time>2012-07-01T09:02:00Z</time>
      </trkpt>
      <trkpt lat="45.53141" lon="6.66658">
        <ele>1499.5999755859</ele>
        <time>2012-07-01T09:02:04Z</time>
      </trkpt>
      <trkpt lat="45.53142" lon="6.66653">
        <ele>1498.4000244141</ele>
        <time>2012-07-01T09:02:06Z</time>
      </trkpt>
      <trkpt lat="45.53142" lon="6.6664">
        <ele>1497.1999511719</ele>
        <time>2012-07-01T09:02:11Z</time>
      </trkpt>
      <trkpt lat="45.53142" lon="6.66628">
        <ele>1496.1999511719</ele>
        <time>2012-07-01T09:02:15Z</time>
      </trkpt>
      <trkpt lat="45.53143" lon="6.66622">
        <ele>1495.1999511719</ele>
        <time>2012-07-01T09:02:18Z</time>
      </trkpt>
      <trkpt lat="45.53144" lon="6.66617">
        <ele>1494.1999511719</ele>
        <time>2012-07-01T09:02:20Z</time>
      </trkpt>
      <trkpt lat="45.53142" lon="6.66583">
        <ele>1492</ele>
        <time>2012-07-01T09:02:32Z</time>
      </trkpt>
      <trkpt lat="45.53142" lon="6.6658">
        <ele>1492</ele>
        <time>2012-07-01T09:02:36Z</time>
      </trkpt>
      <trkpt lat="45.53143" lon="6.66576">
        <ele>1492</ele>
        <time>2012-07-01T09:02:41Z</time>
      </trkpt>
      <trkpt lat="45.5315" lon="6.66567">
        <ele>1491</ele>
        <time>2012-07-01T09:02:50Z</time>
      </trkpt>
      <trkpt lat="45.53153" lon="6.66558">
        <ele>1491</ele>
        <time>2012-07-01T09:02:54Z</time>
      </trkpt>
      <trkpt lat="45.53154" lon="6.66557">
        <ele>1489.8000488281</ele>
        <time>2012-07-01T09:02:55Z</time>
      </trkpt>
      <trkpt lat="45.53156" lon="6.66551">
        <ele>1489.8000488281</ele>
        <time>2012-07-01T09:03:01Z</time>
      </trkpt>
      <trkpt lat="45.53156" lon="6.66548">
        <ele>1488.8000488281</ele>
        <time>2012-07-01T09:03:04Z</time>
      </trkpt>
      <trkpt lat="45.53159" lon="6.66545">
        <ele>1487.8000488281</ele>
        <time>2012-07-01T09:03:09Z</time>
      </trkpt>
      <trkpt lat="45.53164" lon="6.66533">
        <ele>1486.8000488281</ele>
        <time>2012-07-01T09:03:19Z</time>
      </trkpt>
      <trkpt lat="45.53165" lon="6.66531">
        <ele>1486.8000488281</ele>
        <time>2012-07-01T09:03:20Z</time>
      </trkpt>
      <trkpt lat="45.53169" lon="6.66529">
        <ele>1485.5999755859</ele>
        <time>2012-07-01T09:03:24Z</time>
      </trkpt>
      <trkpt lat="45.53173" lon="6.66529">
        <ele>1485.5999755859</ele>
        <time>2012-07-01T09:03:26Z</time>
      </trkpt>
      <trkpt lat="45.53174" lon="6.66518">
        <ele>1484.4000244141</ele>
        <time>2012-07-01T09:03:34Z</time>
      </trkpt>
      <trkpt lat="45.53174" lon="6.66516">
        <ele>1484.4000244141</ele>
        <time>2012-07-01T09:03:36Z</time>
      </trkpt>
      <trkpt lat="45.53176" lon="6.6651">
        <ele>1483.1999511719</ele>
        <time>2012-07-01T09:03:39Z</time>
      </trkpt>
      <trkpt lat="45.53175" lon="6.66507">
        <ele>1483.1999511719</ele>
        <time>2012-07-01T09:03:42Z</time>
      </trkpt>
      <trkpt lat="45.53166" lon="6.66481">
        <ele>1480</ele>
        <time>2012-07-01T09:03:55Z</time>
      </trkpt>
      <trkpt lat="45.53164" lon="6.66479">
        <ele>1478.4000244141</ele>
        <time>2012-07-01T09:03:56Z</time>
      </trkpt>
      <trkpt lat="45.5316" lon="6.66472">
        <ele>1478.4000244141</ele>
        <time>2012-07-01T09:04:00Z</time>
      </trkpt>
      <trkpt lat="45.53158" lon="6.66467">
        <ele>1478.4000244141</ele>
        <time>2012-07-01T09:04:02Z</time>
      </trkpt>
      <trkpt lat="45.53155" lon="6.66463">
        <ele>1478.4000244141</ele>
        <time>2012-07-01T09:04:06Z</time>
      </trkpt>
      <trkpt lat="45.53155" lon="6.66461">
        <ele>1481.5999755859</ele>
        <time>2012-07-01T09:04:08Z</time>
      </trkpt>
      <trkpt lat="45.53153" lon="6.66453">
        <ele>1481.5999755859</ele>
        <time>2012-07-01T09:04:12Z</time>
      </trkpt>
      <trkpt lat="45.53152" lon="6.66452">
        <ele>1482.5999755859</ele>
        <time>2012-07-01T09:04:13Z</time>
      </trkpt>
      <trkpt lat="45.5315" lon="6.66447">
        <ele>1483.8000488281</ele>
        <time>2012-07-01T09:04:18Z</time>
      </trkpt>
      <trkpt lat="45.53151" lon="6.66444">
        <ele>1484.8000488281</ele>
        <time>2012-07-01T09:04:22Z</time>
      </trkpt>
      <trkpt lat="45.53152" lon="6.66445">
        <ele>1484.8000488281</ele>
        <time>2012-07-01T09:04:24Z</time>
      </trkpt>
      <trkpt lat="45.53157" lon="6.6645">
        <ele>1484.8000488281</ele>
        <time>2012-07-01T09:04:29Z</time>
      </trkpt>
      <trkpt lat="45.53162" lon="6.66453">
        <ele>1485.8000488281</ele>
        <time>2012-07-01T09:04:31Z</time>
      </trkpt>
      <trkpt lat="45.53164" lon="6.66453">
        <ele>1487</ele>
        <time>2012-07-01T09:04:34Z</time>
      </trkpt>
      <trkpt lat="45.53162" lon="6.66448">
        <ele>1487</ele>
        <time>2012-07-01T09:04:38Z</time>
      </trkpt>
      <trkpt lat="45.53157" lon="6.6644">
        <ele>1488.1999511719</ele>
        <time>2012-07-01T09:04:42Z</time>
      </trkpt>
      <trkpt lat="45.53154" lon="6.66435">
        <ele>1488.1999511719</ele>
        <time>2012-07-01T09:04:46Z</time>
      </trkpt>
      <trkpt lat="45.53152" lon="6.66403">
        <ele>1488.1999511719</ele>
        <time>2012-07-01T09:05:05Z</time>
      </trkpt>
      <trkpt lat="45.53161" lon="6.66394">
        <ele>1488.1999511719</ele>
        <time>2012-07-01T09:05:10Z</time>
      </trkpt>
      <trkpt lat="45.53181" lon="6.66402">
        <ele>1488.1999511719</ele>
        <time>2012-07-01T09:05:18Z</time>
      </trkpt>
      <trkpt lat="45.53186" lon="6.66403">
        <ele>1488.1999511719</ele>
        <time>2012-07-01T09:05:21Z</time>
      </trkpt>
      <trkpt lat="45.53197" lon="6.66403">
        <ele>1488.1999511719</ele>
        <time>2012-07-01T09:05:26Z</time>
      </trkpt>
      <trkpt lat="45.532" lon="6.66401">
        <ele>1488.1999511719</ele>
        <time>2012-07-01T09:05:27Z</time>
      </trkpt>
      <trkpt lat="45.53206" lon="6.66397">
        <ele>1485.1999511719</ele>
        <time>2012-07-01T09:05:30Z</time>
      </trkpt>
      <trkpt lat="45.53213" lon="6.66388">
        <ele>1485.1999511719</ele>
        <time>2012-07-01T09:05:34Z</time>
      </trkpt>
      <trkpt lat="45.53222" lon="6.66386">
        <ele>1484</ele>
        <time>2012-07-01T09:05:38Z</time>
      </trkpt>
      <trkpt lat="45.53239" lon="6.6639">
        <ele>1482.1999511719</ele>
        <time>2012-07-01T09:05:46Z</time>
      </trkpt>
      <trkpt lat="45.5324" lon="6.66392">
        <ele>1482.1999511719</ele>
        <time>2012-07-01T09:05:47Z</time>
      </trkpt>
      <trkpt lat="45.53247" lon="6.66393">
        <ele>1481.1999511719</ele>
        <time>2012-07-01T09:05:52Z</time>
      </trkpt>
      <trkpt lat="45.53246" lon="6.6639">
        <ele>1479.8000488281</ele>
        <time>2012-07-01T09:05:54Z</time>
      </trkpt>
      <trkpt lat="45.53246" lon="6.66386">
        <ele>1478.8000488281</ele>
        <time>2012-07-01T09:05:57Z</time>
      </trkpt>
      <trkpt lat="45.53248" lon="6.66385">
        <ele>1477.5999755859</ele>
        <time>2012-07-01T09:06:00Z</time>
      </trkpt>
      <trkpt lat="45.53253" lon="6.66383">
        <ele>1476.5999755859</ele>
        <time>2012-07-01T09:06:04Z</time>
      </trkpt>
      <trkpt lat="45.53254" lon="6.66382">
        <ele>1475.1999511719</ele>
        <time>2012-07-01T09:06:05Z</time>
      </trkpt>
      <trkpt lat="45.53268" lon="6.66374">
        <ele>1470</ele>
        <time>2012-07-01T09:06:15Z</time>
      </trkpt>
      <trkpt lat="45.5327" lon="6.6637">
        <ele>1469</ele>
        <time>2012-07-01T09:06:17Z</time>
      </trkpt>
      <trkpt lat="45.53274" lon="6.66365">
        <ele>1466.5999755859</ele>
        <time>2012-07-01T09:06:22Z</time>
      </trkpt>
      <trkpt lat="45.53276" lon="6.66363">
        <ele>1465.5999755859</ele>
        <time>2012-07-01T09:06:24Z</time>
      </trkpt>
      <trkpt lat="45.53278" lon="6.66353">
        <ele>1463.1999511719</ele>
        <time>2012-07-01T09:06:28Z</time>
      </trkpt>
      <trkpt lat="45.53279" lon="6.66351">
        <ele>1463.1999511719</ele>
        <time>2012-07-01T09:06:30Z</time>
      </trkpt>
      <trkpt lat="45.5328" lon="6.66345">
        <ele>1461</ele>
        <time>2012-07-01T09:06:35Z</time>
      </trkpt>
      <trkpt lat="45.53277" lon="6.66344">
        <ele>1460</ele>
        <time>2012-07-01T09:06:37Z</time>
      </trkpt>
      <trkpt lat="45.53279" lon="6.66339">
        <ele>1459</ele>
        <time>2012-07-01T09:06:40Z</time>
      </trkpt>
      <trkpt lat="45.53284" lon="6.66338">
        <ele>1456.5999755859</ele>
        <time>2012-07-01T09:06:45Z</time>
      </trkpt>
      <trkpt lat="45.53286" lon="6.66337">
        <ele>1455.4000244141</ele>
        <time>2012-07-01T09:06:46Z</time>
      </trkpt>
      <trkpt lat="45.53289" lon="6.66337">
        <ele>1454.4000244141</ele>
        <time>2012-07-01T09:06:49Z</time>
      </trkpt>
      <trkpt lat="45.5329" lon="6.66336">
        <ele>1453.1999511719</ele>
        <time>2012-07-01T09:06:50Z</time>
      </trkpt>
      <trkpt lat="45.53295" lon="6.66338">
        <ele>1451</ele>
        <time>2012-07-01T09:06:54Z</time>
      </trkpt>
      <trkpt lat="45.53298" lon="6.66339">
        <ele>1451</ele>
        <time>2012-07-01T09:06:56Z</time>
      </trkpt>
      <trkpt lat="45.53301" lon="6.66338">
        <ele>1449.8000488281</ele>
        <time>2012-07-01T09:06:58Z</time>
      </trkpt>
      <trkpt lat="45.53303" lon="6.66335">
        <ele>1448.5999755859</ele>
        <time>2012-07-01T09:07:00Z</time>
      </trkpt>
      <trkpt lat="45.5331" lon="6.66325">
        <ele>1445.4000244141</ele>
        <time>2012-07-01T09:07:06Z</time>
      </trkpt>
      <trkpt lat="45.53313" lon="6.66323">
        <ele>1444</ele>
        <time>2012-07-01T09:07:08Z</time>
      </trkpt>
      <trkpt lat="45.53316" lon="6.66322">
        <ele>1443</ele>
        <time>2012-07-01T09:07:10Z</time>
      </trkpt>
      <trkpt lat="45.53319" lon="6.66322">
        <ele>1442</ele>
        <time>2012-07-01T09:07:12Z</time>
      </trkpt>
      <trkpt lat="45.5332" lon="6.66321">
        <ele>1440.5999755859</ele>
        <time>2012-07-01T09:07:14Z</time>
      </trkpt>
      <trkpt lat="45.5332" lon="6.6632">
        <ele>1439.5999755859</ele>
        <time>2012-07-01T09:07:15Z</time>
      </trkpt>
      <trkpt lat="45.53323" lon="6.66321">
        <ele>1438.4000244141</ele>
        <time>2012-07-01T09:07:19Z</time>
      </trkpt>
      <trkpt lat="45.53326" lon="6.66323">
        <ele>1437</ele>
        <time>2012-07-01T09:07:22Z</time>
      </trkpt>
      <trkpt lat="45.5333" lon="6.66325">
        <ele>1436</ele>
        <time>2012-07-01T09:07:25Z</time>
      </trkpt>
      <trkpt lat="45.53354" lon="6.66317">
        <ele>1436</ele>
        <time>2012-07-01T09:07:36Z</time>
      </trkpt>
      <trkpt lat="45.53358" lon="6.66314">
        <ele>1435</ele>
        <time>2012-07-01T09:07:38Z</time>
      </trkpt>
      <trkpt lat="45.53368" lon="6.66313">
        <ele>1433.8000488281</ele>
        <time>2012-07-01T09:07:43Z</time>
      </trkpt>
      <trkpt lat="45.5337" lon="6.66311">
        <ele>1433.8000488281</ele>
        <time>2012-07-01T09:07:45Z</time>
      </trkpt>
      <trkpt lat="45.53367" lon="6.6631">
        <ele>1431.8000488281</ele>
        <time>2012-07-01T09:07:48Z</time>
      </trkpt>
      <trkpt lat="45.53369" lon="6.66308">
        <ele>1430.5999755859</ele>
        <time>2012-07-01T09:07:50Z</time>
      </trkpt>
      <trkpt lat="45.53375" lon="6.66304">
        <ele>1429.5999755859</ele>
        <time>2012-07-01T09:07:54Z</time>
      </trkpt>
      <trkpt lat="45.53376" lon="6.66304">
        <ele>1429.5999755859</ele>
        <time>2012-07-01T09:07:55Z</time>
      </trkpt>
      <trkpt lat="45.53367" lon="6.66302">
        <ele>1427.4000244141</ele>
        <time>2012-07-01T09:08:06Z</time>
      </trkpt>
      <trkpt lat="45.53367" lon="6.66301">
        <ele>1427.4000244141</ele>
        <time>2012-07-01T09:08:07Z</time>
      </trkpt>
      <trkpt lat="45.53369" lon="6.66299">
        <ele>1426.1999511719</ele>
        <time>2012-07-01T09:08:10Z</time>
      </trkpt>
      <trkpt lat="45.53371" lon="6.663">
        <ele>1425.1999511719</ele>
        <time>2012-07-01T09:08:15Z</time>
      </trkpt>
      <trkpt lat="45.53376" lon="6.66297">
        <ele>1424.1999511719</ele>
        <time>2012-07-01T09:08:19Z</time>
      </trkpt>
      <trkpt lat="45.53377" lon="6.66294">
        <ele>1423</ele>
        <time>2012-07-01T09:08:20Z</time>
      </trkpt>
      <trkpt lat="45.5338" lon="6.66284">
        <ele>1422</ele>
        <time>2012-07-01T09:08:25Z</time>
      </trkpt>
      <trkpt lat="45.53381" lon="6.66282">
        <ele>1420.8000488281</ele>
        <time>2012-07-01T09:08:27Z</time>
      </trkpt>
      <trkpt lat="45.53382" lon="6.6628">
        <ele>1419.5999755859</ele>
        <time>2012-07-01T09:08:30Z</time>
      </trkpt>
      <trkpt lat="45.5338" lon="6.66278">
        <ele>1418.4000244141</ele>
        <time>2012-07-01T09:08:34Z</time>
      </trkpt>
      <trkpt lat="45.5338" lon="6.66276">
        <ele>1418.4000244141</ele>
        <time>2012-07-01T09:08:35Z</time>
      </trkpt>
      <trkpt lat="45.53381" lon="6.66268">
        <ele>1415.8000488281</ele>
        <time>2012-07-01T09:08:39Z</time>
      </trkpt>
      <trkpt lat="45.53381" lon="6.66267">
        <ele>1414.8000488281</ele>
        <time>2012-07-01T09:08:40Z</time>
      </trkpt>
      <trkpt lat="45.53391" lon="6.66249">
        <ele>1412.5999755859</ele>
        <time>2012-07-01T09:08:49Z</time>
      </trkpt>
      <trkpt lat="45.53398" lon="6.66245">
        <ele>1412.5999755859</ele>
        <time>2012-07-01T09:08:53Z</time>
      </trkpt>
      <trkpt lat="45.53406" lon="6.66244">
        <ele>1412.5999755859</ele>
        <time>2012-07-01T09:08:57Z</time>
      </trkpt>
      <trkpt lat="45.53409" lon="6.66247">
        <ele>1411.4000244141</ele>
        <time>2012-07-01T09:08:59Z</time>
      </trkpt>
      <trkpt lat="45.5342" lon="6.66254">
        <ele>1410.4000244141</ele>
        <time>2012-07-01T09:09:11Z</time>
      </trkpt>
      <trkpt lat="45.53427" lon="6.66255">
        <ele>1410.4000244141</ele>
        <time>2012-07-01T09:09:20Z</time>
      </trkpt>
      <trkpt lat="45.5344" lon="6.6625">
        <ele>1408.1999511719</ele>
        <time>2012-07-01T09:09:31Z</time>
      </trkpt>
      <trkpt lat="45.53442" lon="6.6625">
        <ele>1407.1999511719</ele>
        <time>2012-07-01T09:09:34Z</time>
      </trkpt>
      <trkpt lat="45.53445" lon="6.66248">
        <ele>1406.1999511719</ele>
        <time>2012-07-01T09:09:37Z</time>
      </trkpt>
      <trkpt lat="45.53449" lon="6.66247">
        <ele>1405</ele>
        <time>2012-07-01T09:09:40Z</time>
      </trkpt>
      <trkpt lat="45.5345" lon="6.66244">
        <ele>1404</ele>
        <time>2012-07-01T09:09:44Z</time>
      </trkpt>
      <trkpt lat="45.53451" lon="6.66242">
        <ele>1402.8000488281</ele>
        <time>2012-07-01T09:09:47Z</time>
      </trkpt>
      <trkpt lat="45.53449" lon="6.66241">
        <ele>1401.8000488281</ele>
        <time>2012-07-01T09:09:50Z</time>
      </trkpt>
      <trkpt lat="45.53443" lon="6.66238">
        <ele>1399.4000244141</ele>
        <time>2012-07-01T09:09:57Z</time>
      </trkpt>
      <trkpt lat="45.53442" lon="6.66237">
        <ele>1399.4000244141</ele>
        <time>2012-07-01T09:09:58Z</time>
      </trkpt>
      <trkpt lat="45.53436" lon="6.66234">
        <ele>1397.1999511719</ele>
        <time>2012-07-01T09:10:03Z</time>
      </trkpt>
      <trkpt lat="45.53436" lon="6.66233">
        <ele>1397.1999511719</ele>
        <time>2012-07-01T09:10:04Z</time>
      </trkpt>
      <trkpt lat="45.53431" lon="6.66227">
        <ele>1395.1999511719</ele>
        <time>2012-07-01T09:10:09Z</time>
      </trkpt>
      <trkpt lat="45.53431" lon="6.66226">
        <ele>1395.1999511719</ele>
        <time>2012-07-01T09:10:10Z</time>
      </trkpt>
      <trkpt lat="45.5343" lon="6.66226">
        <ele>1394</ele>
        <time>2012-07-01T09:10:13Z</time>
      </trkpt>
      <trkpt lat="45.53429" lon="6.66225">
        <ele>1394</ele>
        <time>2012-07-01T09:10:14Z</time>
      </trkpt>
      <trkpt lat="45.53426" lon="6.66217">
        <ele>1390.8000488281</ele>
        <time>2012-07-01T09:10:21Z</time>
      </trkpt>
      <trkpt lat="45.53424" lon="6.66213">
        <ele>1389.5999755859</ele>
        <time>2012-07-01T09:10:24Z</time>
      </trkpt>
      <trkpt lat="45.53422" lon="6.6621">
        <ele>1388.5999755859</ele>
        <time>2012-07-01T09:10:30Z</time>
      </trkpt>
      <trkpt lat="45.53421" lon="6.66209">
        <ele>1388.5999755859</ele>
        <time>2012-07-01T09:10:31Z</time>
      </trkpt>
      <trkpt lat="45.53414" lon="6.66208">
        <ele>1387.4000244141</ele>
        <time>2012-07-01T09:10:35Z</time>
      </trkpt>
      <trkpt lat="45.53413" lon="6.66208">
        <ele>1386.4000244141</ele>
        <time>2012-07-01T09:10:36Z</time>
      </trkpt>
      <trkpt lat="45.53411" lon="6.66207">
        <ele>1385.1999511719</ele>
        <time>2012-07-01T09:10:38Z</time>
      </trkpt>
      <trkpt lat="45.53404" lon="6.6621">
        <ele>1384.1999511719</ele>
        <time>2012-07-01T09:10:42Z</time>
      </trkpt>
      <trkpt lat="45.5339" lon="6.6621">
        <ele>1383.1999511719</ele>
        <time>2012-07-01T09:10:52Z</time>
      </trkpt>
      <trkpt lat="45.53401" lon="6.6621">
        <ele>1383.1999511719</ele>
        <time>2012-07-01T09:11:02Z</time>
      </trkpt>
      <trkpt lat="45.53405" lon="6.66209">
        <ele>1383.1999511719</ele>
        <time>2012-07-01T09:11:05Z</time>
      </trkpt>
      <trkpt lat="45.53414" lon="6.66202">
        <ele>1383.1999511719</ele>
        <time>2012-07-01T09:11:14Z</time>
      </trkpt>
      <trkpt lat="45.53419" lon="6.66202">
        <ele>1386.1999511719</ele>
        <time>2012-07-01T09:11:18Z</time>
      </trkpt>
      <trkpt lat="45.53424" lon="6.66204">
        <ele>1387.1999511719</ele>
        <time>2012-07-01T09:11:23Z</time>
      </trkpt>
      <trkpt lat="45.53427" lon="6.66207">
        <ele>1387.1999511719</ele>
        <time>2012-07-01T09:11:27Z</time>
      </trkpt>
      <trkpt lat="45.53431" lon="6.66208">
        <ele>1387.1999511719</ele>
        <time>2012-07-01T09:11:37Z</time>
      </trkpt>
      <trkpt lat="45.53432" lon="6.66207">
        <ele>1384.1999511719</ele>
        <time>2012-07-01T09:11:38Z</time>
      </trkpt>
      <trkpt lat="45.5344" lon="6.66206">
        <ele>1379.8000488281</ele>
        <time>2012-07-01T09:11:46Z</time>
      </trkpt>
      <trkpt lat="45.53441" lon="6.66206">
        <ele>1379.8000488281</ele>
        <time>2012-07-01T09:11:51Z</time>
      </trkpt>
      <trkpt lat="45.53441" lon="6.66205">
        <ele>1378.8000488281</ele>
        <time>2012-07-01T09:11:55Z</time>
      </trkpt>
      <trkpt lat="45.53441" lon="6.66201">
        <ele>1377.8000488281</ele>
        <time>2012-07-01T09:11:57Z</time>
      </trkpt>
      <trkpt lat="45.53438" lon="6.66198">
        <ele>1376.4000244141</ele>
        <time>2012-07-01T09:12:00Z</time>
      </trkpt>
      <trkpt lat="45.53436" lon="6.66196">
        <ele>1376.4000244141</ele>
        <time>2012-07-01T09:12:02Z</time>
      </trkpt>
      <trkpt lat="45.53441" lon="6.66194">
        <ele>1374.4000244141</ele>
        <time>2012-07-01T09:12:05Z</time>
      </trkpt>
      <trkpt lat="45.53443" lon="6.66194">
        <ele>1374.4000244141</ele>
        <time>2012-07-01T09:12:06Z</time>
      </trkpt>
      <trkpt lat="45.53452" lon="6.66196">
        <ele>1373.4000244141</ele>
        <time>2012-07-01T09:12:10Z</time>
      </trkpt>
      <trkpt lat="45.53461" lon="6.66198">
        <ele>1372.1999511719</ele>
        <time>2012-07-01T09:12:15Z</time>
      </trkpt>
      <trkpt lat="45.53463" lon="6.66199">
        <ele>1371</ele>
        <time>2012-07-01T09:12:16Z</time>
      </trkpt>
      <trkpt lat="45.53466" lon="6.66192">
        <ele>1370</ele>
        <time>2012-07-01T09:12:19Z</time>
      </trkpt>
      <trkpt lat="45.53467" lon="6.66188">
        <ele>1369</ele>
        <time>2012-07-01T09:12:20Z</time>
      </trkpt>
      <trkpt lat="45.53476" lon="6.66179">
        <ele>1366.8000488281</ele>
        <time>2012-07-01T09:12:26Z</time>
      </trkpt>
      <trkpt lat="45.53478" lon="6.66176">
        <ele>1366.8000488281</ele>
        <time>2012-07-01T09:12:28Z</time>
      </trkpt>
      <trkpt lat="45.53482" lon="6.66174">
        <ele>1364.5999755859</ele>
        <time>2012-07-01T09:12:31Z</time>
      </trkpt>
      <trkpt lat="45.53485" lon="6.66173">
        <ele>1364.5999755859</ele>
        <time>2012-07-01T09:12:33Z</time>
      </trkpt>
      <trkpt lat="45.53495" lon="6.66168">
        <ele>1360.8000488281</ele>
        <time>2012-07-01T09:12:41Z</time>
      </trkpt>
      <trkpt lat="45.535" lon="6.66167">
        <ele>1360.8000488281</ele>
        <time>2012-07-01T09:12:44Z</time>
      </trkpt>
      <trkpt lat="45.53503" lon="6.66166">
        <ele>1359.5999755859</ele>
        <time>2012-07-01T09:12:46Z</time>
      </trkpt>
      <trkpt lat="45.53505" lon="6.66166">
        <ele>1358.4000244141</ele>
        <time>2012-07-01T09:12:47Z</time>
      </trkpt>
      <trkpt lat="45.53507" lon="6.66165">
        <ele>1357.4000244141</ele>
        <time>2012-07-01T09:12:49Z</time>
      </trkpt>
      <trkpt lat="45.53511" lon="6.66165">
        <ele>1357.4000244141</ele>
        <time>2012-07-01T09:12:53Z</time>
      </trkpt>
      <trkpt lat="45.53518" lon="6.66165">
        <ele>1355.1999511719</ele>
        <time>2012-07-01T09:12:56Z</time>
      </trkpt>
      <trkpt lat="45.53521" lon="6.66166">
        <ele>1355.1999511719</ele>
        <time>2012-07-01T09:12:58Z</time>
      </trkpt>
      <trkpt lat="45.53524" lon="6.66167">
        <ele>1354.1999511719</ele>
        <time>2012-07-01T09:13:00Z</time>
      </trkpt>
      <trkpt lat="45.53532" lon="6.66168">
        <ele>1352</ele>
        <time>2012-07-01T09:13:05Z</time>
      </trkpt>
      <trkpt lat="45.53536" lon="6.66169">
        <ele>1350.8000488281</ele>
        <time>2012-07-01T09:13:07Z</time>
      </trkpt>
      <trkpt lat="45.53542" lon="6.66168">
        <ele>1349.5999755859</ele>
        <time>2012-07-01T09:13:10Z</time>
      </trkpt>
      <trkpt lat="45.53544" lon="6.66167">
        <ele>1349.5999755859</ele>
        <time>2012-07-01T09:13:12Z</time>
      </trkpt>
      <trkpt lat="45.53553" lon="6.66168">
        <ele>1346.8000488281</ele>
        <time>2012-07-01T09:13:16Z</time>
      </trkpt>
      <trkpt lat="45.5356" lon="6.66172">
        <ele>1345.8000488281</ele>
        <time>2012-07-01T09:13:19Z</time>
      </trkpt>
      <trkpt lat="45.53563" lon="6.66174">
        <ele>1344.5999755859</ele>
        <time>2012-07-01T09:13:21Z</time>
      </trkpt>
      <trkpt lat="45.53566" lon="6.66173">
        <ele>1344.5999755859</ele>
        <time>2012-07-01T09:13:22Z</time>
      </trkpt>
      <trkpt lat="45.53584" lon="6.66185">
        <ele>1340</ele>
        <time>2012-07-01T09:13:31Z</time>
      </trkpt>
      <trkpt lat="45.53587" lon="6.66187">
        <ele>1338.8000488281</ele>
        <time>2012-07-01T09:13:33Z</time>
      </trkpt>
      <trkpt lat="45.53591" lon="6.66188">
        <ele>1337.5999755859</ele>
        <time>2012-07-01T09:13:35Z</time>
      </trkpt>
      <trkpt lat="45.53599" lon="6.66193">
        <ele>1337.5999755859</ele>
        <time>2012-07-01T09:13:38Z</time>
      </trkpt>
      <trkpt lat="45.53603" lon="6.66197">
        <ele>1336.1999511719</ele>
        <time>2012-07-01T09:13:40Z</time>
      </trkpt>
      <trkpt lat="45.53606" lon="6.66198">
        <ele>1335.1999511719</ele>
        <time>2012-07-01T09:13:41Z</time>
      </trkpt>
      <trkpt lat="45.53616" lon="6.66204">
        <ele>1333.5999755859</ele>
        <time>2012-07-01T09:13:45Z</time>
      </trkpt>
      <trkpt lat="45.53618" lon="6.66204">
        <ele>1332.4000244141</ele>
        <time>2012-07-01T09:13:46Z</time>
      </trkpt>
      <trkpt lat="45.53623" lon="6.66207">
        <ele>1331.1999511719</ele>
        <time>2012-07-01T09:13:49Z</time>
      </trkpt>
      <trkpt lat="45.53631" lon="6.66214">
        <ele>1329.1999511719</ele>
        <time>2012-07-01T09:13:55Z</time>
      </trkpt>
      <trkpt lat="45.53634" lon="6.66216">
        <ele>1328</ele>
        <time>2012-07-01T09:13:57Z</time>
      </trkpt>
      <trkpt lat="45.53645" lon="6.66216">
        <ele>1325.8000488281</ele>
        <time>2012-07-01T09:14:02Z</time>
      </trkpt>
      <trkpt lat="45.53648" lon="6.66216">
        <ele>1325.8000488281</ele>
        <time>2012-07-01T09:14:03Z</time>
      </trkpt>
      <trkpt lat="45.53651" lon="6.66216">
        <ele>1324.8000488281</ele>
        <time>2012-07-01T09:14:05Z</time>
      </trkpt>
      <trkpt lat="45.53656" lon="6.66215">
        <ele>1323.5999755859</ele>
        <time>2012-07-01T09:14:07Z</time>
      </trkpt>
      <trkpt lat="45.53662" lon="6.66213">
        <ele>1321.5999755859</ele>
        <time>2012-07-01T09:14:09Z</time>
      </trkpt>
      <trkpt lat="45.53673" lon="6.66216">
        <ele>1321.5999755859</ele>
        <time>2012-07-01T09:14:13Z</time>
      </trkpt>
      <trkpt lat="45.53683" lon="6.66236">
        <ele>1318</ele>
        <time>2012-07-01T09:14:22Z</time>
      </trkpt>
      <trkpt lat="45.53683" lon="6.66239">
        <ele>1316.4000244141</ele>
        <time>2012-07-01T09:14:23Z</time>
      </trkpt>
      <trkpt lat="45.53687" lon="6.6625">
        <ele>1315.1999511719</ele>
        <time>2012-07-01T09:14:27Z</time>
      </trkpt>
      <trkpt lat="45.53688" lon="6.66255">
        <ele>1315.1999511719</ele>
        <time>2012-07-01T09:14:29Z</time>
      </trkpt>
      <trkpt lat="45.53687" lon="6.66259">
        <ele>1313.1999511719</ele>
        <time>2012-07-01T09:14:31Z</time>
      </trkpt>
      <trkpt lat="45.53688" lon="6.66262">
        <ele>1313.1999511719</ele>
        <time>2012-07-01T09:14:32Z</time>
      </trkpt>
      <trkpt lat="45.53691" lon="6.66275">
        <ele>1310.8000488281</ele>
        <time>2012-07-01T09:14:37Z</time>
      </trkpt>
      <trkpt lat="45.53694" lon="6.66282">
        <ele>1309.5999755859</ele>
        <time>2012-07-01T09:14:39Z</time>
      </trkpt>
      <trkpt lat="45.53697" lon="6.66287">
        <ele>1308.4000244141</ele>
        <time>2012-07-01T09:14:42Z</time>
      </trkpt>
      <trkpt lat="45.537" lon="6.66299">
        <ele>1306</ele>
        <time>2012-07-01T09:14:52Z</time>
      </trkpt>
      <trkpt lat="45.53703" lon="6.66297">
        <ele>1305</ele>
        <time>2012-07-01T09:14:54Z</time>
      </trkpt>
      <trkpt lat="45.53715" lon="6.66292">
        <ele>1301.4000244141</ele>
        <time>2012-07-01T09:15:01Z</time>
      </trkpt>
      <trkpt lat="45.53718" lon="6.66291">
        <ele>1300.4000244141</ele>
        <time>2012-07-01T09:15:03Z</time>
      </trkpt>
      <trkpt lat="45.53729" lon="6.66287">
        <ele>1298.4000244141</ele>
        <time>2012-07-01T09:15:09Z</time>
      </trkpt>
      <trkpt lat="45.53737" lon="6.66286">
        <ele>1297.1999511719</ele>
        <time>2012-07-01T09:15:13Z</time>
      </trkpt>
      <trkpt lat="45.53748" lon="6.6629">
        <ele>1293.5999755859</ele>
        <time>2012-07-01T09:15:19Z</time>
      </trkpt>
      <trkpt lat="45.53752" lon="6.6629">
        <ele>1292.5999755859</ele>
        <time>2012-07-01T09:15:21Z</time>
      </trkpt>
      <trkpt lat="45.53774" lon="6.66291">
        <ele>1288.1999511719</ele>
        <time>2012-07-01T09:15:43Z</time>
      </trkpt>
      <trkpt lat="45.53776" lon="6.66291">
        <ele>1287.1999511719</ele>
        <time>2012-07-01T09:15:44Z</time>
      </trkpt>
      <trkpt lat="45.53779" lon="6.66297">
        <ele>1286.1999511719</ele>
        <time>2012-07-01T09:15:48Z</time>
      </trkpt>
      <trkpt lat="45.53778" lon="6.66314">
        <ele>1286.1999511719</ele>
        <time>2012-07-01T09:15:54Z</time>
      </trkpt>
      <trkpt lat="45.53777" lon="6.66329">
        <ele>1286.1999511719</ele>
        <time>2012-07-01T09:15:59Z</time>
      </trkpt>
      <trkpt lat="45.53784" lon="6.66333">
        <ele>1286.1999511719</ele>
        <time>2012-07-01T09:16:03Z</time>
      </trkpt>
      <trkpt lat="45.53797" lon="6.66334">
        <ele>1286.1999511719</ele>
        <time>2012-07-01T09:16:11Z</time>
      </trkpt>
      <trkpt lat="45.53812" lon="6.66334">
        <ele>1285</ele>
        <time>2012-07-01T09:16:19Z</time>
      </trkpt>
      <trkpt lat="45.53817" lon="6.66334">
        <ele>1283</ele>
        <time>2012-07-01T09:16:22Z</time>
      </trkpt>
      <trkpt lat="45.53838" lon="6.66339">
        <ele>1280.1999511719</ele>
        <time>2012-07-01T09:16:32Z</time>
      </trkpt>
      <trkpt lat="45.53846" lon="6.66341">
        <ele>1279</ele>
        <time>2012-07-01T09:16:37Z</time>
      </trkpt>
      <trkpt lat="45.53855" lon="6.66342">
        <ele>1276.4000244141</ele>
        <time>2012-07-01T09:16:43Z</time>
      </trkpt>
      <trkpt lat="45.53855" lon="6.66337">
        <ele>1275</ele>
        <time>2012-07-01T09:16:46Z</time>
      </trkpt>
      <trkpt lat="45.53855" lon="6.66334">
        <ele>1273</ele>
        <time>2012-07-01T09:16:49Z</time>
      </trkpt>
      <trkpt lat="45.53852" lon="6.6633">
        <ele>1271.8000488281</ele>
        <time>2012-07-01T09:16:54Z</time>
      </trkpt>
      <trkpt lat="45.53848" lon="6.66325">
        <ele>1269.5999755859</ele>
        <time>2012-07-01T09:16:57Z</time>
      </trkpt>
      <trkpt lat="45.53844" lon="6.66319">
        <ele>1269.5999755859</ele>
        <time>2012-07-01T09:17:00Z</time>
      </trkpt>
      <trkpt lat="45.53846" lon="6.66306">
        <ele>1262.5999755859</ele>
        <time>2012-07-01T09:17:14Z</time>
      </trkpt>
      <trkpt lat="45.53846" lon="6.66304">
        <ele>1261.5999755859</ele>
        <time>2012-07-01T09:17:15Z</time>
      </trkpt>
      <trkpt lat="45.53856" lon="6.66302">
        <ele>1258.1999511719</ele>
        <time>2012-07-01T09:17:21Z</time>
      </trkpt>
      <trkpt lat="45.53864" lon="6.66299">
        <ele>1255.8000488281</ele>
        <time>2012-07-01T09:17:26Z</time>
      </trkpt>
      <trkpt lat="45.53872" lon="6.66296">
        <ele>1253.5999755859</ele>
        <time>2012-07-01T09:17:32Z</time>
      </trkpt>
      <trkpt lat="45.53873" lon="6.66296">
        <ele>1252.5999755859</ele>
        <time>2012-07-01T09:17:33Z</time>
      </trkpt>
      <trkpt lat="45.53879" lon="6.66294">
        <ele>1250.1999511719</ele>
        <time>2012-07-01T09:17:38Z</time>
      </trkpt>
      <trkpt lat="45.53885" lon="6.66296">
        <ele>1249</ele>
        <time>2012-07-01T09:17:42Z</time>
      </trkpt>
      <trkpt lat="45.53898" lon="6.66308">
        <ele>1247.5999755859</ele>
        <time>2012-07-01T09:17:49Z</time>
      </trkpt>
      <trkpt lat="45.53914" lon="6.6632">
        <ele>1245.4000244141</ele>
        <time>2012-07-01T09:17:57Z</time>
      </trkpt>
      <trkpt lat="45.53926" lon="6.66328">
        <ele>1243</ele>
        <time>2012-07-01T09:18:03Z</time>
      </trkpt>
      <trkpt lat="45.53942" lon="6.66342">
        <ele>1241</ele>
        <time>2012-07-01T09:18:10Z</time>
      </trkpt>
      <trkpt lat="45.53953" lon="6.66349">
        <ele>1241</ele>
        <time>2012-07-01T09:18:14Z</time>
      </trkpt>
      <trkpt lat="45.53965" lon="6.66368">
        <ele>1238.8000488281</ele>
        <time>2012-07-01T09:18:20Z</time>
      </trkpt>
      <trkpt lat="45.53972" lon="6.66377">
        <ele>1238.8000488281</ele>
        <time>2012-07-01T09:18:23Z</time>
      </trkpt>
      <trkpt lat="45.53983" lon="6.66386">
        <ele>1236.5999755859</ele>
        <time>2012-07-01T09:18:28Z</time>
      </trkpt>
      <trkpt lat="45.53983" lon="6.66386">
        <ele>1236.5999755859</ele>
        <time>2012-07-01T09:18:32Z</time>
      </trkpt>
      <trkpt lat="45.53999" lon="6.66437">
        <ele>1231.8000488281</ele>
        <time>2012-07-01T09:19:01Z</time>
      </trkpt>
      <trkpt lat="45.53999" lon="6.66441">
        <ele>1230.5999755859</ele>
        <time>2012-07-01T09:19:02Z</time>
      </trkpt>
      <trkpt lat="45.53999" lon="6.66462">
        <ele>1229.4000244141</ele>
        <time>2012-07-01T09:19:08Z</time>
      </trkpt>
      <trkpt lat="45.54004" lon="6.66469">
        <ele>1228.1999511719</ele>
        <time>2012-07-01T09:19:11Z</time>
      </trkpt>
      <trkpt lat="45.54013" lon="6.66484">
        <ele>1227.1999511719</ele>
        <time>2012-07-01T09:19:16Z</time>
      </trkpt>
      <trkpt lat="45.54014" lon="6.66487">
        <ele>1226.1999511719</ele>
        <time>2012-07-01T09:19:17Z</time>
      </trkpt>
      <trkpt lat="45.54017" lon="6.66507">
        <ele>1224</ele>
        <time>2012-07-01T09:19:22Z</time>
      </trkpt>
      <trkpt lat="45.54024" lon="6.66524">
        <ele>1224</ele>
        <time>2012-07-01T09:19:26Z</time>
      </trkpt>
      <trkpt lat="45.54034" lon="6.66552">
        <ele>1221.8000488281</ele>
        <time>2012-07-01T09:19:34Z</time>
      </trkpt>
      <trkpt lat="45.54051" lon="6.66566">
        <ele>1219.1999511719</ele>
        <time>2012-07-01T09:19:47Z</time>
      </trkpt>
      <trkpt lat="45.5406" lon="6.66562">
        <ele>1217.8000488281</ele>
        <time>2012-07-01T09:19:52Z</time>
      </trkpt>
      <trkpt lat="45.54073" lon="6.66561">
        <ele>1215.5999755859</ele>
        <time>2012-07-01T09:19:58Z</time>
      </trkpt>
      <trkpt lat="45.54077" lon="6.6656">
        <ele>1215.5999755859</ele>
        <time>2012-07-01T09:19:59Z</time>
      </trkpt>
      <trkpt lat="45.54097" lon="6.66565">
        <ele>1211.8000488281</ele>
        <time>2012-07-01T09:20:07Z</time>
      </trkpt>
      <trkpt lat="45.54106" lon="6.66567">
        <ele>1210.8000488281</ele>
        <time>2012-07-01T09:20:11Z</time>
      </trkpt>
      <trkpt lat="45.54111" lon="6.66574">
        <ele>1209.4000244141</ele>
        <time>2012-07-01T09:20:15Z</time>
      </trkpt>
      <trkpt lat="45.54116" lon="6.66575">
        <ele>1209.4000244141</ele>
        <time>2012-07-01T09:20:17Z</time>
      </trkpt>
      <trkpt lat="45.54152" lon="6.6656">
        <ele>1203.4000244141</ele>
        <time>2012-07-01T09:20:34Z</time>
      </trkpt>
      <trkpt lat="45.54157" lon="6.66558">
        <ele>1203.4000244141</ele>
        <time>2012-07-01T09:20:36Z</time>
      </trkpt>
      <trkpt lat="45.5417" lon="6.6655">
        <ele>1201.1999511719</ele>
        <time>2012-07-01T09:20:42Z</time>
      </trkpt>
      <trkpt lat="45.54177" lon="6.66554">
        <ele>1200.1999511719</ele>
        <time>2012-07-01T09:20:45Z</time>
      </trkpt>
      <trkpt lat="45.54185" lon="6.66568">
        <ele>1199</ele>
        <time>2012-07-01T09:20:50Z</time>
      </trkpt>
      <trkpt lat="45.54187" lon="6.66572">
        <ele>1197.8000488281</ele>
        <time>2012-07-01T09:20:51Z</time>
      </trkpt>
      <trkpt lat="45.54201" lon="6.66604">
        <ele>1196.8000488281</ele>
        <time>2012-07-01T09:21:02Z</time>
      </trkpt>
      <trkpt lat="45.54208" lon="6.66618">
        <ele>1196.8000488281</ele>
        <time>2012-07-01T09:21:08Z</time>
      </trkpt>
      <trkpt lat="45.54232" lon="6.66616">
        <ele>1194.5999755859</ele>
        <time>2012-07-01T09:21:17Z</time>
      </trkpt>
      <trkpt lat="45.54254" lon="6.66614">
        <ele>1192.1999511719</ele>
        <time>2012-07-01T09:21:25Z</time>
      </trkpt>
      <trkpt lat="45.54259" lon="6.66617">
        <ele>1189.8000488281</ele>
        <time>2012-07-01T09:21:27Z</time>
      </trkpt>
      <trkpt lat="45.54269" lon="6.66624">
        <ele>1187.5999755859</ele>
        <time>2012-07-01T09:21:33Z</time>
      </trkpt>
      <trkpt lat="45.54272" lon="6.66626">
        <ele>1186.4000244141</ele>
        <time>2012-07-01T09:21:34Z</time>
      </trkpt>
      <trkpt lat="45.54281" lon="6.66633">
        <ele>1185</ele>
        <time>2012-07-01T09:21:39Z</time>
      </trkpt>
      <trkpt lat="45.54285" lon="6.66637">
        <ele>1182.8000488281</ele>
        <time>2012-07-01T09:21:41Z</time>
      </trkpt>
      <trkpt lat="45.54296" lon="6.66646">
        <ele>1182.8000488281</ele>
        <time>2012-07-01T09:21:46Z</time>
      </trkpt>
      <trkpt lat="45.543" lon="6.66651">
        <ele>1181.8000488281</ele>
        <time>2012-07-01T09:21:48Z</time>
      </trkpt>
      <trkpt lat="45.54324" lon="6.66684">
        <ele>1176.1999511719</ele>
        <time>2012-07-01T09:22:04Z</time>
      </trkpt>
      <trkpt lat="45.54326" lon="6.66684">
        <ele>1175.1999511719</ele>
        <time>2012-07-01T09:22:05Z</time>
      </trkpt>
      <trkpt lat="45.54342" lon="6.66684">
        <ele>1173.1999511719</ele>
        <time>2012-07-01T09:22:11Z</time>
      </trkpt>
      <trkpt lat="45.5435" lon="6.66684">
        <ele>1171.8000488281</ele>
        <time>2012-07-01T09:22:14Z</time>
      </trkpt>
      <trkpt lat="45.54361" lon="6.66687">
        <ele>1169.5999755859</ele>
        <time>2012-07-01T09:22:19Z</time>
      </trkpt>
      <trkpt lat="45.54368" lon="6.66686">
        <ele>1168.4000244141</ele>
        <time>2012-07-01T09:22:22Z</time>
      </trkpt>
      <trkpt lat="45.54385" lon="6.66684">
        <ele>1167.1999511719</ele>
        <time>2012-07-01T09:22:28Z</time>
      </trkpt>
      <trkpt lat="45.54394" lon="6.66686">
        <ele>1165</ele>
        <time>2012-07-01T09:22:32Z</time>
      </trkpt>
      <trkpt lat="45.54404" lon="6.66691">
        <ele>1164</ele>
        <time>2012-07-01T09:22:37Z</time>
      </trkpt>
      <trkpt lat="45.5442" lon="6.66705">
        <ele>1161.8000488281</ele>
        <time>2012-07-01T09:22:45Z</time>
      </trkpt>
      <trkpt lat="45.54427" lon="6.66712">
        <ele>1160.4000244141</ele>
        <time>2012-07-01T09:22:49Z</time>
      </trkpt>
      <trkpt lat="45.54435" lon="6.66718">
        <ele>1159.1999511719</ele>
        <time>2012-07-01T09:22:53Z</time>
      </trkpt>
      <trkpt lat="45.54444" lon="6.66721">
        <ele>1158.1999511719</ele>
        <time>2012-07-01T09:22:57Z</time>
      </trkpt>
      <trkpt lat="45.54459" lon="6.66731">
        <ele>1156</ele>
        <time>2012-07-01T09:23:03Z</time>
      </trkpt>
      <trkpt lat="45.54465" lon="6.66735">
        <ele>1155</ele>
        <time>2012-07-01T09:23:06Z</time>
      </trkpt>
      <trkpt lat="45.54489" lon="6.66754">
        <ele>1151.5999755859</ele>
        <time>2012-07-01T09:23:17Z</time>
      </trkpt>
      <trkpt lat="45.54493" lon="6.66758">
        <ele>1151.5999755859</ele>
        <time>2012-07-01T09:23:19Z</time>
      </trkpt>
      <trkpt lat="45.5453" lon="6.66803">
        <ele>1150.5999755859</ele>
        <time>2012-07-01T09:23:37Z</time>
      </trkpt>
      <trkpt lat="45.54532" lon="6.66806">
        <ele>1150.5999755859</ele>
        <time>2012-07-01T09:23:38Z</time>
      </trkpt>
      <trkpt lat="45.54544" lon="6.66836">
        <ele>1150.5999755859</ele>
        <time>2012-07-01T09:23:46Z</time>
      </trkpt>
      <trkpt lat="45.54551" lon="6.66855">
        <ele>1150.5999755859</ele>
        <time>2012-07-01T09:23:52Z</time>
      </trkpt>
      <trkpt lat="45.54559" lon="6.66875">
        <ele>1149.1999511719</ele>
        <time>2012-07-01T09:23:58Z</time>
      </trkpt>
      <trkpt lat="45.54561" lon="6.6688">
        <ele>1149.1999511719</ele>
        <time>2012-07-01T09:23:59Z</time>
      </trkpt>
      <trkpt lat="45.54579" lon="6.66892">
        <ele>1148.1999511719</ele>
        <time>2012-07-01T09:24:06Z</time>
      </trkpt>
      <trkpt lat="45.54593" lon="6.66905">
        <ele>1148.1999511719</ele>
        <time>2012-07-01T09:24:11Z</time>
      </trkpt>
      <trkpt lat="45.54607" lon="6.66929">
        <ele>1147</ele>
        <time>2012-07-01T09:24:18Z</time>
      </trkpt>
      <trkpt lat="45.54622" lon="6.66967">
        <ele>1144.8000488281</ele>
        <time>2012-07-01T09:24:30Z</time>
      </trkpt>
      <trkpt lat="45.54624" lon="6.66975">
        <ele>1143.5999755859</ele>
        <time>2012-07-01T09:24:33Z</time>
      </trkpt>
      <trkpt lat="45.54634" lon="6.66997">
        <ele>1140.1999511719</ele>
        <time>2012-07-01T09:24:40Z</time>
      </trkpt>
      <trkpt lat="45.54638" lon="6.67003">
        <ele>1140.1999511719</ele>
        <time>2012-07-01T09:24:42Z</time>
      </trkpt>
      <trkpt lat="45.54643" lon="6.67018">
        <ele>1136.8000488281</ele>
        <time>2012-07-01T09:24:47Z</time>
      </trkpt>
      <trkpt lat="45.54644" lon="6.67026">
        <ele>1135.4000244141</ele>
        <time>2012-07-01T09:24:50Z</time>
      </trkpt>
      <trkpt lat="45.54651" lon="6.67037">
        <ele>1134.4000244141</ele>
        <time>2012-07-01T09:24:55Z</time>
      </trkpt>
      <trkpt lat="45.54653" lon="6.6704">
        <ele>1133</ele>
        <time>2012-07-01T09:24:56Z</time>
      </trkpt>
      <trkpt lat="45.54664" lon="6.67071">
        <ele>1128.1999511719</ele>
        <time>2012-07-01T09:25:08Z</time>
      </trkpt>
      <trkpt lat="45.54665" lon="6.67079">
        <ele>1127.1999511719</ele>
        <time>2012-07-01T09:25:11Z</time>
      </trkpt>
      <trkpt lat="45.54672" lon="6.671">
        <ele>1124.8000488281</ele>
        <time>2012-07-01T09:25:18Z</time>
      </trkpt>
      <trkpt lat="45.54679" lon="6.67116">
        <ele>1124.8000488281</ele>
        <time>2012-07-01T09:25:25Z</time>
      </trkpt>
      <trkpt lat="45.54682" lon="6.67139">
        <ele>1124.8000488281</ele>
        <time>2012-07-01T09:25:33Z</time>
      </trkpt>
      <trkpt lat="45.54686" lon="6.67152">
        <ele>1124.8000488281</ele>
        <time>2012-07-01T09:25:38Z</time>
      </trkpt>
      <trkpt lat="45.54699" lon="6.67169">
        <ele>1128.8000488281</ele>
        <time>2012-07-01T09:25:48Z</time>
      </trkpt>
      <trkpt lat="45.54706" lon="6.67176">
        <ele>1128.8000488281</ele>
        <time>2012-07-01T09:25:53Z</time>
      </trkpt>
      <trkpt lat="45.54719" lon="6.67183">
        <ele>1129.8000488281</ele>
        <time>2012-07-01T09:26:02Z</time>
      </trkpt>
      <trkpt lat="45.54725" lon="6.67172">
        <ele>1129.8000488281</ele>
        <time>2012-07-01T09:26:11Z</time>
      </trkpt>
      <trkpt lat="45.54726" lon="6.67171">
        <ele>1126.8000488281</ele>
        <time>2012-07-01T09:26:13Z</time>
      </trkpt>
      <trkpt lat="45.5473" lon="6.67173">
        <ele>1126.8000488281</ele>
        <time>2012-07-01T09:26:27Z</time>
      </trkpt>
      <trkpt lat="45.5473" lon="6.67172">
        <ele>1126.8000488281</ele>
        <time>2012-07-01T09:26:29Z</time>
      </trkpt>
      <trkpt lat="45.54733" lon="6.67164">
        <ele>1124.4000244141</ele>
        <time>2012-07-01T09:26:35Z</time>
      </trkpt>
      <trkpt lat="45.54739" lon="6.67159">
        <ele>1122.1999511719</ele>
        <time>2012-07-01T09:26:39Z</time>
      </trkpt>
      <trkpt lat="45.54742" lon="6.67153">
        <ele>1120</ele>
        <time>2012-07-01T09:26:44Z</time>
      </trkpt>
      <trkpt lat="45.54743" lon="6.67153">
        <ele>1118.8000488281</ele>
        <time>2012-07-01T09:26:46Z</time>
      </trkpt>
      <trkpt lat="45.54755" lon="6.67146">
        <ele>1112.8000488281</ele>
        <time>2012-07-01T09:26:56Z</time>
      </trkpt>
      <trkpt lat="45.54756" lon="6.67145">
        <ele>1112.8000488281</ele>
        <time>2012-07-01T09:26:57Z</time>
      </trkpt>
      <trkpt lat="45.54763" lon="6.67136">
        <ele>1109.4000244141</ele>
        <time>2012-07-01T09:27:03Z</time>
      </trkpt>
      <trkpt lat="45.54766" lon="6.67136">
        <ele>1108.1999511719</ele>
        <time>2012-07-01T09:27:06Z</time>
      </trkpt>
      <trkpt lat="45.54772" lon="6.6714">
        <ele>1106</ele>
        <time>2012-07-01T09:27:12Z</time>
      </trkpt>
      <trkpt lat="45.54772" lon="6.6714">
        <ele>1106</ele>
        <time>2012-07-01T09:27:16Z</time>
      </trkpt>
      <trkpt lat="45.54776" lon="6.6714">
        <ele>1105</ele>
        <time>2012-07-01T09:27:27Z</time>
      </trkpt>
      <trkpt lat="45.54778" lon="6.67143">
        <ele>1102.8000488281</ele>
        <time>2012-07-01T09:27:29Z</time>
      </trkpt>
      <trkpt lat="45.54783" lon="6.67146">
        <ele>1100.8000488281</ele>
        <time>2012-07-01T09:27:33Z</time>
      </trkpt>
      <trkpt lat="45.54788" lon="6.67153">
        <ele>1098.1999511719</ele>
        <time>2012-07-01T09:27:37Z</time>
      </trkpt>
      <trkpt lat="45.54793" lon="6.67164">
        <ele>1097.1999511719</ele>
        <time>2012-07-01T09:27:41Z</time>
      </trkpt>
      <trkpt lat="45.54799" lon="6.67176">
        <ele>1094.8000488281</ele>
        <time>2012-07-01T09:27:46Z</time>
      </trkpt>
      <trkpt lat="45.54803" lon="6.67181">
        <ele>1093.8000488281</ele>
        <time>2012-07-01T09:27:49Z</time>
      </trkpt>
      <trkpt lat="45.54817" lon="6.67188">
        <ele>1091.4000244141</ele>
        <time>2012-07-01T09:27:56Z</time>
      </trkpt>
      <trkpt lat="45.54819" lon="6.67191">
        <ele>1090.1999511719</ele>
        <time>2012-07-01T09:27:59Z</time>
      </trkpt>
      <trkpt lat="45.54826" lon="6.67195">
        <ele>1088</ele>
        <time>2012-07-01T09:28:05Z</time>
      </trkpt>
      <trkpt lat="45.54827" lon="6.67197">
        <ele>1088</ele>
        <time>2012-07-01T09:28:08Z</time>
      </trkpt>
      <trkpt lat="45.54836" lon="6.67207">
        <ele>1082.1999511719</ele>
        <time>2012-07-01T09:28:19Z</time>
      </trkpt>
      <trkpt lat="45.54838" lon="6.67208">
        <ele>1082.1999511719</ele>
        <time>2012-07-01T09:28:20Z</time>
      </trkpt>
      <trkpt lat="45.54841" lon="6.67214">
        <ele>1079.8000488281</ele>
        <time>2012-07-01T09:28:24Z</time>
      </trkpt>
      <trkpt lat="45.54842" lon="6.67216">
        <ele>1078.5999755859</ele>
        <time>2012-07-01T09:28:27Z</time>
      </trkpt>
      <trkpt lat="45.54846" lon="6.67221">
        <ele>1076.4000244141</ele>
        <time>2012-07-01T09:28:33Z</time>
      </trkpt>
      <trkpt lat="45.54849" lon="6.67223">
        <ele>1075.1999511719</ele>
        <time>2012-07-01T09:28:36Z</time>
      </trkpt>
      <trkpt lat="45.54852" lon="6.67225">
        <ele>1072.8000488281</ele>
        <time>2012-07-01T09:28:40Z</time>
      </trkpt>
      <trkpt lat="45.54852" lon="6.67225">
        <ele>1071.5999755859</ele>
        <time>2012-07-01T09:28:42Z</time>
      </trkpt>
      <trkpt lat="45.5486" lon="6.6723">
        <ele>1070.5999755859</ele>
        <time>2012-07-01T09:28:46Z</time>
      </trkpt>
      <trkpt lat="45.5487" lon="6.67235">
        <ele>1066.5999755859</ele>
        <time>2012-07-01T09:28:52Z</time>
      </trkpt>
      <trkpt lat="45.54873" lon="6.67236">
        <ele>1065.5999755859</ele>
        <time>2012-07-01T09:28:54Z</time>
      </trkpt>
      <trkpt lat="45.54881" lon="6.67242">
        <ele>1063.1999511719</ele>
        <time>2012-07-01T09:28:59Z</time>
      </trkpt>
      <trkpt lat="45.54885" lon="6.67241">
        <ele>1063.1999511719</ele>
        <time>2012-07-01T09:29:01Z</time>
      </trkpt>
      <trkpt lat="45.54887" lon="6.67231">
        <ele>1059.8000488281</ele>
        <time>2012-07-01T09:29:07Z</time>
      </trkpt>
      <trkpt lat="45.54886" lon="6.67227">
        <ele>1057.5999755859</ele>
        <time>2012-07-01T09:29:10Z</time>
      </trkpt>
      <trkpt lat="45.54885" lon="6.67222">
        <ele>1056.5999755859</ele>
        <time>2012-07-01T09:29:14Z</time>
      </trkpt>
      <trkpt lat="45.54885" lon="6.6722">
        <ele>1056.5999755859</ele>
        <time>2012-07-01T09:29:15Z</time>
      </trkpt>
      <trkpt lat="45.54896" lon="6.67212">
        <ele>1050.4000244141</ele>
        <time>2012-07-01T09:29:30Z</time>
      </trkpt>
      <trkpt lat="45.54901" lon="6.67218">
        <ele>1049.4000244141</ele>
        <time>2012-07-01T09:29:33Z</time>
      </trkpt>
      <trkpt lat="45.54916" lon="6.67237">
        <ele>1048.1999511719</ele>
        <time>2012-07-01T09:29:42Z</time>
      </trkpt>
      <trkpt lat="45.54925" lon="6.67248">
        <ele>1046.1999511719</ele>
        <time>2012-07-01T09:29:47Z</time>
      </trkpt>
      <trkpt lat="45.5494" lon="6.67277">
        <ele>1044</ele>
        <time>2012-07-01T09:29:57Z</time>
      </trkpt>
      <trkpt lat="45.54943" lon="6.67283">
        <ele>1044</ele>
        <time>2012-07-01T09:29:59Z</time>
      </trkpt>
      <trkpt lat="45.54956" lon="6.67316">
        <ele>1043</ele>
        <time>2012-07-01T09:30:10Z</time>
      </trkpt>
      <trkpt lat="45.54968" lon="6.67318">
        <ele>1041.8000488281</ele>
        <time>2012-07-01T09:30:15Z</time>
      </trkpt>
      <trkpt lat="45.54979" lon="6.6734">
        <ele>1041.8000488281</ele>
        <time>2012-07-01T09:30:24Z</time>
      </trkpt>
      <trkpt lat="45.54986" lon="6.67355">
        <ele>1037</ele>
        <time>2012-07-01T09:30:33Z</time>
      </trkpt>
      <trkpt lat="45.54992" lon="6.67362">
        <ele>1034.8000488281</ele>
        <time>2012-07-01T09:30:36Z</time>
      </trkpt>
      <trkpt lat="45.54999" lon="6.67374">
        <ele>1032.4000244141</ele>
        <time>2012-07-01T09:30:42Z</time>
      </trkpt>
      <trkpt lat="45.55001" lon="6.67378">
        <ele>1031</ele>
        <time>2012-07-01T09:30:45Z</time>
      </trkpt>
      <trkpt lat="45.55005" lon="6.67369">
        <ele>1028.5999755859</ele>
        <time>2012-07-01T09:30:50Z</time>
      </trkpt>
      <trkpt lat="45.55006" lon="6.6737">
        <ele>1026.1999511719</ele>
        <time>2012-07-01T09:30:53Z</time>
      </trkpt>
      <trkpt lat="45.55007" lon="6.67373">
        <ele>1023.799987793</ele>
        <time>2012-07-01T09:30:56Z</time>
      </trkpt>
      <trkpt lat="45.55009" lon="6.67374">
        <ele>1023.799987793</ele>
        <time>2012-07-01T09:30:57Z</time>
      </trkpt>
      <trkpt lat="45.55028" lon="6.6741">
        <ele>1015.799987793</ele>
        <time>2012-07-01T09:31:14Z</time>
      </trkpt>
      <trkpt lat="45.55029" lon="6.67412">
        <ele>1015.799987793</ele>
        <time>2012-07-01T09:31:15Z</time>
      </trkpt>
      <trkpt lat="45.5503" lon="6.67426">
        <ele>1013.4000244141</ele>
        <time>2012-07-01T09:31:20Z</time>
      </trkpt>
      <trkpt lat="45.55029" lon="6.67434">
        <ele>1011.200012207</ele>
        <time>2012-07-01T09:31:23Z</time>
      </trkpt>
      <trkpt lat="45.55026" lon="6.67446">
        <ele>1009.200012207</ele>
        <time>2012-07-01T09:31:28Z</time>
      </trkpt>
      <trkpt lat="45.55025" lon="6.67449">
        <ele>1007.799987793</ele>
        <time>2012-07-01T09:31:30Z</time>
      </trkpt>
      <trkpt lat="45.55026" lon="6.67458">
        <ele>1005.5999755859</ele>
        <time>2012-07-01T09:31:34Z</time>
      </trkpt>
      <trkpt lat="45.55027" lon="6.67465">
        <ele>1003.4000244141</ele>
        <time>2012-07-01T09:31:38Z</time>
      </trkpt>
      <trkpt lat="45.55028" lon="6.67473">
        <ele>1001</ele>
        <time>2012-07-01T09:31:41Z</time>
      </trkpt>
      <trkpt lat="45.55026" lon="6.67496">
        <ele>997.59997558594</ele>
        <time>2012-07-01T09:31:49Z</time>
      </trkpt>
      <trkpt lat="45.55027" lon="6.67499">
        <ele>996.59997558594</ele>
        <time>2012-07-01T09:31:51Z</time>
      </trkpt>
      <trkpt lat="45.55031" lon="6.67508">
        <ele>993</ele>
        <time>2012-07-01T09:31:56Z</time>
      </trkpt>
      <trkpt lat="45.55032" lon="6.67508">
        <ele>993</ele>
        <time>2012-07-01T09:31:59Z</time>
      </trkpt>
      <trkpt lat="45.55039" lon="6.67509">
        <ele>992</ele>
        <time>2012-07-01T09:32:05Z</time>
      </trkpt>
      <trkpt lat="45.55041" lon="6.67506">
        <ele>989.59997558594</ele>
        <time>2012-07-01T09:32:08Z</time>
      </trkpt>
      <trkpt lat="45.55049" lon="6.67505">
        <ele>989.59997558594</ele>
        <time>2012-07-01T09:32:11Z</time>
      </trkpt>
      <trkpt lat="45.55051" lon="6.67504">
        <ele>988.59997558594</ele>
        <time>2012-07-01T09:32:12Z</time>
      </trkpt>
      <trkpt lat="45.55073" lon="6.67484">
        <ele>983</ele>
        <time>2012-07-01T09:32:25Z</time>
      </trkpt>
      <trkpt lat="45.55075" lon="6.67483">
        <ele>983</ele>
        <time>2012-07-01T09:32:26Z</time>
      </trkpt>
      <trkpt lat="45.55075" lon="6.67472">
        <ele>981.79998779297</ele>
        <time>2012-07-01T09:32:30Z</time>
      </trkpt>
      <trkpt lat="45.55083" lon="6.67466">
        <ele>980.59997558594</ele>
        <time>2012-07-01T09:32:35Z</time>
      </trkpt>
      <trkpt lat="45.55089" lon="6.67465">
        <ele>978.40002441406</ele>
        <time>2012-07-01T09:32:39Z</time>
      </trkpt>
      <trkpt lat="45.55093" lon="6.67464">
        <ele>978.40002441406</ele>
        <time>2012-07-01T09:32:41Z</time>
      </trkpt>
      <trkpt lat="45.55111" lon="6.67463">
        <ele>976</ele>
        <time>2012-07-01T09:32:49Z</time>
      </trkpt>
      <trkpt lat="45.5512" lon="6.67461">
        <ele>974.79998779297</ele>
        <time>2012-07-01T09:32:53Z</time>
      </trkpt>
      <trkpt lat="45.55148" lon="6.6746">
        <ele>971.40002441406</ele>
        <time>2012-07-01T09:33:05Z</time>
      </trkpt>
      <trkpt lat="45.55162" lon="6.67464">
        <ele>969.20001220703</ele>
        <time>2012-07-01T09:33:13Z</time>
      </trkpt>
      <trkpt lat="45.55162" lon="6.67464">
        <ele>969.20001220703</ele>
        <time>2012-07-01T09:33:20Z</time>
      </trkpt>
      <trkpt lat="45.55163" lon="6.67466">
        <ele>969.20001220703</ele>
        <time>2012-07-01T09:33:31Z</time>
      </trkpt>
      <trkpt lat="45.55163" lon="6.67466">
        <ele>969.20001220703</ele>
        <time>2012-07-01T09:33:34Z</time>
      </trkpt>
      <trkpt lat="45.55169" lon="6.67471">
        <ele>968.20001220703</ele>
        <time>2012-07-01T09:33:44Z</time>
      </trkpt>
      <trkpt lat="45.55178" lon="6.67474">
        <ele>967</ele>
        <time>2012-07-01T09:33:48Z</time>
      </trkpt>
      <trkpt lat="45.55195" lon="6.67478">
        <ele>964.59997558594</ele>
        <time>2012-07-01T09:33:55Z</time>
      </trkpt>
      <trkpt lat="45.55197" lon="6.67479">
        <ele>964.59997558594</ele>
        <time>2012-07-01T09:33:56Z</time>
      </trkpt>
      <trkpt lat="45.55232" lon="6.67482">
        <ele>958.79998779297</ele>
        <time>2012-07-01T09:34:11Z</time>
      </trkpt>
      <trkpt lat="45.55237" lon="6.67482">
        <ele>957.59997558594</ele>
        <time>2012-07-01T09:34:13Z</time>
      </trkpt>
      <trkpt lat="45.5525" lon="6.67491">
        <ele>955.59997558594</ele>
        <time>2012-07-01T09:34:18Z</time>
      </trkpt>
      <trkpt lat="45.55262" lon="6.67507">
        <ele>954.40002441406</ele>
        <time>2012-07-01T09:34:24Z</time>
      </trkpt>
      <trkpt lat="45.55284" lon="6.67507">
        <ele>953.20001220703</ele>
        <time>2012-07-01T09:34:32Z</time>
      </trkpt>
      <trkpt lat="45.55286" lon="6.67506">
        <ele>952</ele>
        <time>2012-07-01T09:34:33Z</time>
      </trkpt>
      <trkpt lat="45.55304" lon="6.67493">
        <ele>949.79998779297</ele>
        <time>2012-07-01T09:34:41Z</time>
      </trkpt>
      <trkpt lat="45.55315" lon="6.6749">
        <ele>949.79998779297</ele>
        <time>2012-07-01T09:34:46Z</time>
      </trkpt>
      <trkpt lat="45.55327" lon="6.67515">
        <ele>947.59997558594</ele>
        <time>2012-07-01T09:34:54Z</time>
      </trkpt>
      <trkpt lat="45.55355" lon="6.67531">
        <ele>944.40002441406</ele>
        <time>2012-07-01T09:35:05Z</time>
      </trkpt>
      <trkpt lat="45.55372" lon="6.67545">
        <ele>943.20001220703</ele>
        <time>2012-07-01T09:35:12Z</time>
      </trkpt>
      <trkpt lat="45.5539" lon="6.67565">
        <ele>940.79998779297</ele>
        <time>2012-07-01T09:35:20Z</time>
      </trkpt>
      <trkpt lat="45.55399" lon="6.67576">
        <ele>939.40002441406</ele>
        <time>2012-07-01T09:35:24Z</time>
      </trkpt>
      <trkpt lat="45.55413" lon="6.67595">
        <ele>938.40002441406</ele>
        <time>2012-07-01T09:35:31Z</time>
      </trkpt>
      <trkpt lat="45.55422" lon="6.67619">
        <ele>936.20001220703</ele>
        <time>2012-07-01T09:35:38Z</time>
      </trkpt>
      <trkpt lat="45.55431" lon="6.67646">
        <ele>934</ele>
        <time>2012-07-01T09:35:46Z</time>
      </trkpt>
      <trkpt lat="45.55433" lon="6.67648">
        <ele>934</ele>
        <time>2012-07-01T09:35:47Z</time>
      </trkpt>
      <trkpt lat="45.55426" lon="6.67714">
        <ele>934</ele>
        <time>2012-07-01T09:36:12Z</time>
      </trkpt>
    </trkseg>
  </trk>
</gpx>